<?xml version="1.0" encoding="UTF-8" standalone="no" ?>
<gpx xmlns="http://www.topografix.com/GPX/1/1" xmlns:xsi="http://www.w3.org/2001/XMLSchema-instance" xsi:schemaLocation="http://www.topografix.com/GPX/1/1 http://www.topografix.com/GPX/1/1/gpx.xsd" version="1.1" creator="VisuGPX - https://www.visugpx.com">
  <metadata>
    <name>Convoyage Chantier Krieg Parempuyre à Royan</name>
    <desc><![CDATA[Voilier "NANO" mini 816 série RG650]]></desc>
  </metadata>
  <trk>
    <name><![CDATA[2017-03-18 19:13:36]]></name>
    <trkseg>
      <trkpt lat="46.10735" lon="-1.25319">
        <ele>30</ele>
        <time>2016-11-19T13:51:41Z</time>
      </trkpt>
      <trkpt lat="46.1074" lon="-1.25347">
        <ele>29.75</ele>
        <time>2016-11-19T13:51:52Z</time>
      </trkpt>
      <trkpt lat="46.10737" lon="-1.25368">
        <ele>29.7</ele>
        <time>2016-11-19T13:52:01Z</time>
      </trkpt>
      <trkpt lat="46.10736" lon="-1.2539">
        <ele>30.08</ele>
        <time>2016-11-19T13:52:09Z</time>
      </trkpt>
      <trkpt lat="46.10739" lon="-1.25406">
        <ele>30.52</ele>
        <time>2016-11-19T13:52:14Z</time>
      </trkpt>
      <trkpt lat="46.10743" lon="-1.25432">
        <ele>30.97</ele>
        <time>2016-11-19T13:52:21Z</time>
      </trkpt>
      <trkpt lat="46.10745" lon="-1.25449">
        <ele>31.25</ele>
        <time>2016-11-19T13:52:26Z</time>
      </trkpt>
      <trkpt lat="46.10745" lon="-1.25456">
        <ele>31.15</ele>
        <time>2016-11-19T13:52:28Z</time>
      </trkpt>
      <trkpt lat="46.10749" lon="-1.25475">
        <ele>30.75</ele>
        <time>2016-11-19T13:52:33Z</time>
      </trkpt>
      <trkpt lat="46.10764" lon="-1.25518">
        <ele>31.22</ele>
        <time>2016-11-19T13:52:44Z</time>
      </trkpt>
      <trkpt lat="46.10778" lon="-1.25552">
        <ele>31.49</ele>
        <time>2016-11-19T13:52:53Z</time>
      </trkpt>
      <trkpt lat="46.10799" lon="-1.25594">
        <ele>30.27</ele>
        <time>2016-11-19T13:53:05Z</time>
      </trkpt>
      <trkpt lat="46.1081" lon="-1.25618">
        <ele>29.88</ele>
        <time>2016-11-19T13:53:12Z</time>
      </trkpt>
      <trkpt lat="46.10818" lon="-1.25636">
        <ele>29.5</ele>
        <time>2016-11-19T13:53:17Z</time>
      </trkpt>
      <trkpt lat="46.10831" lon="-1.25656">
        <ele>29.75</ele>
        <time>2016-11-19T13:53:23Z</time>
      </trkpt>
      <trkpt lat="46.10847" lon="-1.25701">
        <ele>32.1</ele>
        <time>2016-11-19T13:53:36Z</time>
      </trkpt>
      <trkpt lat="46.10854" lon="-1.25732">
        <ele>32.4</ele>
        <time>2016-11-19T13:53:44Z</time>
      </trkpt>
      <trkpt lat="46.10861" lon="-1.2577">
        <ele>31.02</ele>
        <time>2016-11-19T13:53:54Z</time>
      </trkpt>
      <trkpt lat="46.10873" lon="-1.25796">
        <ele>29.82</ele>
        <time>2016-11-19T13:54:01Z</time>
      </trkpt>
      <trkpt lat="46.10882" lon="-1.25809">
        <ele>30.46</ele>
        <time>2016-11-19T13:54:06Z</time>
      </trkpt>
      <trkpt lat="46.10886" lon="-1.25816">
        <ele>30.51</ele>
        <time>2016-11-19T13:54:08Z</time>
      </trkpt>
      <trkpt lat="46.10894" lon="-1.25828">
        <ele>29.68</ele>
        <time>2016-11-19T13:54:12Z</time>
      </trkpt>
      <trkpt lat="46.10921" lon="-1.25874">
        <ele>30.47</ele>
        <time>2016-11-19T13:54:26Z</time>
      </trkpt>
      <trkpt lat="46.10925" lon="-1.25901">
        <ele>30.6</ele>
        <time>2016-11-19T13:54:37Z</time>
      </trkpt>
      <trkpt lat="46.10926" lon="-1.25906">
        <ele>30.31</ele>
        <time>2016-11-19T13:54:43Z</time>
      </trkpt>
      <trkpt lat="46.10928" lon="-1.25931">
        <ele>30.67</ele>
        <time>2016-11-19T13:54:51Z</time>
      </trkpt>
      <trkpt lat="46.1093" lon="-1.25945">
        <ele>31.34</ele>
        <time>2016-11-19T13:54:55Z</time>
      </trkpt>
      <trkpt lat="46.10935" lon="-1.25968">
        <ele>31.2</ele>
        <time>2016-11-19T13:55:01Z</time>
      </trkpt>
      <trkpt lat="46.10942" lon="-1.25992">
        <ele>31.27</ele>
        <time>2016-11-19T13:55:07Z</time>
      </trkpt>
      <trkpt lat="46.10955" lon="-1.26039">
        <ele>30.88</ele>
        <time>2016-11-19T13:55:19Z</time>
      </trkpt>
      <trkpt lat="46.10966" lon="-1.26062">
        <ele>30.85</ele>
        <time>2016-11-19T13:55:25Z</time>
      </trkpt>
      <trkpt lat="46.10972" lon="-1.26078">
        <ele>30.81</ele>
        <time>2016-11-19T13:55:29Z</time>
      </trkpt>
      <trkpt lat="46.10982" lon="-1.26097">
        <ele>31.2</ele>
        <time>2016-11-19T13:55:34Z</time>
      </trkpt>
      <trkpt lat="46.1099" lon="-1.26119">
        <ele>31.48</ele>
        <time>2016-11-19T13:55:40Z</time>
      </trkpt>
      <trkpt lat="46.11" lon="-1.26146">
        <ele>30.52</ele>
        <time>2016-11-19T13:55:47Z</time>
      </trkpt>
      <trkpt lat="46.11007" lon="-1.26161">
        <ele>30.63</ele>
        <time>2016-11-19T13:55:51Z</time>
      </trkpt>
      <trkpt lat="46.11018" lon="-1.26179">
        <ele>30.75</ele>
        <time>2016-11-19T13:55:56Z</time>
      </trkpt>
      <trkpt lat="46.11023" lon="-1.2619">
        <ele>30.46</ele>
        <time>2016-11-19T13:55:59Z</time>
      </trkpt>
      <trkpt lat="46.11032" lon="-1.26224">
        <ele>31.13</ele>
        <time>2016-11-19T13:56:08Z</time>
      </trkpt>
      <trkpt lat="46.11034" lon="-1.26236">
        <ele>30.55</ele>
        <time>2016-11-19T13:56:11Z</time>
      </trkpt>
      <trkpt lat="46.11032" lon="-1.26254">
        <ele>30.42</ele>
        <time>2016-11-19T13:56:19Z</time>
      </trkpt>
      <trkpt lat="46.11031" lon="-1.2625">
        <ele>30.26</ele>
        <time>2016-11-19T13:56:24Z</time>
      </trkpt>
      <trkpt lat="46.11018" lon="-1.26216">
        <ele>31.83</ele>
        <time>2016-11-19T13:56:36Z</time>
      </trkpt>
      <trkpt lat="46.11006" lon="-1.26181">
        <ele>31.95</ele>
        <time>2016-11-19T13:56:45Z</time>
      </trkpt>
      <trkpt lat="46.10996" lon="-1.26162">
        <ele>31.92</ele>
        <time>2016-11-19T13:56:51Z</time>
      </trkpt>
      <trkpt lat="46.10993" lon="-1.26154">
        <ele>31.67</ele>
        <time>2016-11-19T13:56:53Z</time>
      </trkpt>
      <trkpt lat="46.10985" lon="-1.26134">
        <ele>31.35</ele>
        <time>2016-11-19T13:56:59Z</time>
      </trkpt>
      <trkpt lat="46.10975" lon="-1.26107">
        <ele>31.2</ele>
        <time>2016-11-19T13:57:06Z</time>
      </trkpt>
      <trkpt lat="46.10968" lon="-1.26084">
        <ele>31.24</ele>
        <time>2016-11-19T13:57:12Z</time>
      </trkpt>
      <trkpt lat="46.10967" lon="-1.26076">
        <ele>30.93</ele>
        <time>2016-11-19T13:57:14Z</time>
      </trkpt>
      <trkpt lat="46.10956" lon="-1.26044">
        <ele>30.85</ele>
        <time>2016-11-19T13:57:23Z</time>
      </trkpt>
      <trkpt lat="46.10956" lon="-1.25991">
        <ele>29.55</ele>
        <time>2016-11-19T13:57:36Z</time>
      </trkpt>
      <trkpt lat="46.10974" lon="-1.25992">
        <ele>29.46</ele>
        <time>2016-11-19T13:57:46Z</time>
      </trkpt>
      <trkpt lat="46.10989" lon="-1.25996">
        <ele>28.41</ele>
        <time>2016-11-19T13:57:53Z</time>
      </trkpt>
      <trkpt lat="46.10999" lon="-1.25991">
        <ele>28.93</ele>
        <time>2016-11-19T13:57:57Z</time>
      </trkpt>
      <trkpt lat="46.11005" lon="-1.25976">
        <ele>30.24</ele>
        <time>2016-11-19T13:58:02Z</time>
      </trkpt>
      <trkpt lat="46.10995" lon="-1.2592">
        <ele>32.29</ele>
        <time>2016-11-19T13:58:18Z</time>
      </trkpt>
      <trkpt lat="46.10991" lon="-1.2591">
        <ele>31.96</ele>
        <time>2016-11-19T13:58:21Z</time>
      </trkpt>
      <trkpt lat="46.10977" lon="-1.25871">
        <ele>31.79</ele>
        <time>2016-11-19T13:58:34Z</time>
      </trkpt>
      <trkpt lat="46.10962" lon="-1.25839">
        <ele>31.73</ele>
        <time>2016-11-19T13:58:45Z</time>
      </trkpt>
      <trkpt lat="46.10947" lon="-1.25815">
        <ele>32.27</ele>
        <time>2016-11-19T13:58:54Z</time>
      </trkpt>
      <trkpt lat="46.10936" lon="-1.25785">
        <ele>32.58</ele>
        <time>2016-11-19T13:59:04Z</time>
      </trkpt>
      <trkpt lat="46.1093" lon="-1.25772">
        <ele>32.62</ele>
        <time>2016-11-19T13:59:09Z</time>
      </trkpt>
      <trkpt lat="46.10918" lon="-1.25752">
        <ele>32.68</ele>
        <time>2016-11-19T13:59:15Z</time>
      </trkpt>
      <trkpt lat="46.10903" lon="-1.25713">
        <ele>32.12</ele>
        <time>2016-11-19T13:59:26Z</time>
      </trkpt>
      <trkpt lat="46.10893" lon="-1.257">
        <ele>32.54</ele>
        <time>2016-11-19T13:59:31Z</time>
      </trkpt>
      <trkpt lat="46.10889" lon="-1.25687">
        <ele>31.89</ele>
        <time>2016-11-19T13:59:35Z</time>
      </trkpt>
      <trkpt lat="46.10885" lon="-1.25681">
        <ele>32.12</ele>
        <time>2016-11-19T13:59:37Z</time>
      </trkpt>
      <trkpt lat="46.10869" lon="-1.25651">
        <ele>32.28</ele>
        <time>2016-11-19T13:59:46Z</time>
      </trkpt>
      <trkpt lat="46.10848" lon="-1.25612">
        <ele>33.08</ele>
        <time>2016-11-19T13:59:58Z</time>
      </trkpt>
      <trkpt lat="46.10828" lon="-1.25571">
        <ele>33.25</ele>
        <time>2016-11-19T14:00:11Z</time>
      </trkpt>
      <trkpt lat="46.10815" lon="-1.25552">
        <ele>32.81</ele>
        <time>2016-11-19T14:00:17Z</time>
      </trkpt>
      <trkpt lat="46.10813" lon="-1.2555">
        <ele>32.76</ele>
        <time>2016-11-19T14:00:18Z</time>
      </trkpt>
      <trkpt lat="46.10811" lon="-1.25547">
        <ele>32.52</ele>
        <time>2016-11-19T14:00:19Z</time>
      </trkpt>
      <trkpt lat="46.10795" lon="-1.25522">
        <ele>32.69</ele>
        <time>2016-11-19T14:00:27Z</time>
      </trkpt>
      <trkpt lat="46.10788" lon="-1.25515">
        <ele>32.38</ele>
        <time>2016-11-19T14:00:31Z</time>
      </trkpt>
      <trkpt lat="46.10785" lon="-1.25511">
        <ele>32.39</ele>
        <time>2016-11-19T14:00:33Z</time>
      </trkpt>
      <trkpt lat="46.10779" lon="-1.25504">
        <ele>32.4</ele>
        <time>2016-11-19T14:00:37Z</time>
      </trkpt>
      <trkpt lat="46.10774" lon="-1.25497">
        <ele>32.14</ele>
        <time>2016-11-19T14:00:40Z</time>
      </trkpt>
      <trkpt lat="46.10757" lon="-1.25467">
        <ele>31.78</ele>
        <time>2016-11-19T14:00:51Z</time>
      </trkpt>
      <trkpt lat="46.10742" lon="-1.25451">
        <ele>31.3</ele>
        <time>2016-11-19T14:01:01Z</time>
      </trkpt>
      <trkpt lat="46.10725" lon="-1.25421">
        <ele>32.68</ele>
        <time>2016-11-19T14:01:13Z</time>
      </trkpt>
      <trkpt lat="46.10709" lon="-1.25398">
        <ele>32.66</ele>
        <time>2016-11-19T14:01:22Z</time>
      </trkpt>
      <trkpt lat="46.10688" lon="-1.25368">
        <ele>32.26</ele>
        <time>2016-11-19T14:01:34Z</time>
      </trkpt>
      <trkpt lat="46.1067" lon="-1.25341">
        <ele>32.35</ele>
        <time>2016-11-19T14:01:45Z</time>
      </trkpt>
      <trkpt lat="46.10663" lon="-1.25329">
        <ele>32.65</ele>
        <time>2016-11-19T14:01:49Z</time>
      </trkpt>
      <trkpt lat="46.1064" lon="-1.25303">
        <ele>31.98</ele>
        <time>2016-11-19T14:02:02Z</time>
      </trkpt>
      <trkpt lat="46.10628" lon="-1.25276">
        <ele>32.7</ele>
        <time>2016-11-19T14:02:13Z</time>
      </trkpt>
      <trkpt lat="46.10603" lon="-1.25249">
        <ele>32.91</ele>
        <time>2016-11-19T14:02:25Z</time>
      </trkpt>
      <trkpt lat="46.10592" lon="-1.25236">
        <ele>32.62</ele>
        <time>2016-11-19T14:02:30Z</time>
      </trkpt>
      <trkpt lat="45.55576" lon="-1.05272">
        <ele>30.18</ele>
        <time>2016-11-27T10:43:04Z</time>
      </trkpt>
      <trkpt lat="45.5557" lon="-1.05266">
        <ele>29.91</ele>
        <time>2016-11-27T10:43:05Z</time>
      </trkpt>
      <trkpt lat="45.55563" lon="-1.05232">
        <ele>29.77</ele>
        <time>2016-11-27T10:43:18Z</time>
      </trkpt>
      <trkpt lat="45.55568" lon="-1.05202">
        <ele>29.84</ele>
        <time>2016-11-27T10:43:32Z</time>
      </trkpt>
      <trkpt lat="45.55574" lon="-1.05182">
        <ele>29.99</ele>
        <time>2016-11-27T10:43:41Z</time>
      </trkpt>
      <trkpt lat="45.55577" lon="-1.05175">
        <ele>29.77</ele>
        <time>2016-11-27T10:43:45Z</time>
      </trkpt>
      <trkpt lat="45.55587" lon="-1.05148">
        <ele>30.1</ele>
        <time>2016-11-27T10:43:57Z</time>
      </trkpt>
      <trkpt lat="45.55589" lon="-1.05144">
        <ele>30.21</ele>
        <time>2016-11-27T10:43:59Z</time>
      </trkpt>
      <trkpt lat="45.55596" lon="-1.05116">
        <ele>30.29</ele>
        <time>2016-11-27T10:44:12Z</time>
      </trkpt>
      <trkpt lat="45.55604" lon="-1.05082">
        <ele>28.78</ele>
        <time>2016-11-27T10:44:27Z</time>
      </trkpt>
      <trkpt lat="45.55606" lon="-1.05076">
        <ele>30.08</ele>
        <time>2016-11-27T10:44:30Z</time>
      </trkpt>
      <trkpt lat="45.55611" lon="-1.05052">
        <ele>31.09</ele>
        <time>2016-11-27T10:44:42Z</time>
      </trkpt>
      <trkpt lat="45.55613" lon="-1.05031">
        <ele>31.36</ele>
        <time>2016-11-27T10:44:55Z</time>
      </trkpt>
      <trkpt lat="45.55614" lon="-1.05025">
        <ele>31.27</ele>
        <time>2016-11-27T10:44:59Z</time>
      </trkpt>
      <trkpt lat="45.55616" lon="-1.05017">
        <ele>30.63</ele>
        <time>2016-11-27T10:45:05Z</time>
      </trkpt>
      <trkpt lat="45.55621" lon="-1.04998">
        <ele>31.48</ele>
        <time>2016-11-27T10:45:22Z</time>
      </trkpt>
      <trkpt lat="45.55617" lon="-1.04975">
        <ele>31.33</ele>
        <time>2016-11-27T10:45:41Z</time>
      </trkpt>
      <trkpt lat="45.55615" lon="-1.04968">
        <ele>31.82</ele>
        <time>2016-11-27T10:45:46Z</time>
      </trkpt>
      <trkpt lat="45.5561" lon="-1.04958">
        <ele>30.91</ele>
        <time>2016-11-27T10:45:52Z</time>
      </trkpt>
      <trkpt lat="45.55608" lon="-1.04954">
        <ele>30.66</ele>
        <time>2016-11-27T10:45:55Z</time>
      </trkpt>
      <trkpt lat="45.55607" lon="-1.04952">
        <ele>30.46</ele>
        <time>2016-11-27T10:45:57Z</time>
      </trkpt>
      <trkpt lat="45.55596" lon="-1.04935">
        <ele>30.39</ele>
        <time>2016-11-27T10:46:10Z</time>
      </trkpt>
      <trkpt lat="45.55588" lon="-1.04924">
        <ele>30.13</ele>
        <time>2016-11-27T10:46:17Z</time>
      </trkpt>
      <trkpt lat="45.55588" lon="-1.04914">
        <ele>30.28</ele>
        <time>2016-11-27T10:46:22Z</time>
      </trkpt>
      <trkpt lat="45.55595" lon="-1.04899">
        <ele>30.59</ele>
        <time>2016-11-27T10:46:30Z</time>
      </trkpt>
      <trkpt lat="45.55598" lon="-1.04891">
        <ele>30.41</ele>
        <time>2016-11-27T10:46:34Z</time>
      </trkpt>
      <trkpt lat="45.556" lon="-1.04888">
        <ele>30.66</ele>
        <time>2016-11-27T10:46:36Z</time>
      </trkpt>
      <trkpt lat="45.55618" lon="-1.04881">
        <ele>30.93</ele>
        <time>2016-11-27T10:46:47Z</time>
      </trkpt>
      <trkpt lat="45.55632" lon="-1.04872">
        <ele>31.58</ele>
        <time>2016-11-27T10:46:57Z</time>
      </trkpt>
      <trkpt lat="45.55635" lon="-1.04869">
        <ele>31.25</ele>
        <time>2016-11-27T10:47:01Z</time>
      </trkpt>
      <trkpt lat="45.55643" lon="-1.04864">
        <ele>31.8</ele>
        <time>2016-11-27T10:47:15Z</time>
      </trkpt>
      <trkpt lat="45.55642" lon="-1.04862">
        <ele>30.6</ele>
        <time>2016-11-27T10:47:27Z</time>
      </trkpt>
      <trkpt lat="45.55632" lon="-1.04864">
        <ele>30.18</ele>
        <time>2016-11-27T10:47:33Z</time>
      </trkpt>
      <trkpt lat="45.55622" lon="-1.04863">
        <ele>30.43</ele>
        <time>2016-11-27T10:47:37Z</time>
      </trkpt>
      <trkpt lat="45.55607" lon="-1.04838">
        <ele>30.26</ele>
        <time>2016-11-27T10:47:52Z</time>
      </trkpt>
      <trkpt lat="45.55618" lon="-1.0483">
        <ele>30.94</ele>
        <time>2016-11-27T10:48:03Z</time>
      </trkpt>
      <trkpt lat="45.55624" lon="-1.04828">
        <ele>31.27</ele>
        <time>2016-11-27T10:48:07Z</time>
      </trkpt>
      <trkpt lat="45.55643" lon="-1.04832">
        <ele>31.39</ele>
        <time>2016-11-27T10:48:18Z</time>
      </trkpt>
      <trkpt lat="45.55667" lon="-1.04836">
        <ele>30.08</ele>
        <time>2016-11-27T10:48:31Z</time>
      </trkpt>
      <trkpt lat="45.5567" lon="-1.04836">
        <ele>30.36</ele>
        <time>2016-11-27T10:48:33Z</time>
      </trkpt>
      <trkpt lat="45.55681" lon="-1.04834">
        <ele>30.53</ele>
        <time>2016-11-27T10:48:49Z</time>
      </trkpt>
      <trkpt lat="45.55679" lon="-1.04831">
        <ele>30.6</ele>
        <time>2016-11-27T10:48:57Z</time>
      </trkpt>
      <trkpt lat="45.55657" lon="-1.04825">
        <ele>31.69</ele>
        <time>2016-11-27T10:49:10Z</time>
      </trkpt>
      <trkpt lat="45.5565" lon="-1.0482">
        <ele>31.04</ele>
        <time>2016-11-27T10:49:13Z</time>
      </trkpt>
      <trkpt lat="45.55645" lon="-1.04819">
        <ele>30.92</ele>
        <time>2016-11-27T10:49:15Z</time>
      </trkpt>
      <trkpt lat="45.55622" lon="-1.04811">
        <ele>31.29</ele>
        <time>2016-11-27T10:49:25Z</time>
      </trkpt>
      <trkpt lat="45.55609" lon="-1.04799">
        <ele>30.98</ele>
        <time>2016-11-27T10:49:34Z</time>
      </trkpt>
      <trkpt lat="45.556" lon="-1.04788">
        <ele>30.67</ele>
        <time>2016-11-27T10:49:41Z</time>
      </trkpt>
      <trkpt lat="45.55596" lon="-1.04782">
        <ele>31.05</ele>
        <time>2016-11-27T10:49:44Z</time>
      </trkpt>
      <trkpt lat="45.55588" lon="-1.04771">
        <ele>31.16</ele>
        <time>2016-11-27T10:49:49Z</time>
      </trkpt>
      <trkpt lat="45.55582" lon="-1.04765">
        <ele>31.32</ele>
        <time>2016-11-27T10:49:52Z</time>
      </trkpt>
      <trkpt lat="45.55562" lon="-1.04746">
        <ele>31.47</ele>
        <time>2016-11-27T10:50:02Z</time>
      </trkpt>
      <trkpt lat="45.55535" lon="-1.04713">
        <ele>31.27</ele>
        <time>2016-11-27T10:50:17Z</time>
      </trkpt>
      <trkpt lat="45.55513" lon="-1.04691">
        <ele>31.84</ele>
        <time>2016-11-27T10:50:29Z</time>
      </trkpt>
      <trkpt lat="45.55491" lon="-1.04658">
        <ele>31.83</ele>
        <time>2016-11-27T10:50:42Z</time>
      </trkpt>
      <trkpt lat="45.55479" lon="-1.0463">
        <ele>31.32</ele>
        <time>2016-11-27T10:50:51Z</time>
      </trkpt>
      <trkpt lat="45.55475" lon="-1.04621">
        <ele>31.3</ele>
        <time>2016-11-27T10:50:54Z</time>
      </trkpt>
      <trkpt lat="45.5547" lon="-1.04609">
        <ele>31.65</ele>
        <time>2016-11-27T10:50:58Z</time>
      </trkpt>
      <trkpt lat="45.55468" lon="-1.04603">
        <ele>31.81</ele>
        <time>2016-11-27T10:51:00Z</time>
      </trkpt>
      <trkpt lat="45.55456" lon="-1.04558">
        <ele>31.23</ele>
        <time>2016-11-27T10:51:15Z</time>
      </trkpt>
      <trkpt lat="45.55453" lon="-1.04544">
        <ele>31.35</ele>
        <time>2016-11-27T10:51:20Z</time>
      </trkpt>
      <trkpt lat="45.55434" lon="-1.04483">
        <ele>31.58</ele>
        <time>2016-11-27T10:51:39Z</time>
      </trkpt>
      <trkpt lat="45.55431" lon="-1.04475">
        <ele>31.64</ele>
        <time>2016-11-27T10:51:41Z</time>
      </trkpt>
      <trkpt lat="45.5542" lon="-1.04439">
        <ele>31.42</ele>
        <time>2016-11-27T10:51:51Z</time>
      </trkpt>
      <trkpt lat="45.55413" lon="-1.04418">
        <ele>31.26</ele>
        <time>2016-11-27T10:51:57Z</time>
      </trkpt>
      <trkpt lat="45.55407" lon="-1.04404">
        <ele>31.31</ele>
        <time>2016-11-27T10:52:01Z</time>
      </trkpt>
      <trkpt lat="45.55394" lon="-1.04352">
        <ele>31.24</ele>
        <time>2016-11-27T10:52:17Z</time>
      </trkpt>
      <trkpt lat="45.55393" lon="-1.04349">
        <ele>31.26</ele>
        <time>2016-11-27T10:52:18Z</time>
      </trkpt>
      <trkpt lat="45.55389" lon="-1.04335">
        <ele>31.44</ele>
        <time>2016-11-27T10:52:23Z</time>
      </trkpt>
      <trkpt lat="45.55382" lon="-1.04314">
        <ele>31.96</ele>
        <time>2016-11-27T10:52:30Z</time>
      </trkpt>
      <trkpt lat="45.55371" lon="-1.0429">
        <ele>32.4</ele>
        <time>2016-11-27T10:52:37Z</time>
      </trkpt>
      <trkpt lat="45.55361" lon="-1.04269">
        <ele>32.14</ele>
        <time>2016-11-27T10:52:43Z</time>
      </trkpt>
      <trkpt lat="45.55353" lon="-1.04256">
        <ele>32.16</ele>
        <time>2016-11-27T10:52:47Z</time>
      </trkpt>
      <trkpt lat="45.55334" lon="-1.04221">
        <ele>31.51</ele>
        <time>2016-11-27T10:52:59Z</time>
      </trkpt>
      <trkpt lat="45.5533" lon="-1.04215">
        <ele>31.39</ele>
        <time>2016-11-27T10:53:01Z</time>
      </trkpt>
      <trkpt lat="45.55326" lon="-1.04209">
        <ele>31.53</ele>
        <time>2016-11-27T10:53:03Z</time>
      </trkpt>
      <trkpt lat="45.55322" lon="-1.042">
        <ele>32.4</ele>
        <time>2016-11-27T10:53:06Z</time>
      </trkpt>
      <trkpt lat="45.55313" lon="-1.04184">
        <ele>32.05</ele>
        <time>2016-11-27T10:53:12Z</time>
      </trkpt>
      <trkpt lat="45.55292" lon="-1.04146">
        <ele>32.27</ele>
        <time>2016-11-27T10:53:25Z</time>
      </trkpt>
      <trkpt lat="45.55284" lon="-1.04132">
        <ele>32.37</ele>
        <time>2016-11-27T10:53:30Z</time>
      </trkpt>
      <trkpt lat="45.55245" lon="-1.04095">
        <ele>32.6</ele>
        <time>2016-11-27T10:53:47Z</time>
      </trkpt>
      <trkpt lat="45.55216" lon="-1.04055">
        <ele>32.97</ele>
        <time>2016-11-27T10:54:02Z</time>
      </trkpt>
      <trkpt lat="45.55198" lon="-1.04032">
        <ele>32.99</ele>
        <time>2016-11-27T10:54:11Z</time>
      </trkpt>
      <trkpt lat="45.55188" lon="-1.04016">
        <ele>32.45</ele>
        <time>2016-11-27T10:54:17Z</time>
      </trkpt>
      <trkpt lat="45.55185" lon="-1.04012">
        <ele>32.24</ele>
        <time>2016-11-27T10:54:19Z</time>
      </trkpt>
      <trkpt lat="45.5517" lon="-1.03981">
        <ele>32.8</ele>
        <time>2016-11-27T10:54:30Z</time>
      </trkpt>
      <trkpt lat="45.55167" lon="-1.03971">
        <ele>32.83</ele>
        <time>2016-11-27T10:54:35Z</time>
      </trkpt>
      <trkpt lat="45.55161" lon="-1.03963">
        <ele>31.54</ele>
        <time>2016-11-27T10:54:40Z</time>
      </trkpt>
      <trkpt lat="45.55155" lon="-1.03953">
        <ele>31.17</ele>
        <time>2016-11-27T10:54:45Z</time>
      </trkpt>
      <trkpt lat="45.55129" lon="-1.03916">
        <ele>31.53</ele>
        <time>2016-11-27T10:55:02Z</time>
      </trkpt>
      <trkpt lat="45.55108" lon="-1.03889">
        <ele>32.68</ele>
        <time>2016-11-27T10:55:14Z</time>
      </trkpt>
      <trkpt lat="45.5509" lon="-1.03864">
        <ele>32.88</ele>
        <time>2016-11-27T10:55:24Z</time>
      </trkpt>
      <trkpt lat="45.55063" lon="-1.03824">
        <ele>30.18</ele>
        <time>2016-11-27T10:55:40Z</time>
      </trkpt>
      <trkpt lat="45.55061" lon="-1.03822">
        <ele>30.33</ele>
        <time>2016-11-27T10:55:41Z</time>
      </trkpt>
      <trkpt lat="45.55045" lon="-1.03794">
        <ele>31.29</ele>
        <time>2016-11-27T10:55:52Z</time>
      </trkpt>
      <trkpt lat="45.55041" lon="-1.03784">
        <ele>31.55</ele>
        <time>2016-11-27T10:55:56Z</time>
      </trkpt>
      <trkpt lat="45.55035" lon="-1.03772">
        <ele>31.39</ele>
        <time>2016-11-27T10:56:01Z</time>
      </trkpt>
      <trkpt lat="45.55031" lon="-1.03764">
        <ele>31.42</ele>
        <time>2016-11-27T10:56:04Z</time>
      </trkpt>
      <trkpt lat="45.55025" lon="-1.03752">
        <ele>31.26</ele>
        <time>2016-11-27T10:56:08Z</time>
      </trkpt>
      <trkpt lat="45.5502" lon="-1.03741">
        <ele>31.63</ele>
        <time>2016-11-27T10:56:12Z</time>
      </trkpt>
      <trkpt lat="45.55014" lon="-1.0373">
        <ele>31.99</ele>
        <time>2016-11-27T10:56:16Z</time>
      </trkpt>
      <trkpt lat="45.54998" lon="-1.03701">
        <ele>31.58</ele>
        <time>2016-11-27T10:56:27Z</time>
      </trkpt>
      <trkpt lat="45.54993" lon="-1.03692">
        <ele>31.53</ele>
        <time>2016-11-27T10:56:30Z</time>
      </trkpt>
      <trkpt lat="45.54986" lon="-1.03678">
        <ele>32.13</ele>
        <time>2016-11-27T10:56:35Z</time>
      </trkpt>
      <trkpt lat="45.54972" lon="-1.03657">
        <ele>32.6</ele>
        <time>2016-11-27T10:56:42Z</time>
      </trkpt>
      <trkpt lat="45.54937" lon="-1.03611">
        <ele>31.96</ele>
        <time>2016-11-27T10:56:58Z</time>
      </trkpt>
      <trkpt lat="45.54921" lon="-1.03576">
        <ele>32.95</ele>
        <time>2016-11-27T10:57:08Z</time>
      </trkpt>
      <trkpt lat="45.5491" lon="-1.03556">
        <ele>32.68</ele>
        <time>2016-11-27T10:57:14Z</time>
      </trkpt>
      <trkpt lat="45.54893" lon="-1.03521">
        <ele>33.08</ele>
        <time>2016-11-27T10:57:25Z</time>
      </trkpt>
      <trkpt lat="45.54888" lon="-1.03512">
        <ele>32.7</ele>
        <time>2016-11-27T10:57:28Z</time>
      </trkpt>
      <trkpt lat="45.54885" lon="-1.03507">
        <ele>32.8</ele>
        <time>2016-11-27T10:57:30Z</time>
      </trkpt>
      <trkpt lat="45.54876" lon="-1.03492">
        <ele>33.11</ele>
        <time>2016-11-27T10:57:35Z</time>
      </trkpt>
      <trkpt lat="45.54872" lon="-1.03485">
        <ele>33.26</ele>
        <time>2016-11-27T10:57:37Z</time>
      </trkpt>
      <trkpt lat="45.54865" lon="-1.03472">
        <ele>32.97</ele>
        <time>2016-11-27T10:57:41Z</time>
      </trkpt>
      <trkpt lat="45.54855" lon="-1.03455">
        <ele>32.94</ele>
        <time>2016-11-27T10:57:46Z</time>
      </trkpt>
      <trkpt lat="45.54833" lon="-1.03417">
        <ele>33.44</ele>
        <time>2016-11-27T10:57:57Z</time>
      </trkpt>
      <trkpt lat="45.54799" lon="-1.03357">
        <ele>33.57</ele>
        <time>2016-11-27T10:58:15Z</time>
      </trkpt>
      <trkpt lat="45.54791" lon="-1.03343">
        <ele>33.31</ele>
        <time>2016-11-27T10:58:19Z</time>
      </trkpt>
      <trkpt lat="45.54755" lon="-1.03288">
        <ele>33.69</ele>
        <time>2016-11-27T10:58:36Z</time>
      </trkpt>
      <trkpt lat="45.54721" lon="-1.03228">
        <ele>33.87</ele>
        <time>2016-11-27T10:58:54Z</time>
      </trkpt>
      <trkpt lat="45.54712" lon="-1.03211">
        <ele>33.69</ele>
        <time>2016-11-27T10:58:59Z</time>
      </trkpt>
      <trkpt lat="45.54705" lon="-1.03197">
        <ele>33.52</ele>
        <time>2016-11-27T10:59:03Z</time>
      </trkpt>
      <trkpt lat="45.54694" lon="-1.03175">
        <ele>33.55</ele>
        <time>2016-11-27T10:59:09Z</time>
      </trkpt>
      <trkpt lat="45.54678" lon="-1.03146">
        <ele>33.41</ele>
        <time>2016-11-27T10:59:17Z</time>
      </trkpt>
      <trkpt lat="45.54667" lon="-1.0313">
        <ele>33.26</ele>
        <time>2016-11-27T10:59:22Z</time>
      </trkpt>
      <trkpt lat="45.54657" lon="-1.03109">
        <ele>33.32</ele>
        <time>2016-11-27T10:59:28Z</time>
      </trkpt>
      <trkpt lat="45.54635" lon="-1.03067">
        <ele>33.45</ele>
        <time>2016-11-27T10:59:40Z</time>
      </trkpt>
      <trkpt lat="45.54597" lon="-1.03">
        <ele>33.49</ele>
        <time>2016-11-27T10:59:59Z</time>
      </trkpt>
      <trkpt lat="45.54587" lon="-1.02984">
        <ele>33.51</ele>
        <time>2016-11-27T11:00:04Z</time>
      </trkpt>
      <trkpt lat="45.54566" lon="-1.02955">
        <ele>33.36</ele>
        <time>2016-11-27T11:00:13Z</time>
      </trkpt>
      <trkpt lat="45.54557" lon="-1.02943">
        <ele>33.26</ele>
        <time>2016-11-27T11:00:17Z</time>
      </trkpt>
      <trkpt lat="45.5455" lon="-1.02927">
        <ele>32.55</ele>
        <time>2016-11-27T11:00:22Z</time>
      </trkpt>
      <trkpt lat="45.54529" lon="-1.02889">
        <ele>32.78</ele>
        <time>2016-11-27T11:00:34Z</time>
      </trkpt>
      <trkpt lat="45.54495" lon="-1.02828">
        <ele>33.82</ele>
        <time>2016-11-27T11:00:51Z</time>
      </trkpt>
      <trkpt lat="45.54482" lon="-1.02807">
        <ele>33.87</ele>
        <time>2016-11-27T11:00:57Z</time>
      </trkpt>
      <trkpt lat="45.54464" lon="-1.02774">
        <ele>33.48</ele>
        <time>2016-11-27T11:01:07Z</time>
      </trkpt>
      <trkpt lat="45.54454" lon="-1.02757">
        <ele>33.82</ele>
        <time>2016-11-27T11:01:12Z</time>
      </trkpt>
      <trkpt lat="45.54417" lon="-1.02711">
        <ele>33.89</ele>
        <time>2016-11-27T11:01:27Z</time>
      </trkpt>
      <trkpt lat="45.5439" lon="-1.02665">
        <ele>33.31</ele>
        <time>2016-11-27T11:01:42Z</time>
      </trkpt>
      <trkpt lat="45.5435" lon="-1.0262">
        <ele>33.3</ele>
        <time>2016-11-27T11:01:58Z</time>
      </trkpt>
      <trkpt lat="45.54344" lon="-1.02612">
        <ele>33.36</ele>
        <time>2016-11-27T11:02:00Z</time>
      </trkpt>
      <trkpt lat="45.54324" lon="-1.02583">
        <ele>33.61</ele>
        <time>2016-11-27T11:02:08Z</time>
      </trkpt>
      <trkpt lat="45.54316" lon="-1.02568">
        <ele>33.69</ele>
        <time>2016-11-27T11:02:12Z</time>
      </trkpt>
      <trkpt lat="45.54293" lon="-1.02529">
        <ele>33.53</ele>
        <time>2016-11-27T11:02:23Z</time>
      </trkpt>
      <trkpt lat="45.54263" lon="-1.02476">
        <ele>33.19</ele>
        <time>2016-11-27T11:02:38Z</time>
      </trkpt>
      <trkpt lat="45.54244" lon="-1.02447">
        <ele>33.2</ele>
        <time>2016-11-27T11:02:47Z</time>
      </trkpt>
      <trkpt lat="45.5423" lon="-1.02423">
        <ele>33.03</ele>
        <time>2016-11-27T11:02:53Z</time>
      </trkpt>
      <trkpt lat="45.54221" lon="-1.02411">
        <ele>33.51</ele>
        <time>2016-11-27T11:02:57Z</time>
      </trkpt>
      <trkpt lat="45.54214" lon="-1.02401">
        <ele>33.12</ele>
        <time>2016-11-27T11:03:00Z</time>
      </trkpt>
      <trkpt lat="45.54203" lon="-1.02384">
        <ele>33</ele>
        <time>2016-11-27T11:03:05Z</time>
      </trkpt>
      <trkpt lat="45.54188" lon="-1.02361">
        <ele>32.51</ele>
        <time>2016-11-27T11:03:12Z</time>
      </trkpt>
      <trkpt lat="45.54176" lon="-1.02341">
        <ele>32.39</ele>
        <time>2016-11-27T11:03:18Z</time>
      </trkpt>
      <trkpt lat="45.54163" lon="-1.02319">
        <ele>32.06</ele>
        <time>2016-11-27T11:03:24Z</time>
      </trkpt>
      <trkpt lat="45.54153" lon="-1.02302">
        <ele>31.57</ele>
        <time>2016-11-27T11:03:29Z</time>
      </trkpt>
      <trkpt lat="45.54135" lon="-1.02268">
        <ele>32.31</ele>
        <time>2016-11-27T11:03:38Z</time>
      </trkpt>
      <trkpt lat="45.54131" lon="-1.02261">
        <ele>32.21</ele>
        <time>2016-11-27T11:03:40Z</time>
      </trkpt>
      <trkpt lat="45.541" lon="-1.02209">
        <ele>31.9</ele>
        <time>2016-11-27T11:03:54Z</time>
      </trkpt>
      <trkpt lat="45.54086" lon="-1.0219">
        <ele>32.13</ele>
        <time>2016-11-27T11:04:00Z</time>
      </trkpt>
      <trkpt lat="45.54063" lon="-1.02153">
        <ele>32.33</ele>
        <time>2016-11-27T11:04:11Z</time>
      </trkpt>
      <trkpt lat="45.54052" lon="-1.02137">
        <ele>32.69</ele>
        <time>2016-11-27T11:04:16Z</time>
      </trkpt>
      <trkpt lat="45.54042" lon="-1.02119">
        <ele>32.73</ele>
        <time>2016-11-27T11:04:21Z</time>
      </trkpt>
      <trkpt lat="45.54022" lon="-1.0209">
        <ele>32.13</ele>
        <time>2016-11-27T11:04:30Z</time>
      </trkpt>
      <trkpt lat="45.54014" lon="-1.0208">
        <ele>32.24</ele>
        <time>2016-11-27T11:04:33Z</time>
      </trkpt>
      <trkpt lat="45.53997" lon="-1.02053">
        <ele>32.75</ele>
        <time>2016-11-27T11:04:41Z</time>
      </trkpt>
      <trkpt lat="45.5399" lon="-1.02039">
        <ele>32.7</ele>
        <time>2016-11-27T11:04:45Z</time>
      </trkpt>
      <trkpt lat="45.53974" lon="-1.0201">
        <ele>33.62</ele>
        <time>2016-11-27T11:04:53Z</time>
      </trkpt>
      <trkpt lat="45.53964" lon="-1.01992">
        <ele>33.22</ele>
        <time>2016-11-27T11:04:58Z</time>
      </trkpt>
      <trkpt lat="45.53958" lon="-1.01981">
        <ele>33.18</ele>
        <time>2016-11-27T11:05:01Z</time>
      </trkpt>
      <trkpt lat="45.5395" lon="-1.01966">
        <ele>33.16</ele>
        <time>2016-11-27T11:05:05Z</time>
      </trkpt>
      <trkpt lat="45.53927" lon="-1.01929">
        <ele>33.25</ele>
        <time>2016-11-27T11:05:16Z</time>
      </trkpt>
      <trkpt lat="45.53913" lon="-1.01909">
        <ele>33.24</ele>
        <time>2016-11-27T11:05:22Z</time>
      </trkpt>
      <trkpt lat="45.53892" lon="-1.01872">
        <ele>32.97</ele>
        <time>2016-11-27T11:05:32Z</time>
      </trkpt>
      <trkpt lat="45.53884" lon="-1.01859">
        <ele>33.09</ele>
        <time>2016-11-27T11:05:36Z</time>
      </trkpt>
      <trkpt lat="45.53876" lon="-1.01844">
        <ele>33.62</ele>
        <time>2016-11-27T11:05:40Z</time>
      </trkpt>
      <trkpt lat="45.53864" lon="-1.01823">
        <ele>33.54</ele>
        <time>2016-11-27T11:05:46Z</time>
      </trkpt>
      <trkpt lat="45.53854" lon="-1.01804">
        <ele>33.47</ele>
        <time>2016-11-27T11:05:51Z</time>
      </trkpt>
      <trkpt lat="45.53842" lon="-1.01779">
        <ele>33.46</ele>
        <time>2016-11-27T11:05:58Z</time>
      </trkpt>
      <trkpt lat="45.53834" lon="-1.0176">
        <ele>33.53</ele>
        <time>2016-11-27T11:06:03Z</time>
      </trkpt>
      <trkpt lat="45.53829" lon="-1.01757">
        <ele>33.67</ele>
        <time>2016-11-27T11:06:05Z</time>
      </trkpt>
      <trkpt lat="45.53824" lon="-1.01748">
        <ele>33.6</ele>
        <time>2016-11-27T11:06:08Z</time>
      </trkpt>
      <trkpt lat="45.53794" lon="-1.01701">
        <ele>33.55</ele>
        <time>2016-11-27T11:06:22Z</time>
      </trkpt>
      <trkpt lat="45.53775" lon="-1.01675">
        <ele>33.26</ele>
        <time>2016-11-27T11:06:30Z</time>
      </trkpt>
      <trkpt lat="45.53771" lon="-1.01667">
        <ele>33.23</ele>
        <time>2016-11-27T11:06:32Z</time>
      </trkpt>
      <trkpt lat="45.53764" lon="-1.01655">
        <ele>33.1</ele>
        <time>2016-11-27T11:06:35Z</time>
      </trkpt>
      <trkpt lat="45.53746" lon="-1.01627">
        <ele>33.24</ele>
        <time>2016-11-27T11:06:43Z</time>
      </trkpt>
      <trkpt lat="45.53739" lon="-1.01617">
        <ele>33.14</ele>
        <time>2016-11-27T11:06:46Z</time>
      </trkpt>
      <trkpt lat="45.53732" lon="-1.01606">
        <ele>33.19</ele>
        <time>2016-11-27T11:06:49Z</time>
      </trkpt>
      <trkpt lat="45.53715" lon="-1.01578">
        <ele>32.8</ele>
        <time>2016-11-27T11:06:57Z</time>
      </trkpt>
      <trkpt lat="45.53702" lon="-1.01563">
        <ele>33.05</ele>
        <time>2016-11-27T11:07:02Z</time>
      </trkpt>
      <trkpt lat="45.53692" lon="-1.01552">
        <ele>32.84</ele>
        <time>2016-11-27T11:07:06Z</time>
      </trkpt>
      <trkpt lat="45.53675" lon="-1.01531">
        <ele>33.03</ele>
        <time>2016-11-27T11:07:13Z</time>
      </trkpt>
      <trkpt lat="45.53665" lon="-1.01518">
        <ele>32.72</ele>
        <time>2016-11-27T11:07:17Z</time>
      </trkpt>
      <trkpt lat="45.53644" lon="-1.01486">
        <ele>33.64</ele>
        <time>2016-11-27T11:07:28Z</time>
      </trkpt>
      <trkpt lat="45.53636" lon="-1.01476">
        <ele>33.26</ele>
        <time>2016-11-27T11:07:31Z</time>
      </trkpt>
      <trkpt lat="45.53627" lon="-1.01464">
        <ele>33.18</ele>
        <time>2016-11-27T11:07:35Z</time>
      </trkpt>
      <trkpt lat="45.53593" lon="-1.01414">
        <ele>33.06</ele>
        <time>2016-11-27T11:07:50Z</time>
      </trkpt>
      <trkpt lat="45.53583" lon="-1.01402">
        <ele>32.97</ele>
        <time>2016-11-27T11:07:54Z</time>
      </trkpt>
      <trkpt lat="45.53568" lon="-1.01385">
        <ele>33.1</ele>
        <time>2016-11-27T11:08:00Z</time>
      </trkpt>
      <trkpt lat="45.5355" lon="-1.01368">
        <ele>33.62</ele>
        <time>2016-11-27T11:08:06Z</time>
      </trkpt>
      <trkpt lat="45.5354" lon="-1.01357">
        <ele>33.19</ele>
        <time>2016-11-27T11:08:10Z</time>
      </trkpt>
      <trkpt lat="45.5353" lon="-1.01346">
        <ele>32.82</ele>
        <time>2016-11-27T11:08:14Z</time>
      </trkpt>
      <trkpt lat="45.53482" lon="-1.01293">
        <ele>33.18</ele>
        <time>2016-11-27T11:08:32Z</time>
      </trkpt>
      <trkpt lat="45.53475" lon="-1.01289">
        <ele>33.25</ele>
        <time>2016-11-27T11:08:34Z</time>
      </trkpt>
      <trkpt lat="45.53462" lon="-1.01272">
        <ele>33.33</ele>
        <time>2016-11-27T11:08:39Z</time>
      </trkpt>
      <trkpt lat="45.5344" lon="-1.01243">
        <ele>33.21</ele>
        <time>2016-11-27T11:08:48Z</time>
      </trkpt>
      <trkpt lat="45.5343" lon="-1.01233">
        <ele>33.32</ele>
        <time>2016-11-27T11:08:51Z</time>
      </trkpt>
      <trkpt lat="45.53409" lon="-1.01196">
        <ele>33.19</ele>
        <time>2016-11-27T11:09:01Z</time>
      </trkpt>
      <trkpt lat="45.534" lon="-1.01191">
        <ele>33.08</ele>
        <time>2016-11-27T11:09:04Z</time>
      </trkpt>
      <trkpt lat="45.53362" lon="-1.01144">
        <ele>33.25</ele>
        <time>2016-11-27T11:09:19Z</time>
      </trkpt>
      <trkpt lat="45.53356" lon="-1.01132">
        <ele>32.88</ele>
        <time>2016-11-27T11:09:22Z</time>
      </trkpt>
      <trkpt lat="45.53335" lon="-1.01102">
        <ele>33.36</ele>
        <time>2016-11-27T11:09:31Z</time>
      </trkpt>
      <trkpt lat="45.53327" lon="-1.01095">
        <ele>33.13</ele>
        <time>2016-11-27T11:09:34Z</time>
      </trkpt>
      <trkpt lat="45.53314" lon="-1.01081">
        <ele>33.08</ele>
        <time>2016-11-27T11:09:39Z</time>
      </trkpt>
      <trkpt lat="45.53292" lon="-1.01057">
        <ele>33.12</ele>
        <time>2016-11-27T11:09:47Z</time>
      </trkpt>
      <trkpt lat="45.53284" lon="-1.01048">
        <ele>32.83</ele>
        <time>2016-11-27T11:09:50Z</time>
      </trkpt>
      <trkpt lat="45.53245" lon="-1.01014">
        <ele>33.63</ele>
        <time>2016-11-27T11:10:04Z</time>
      </trkpt>
      <trkpt lat="45.53237" lon="-1.01002">
        <ele>33.53</ele>
        <time>2016-11-27T11:10:07Z</time>
      </trkpt>
      <trkpt lat="45.53206" lon="-1.00951">
        <ele>34.17</ele>
        <time>2016-11-27T11:10:21Z</time>
      </trkpt>
      <trkpt lat="45.5319" lon="-1.00921">
        <ele>33.81</ele>
        <time>2016-11-27T11:10:28Z</time>
      </trkpt>
      <trkpt lat="45.53154" lon="-1.00862">
        <ele>33.79</ele>
        <time>2016-11-27T11:10:45Z</time>
      </trkpt>
      <trkpt lat="45.53113" lon="-1.00808">
        <ele>34.22</ele>
        <time>2016-11-27T11:11:03Z</time>
      </trkpt>
      <trkpt lat="45.5309" lon="-1.00779">
        <ele>34.15</ele>
        <time>2016-11-27T11:11:11Z</time>
      </trkpt>
      <trkpt lat="45.53063" lon="-1.00748">
        <ele>34.75</ele>
        <time>2016-11-27T11:11:21Z</time>
      </trkpt>
      <trkpt lat="45.53051" lon="-1.00738">
        <ele>34.35</ele>
        <time>2016-11-27T11:11:25Z</time>
      </trkpt>
      <trkpt lat="45.53037" lon="-1.00724">
        <ele>35.12</ele>
        <time>2016-11-27T11:11:30Z</time>
      </trkpt>
      <trkpt lat="45.53015" lon="-1.00691">
        <ele>34.76</ele>
        <time>2016-11-27T11:11:41Z</time>
      </trkpt>
      <trkpt lat="45.5299" lon="-1.00653">
        <ele>34.65</ele>
        <time>2016-11-27T11:11:54Z</time>
      </trkpt>
      <trkpt lat="45.5294" lon="-1.00589">
        <ele>34.65</ele>
        <time>2016-11-27T11:12:13Z</time>
      </trkpt>
      <trkpt lat="45.52914" lon="-1.00559">
        <ele>34.2</ele>
        <time>2016-11-27T11:12:22Z</time>
      </trkpt>
      <trkpt lat="45.52903" lon="-1.00546">
        <ele>33.72</ele>
        <time>2016-11-27T11:12:26Z</time>
      </trkpt>
      <trkpt lat="45.52859" lon="-1.00486">
        <ele>34.22</ele>
        <time>2016-11-27T11:12:44Z</time>
      </trkpt>
      <trkpt lat="45.52802" lon="-1.0042">
        <ele>34.06</ele>
        <time>2016-11-27T11:13:06Z</time>
      </trkpt>
      <trkpt lat="45.5279" lon="-1.00405">
        <ele>34.25</ele>
        <time>2016-11-27T11:13:11Z</time>
      </trkpt>
      <trkpt lat="45.52749" lon="-1.00346">
        <ele>34.6</ele>
        <time>2016-11-27T11:13:28Z</time>
      </trkpt>
      <trkpt lat="45.52738" lon="-1.00328">
        <ele>34.69</ele>
        <time>2016-11-27T11:13:33Z</time>
      </trkpt>
      <trkpt lat="45.52683" lon="-1.00255">
        <ele>35.17</ele>
        <time>2016-11-27T11:13:54Z</time>
      </trkpt>
      <trkpt lat="45.52627" lon="-1.00183">
        <ele>34.83</ele>
        <time>2016-11-27T11:14:15Z</time>
      </trkpt>
      <trkpt lat="45.52602" lon="-1.00143">
        <ele>34.8</ele>
        <time>2016-11-27T11:14:26Z</time>
      </trkpt>
      <trkpt lat="45.52579" lon="-1.0011">
        <ele>34.98</ele>
        <time>2016-11-27T11:14:35Z</time>
      </trkpt>
      <trkpt lat="45.52568" lon="-1.00096">
        <ele>34.72</ele>
        <time>2016-11-27T11:14:39Z</time>
      </trkpt>
      <trkpt lat="45.52518" lon="-1.00044">
        <ele>34.86</ele>
        <time>2016-11-27T11:14:56Z</time>
      </trkpt>
      <trkpt lat="45.52466" lon="-0.99993">
        <ele>34.56</ele>
        <time>2016-11-27T11:15:14Z</time>
      </trkpt>
      <trkpt lat="45.52466" lon="-0.99987">
        <ele>34.36</ele>
        <time>2016-11-27T11:15:15Z</time>
      </trkpt>
      <trkpt lat="45.52419" lon="-0.99921">
        <ele>35.02</ele>
        <time>2016-11-27T11:15:34Z</time>
      </trkpt>
      <trkpt lat="45.52371" lon="-0.99854">
        <ele>34.37</ele>
        <time>2016-11-27T11:15:53Z</time>
      </trkpt>
      <trkpt lat="45.5234" lon="-0.99801">
        <ele>34.57</ele>
        <time>2016-11-27T11:16:08Z</time>
      </trkpt>
      <trkpt lat="45.52306" lon="-0.99744">
        <ele>35.06</ele>
        <time>2016-11-27T11:16:23Z</time>
      </trkpt>
      <trkpt lat="45.52275" lon="-0.99689">
        <ele>34.43</ele>
        <time>2016-11-27T11:16:37Z</time>
      </trkpt>
      <trkpt lat="45.52255" lon="-0.99659">
        <ele>34.53</ele>
        <time>2016-11-27T11:16:46Z</time>
      </trkpt>
      <trkpt lat="45.52242" lon="-0.99628">
        <ele>34.38</ele>
        <time>2016-11-27T11:16:54Z</time>
      </trkpt>
      <trkpt lat="45.52231" lon="-0.9961">
        <ele>34.36</ele>
        <time>2016-11-27T11:16:59Z</time>
      </trkpt>
      <trkpt lat="45.52185" lon="-0.99548">
        <ele>34.53</ele>
        <time>2016-11-27T11:17:18Z</time>
      </trkpt>
      <trkpt lat="45.5218" lon="-0.99542">
        <ele>34.6</ele>
        <time>2016-11-27T11:17:20Z</time>
      </trkpt>
      <trkpt lat="45.52168" lon="-0.99531">
        <ele>34.59</ele>
        <time>2016-11-27T11:17:23Z</time>
      </trkpt>
      <trkpt lat="45.52132" lon="-0.99466">
        <ele>35.05</ele>
        <time>2016-11-27T11:17:40Z</time>
      </trkpt>
      <trkpt lat="45.52114" lon="-0.99441">
        <ele>34.87</ele>
        <time>2016-11-27T11:17:47Z</time>
      </trkpt>
      <trkpt lat="45.5209" lon="-0.99407">
        <ele>34.7</ele>
        <time>2016-11-27T11:17:57Z</time>
      </trkpt>
      <trkpt lat="45.52081" lon="-0.99399">
        <ele>34.87</ele>
        <time>2016-11-27T11:18:00Z</time>
      </trkpt>
      <trkpt lat="45.52043" lon="-0.99358">
        <ele>34.98</ele>
        <time>2016-11-27T11:18:13Z</time>
      </trkpt>
      <trkpt lat="45.52" lon="-0.9931">
        <ele>34.71</ele>
        <time>2016-11-27T11:18:28Z</time>
      </trkpt>
      <trkpt lat="45.51977" lon="-0.99285">
        <ele>34.55</ele>
        <time>2016-11-27T11:18:36Z</time>
      </trkpt>
      <trkpt lat="45.51958" lon="-0.99258">
        <ele>34.57</ele>
        <time>2016-11-27T11:18:44Z</time>
      </trkpt>
      <trkpt lat="45.51944" lon="-0.99238">
        <ele>34.87</ele>
        <time>2016-11-27T11:18:49Z</time>
      </trkpt>
      <trkpt lat="45.51939" lon="-0.99231">
        <ele>34.78</ele>
        <time>2016-11-27T11:18:51Z</time>
      </trkpt>
      <trkpt lat="45.5192" lon="-0.99204">
        <ele>35</ele>
        <time>2016-11-27T11:18:59Z</time>
      </trkpt>
      <trkpt lat="45.51909" lon="-0.99188">
        <ele>35</ele>
        <time>2016-11-27T11:19:04Z</time>
      </trkpt>
      <trkpt lat="45.5186" lon="-0.99117">
        <ele>35.16</ele>
        <time>2016-11-27T11:19:23Z</time>
      </trkpt>
      <trkpt lat="45.51816" lon="-0.99049">
        <ele>34.59</ele>
        <time>2016-11-27T11:19:41Z</time>
      </trkpt>
      <trkpt lat="45.51762" lon="-0.98985">
        <ele>35.25</ele>
        <time>2016-11-27T11:20:01Z</time>
      </trkpt>
      <trkpt lat="45.51711" lon="-0.9892">
        <ele>34.7</ele>
        <time>2016-11-27T11:20:20Z</time>
      </trkpt>
      <trkpt lat="45.51667" lon="-0.98853">
        <ele>35.31</ele>
        <time>2016-11-27T11:20:38Z</time>
      </trkpt>
      <trkpt lat="45.51653" lon="-0.98833">
        <ele>34.93</ele>
        <time>2016-11-27T11:20:44Z</time>
      </trkpt>
      <trkpt lat="45.51641" lon="-0.98815">
        <ele>34.69</ele>
        <time>2016-11-27T11:20:49Z</time>
      </trkpt>
      <trkpt lat="45.51586" lon="-0.98743">
        <ele>34.82</ele>
        <time>2016-11-27T11:21:10Z</time>
      </trkpt>
      <trkpt lat="45.51573" lon="-0.9873">
        <ele>34.73</ele>
        <time>2016-11-27T11:21:14Z</time>
      </trkpt>
      <trkpt lat="45.51526" lon="-0.98684">
        <ele>35.5</ele>
        <time>2016-11-27T11:21:31Z</time>
      </trkpt>
      <trkpt lat="45.51474" lon="-0.98624">
        <ele>34.97</ele>
        <time>2016-11-27T11:21:49Z</time>
      </trkpt>
      <trkpt lat="45.51424" lon="-0.98547">
        <ele>35.21</ele>
        <time>2016-11-27T11:22:09Z</time>
      </trkpt>
      <trkpt lat="45.51392" lon="-0.98492">
        <ele>35.34</ele>
        <time>2016-11-27T11:22:23Z</time>
      </trkpt>
      <trkpt lat="45.51372" lon="-0.98489">
        <ele>35.59</ele>
        <time>2016-11-27T11:22:27Z</time>
      </trkpt>
      <trkpt lat="45.51302" lon="-0.98431">
        <ele>35.05</ele>
        <time>2016-11-27T11:22:48Z</time>
      </trkpt>
      <trkpt lat="45.51274" lon="-0.98397">
        <ele>35</ele>
        <time>2016-11-27T11:22:57Z</time>
      </trkpt>
      <trkpt lat="45.51254" lon="-0.98387">
        <ele>35.29</ele>
        <time>2016-11-27T11:23:02Z</time>
      </trkpt>
      <trkpt lat="45.51243" lon="-0.9837">
        <ele>35.75</ele>
        <time>2016-11-27T11:23:06Z</time>
      </trkpt>
      <trkpt lat="45.51195" lon="-0.98312">
        <ele>34.82</ele>
        <time>2016-11-27T11:23:23Z</time>
      </trkpt>
      <trkpt lat="45.5117" lon="-0.98295">
        <ele>34.62</ele>
        <time>2016-11-27T11:23:30Z</time>
      </trkpt>
      <trkpt lat="45.51157" lon="-0.98284">
        <ele>34.88</ele>
        <time>2016-11-27T11:23:34Z</time>
      </trkpt>
      <trkpt lat="45.51096" lon="-0.98212">
        <ele>35.37</ele>
        <time>2016-11-27T11:23:56Z</time>
      </trkpt>
      <trkpt lat="45.51046" lon="-0.98141">
        <ele>35.15</ele>
        <time>2016-11-27T11:24:16Z</time>
      </trkpt>
      <trkpt lat="45.51041" lon="-0.98134">
        <ele>35.18</ele>
        <time>2016-11-27T11:24:18Z</time>
      </trkpt>
      <trkpt lat="45.51031" lon="-0.9812">
        <ele>35.06</ele>
        <time>2016-11-27T11:24:22Z</time>
      </trkpt>
      <trkpt lat="45.50975" lon="-0.98069">
        <ele>35.06</ele>
        <time>2016-11-27T11:24:40Z</time>
      </trkpt>
      <trkpt lat="45.50923" lon="-0.98016">
        <ele>34.73</ele>
        <time>2016-11-27T11:24:57Z</time>
      </trkpt>
      <trkpt lat="45.50867" lon="-0.97954">
        <ele>35.5</ele>
        <time>2016-11-27T11:25:17Z</time>
      </trkpt>
      <trkpt lat="45.50858" lon="-0.97946">
        <ele>35.76</ele>
        <time>2016-11-27T11:25:20Z</time>
      </trkpt>
      <trkpt lat="45.50835" lon="-0.97918">
        <ele>35.2</ele>
        <time>2016-11-27T11:25:27Z</time>
      </trkpt>
      <trkpt lat="45.50821" lon="-0.97901">
        <ele>35.43</ele>
        <time>2016-11-27T11:25:32Z</time>
      </trkpt>
      <trkpt lat="45.50794" lon="-0.97868">
        <ele>36.03</ele>
        <time>2016-11-27T11:25:42Z</time>
      </trkpt>
      <trkpt lat="45.50781" lon="-0.97853">
        <ele>36.11</ele>
        <time>2016-11-27T11:25:47Z</time>
      </trkpt>
      <trkpt lat="45.50748" lon="-0.97801">
        <ele>35.64</ele>
        <time>2016-11-27T11:26:01Z</time>
      </trkpt>
      <trkpt lat="45.50718" lon="-0.97753">
        <ele>35.76</ele>
        <time>2016-11-27T11:26:15Z</time>
      </trkpt>
      <trkpt lat="45.50706" lon="-0.97731">
        <ele>35.77</ele>
        <time>2016-11-27T11:26:21Z</time>
      </trkpt>
      <trkpt lat="45.50692" lon="-0.97709">
        <ele>35.92</ele>
        <time>2016-11-27T11:26:27Z</time>
      </trkpt>
      <trkpt lat="45.50671" lon="-0.97679">
        <ele>35.85</ele>
        <time>2016-11-27T11:26:35Z</time>
      </trkpt>
      <trkpt lat="45.50615" lon="-0.97608">
        <ele>35.8</ele>
        <time>2016-11-27T11:26:56Z</time>
      </trkpt>
      <trkpt lat="45.50573" lon="-0.97547">
        <ele>35.74</ele>
        <time>2016-11-27T11:27:14Z</time>
      </trkpt>
      <trkpt lat="45.50516" lon="-0.97475">
        <ele>35.78</ele>
        <time>2016-11-27T11:27:36Z</time>
      </trkpt>
      <trkpt lat="45.50498" lon="-0.97447">
        <ele>35.47</ele>
        <time>2016-11-27T11:27:46Z</time>
      </trkpt>
      <trkpt lat="45.50494" lon="-0.97441">
        <ele>35.32</ele>
        <time>2016-11-27T11:27:48Z</time>
      </trkpt>
      <trkpt lat="45.50477" lon="-0.97416">
        <ele>35.08</ele>
        <time>2016-11-27T11:27:55Z</time>
      </trkpt>
      <trkpt lat="45.50451" lon="-0.97369">
        <ele>35.1</ele>
        <time>2016-11-27T11:28:07Z</time>
      </trkpt>
      <trkpt lat="45.50441" lon="-0.97354">
        <ele>35.48</ele>
        <time>2016-11-27T11:28:11Z</time>
      </trkpt>
      <trkpt lat="45.50403" lon="-0.97296">
        <ele>35.54</ele>
        <time>2016-11-27T11:28:27Z</time>
      </trkpt>
      <trkpt lat="45.50388" lon="-0.97275">
        <ele>35.41</ele>
        <time>2016-11-27T11:28:33Z</time>
      </trkpt>
      <trkpt lat="45.50383" lon="-0.97268">
        <ele>35.35</ele>
        <time>2016-11-27T11:28:35Z</time>
      </trkpt>
      <trkpt lat="45.50371" lon="-0.97248">
        <ele>35.28</ele>
        <time>2016-11-27T11:28:41Z</time>
      </trkpt>
      <trkpt lat="45.5036" lon="-0.97231">
        <ele>35.31</ele>
        <time>2016-11-27T11:28:46Z</time>
      </trkpt>
      <trkpt lat="45.50351" lon="-0.97219">
        <ele>35.6</ele>
        <time>2016-11-27T11:28:50Z</time>
      </trkpt>
      <trkpt lat="45.5034" lon="-0.97203">
        <ele>35.34</ele>
        <time>2016-11-27T11:28:55Z</time>
      </trkpt>
      <trkpt lat="45.50327" lon="-0.97184">
        <ele>35.23</ele>
        <time>2016-11-27T11:29:01Z</time>
      </trkpt>
      <trkpt lat="45.50313" lon="-0.97165">
        <ele>35.54</ele>
        <time>2016-11-27T11:29:07Z</time>
      </trkpt>
      <trkpt lat="45.50309" lon="-0.97158">
        <ele>35.62</ele>
        <time>2016-11-27T11:29:09Z</time>
      </trkpt>
      <trkpt lat="45.5029" lon="-0.97124">
        <ele>35.77</ele>
        <time>2016-11-27T11:29:18Z</time>
      </trkpt>
      <trkpt lat="45.50275" lon="-0.97103">
        <ele>35.83</ele>
        <time>2016-11-27T11:29:24Z</time>
      </trkpt>
      <trkpt lat="45.50244" lon="-0.9706">
        <ele>36.13</ele>
        <time>2016-11-27T11:29:37Z</time>
      </trkpt>
      <trkpt lat="45.5024" lon="-0.97052">
        <ele>36.18</ele>
        <time>2016-11-27T11:29:39Z</time>
      </trkpt>
      <trkpt lat="45.5022" lon="-0.97024">
        <ele>36.55</ele>
        <time>2016-11-27T11:29:47Z</time>
      </trkpt>
      <trkpt lat="45.50213" lon="-0.97014">
        <ele>36.31</ele>
        <time>2016-11-27T11:29:50Z</time>
      </trkpt>
      <trkpt lat="45.50188" lon="-0.96979">
        <ele>36.15</ele>
        <time>2016-11-27T11:30:00Z</time>
      </trkpt>
      <trkpt lat="45.50184" lon="-0.96973">
        <ele>36.41</ele>
        <time>2016-11-27T11:30:02Z</time>
      </trkpt>
      <trkpt lat="45.50162" lon="-0.96941">
        <ele>36.61</ele>
        <time>2016-11-27T11:30:11Z</time>
      </trkpt>
      <trkpt lat="45.50149" lon="-0.96922">
        <ele>36.87</ele>
        <time>2016-11-27T11:30:16Z</time>
      </trkpt>
      <trkpt lat="45.50135" lon="-0.96905">
        <ele>36.67</ele>
        <time>2016-11-27T11:30:21Z</time>
      </trkpt>
      <trkpt lat="45.50096" lon="-0.96864">
        <ele>37.12</ele>
        <time>2016-11-27T11:30:34Z</time>
      </trkpt>
      <trkpt lat="45.50062" lon="-0.96817">
        <ele>37.13</ele>
        <time>2016-11-27T11:30:47Z</time>
      </trkpt>
      <trkpt lat="45.50045" lon="-0.96792">
        <ele>36.65</ele>
        <time>2016-11-27T11:30:54Z</time>
      </trkpt>
      <trkpt lat="45.50035" lon="-0.96777">
        <ele>36.34</ele>
        <time>2016-11-27T11:30:58Z</time>
      </trkpt>
      <trkpt lat="45.50013" lon="-0.96741">
        <ele>36.31</ele>
        <time>2016-11-27T11:31:08Z</time>
      </trkpt>
      <trkpt lat="45.50005" lon="-0.96725">
        <ele>36.11</ele>
        <time>2016-11-27T11:31:12Z</time>
      </trkpt>
      <trkpt lat="45.49984" lon="-0.9668">
        <ele>36.16</ele>
        <time>2016-11-27T11:31:24Z</time>
      </trkpt>
      <trkpt lat="45.4998" lon="-0.96674">
        <ele>36.11</ele>
        <time>2016-11-27T11:31:26Z</time>
      </trkpt>
      <trkpt lat="45.49961" lon="-0.96647">
        <ele>36.66</ele>
        <time>2016-11-27T11:31:34Z</time>
      </trkpt>
      <trkpt lat="45.49955" lon="-0.96635">
        <ele>36.87</ele>
        <time>2016-11-27T11:31:37Z</time>
      </trkpt>
      <trkpt lat="45.49947" lon="-0.9662">
        <ele>36.9</ele>
        <time>2016-11-27T11:31:41Z</time>
      </trkpt>
      <trkpt lat="45.49941" lon="-0.96608">
        <ele>36.95</ele>
        <time>2016-11-27T11:31:44Z</time>
      </trkpt>
      <trkpt lat="45.49937" lon="-0.96598">
        <ele>36.54</ele>
        <time>2016-11-27T11:31:47Z</time>
      </trkpt>
      <trkpt lat="45.49914" lon="-0.96552">
        <ele>36.8</ele>
        <time>2016-11-27T11:31:59Z</time>
      </trkpt>
      <trkpt lat="45.49905" lon="-0.96539">
        <ele>36.53</ele>
        <time>2016-11-27T11:32:03Z</time>
      </trkpt>
      <trkpt lat="45.49889" lon="-0.96514">
        <ele>36.75</ele>
        <time>2016-11-27T11:32:10Z</time>
      </trkpt>
      <trkpt lat="45.49879" lon="-0.96498">
        <ele>36.7</ele>
        <time>2016-11-27T11:32:14Z</time>
      </trkpt>
      <trkpt lat="45.49855" lon="-0.96459">
        <ele>36.55</ele>
        <time>2016-11-27T11:32:24Z</time>
      </trkpt>
      <trkpt lat="45.49849" lon="-0.96449">
        <ele>36.88</ele>
        <time>2016-11-27T11:32:27Z</time>
      </trkpt>
      <trkpt lat="45.49834" lon="-0.96423">
        <ele>36.87</ele>
        <time>2016-11-27T11:32:34Z</time>
      </trkpt>
      <trkpt lat="45.49827" lon="-0.9641">
        <ele>36.94</ele>
        <time>2016-11-27T11:32:37Z</time>
      </trkpt>
      <trkpt lat="45.49818" lon="-0.96394">
        <ele>36.77</ele>
        <time>2016-11-27T11:32:41Z</time>
      </trkpt>
      <trkpt lat="45.498" lon="-0.96363">
        <ele>37.11</ele>
        <time>2016-11-27T11:32:49Z</time>
      </trkpt>
      <trkpt lat="45.49794" lon="-0.9635">
        <ele>36.89</ele>
        <time>2016-11-27T11:32:52Z</time>
      </trkpt>
      <trkpt lat="45.49785" lon="-0.96337">
        <ele>37.03</ele>
        <time>2016-11-27T11:32:55Z</time>
      </trkpt>
      <trkpt lat="45.49772" lon="-0.96307">
        <ele>36.59</ele>
        <time>2016-11-27T11:33:03Z</time>
      </trkpt>
      <trkpt lat="45.49762" lon="-0.96289">
        <ele>36.36</ele>
        <time>2016-11-27T11:33:08Z</time>
      </trkpt>
      <trkpt lat="45.4975" lon="-0.96267">
        <ele>36.8</ele>
        <time>2016-11-27T11:33:14Z</time>
      </trkpt>
      <trkpt lat="45.49711" lon="-0.96201">
        <ele>36.92</ele>
        <time>2016-11-27T11:33:32Z</time>
      </trkpt>
      <trkpt lat="45.49687" lon="-0.96177">
        <ele>36.88</ele>
        <time>2016-11-27T11:33:40Z</time>
      </trkpt>
      <trkpt lat="45.49678" lon="-0.9616">
        <ele>36.69</ele>
        <time>2016-11-27T11:33:45Z</time>
      </trkpt>
      <trkpt lat="45.49644" lon="-0.96104">
        <ele>37.9</ele>
        <time>2016-11-27T11:33:59Z</time>
      </trkpt>
      <trkpt lat="45.49637" lon="-0.96092">
        <ele>37.46</ele>
        <time>2016-11-27T11:34:02Z</time>
      </trkpt>
      <trkpt lat="45.49617" lon="-0.96061">
        <ele>37.07</ele>
        <time>2016-11-27T11:34:10Z</time>
      </trkpt>
      <trkpt lat="45.49607" lon="-0.96045">
        <ele>37.01</ele>
        <time>2016-11-27T11:34:14Z</time>
      </trkpt>
      <trkpt lat="45.49598" lon="-0.96032">
        <ele>37.4</ele>
        <time>2016-11-27T11:34:18Z</time>
      </trkpt>
      <trkpt lat="45.49572" lon="-0.95986">
        <ele>37.35</ele>
        <time>2016-11-27T11:34:30Z</time>
      </trkpt>
      <trkpt lat="45.49564" lon="-0.95971">
        <ele>36.93</ele>
        <time>2016-11-27T11:34:34Z</time>
      </trkpt>
      <trkpt lat="45.49535" lon="-0.9592">
        <ele>37.86</ele>
        <time>2016-11-27T11:34:47Z</time>
      </trkpt>
      <trkpt lat="45.49526" lon="-0.95907">
        <ele>37.2</ele>
        <time>2016-11-27T11:34:50Z</time>
      </trkpt>
      <trkpt lat="45.495" lon="-0.95869">
        <ele>37.34</ele>
        <time>2016-11-27T11:35:00Z</time>
      </trkpt>
      <trkpt lat="45.49488" lon="-0.95851">
        <ele>37.85</ele>
        <time>2016-11-27T11:35:05Z</time>
      </trkpt>
      <trkpt lat="45.49484" lon="-0.95843">
        <ele>37.72</ele>
        <time>2016-11-27T11:35:07Z</time>
      </trkpt>
      <trkpt lat="45.49472" lon="-0.95823">
        <ele>37.61</ele>
        <time>2016-11-27T11:35:12Z</time>
      </trkpt>
      <trkpt lat="45.4945" lon="-0.95788">
        <ele>38.27</ele>
        <time>2016-11-27T11:35:21Z</time>
      </trkpt>
      <trkpt lat="45.49431" lon="-0.95757">
        <ele>37.28</ele>
        <time>2016-11-27T11:35:29Z</time>
      </trkpt>
      <trkpt lat="45.49419" lon="-0.95744">
        <ele>37.12</ele>
        <time>2016-11-27T11:35:33Z</time>
      </trkpt>
      <trkpt lat="45.49388" lon="-0.95702">
        <ele>36.59</ele>
        <time>2016-11-27T11:35:45Z</time>
      </trkpt>
      <trkpt lat="45.49356" lon="-0.95653">
        <ele>37.08</ele>
        <time>2016-11-27T11:35:58Z</time>
      </trkpt>
      <trkpt lat="45.4933" lon="-0.95609">
        <ele>37.22</ele>
        <time>2016-11-27T11:36:09Z</time>
      </trkpt>
      <trkpt lat="45.49303" lon="-0.95569">
        <ele>36.4</ele>
        <time>2016-11-27T11:36:19Z</time>
      </trkpt>
      <trkpt lat="45.49289" lon="-0.95547">
        <ele>36.65</ele>
        <time>2016-11-27T11:36:25Z</time>
      </trkpt>
      <trkpt lat="45.49264" lon="-0.95512">
        <ele>36.66</ele>
        <time>2016-11-27T11:36:35Z</time>
      </trkpt>
      <trkpt lat="45.49223" lon="-0.9546">
        <ele>36.5</ele>
        <time>2016-11-27T11:36:50Z</time>
      </trkpt>
      <trkpt lat="45.49199" lon="-0.95428">
        <ele>37.15</ele>
        <time>2016-11-27T11:36:59Z</time>
      </trkpt>
      <trkpt lat="45.49191" lon="-0.95413">
        <ele>37.21</ele>
        <time>2016-11-27T11:37:03Z</time>
      </trkpt>
      <trkpt lat="45.49179" lon="-0.95392">
        <ele>36.83</ele>
        <time>2016-11-27T11:37:08Z</time>
      </trkpt>
      <trkpt lat="45.49165" lon="-0.95363">
        <ele>36.95</ele>
        <time>2016-11-27T11:37:15Z</time>
      </trkpt>
      <trkpt lat="45.49136" lon="-0.95313">
        <ele>36</ele>
        <time>2016-11-27T11:37:28Z</time>
      </trkpt>
      <trkpt lat="45.49128" lon="-0.953">
        <ele>33.93</ele>
        <time>2016-11-27T11:37:31Z</time>
      </trkpt>
      <trkpt lat="45.49113" lon="-0.95272">
        <ele>36.64</ele>
        <time>2016-11-27T11:37:38Z</time>
      </trkpt>
      <trkpt lat="45.49111" lon="-0.95269">
        <ele>36.77</ele>
        <time>2016-11-27T11:37:39Z</time>
      </trkpt>
      <trkpt lat="45.49106" lon="-0.95261">
        <ele>36.77</ele>
        <time>2016-11-27T11:37:41Z</time>
      </trkpt>
      <trkpt lat="45.49098" lon="-0.95245">
        <ele>37.19</ele>
        <time>2016-11-27T11:37:45Z</time>
      </trkpt>
      <trkpt lat="45.49075" lon="-0.95203">
        <ele>36.53</ele>
        <time>2016-11-27T11:37:56Z</time>
      </trkpt>
      <trkpt lat="45.49058" lon="-0.95176">
        <ele>36.61</ele>
        <time>2016-11-27T11:38:03Z</time>
      </trkpt>
      <trkpt lat="45.49025" lon="-0.95124">
        <ele>36.54</ele>
        <time>2016-11-27T11:38:17Z</time>
      </trkpt>
      <trkpt lat="45.49" lon="-0.95081">
        <ele>37.27</ele>
        <time>2016-11-27T11:38:28Z</time>
      </trkpt>
      <trkpt lat="45.48989" lon="-0.95063">
        <ele>36.8</ele>
        <time>2016-11-27T11:38:33Z</time>
      </trkpt>
      <trkpt lat="45.48966" lon="-0.95019">
        <ele>37.25</ele>
        <time>2016-11-27T11:38:44Z</time>
      </trkpt>
      <trkpt lat="45.48955" lon="-0.94999">
        <ele>36.72</ele>
        <time>2016-11-27T11:38:49Z</time>
      </trkpt>
      <trkpt lat="45.48932" lon="-0.94964">
        <ele>37.58</ele>
        <time>2016-11-27T11:38:59Z</time>
      </trkpt>
      <trkpt lat="45.48918" lon="-0.94942">
        <ele>37.21</ele>
        <time>2016-11-27T11:39:05Z</time>
      </trkpt>
      <trkpt lat="45.48908" lon="-0.94926">
        <ele>36.9</ele>
        <time>2016-11-27T11:39:09Z</time>
      </trkpt>
      <trkpt lat="45.48878" lon="-0.94881">
        <ele>34.51</ele>
        <time>2016-11-27T11:39:21Z</time>
      </trkpt>
      <trkpt lat="45.48862" lon="-0.9486">
        <ele>34.92</ele>
        <time>2016-11-27T11:39:27Z</time>
      </trkpt>
      <trkpt lat="45.48845" lon="-0.94835">
        <ele>37.32</ele>
        <time>2016-11-27T11:39:34Z</time>
      </trkpt>
      <trkpt lat="45.48827" lon="-0.9481">
        <ele>36.04</ele>
        <time>2016-11-27T11:39:41Z</time>
      </trkpt>
      <trkpt lat="45.48797" lon="-0.94762">
        <ele>37.5</ele>
        <time>2016-11-27T11:39:54Z</time>
      </trkpt>
      <trkpt lat="45.48782" lon="-0.94737">
        <ele>37.81</ele>
        <time>2016-11-27T11:40:00Z</time>
      </trkpt>
      <trkpt lat="45.48756" lon="-0.94696">
        <ele>38.41</ele>
        <time>2016-11-27T11:40:11Z</time>
      </trkpt>
      <trkpt lat="45.48751" lon="-0.94688">
        <ele>38.56</ele>
        <time>2016-11-27T11:40:13Z</time>
      </trkpt>
      <trkpt lat="45.4872" lon="-0.94646">
        <ele>37.71</ele>
        <time>2016-11-27T11:40:25Z</time>
      </trkpt>
      <trkpt lat="45.48681" lon="-0.94604">
        <ele>37.41</ele>
        <time>2016-11-27T11:40:38Z</time>
      </trkpt>
      <trkpt lat="45.48671" lon="-0.9459">
        <ele>37.35</ele>
        <time>2016-11-27T11:40:42Z</time>
      </trkpt>
      <trkpt lat="45.48648" lon="-0.94551">
        <ele>37.57</ele>
        <time>2016-11-27T11:40:52Z</time>
      </trkpt>
      <trkpt lat="45.48637" lon="-0.94529">
        <ele>37.21</ele>
        <time>2016-11-27T11:40:58Z</time>
      </trkpt>
      <trkpt lat="45.4863" lon="-0.94514">
        <ele>37.43</ele>
        <time>2016-11-27T11:41:02Z</time>
      </trkpt>
      <trkpt lat="45.48609" lon="-0.94479">
        <ele>37.57</ele>
        <time>2016-11-27T11:41:11Z</time>
      </trkpt>
      <trkpt lat="45.48594" lon="-0.94456">
        <ele>38.41</ele>
        <time>2016-11-27T11:41:17Z</time>
      </trkpt>
      <trkpt lat="45.48572" lon="-0.94428">
        <ele>37.97</ele>
        <time>2016-11-27T11:41:25Z</time>
      </trkpt>
      <trkpt lat="45.48559" lon="-0.94406">
        <ele>37.25</ele>
        <time>2016-11-27T11:41:31Z</time>
      </trkpt>
      <trkpt lat="45.48523" lon="-0.94348">
        <ele>38.13</ele>
        <time>2016-11-27T11:41:46Z</time>
      </trkpt>
      <trkpt lat="45.48514" lon="-0.94331">
        <ele>37.98</ele>
        <time>2016-11-27T11:41:50Z</time>
      </trkpt>
      <trkpt lat="45.48506" lon="-0.94316">
        <ele>37.83</ele>
        <time>2016-11-27T11:41:54Z</time>
      </trkpt>
      <trkpt lat="45.48489" lon="-0.94287">
        <ele>37.95</ele>
        <time>2016-11-27T11:42:01Z</time>
      </trkpt>
      <trkpt lat="45.4845" lon="-0.94226">
        <ele>38.34</ele>
        <time>2016-11-27T11:42:17Z</time>
      </trkpt>
      <trkpt lat="45.48435" lon="-0.94202">
        <ele>38.7</ele>
        <time>2016-11-27T11:42:23Z</time>
      </trkpt>
      <trkpt lat="45.48421" lon="-0.94177">
        <ele>38.4</ele>
        <time>2016-11-27T11:42:29Z</time>
      </trkpt>
      <trkpt lat="45.48408" lon="-0.94158">
        <ele>38.5</ele>
        <time>2016-11-27T11:42:34Z</time>
      </trkpt>
      <trkpt lat="45.48401" lon="-0.94146">
        <ele>38.54</ele>
        <time>2016-11-27T11:42:37Z</time>
      </trkpt>
      <trkpt lat="45.4838" lon="-0.94115">
        <ele>38.5</ele>
        <time>2016-11-27T11:42:45Z</time>
      </trkpt>
      <trkpt lat="45.48351" lon="-0.94068">
        <ele>38.6</ele>
        <time>2016-11-27T11:42:57Z</time>
      </trkpt>
      <trkpt lat="45.48327" lon="-0.94029">
        <ele>38.52</ele>
        <time>2016-11-27T11:43:07Z</time>
      </trkpt>
      <trkpt lat="45.4832" lon="-0.94017">
        <ele>38.21</ele>
        <time>2016-11-27T11:43:10Z</time>
      </trkpt>
      <trkpt lat="45.48289" lon="-0.93966">
        <ele>38.52</ele>
        <time>2016-11-27T11:43:23Z</time>
      </trkpt>
      <trkpt lat="45.48271" lon="-0.93932">
        <ele>38.95</ele>
        <time>2016-11-27T11:43:31Z</time>
      </trkpt>
      <trkpt lat="45.48249" lon="-0.93889">
        <ele>38.78</ele>
        <time>2016-11-27T11:43:41Z</time>
      </trkpt>
      <trkpt lat="45.48242" lon="-0.93877">
        <ele>38.91</ele>
        <time>2016-11-27T11:43:44Z</time>
      </trkpt>
      <trkpt lat="45.48233" lon="-0.93862">
        <ele>38.52</ele>
        <time>2016-11-27T11:43:48Z</time>
      </trkpt>
      <trkpt lat="45.48215" lon="-0.93827">
        <ele>38.13</ele>
        <time>2016-11-27T11:43:56Z</time>
      </trkpt>
      <trkpt lat="45.48202" lon="-0.93806">
        <ele>38.2</ele>
        <time>2016-11-27T11:44:01Z</time>
      </trkpt>
      <trkpt lat="45.48192" lon="-0.93789">
        <ele>38.24</ele>
        <time>2016-11-27T11:44:05Z</time>
      </trkpt>
      <trkpt lat="45.48187" lon="-0.93781">
        <ele>38.26</ele>
        <time>2016-11-27T11:44:07Z</time>
      </trkpt>
      <trkpt lat="45.48183" lon="-0.93772">
        <ele>38.2</ele>
        <time>2016-11-27T11:44:09Z</time>
      </trkpt>
      <trkpt lat="45.48171" lon="-0.93764">
        <ele>38.01</ele>
        <time>2016-11-27T11:44:13Z</time>
      </trkpt>
      <trkpt lat="45.4816" lon="-0.93745">
        <ele>38.15</ele>
        <time>2016-11-27T11:44:18Z</time>
      </trkpt>
      <trkpt lat="45.48152" lon="-0.93729">
        <ele>38</ele>
        <time>2016-11-27T11:44:22Z</time>
      </trkpt>
      <trkpt lat="45.48137" lon="-0.93703">
        <ele>38.32</ele>
        <time>2016-11-27T11:44:27Z</time>
      </trkpt>
      <trkpt lat="45.48111" lon="-0.93657">
        <ele>38.54</ele>
        <time>2016-11-27T11:44:39Z</time>
      </trkpt>
      <trkpt lat="45.48101" lon="-0.93641">
        <ele>37.99</ele>
        <time>2016-11-27T11:44:43Z</time>
      </trkpt>
      <trkpt lat="45.48095" lon="-0.93627">
        <ele>38.12</ele>
        <time>2016-11-27T11:44:46Z</time>
      </trkpt>
      <trkpt lat="45.48079" lon="-0.93599">
        <ele>38.05</ele>
        <time>2016-11-27T11:44:53Z</time>
      </trkpt>
      <trkpt lat="45.48071" lon="-0.93586">
        <ele>38.01</ele>
        <time>2016-11-27T11:44:56Z</time>
      </trkpt>
      <trkpt lat="45.48062" lon="-0.93568">
        <ele>38.27</ele>
        <time>2016-11-27T11:45:00Z</time>
      </trkpt>
      <trkpt lat="45.48055" lon="-0.93555">
        <ele>38.07</ele>
        <time>2016-11-27T11:45:03Z</time>
      </trkpt>
      <trkpt lat="45.48047" lon="-0.93542">
        <ele>38.02</ele>
        <time>2016-11-27T11:45:06Z</time>
      </trkpt>
      <trkpt lat="45.48031" lon="-0.93514">
        <ele>38.91</ele>
        <time>2016-11-27T11:45:13Z</time>
      </trkpt>
      <trkpt lat="45.48019" lon="-0.93494">
        <ele>38.45</ele>
        <time>2016-11-27T11:45:18Z</time>
      </trkpt>
      <trkpt lat="45.48007" lon="-0.93473">
        <ele>38.63</ele>
        <time>2016-11-27T11:45:23Z</time>
      </trkpt>
      <trkpt lat="45.47971" lon="-0.93406">
        <ele>38.83</ele>
        <time>2016-11-27T11:45:39Z</time>
      </trkpt>
      <trkpt lat="45.4794" lon="-0.93354">
        <ele>39.15</ele>
        <time>2016-11-27T11:45:52Z</time>
      </trkpt>
      <trkpt lat="45.47906" lon="-0.93289">
        <ele>38.65</ele>
        <time>2016-11-27T11:46:07Z</time>
      </trkpt>
      <trkpt lat="45.47869" lon="-0.93224">
        <ele>38.83</ele>
        <time>2016-11-27T11:46:22Z</time>
      </trkpt>
      <trkpt lat="45.47861" lon="-0.93211">
        <ele>39.75</ele>
        <time>2016-11-27T11:46:25Z</time>
      </trkpt>
      <trkpt lat="45.47816" lon="-0.93142">
        <ele>39.38</ele>
        <time>2016-11-27T11:46:42Z</time>
      </trkpt>
      <trkpt lat="45.47807" lon="-0.93129">
        <ele>39.38</ele>
        <time>2016-11-27T11:46:45Z</time>
      </trkpt>
      <trkpt lat="45.47758" lon="-0.93069">
        <ele>38.94</ele>
        <time>2016-11-27T11:47:01Z</time>
      </trkpt>
      <trkpt lat="45.47745" lon="-0.93056">
        <ele>39.21</ele>
        <time>2016-11-27T11:47:05Z</time>
      </trkpt>
      <trkpt lat="45.47719" lon="-0.93028">
        <ele>38.79</ele>
        <time>2016-11-27T11:47:13Z</time>
      </trkpt>
      <trkpt lat="45.47706" lon="-0.93014">
        <ele>38.69</ele>
        <time>2016-11-27T11:47:17Z</time>
      </trkpt>
      <trkpt lat="45.47694" lon="-0.92997">
        <ele>38.82</ele>
        <time>2016-11-27T11:47:21Z</time>
      </trkpt>
      <trkpt lat="45.47689" lon="-0.92989">
        <ele>38.72</ele>
        <time>2016-11-27T11:47:23Z</time>
      </trkpt>
      <trkpt lat="45.47647" lon="-0.92935">
        <ele>38.73</ele>
        <time>2016-11-27T11:47:37Z</time>
      </trkpt>
      <trkpt lat="45.47634" lon="-0.9292">
        <ele>38.7</ele>
        <time>2016-11-27T11:47:41Z</time>
      </trkpt>
      <trkpt lat="45.47627" lon="-0.92913">
        <ele>38.72</ele>
        <time>2016-11-27T11:47:43Z</time>
      </trkpt>
      <trkpt lat="45.47611" lon="-0.92895">
        <ele>38.68</ele>
        <time>2016-11-27T11:47:48Z</time>
      </trkpt>
      <trkpt lat="45.47598" lon="-0.92879">
        <ele>38.75</ele>
        <time>2016-11-27T11:47:52Z</time>
      </trkpt>
      <trkpt lat="45.47557" lon="-0.92833">
        <ele>38.49</ele>
        <time>2016-11-27T11:48:05Z</time>
      </trkpt>
      <trkpt lat="45.47506" lon="-0.9277">
        <ele>38.83</ele>
        <time>2016-11-27T11:48:22Z</time>
      </trkpt>
      <trkpt lat="45.47475" lon="-0.92729">
        <ele>39.06</ele>
        <time>2016-11-27T11:48:32Z</time>
      </trkpt>
      <trkpt lat="45.47462" lon="-0.92712">
        <ele>38.85</ele>
        <time>2016-11-27T11:48:36Z</time>
      </trkpt>
      <trkpt lat="45.47448" lon="-0.92698">
        <ele>38.95</ele>
        <time>2016-11-27T11:48:40Z</time>
      </trkpt>
      <trkpt lat="45.47425" lon="-0.92673">
        <ele>39.38</ele>
        <time>2016-11-27T11:48:47Z</time>
      </trkpt>
      <trkpt lat="45.47403" lon="-0.92649">
        <ele>39.12</ele>
        <time>2016-11-27T11:48:54Z</time>
      </trkpt>
      <trkpt lat="45.47389" lon="-0.92629">
        <ele>39.11</ele>
        <time>2016-11-27T11:48:59Z</time>
      </trkpt>
      <trkpt lat="45.47328" lon="-0.92553">
        <ele>39.07</ele>
        <time>2016-11-27T11:49:19Z</time>
      </trkpt>
      <trkpt lat="45.47288" lon="-0.92503">
        <ele>39.36</ele>
        <time>2016-11-27T11:49:32Z</time>
      </trkpt>
      <trkpt lat="45.47276" lon="-0.92487">
        <ele>39.47</ele>
        <time>2016-11-27T11:49:36Z</time>
      </trkpt>
      <trkpt lat="45.47266" lon="-0.92476">
        <ele>39.25</ele>
        <time>2016-11-27T11:49:39Z</time>
      </trkpt>
      <trkpt lat="45.47251" lon="-0.9246">
        <ele>39.07</ele>
        <time>2016-11-27T11:49:44Z</time>
      </trkpt>
      <trkpt lat="45.47199" lon="-0.92397">
        <ele>38.9</ele>
        <time>2016-11-27T11:50:01Z</time>
      </trkpt>
      <trkpt lat="45.47153" lon="-0.92346">
        <ele>39.22</ele>
        <time>2016-11-27T11:50:16Z</time>
      </trkpt>
      <trkpt lat="45.47147" lon="-0.92339">
        <ele>39.53</ele>
        <time>2016-11-27T11:50:18Z</time>
      </trkpt>
      <trkpt lat="45.47134" lon="-0.92323">
        <ele>39.6</ele>
        <time>2016-11-27T11:50:22Z</time>
      </trkpt>
      <trkpt lat="45.47109" lon="-0.92288">
        <ele>39.62</ele>
        <time>2016-11-27T11:50:31Z</time>
      </trkpt>
      <trkpt lat="45.47058" lon="-0.92224">
        <ele>39.29</ele>
        <time>2016-11-27T11:50:48Z</time>
      </trkpt>
      <trkpt lat="45.47012" lon="-0.92163">
        <ele>39.49</ele>
        <time>2016-11-27T11:51:04Z</time>
      </trkpt>
      <trkpt lat="45.47006" lon="-0.92156">
        <ele>39.55</ele>
        <time>2016-11-27T11:51:06Z</time>
      </trkpt>
      <trkpt lat="45.46999" lon="-0.92147">
        <ele>39.56</ele>
        <time>2016-11-27T11:51:08Z</time>
      </trkpt>
      <trkpt lat="45.46975" lon="-0.92122">
        <ele>39.53</ele>
        <time>2016-11-27T11:51:15Z</time>
      </trkpt>
      <trkpt lat="45.46958" lon="-0.92103">
        <ele>39.7</ele>
        <time>2016-11-27T11:51:20Z</time>
      </trkpt>
      <trkpt lat="45.4693" lon="-0.92068">
        <ele>39.8</ele>
        <time>2016-11-27T11:51:29Z</time>
      </trkpt>
      <trkpt lat="45.46913" lon="-0.92048">
        <ele>40.15</ele>
        <time>2016-11-27T11:51:34Z</time>
      </trkpt>
      <trkpt lat="45.46904" lon="-0.92037">
        <ele>40.35</ele>
        <time>2016-11-27T11:51:37Z</time>
      </trkpt>
      <trkpt lat="45.46865" lon="-0.9199">
        <ele>39.69</ele>
        <time>2016-11-27T11:51:49Z</time>
      </trkpt>
      <trkpt lat="45.46862" lon="-0.91986">
        <ele>39.67</ele>
        <time>2016-11-27T11:51:50Z</time>
      </trkpt>
      <trkpt lat="45.46845" lon="-0.91967">
        <ele>39.67</ele>
        <time>2016-11-27T11:51:55Z</time>
      </trkpt>
      <trkpt lat="45.46832" lon="-0.91953">
        <ele>39.96</ele>
        <time>2016-11-27T11:51:59Z</time>
      </trkpt>
      <trkpt lat="45.46819" lon="-0.91937">
        <ele>39.99</ele>
        <time>2016-11-27T11:52:03Z</time>
      </trkpt>
      <trkpt lat="45.46813" lon="-0.9193">
        <ele>40.02</ele>
        <time>2016-11-27T11:52:05Z</time>
      </trkpt>
      <trkpt lat="45.468" lon="-0.91915">
        <ele>40.03</ele>
        <time>2016-11-27T11:52:09Z</time>
      </trkpt>
      <trkpt lat="45.46787" lon="-0.919">
        <ele>39.76</ele>
        <time>2016-11-27T11:52:13Z</time>
      </trkpt>
      <trkpt lat="45.4678" lon="-0.91893">
        <ele>39.62</ele>
        <time>2016-11-27T11:52:15Z</time>
      </trkpt>
      <trkpt lat="45.46764" lon="-0.91875">
        <ele>39.71</ele>
        <time>2016-11-27T11:52:20Z</time>
      </trkpt>
      <trkpt lat="45.46751" lon="-0.9186">
        <ele>39.88</ele>
        <time>2016-11-27T11:52:24Z</time>
      </trkpt>
      <trkpt lat="45.46744" lon="-0.91852">
        <ele>39.88</ele>
        <time>2016-11-27T11:52:26Z</time>
      </trkpt>
      <trkpt lat="45.46705" lon="-0.91805">
        <ele>39.9</ele>
        <time>2016-11-27T11:52:38Z</time>
      </trkpt>
      <trkpt lat="45.46693" lon="-0.91789">
        <ele>39.94</ele>
        <time>2016-11-27T11:52:42Z</time>
      </trkpt>
      <trkpt lat="45.46681" lon="-0.91774">
        <ele>39.88</ele>
        <time>2016-11-27T11:52:46Z</time>
      </trkpt>
      <trkpt lat="45.46671" lon="-0.91763">
        <ele>39.99</ele>
        <time>2016-11-27T11:52:49Z</time>
      </trkpt>
      <trkpt lat="45.46657" lon="-0.91749">
        <ele>40.34</ele>
        <time>2016-11-27T11:52:53Z</time>
      </trkpt>
      <trkpt lat="45.46641" lon="-0.91728">
        <ele>40.07</ele>
        <time>2016-11-27T11:52:58Z</time>
      </trkpt>
      <trkpt lat="45.46635" lon="-0.91721">
        <ele>40.13</ele>
        <time>2016-11-27T11:53:00Z</time>
      </trkpt>
      <trkpt lat="45.46616" lon="-0.91698">
        <ele>40.2</ele>
        <time>2016-11-27T11:53:06Z</time>
      </trkpt>
      <trkpt lat="45.46598" lon="-0.91674">
        <ele>40.43</ele>
        <time>2016-11-27T11:53:12Z</time>
      </trkpt>
      <trkpt lat="45.46586" lon="-0.91657">
        <ele>40.37</ele>
        <time>2016-11-27T11:53:16Z</time>
      </trkpt>
      <trkpt lat="45.46577" lon="-0.91645">
        <ele>40.41</ele>
        <time>2016-11-27T11:53:19Z</time>
      </trkpt>
      <trkpt lat="45.46527" lon="-0.91588">
        <ele>39.97</ele>
        <time>2016-11-27T11:53:34Z</time>
      </trkpt>
      <trkpt lat="45.46521" lon="-0.91582">
        <ele>39.98</ele>
        <time>2016-11-27T11:53:36Z</time>
      </trkpt>
      <trkpt lat="45.46494" lon="-0.91553">
        <ele>39.95</ele>
        <time>2016-11-27T11:53:44Z</time>
      </trkpt>
      <trkpt lat="45.46476" lon="-0.91535">
        <ele>40.14</ele>
        <time>2016-11-27T11:53:49Z</time>
      </trkpt>
      <trkpt lat="45.46462" lon="-0.9152">
        <ele>40.05</ele>
        <time>2016-11-27T11:53:53Z</time>
      </trkpt>
      <trkpt lat="45.46436" lon="-0.91489">
        <ele>40.08</ele>
        <time>2016-11-27T11:54:01Z</time>
      </trkpt>
      <trkpt lat="45.46416" lon="-0.91468">
        <ele>40.13</ele>
        <time>2016-11-27T11:54:07Z</time>
      </trkpt>
      <trkpt lat="45.46402" lon="-0.91453">
        <ele>40.29</ele>
        <time>2016-11-27T11:54:11Z</time>
      </trkpt>
      <trkpt lat="45.46396" lon="-0.91446">
        <ele>40.28</ele>
        <time>2016-11-27T11:54:13Z</time>
      </trkpt>
      <trkpt lat="45.46371" lon="-0.91413">
        <ele>40.08</ele>
        <time>2016-11-27T11:54:21Z</time>
      </trkpt>
      <trkpt lat="45.4636" lon="-0.91397">
        <ele>40.22</ele>
        <time>2016-11-27T11:54:25Z</time>
      </trkpt>
      <trkpt lat="45.46354" lon="-0.9139">
        <ele>39.96</ele>
        <time>2016-11-27T11:54:27Z</time>
      </trkpt>
      <trkpt lat="45.46341" lon="-0.91375">
        <ele>40.06</ele>
        <time>2016-11-27T11:54:31Z</time>
      </trkpt>
      <trkpt lat="45.46326" lon="-0.9136">
        <ele>40.03</ele>
        <time>2016-11-27T11:54:35Z</time>
      </trkpt>
      <trkpt lat="45.46279" lon="-0.91303">
        <ele>40.24</ele>
        <time>2016-11-27T11:54:50Z</time>
      </trkpt>
      <trkpt lat="45.46259" lon="-0.91277">
        <ele>40.25</ele>
        <time>2016-11-27T11:54:56Z</time>
      </trkpt>
      <trkpt lat="45.46249" lon="-0.91265">
        <ele>39.96</ele>
        <time>2016-11-27T11:54:59Z</time>
      </trkpt>
      <trkpt lat="45.46239" lon="-0.91252">
        <ele>40.05</ele>
        <time>2016-11-27T11:55:02Z</time>
      </trkpt>
      <trkpt lat="45.46223" lon="-0.91232">
        <ele>39.98</ele>
        <time>2016-11-27T11:55:07Z</time>
      </trkpt>
      <trkpt lat="45.46192" lon="-0.91197">
        <ele>40.11</ele>
        <time>2016-11-27T11:55:16Z</time>
      </trkpt>
      <trkpt lat="45.46186" lon="-0.91189">
        <ele>40.13</ele>
        <time>2016-11-27T11:55:18Z</time>
      </trkpt>
      <trkpt lat="45.46177" lon="-0.91178">
        <ele>40.13</ele>
        <time>2016-11-27T11:55:21Z</time>
      </trkpt>
      <trkpt lat="45.4612" lon="-0.91117">
        <ele>39.87</ele>
        <time>2016-11-27T11:55:38Z</time>
      </trkpt>
      <trkpt lat="45.4611" lon="-0.91107">
        <ele>39.77</ele>
        <time>2016-11-27T11:55:41Z</time>
      </trkpt>
      <trkpt lat="45.46092" lon="-0.9109">
        <ele>40.01</ele>
        <time>2016-11-27T11:55:46Z</time>
      </trkpt>
      <trkpt lat="45.46085" lon="-0.91082">
        <ele>39.95</ele>
        <time>2016-11-27T11:55:48Z</time>
      </trkpt>
      <trkpt lat="45.46075" lon="-0.91072">
        <ele>39.84</ele>
        <time>2016-11-27T11:55:51Z</time>
      </trkpt>
      <trkpt lat="45.46051" lon="-0.91047">
        <ele>39.83</ele>
        <time>2016-11-27T11:55:58Z</time>
      </trkpt>
      <trkpt lat="45.46041" lon="-0.91037">
        <ele>39.73</ele>
        <time>2016-11-27T11:56:01Z</time>
      </trkpt>
      <trkpt lat="45.46028" lon="-0.91022">
        <ele>39.69</ele>
        <time>2016-11-27T11:56:05Z</time>
      </trkpt>
      <trkpt lat="45.46006" lon="-0.90995">
        <ele>40</ele>
        <time>2016-11-27T11:56:12Z</time>
      </trkpt>
      <trkpt lat="45.45985" lon="-0.90973">
        <ele>40.31</ele>
        <time>2016-11-27T11:56:18Z</time>
      </trkpt>
      <trkpt lat="45.45976" lon="-0.90961">
        <ele>40.48</ele>
        <time>2016-11-27T11:56:21Z</time>
      </trkpt>
      <trkpt lat="45.45961" lon="-0.90941">
        <ele>40.09</ele>
        <time>2016-11-27T11:56:26Z</time>
      </trkpt>
      <trkpt lat="45.45941" lon="-0.90919">
        <ele>39.76</ele>
        <time>2016-11-27T11:56:32Z</time>
      </trkpt>
      <trkpt lat="45.45934" lon="-0.90913">
        <ele>39.85</ele>
        <time>2016-11-27T11:56:34Z</time>
      </trkpt>
      <trkpt lat="45.45882" lon="-0.90855">
        <ele>40.5</ele>
        <time>2016-11-27T11:56:50Z</time>
      </trkpt>
      <trkpt lat="45.45864" lon="-0.90833">
        <ele>40.22</ele>
        <time>2016-11-27T11:56:56Z</time>
      </trkpt>
      <trkpt lat="45.45855" lon="-0.90821">
        <ele>40.13</ele>
        <time>2016-11-27T11:56:59Z</time>
      </trkpt>
      <trkpt lat="45.45849" lon="-0.90813">
        <ele>40.01</ele>
        <time>2016-11-27T11:57:01Z</time>
      </trkpt>
      <trkpt lat="45.45836" lon="-0.90797">
        <ele>39.98</ele>
        <time>2016-11-27T11:57:05Z</time>
      </trkpt>
      <trkpt lat="45.45821" lon="-0.90778">
        <ele>39.89</ele>
        <time>2016-11-27T11:57:10Z</time>
      </trkpt>
      <trkpt lat="45.45797" lon="-0.90747">
        <ele>39.97</ele>
        <time>2016-11-27T11:57:18Z</time>
      </trkpt>
      <trkpt lat="45.45791" lon="-0.90739">
        <ele>40.2</ele>
        <time>2016-11-27T11:57:20Z</time>
      </trkpt>
      <trkpt lat="45.45779" lon="-0.90724">
        <ele>40.22</ele>
        <time>2016-11-27T11:57:24Z</time>
      </trkpt>
      <trkpt lat="45.45753" lon="-0.90694">
        <ele>39.81</ele>
        <time>2016-11-27T11:57:32Z</time>
      </trkpt>
      <trkpt lat="45.45723" lon="-0.90661">
        <ele>40.28</ele>
        <time>2016-11-27T11:57:41Z</time>
      </trkpt>
      <trkpt lat="45.45666" lon="-0.90594">
        <ele>39.93</ele>
        <time>2016-11-27T11:57:59Z</time>
      </trkpt>
      <trkpt lat="45.45614" lon="-0.90544">
        <ele>39.94</ele>
        <time>2016-11-27T11:58:14Z</time>
      </trkpt>
      <trkpt lat="45.4558" lon="-0.90506">
        <ele>39.97</ele>
        <time>2016-11-27T11:58:25Z</time>
      </trkpt>
      <trkpt lat="45.45535" lon="-0.90451">
        <ele>40.2</ele>
        <time>2016-11-27T11:58:40Z</time>
      </trkpt>
      <trkpt lat="45.45512" lon="-0.90423">
        <ele>40.12</ele>
        <time>2016-11-27T11:58:47Z</time>
      </trkpt>
      <trkpt lat="45.45458" lon="-0.90364">
        <ele>39.85</ele>
        <time>2016-11-27T11:59:04Z</time>
      </trkpt>
      <trkpt lat="45.45446" lon="-0.90351">
        <ele>39.98</ele>
        <time>2016-11-27T11:59:08Z</time>
      </trkpt>
      <trkpt lat="45.45436" lon="-0.90341">
        <ele>39.92</ele>
        <time>2016-11-27T11:59:11Z</time>
      </trkpt>
      <trkpt lat="45.45375" lon="-0.90278">
        <ele>39.92</ele>
        <time>2016-11-27T11:59:30Z</time>
      </trkpt>
      <trkpt lat="45.45356" lon="-0.90256">
        <ele>39.86</ele>
        <time>2016-11-27T11:59:36Z</time>
      </trkpt>
      <trkpt lat="45.45341" lon="-0.90237">
        <ele>39.93</ele>
        <time>2016-11-27T11:59:41Z</time>
      </trkpt>
      <trkpt lat="45.45334" lon="-0.9023">
        <ele>39.48</ele>
        <time>2016-11-27T11:59:43Z</time>
      </trkpt>
      <trkpt lat="45.45325" lon="-0.90219">
        <ele>39.4</ele>
        <time>2016-11-27T11:59:46Z</time>
      </trkpt>
      <trkpt lat="45.45313" lon="-0.90204">
        <ele>39.95</ele>
        <time>2016-11-27T11:59:50Z</time>
      </trkpt>
      <trkpt lat="45.453" lon="-0.90189">
        <ele>40</ele>
        <time>2016-11-27T11:59:54Z</time>
      </trkpt>
      <trkpt lat="45.45288" lon="-0.90175">
        <ele>38.88</ele>
        <time>2016-11-27T11:59:58Z</time>
      </trkpt>
      <trkpt lat="45.45275" lon="-0.90163">
        <ele>39.78</ele>
        <time>2016-11-27T12:00:02Z</time>
      </trkpt>
      <trkpt lat="45.4527" lon="-0.90157">
        <ele>39.73</ele>
        <time>2016-11-27T12:00:04Z</time>
      </trkpt>
      <trkpt lat="45.45253" lon="-0.90141">
        <ele>39.67</ele>
        <time>2016-11-27T12:00:09Z</time>
      </trkpt>
      <trkpt lat="45.45236" lon="-0.90125">
        <ele>39.74</ele>
        <time>2016-11-27T12:00:14Z</time>
      </trkpt>
      <trkpt lat="45.45178" lon="-0.90069">
        <ele>39.8</ele>
        <time>2016-11-27T12:00:32Z</time>
      </trkpt>
      <trkpt lat="45.45166" lon="-0.90066">
        <ele>39.45</ele>
        <time>2016-11-27T12:00:34Z</time>
      </trkpt>
      <trkpt lat="45.45155" lon="-0.90056">
        <ele>39.38</ele>
        <time>2016-11-27T12:00:37Z</time>
      </trkpt>
      <trkpt lat="45.45134" lon="-0.90037">
        <ele>39.55</ele>
        <time>2016-11-27T12:00:43Z</time>
      </trkpt>
      <trkpt lat="45.45128" lon="-0.90031">
        <ele>39.55</ele>
        <time>2016-11-27T12:00:45Z</time>
      </trkpt>
      <trkpt lat="45.45079" lon="-0.89985">
        <ele>38.96</ele>
        <time>2016-11-27T12:01:00Z</time>
      </trkpt>
      <trkpt lat="45.4507" lon="-0.89976">
        <ele>39.3</ele>
        <time>2016-11-27T12:01:03Z</time>
      </trkpt>
      <trkpt lat="45.45051" lon="-0.89958">
        <ele>39.73</ele>
        <time>2016-11-27T12:01:09Z</time>
      </trkpt>
      <trkpt lat="45.45039" lon="-0.89946">
        <ele>39.82</ele>
        <time>2016-11-27T12:01:13Z</time>
      </trkpt>
      <trkpt lat="45.45032" lon="-0.8994">
        <ele>39.72</ele>
        <time>2016-11-27T12:01:15Z</time>
      </trkpt>
      <trkpt lat="45.44996" lon="-0.89902">
        <ele>40.36</ele>
        <time>2016-11-27T12:01:27Z</time>
      </trkpt>
      <trkpt lat="45.44979" lon="-0.89883">
        <ele>40.17</ele>
        <time>2016-11-27T12:01:32Z</time>
      </trkpt>
      <trkpt lat="45.44965" lon="-0.89866">
        <ele>40.47</ele>
        <time>2016-11-27T12:01:36Z</time>
      </trkpt>
      <trkpt lat="45.44944" lon="-0.89843">
        <ele>40.39</ele>
        <time>2016-11-27T12:01:43Z</time>
      </trkpt>
      <trkpt lat="45.44918" lon="-0.89816">
        <ele>40.45</ele>
        <time>2016-11-27T12:01:51Z</time>
      </trkpt>
      <trkpt lat="45.44882" lon="-0.89779">
        <ele>40.62</ele>
        <time>2016-11-27T12:02:01Z</time>
      </trkpt>
      <trkpt lat="45.44869" lon="-0.89765">
        <ele>40.32</ele>
        <time>2016-11-27T12:02:05Z</time>
      </trkpt>
      <trkpt lat="45.44835" lon="-0.8973">
        <ele>40.91</ele>
        <time>2016-11-27T12:02:15Z</time>
      </trkpt>
      <trkpt lat="45.4481" lon="-0.89704">
        <ele>40.92</ele>
        <time>2016-11-27T12:02:23Z</time>
      </trkpt>
      <trkpt lat="45.4479" lon="-0.89683">
        <ele>40.77</ele>
        <time>2016-11-27T12:02:29Z</time>
      </trkpt>
      <trkpt lat="45.44773" lon="-0.89665">
        <ele>40.7</ele>
        <time>2016-11-27T12:02:34Z</time>
      </trkpt>
      <trkpt lat="45.44759" lon="-0.89653">
        <ele>40.41</ele>
        <time>2016-11-27T12:02:38Z</time>
      </trkpt>
      <trkpt lat="45.44731" lon="-0.89621">
        <ele>40.55</ele>
        <time>2016-11-27T12:02:46Z</time>
      </trkpt>
      <trkpt lat="45.44709" lon="-0.89596">
        <ele>40.59</ele>
        <time>2016-11-27T12:02:52Z</time>
      </trkpt>
      <trkpt lat="45.44694" lon="-0.89582">
        <ele>40.56</ele>
        <time>2016-11-27T12:02:56Z</time>
      </trkpt>
      <trkpt lat="45.4468" lon="-0.89567">
        <ele>40.71</ele>
        <time>2016-11-27T12:03:00Z</time>
      </trkpt>
      <trkpt lat="45.44658" lon="-0.89543">
        <ele>41.12</ele>
        <time>2016-11-27T12:03:07Z</time>
      </trkpt>
      <trkpt lat="45.44631" lon="-0.89515">
        <ele>40.81</ele>
        <time>2016-11-27T12:03:16Z</time>
      </trkpt>
      <trkpt lat="45.44614" lon="-0.89497">
        <ele>40.73</ele>
        <time>2016-11-27T12:03:21Z</time>
      </trkpt>
      <trkpt lat="45.446" lon="-0.89483">
        <ele>40.88</ele>
        <time>2016-11-27T12:03:25Z</time>
      </trkpt>
      <trkpt lat="45.44536" lon="-0.89424">
        <ele>40.52</ele>
        <time>2016-11-27T12:03:44Z</time>
      </trkpt>
      <trkpt lat="45.44523" lon="-0.89407">
        <ele>40.54</ele>
        <time>2016-11-27T12:03:48Z</time>
      </trkpt>
      <trkpt lat="45.44509" lon="-0.89393">
        <ele>40.42</ele>
        <time>2016-11-27T12:03:52Z</time>
      </trkpt>
      <trkpt lat="45.44502" lon="-0.89386">
        <ele>40.25</ele>
        <time>2016-11-27T12:03:54Z</time>
      </trkpt>
      <trkpt lat="45.4446" lon="-0.89343">
        <ele>40.39</ele>
        <time>2016-11-27T12:04:06Z</time>
      </trkpt>
      <trkpt lat="45.44452" lon="-0.89337">
        <ele>40.32</ele>
        <time>2016-11-27T12:04:08Z</time>
      </trkpt>
      <trkpt lat="45.44435" lon="-0.89318">
        <ele>40.72</ele>
        <time>2016-11-27T12:04:13Z</time>
      </trkpt>
      <trkpt lat="45.44422" lon="-0.89306">
        <ele>40.78</ele>
        <time>2016-11-27T12:04:17Z</time>
      </trkpt>
      <trkpt lat="45.44412" lon="-0.89295">
        <ele>40.69</ele>
        <time>2016-11-27T12:04:20Z</time>
      </trkpt>
      <trkpt lat="45.44401" lon="-0.89284">
        <ele>40.36</ele>
        <time>2016-11-27T12:04:23Z</time>
      </trkpt>
      <trkpt lat="45.44379" lon="-0.89263">
        <ele>40.36</ele>
        <time>2016-11-27T12:04:29Z</time>
      </trkpt>
      <trkpt lat="45.44366" lon="-0.89249">
        <ele>40.22</ele>
        <time>2016-11-27T12:04:33Z</time>
      </trkpt>
      <trkpt lat="45.44356" lon="-0.89239">
        <ele>40.5</ele>
        <time>2016-11-27T12:04:36Z</time>
      </trkpt>
      <trkpt lat="45.44336" lon="-0.89217">
        <ele>40.63</ele>
        <time>2016-11-27T12:04:42Z</time>
      </trkpt>
      <trkpt lat="45.44317" lon="-0.89201">
        <ele>40.48</ele>
        <time>2016-11-27T12:04:47Z</time>
      </trkpt>
      <trkpt lat="45.44304" lon="-0.89187">
        <ele>40.43</ele>
        <time>2016-11-27T12:04:51Z</time>
      </trkpt>
      <trkpt lat="45.4428" lon="-0.89162">
        <ele>40.24</ele>
        <time>2016-11-27T12:04:58Z</time>
      </trkpt>
      <trkpt lat="45.44271" lon="-0.89154">
        <ele>40.27</ele>
        <time>2016-11-27T12:05:01Z</time>
      </trkpt>
      <trkpt lat="45.44258" lon="-0.89139">
        <ele>40.39</ele>
        <time>2016-11-27T12:05:05Z</time>
      </trkpt>
      <trkpt lat="45.44242" lon="-0.89118">
        <ele>40.37</ele>
        <time>2016-11-27T12:05:10Z</time>
      </trkpt>
      <trkpt lat="45.4423" lon="-0.89104">
        <ele>40.44</ele>
        <time>2016-11-27T12:05:14Z</time>
      </trkpt>
      <trkpt lat="45.4422" lon="-0.89092">
        <ele>40.36</ele>
        <time>2016-11-27T12:05:17Z</time>
      </trkpt>
      <trkpt lat="45.44209" lon="-0.89082">
        <ele>40.35</ele>
        <time>2016-11-27T12:05:20Z</time>
      </trkpt>
      <trkpt lat="45.44192" lon="-0.89063">
        <ele>40.48</ele>
        <time>2016-11-27T12:05:25Z</time>
      </trkpt>
      <trkpt lat="45.44182" lon="-0.89052">
        <ele>40.32</ele>
        <time>2016-11-27T12:05:28Z</time>
      </trkpt>
      <trkpt lat="45.44171" lon="-0.89037">
        <ele>40.23</ele>
        <time>2016-11-27T12:05:32Z</time>
      </trkpt>
      <trkpt lat="45.44111" lon="-0.88973">
        <ele>40.1</ele>
        <time>2016-11-27T12:05:52Z</time>
      </trkpt>
      <trkpt lat="45.44089" lon="-0.88959">
        <ele>40.19</ele>
        <time>2016-11-27T12:05:56Z</time>
      </trkpt>
      <trkpt lat="45.44067" lon="-0.88937">
        <ele>40.08</ele>
        <time>2016-11-27T12:06:02Z</time>
      </trkpt>
      <trkpt lat="45.43998" lon="-0.88867">
        <ele>40.41</ele>
        <time>2016-11-27T12:06:22Z</time>
      </trkpt>
      <trkpt lat="45.43917" lon="-0.88792">
        <ele>40.4</ele>
        <time>2016-11-27T12:06:47Z</time>
      </trkpt>
      <trkpt lat="45.43858" lon="-0.88729">
        <ele>40.37</ele>
        <time>2016-11-27T12:07:07Z</time>
      </trkpt>
      <trkpt lat="45.43837" lon="-0.88706">
        <ele>40.32</ele>
        <time>2016-11-27T12:07:13Z</time>
      </trkpt>
      <trkpt lat="45.43751" lon="-0.88633">
        <ele>40.35</ele>
        <time>2016-11-27T12:07:35Z</time>
      </trkpt>
      <trkpt lat="45.43729" lon="-0.88613">
        <ele>40.23</ele>
        <time>2016-11-27T12:07:41Z</time>
      </trkpt>
      <trkpt lat="45.43708" lon="-0.88593">
        <ele>40.21</ele>
        <time>2016-11-27T12:07:47Z</time>
      </trkpt>
      <trkpt lat="45.43686" lon="-0.88572">
        <ele>40.19</ele>
        <time>2016-11-27T12:07:54Z</time>
      </trkpt>
      <trkpt lat="45.43677" lon="-0.88561">
        <ele>40.06</ele>
        <time>2016-11-27T12:07:56Z</time>
      </trkpt>
      <trkpt lat="45.43613" lon="-0.88501">
        <ele>40.45</ele>
        <time>2016-11-27T12:08:15Z</time>
      </trkpt>
      <trkpt lat="45.43593" lon="-0.88479">
        <ele>40.67</ele>
        <time>2016-11-27T12:08:22Z</time>
      </trkpt>
      <trkpt lat="45.43547" lon="-0.88432">
        <ele>40.1</ele>
        <time>2016-11-27T12:08:35Z</time>
      </trkpt>
      <trkpt lat="45.43517" lon="-0.88404">
        <ele>40.56</ele>
        <time>2016-11-27T12:08:43Z</time>
      </trkpt>
      <trkpt lat="45.43462" lon="-0.88335">
        <ele>40.66</ele>
        <time>2016-11-27T12:09:02Z</time>
      </trkpt>
      <trkpt lat="45.43453" lon="-0.88326">
        <ele>40.54</ele>
        <time>2016-11-27T12:09:04Z</time>
      </trkpt>
      <trkpt lat="45.43433" lon="-0.8832">
        <ele>40.91</ele>
        <time>2016-11-27T12:09:08Z</time>
      </trkpt>
      <trkpt lat="45.43406" lon="-0.88292">
        <ele>40.8</ele>
        <time>2016-11-27T12:09:16Z</time>
      </trkpt>
      <trkpt lat="45.43401" lon="-0.88285">
        <ele>40.78</ele>
        <time>2016-11-27T12:09:18Z</time>
      </trkpt>
      <trkpt lat="45.43388" lon="-0.88269">
        <ele>41.33</ele>
        <time>2016-11-27T12:09:22Z</time>
      </trkpt>
      <trkpt lat="45.43363" lon="-0.88248">
        <ele>41.06</ele>
        <time>2016-11-27T12:09:29Z</time>
      </trkpt>
      <trkpt lat="45.43355" lon="-0.88241">
        <ele>41.34</ele>
        <time>2016-11-27T12:09:31Z</time>
      </trkpt>
      <trkpt lat="45.43338" lon="-0.88224">
        <ele>40.94</ele>
        <time>2016-11-27T12:09:36Z</time>
      </trkpt>
      <trkpt lat="45.4331" lon="-0.88198">
        <ele>40.99</ele>
        <time>2016-11-27T12:09:44Z</time>
      </trkpt>
      <trkpt lat="45.43297" lon="-0.88183">
        <ele>40.85</ele>
        <time>2016-11-27T12:09:48Z</time>
      </trkpt>
      <trkpt lat="45.43275" lon="-0.88157">
        <ele>40.92</ele>
        <time>2016-11-27T12:09:55Z</time>
      </trkpt>
      <trkpt lat="45.43259" lon="-0.8814">
        <ele>40.82</ele>
        <time>2016-11-27T12:10:00Z</time>
      </trkpt>
      <trkpt lat="45.43239" lon="-0.88119">
        <ele>40.58</ele>
        <time>2016-11-27T12:10:06Z</time>
      </trkpt>
      <trkpt lat="45.43224" lon="-0.88108">
        <ele>40.71</ele>
        <time>2016-11-27T12:10:10Z</time>
      </trkpt>
      <trkpt lat="45.43213" lon="-0.88099">
        <ele>40.62</ele>
        <time>2016-11-27T12:10:13Z</time>
      </trkpt>
      <trkpt lat="45.43199" lon="-0.88085">
        <ele>40.72</ele>
        <time>2016-11-27T12:10:17Z</time>
      </trkpt>
      <trkpt lat="45.43139" lon="-0.88024">
        <ele>40.32</ele>
        <time>2016-11-27T12:10:35Z</time>
      </trkpt>
      <trkpt lat="45.4312" lon="-0.8801">
        <ele>40.36</ele>
        <time>2016-11-27T12:10:40Z</time>
      </trkpt>
      <trkpt lat="45.43067" lon="-0.87959">
        <ele>40.4</ele>
        <time>2016-11-27T12:10:56Z</time>
      </trkpt>
      <trkpt lat="45.43016" lon="-0.87912">
        <ele>40.37</ele>
        <time>2016-11-27T12:11:11Z</time>
      </trkpt>
      <trkpt lat="45.43003" lon="-0.87901">
        <ele>40.27</ele>
        <time>2016-11-27T12:11:15Z</time>
      </trkpt>
      <trkpt lat="45.42986" lon="-0.87886">
        <ele>40.22</ele>
        <time>2016-11-27T12:11:20Z</time>
      </trkpt>
      <trkpt lat="45.42976" lon="-0.87877">
        <ele>39.9</ele>
        <time>2016-11-27T12:11:23Z</time>
      </trkpt>
      <trkpt lat="45.42958" lon="-0.87857">
        <ele>40.29</ele>
        <time>2016-11-27T12:11:29Z</time>
      </trkpt>
      <trkpt lat="45.42941" lon="-0.87841">
        <ele>40.39</ele>
        <time>2016-11-27T12:11:34Z</time>
      </trkpt>
      <trkpt lat="45.42927" lon="-0.87828">
        <ele>39.77</ele>
        <time>2016-11-27T12:11:38Z</time>
      </trkpt>
      <trkpt lat="45.42913" lon="-0.87816">
        <ele>39.89</ele>
        <time>2016-11-27T12:11:42Z</time>
      </trkpt>
      <trkpt lat="45.42907" lon="-0.87809">
        <ele>40.06</ele>
        <time>2016-11-27T12:11:44Z</time>
      </trkpt>
      <trkpt lat="45.42891" lon="-0.87793">
        <ele>39.94</ele>
        <time>2016-11-27T12:11:49Z</time>
      </trkpt>
      <trkpt lat="45.42867" lon="-0.87769">
        <ele>40.19</ele>
        <time>2016-11-27T12:11:57Z</time>
      </trkpt>
      <trkpt lat="45.42857" lon="-0.8776">
        <ele>39.85</ele>
        <time>2016-11-27T12:12:00Z</time>
      </trkpt>
      <trkpt lat="45.42847" lon="-0.8775">
        <ele>40.04</ele>
        <time>2016-11-27T12:12:03Z</time>
      </trkpt>
      <trkpt lat="45.42824" lon="-0.87727">
        <ele>39.94</ele>
        <time>2016-11-27T12:12:10Z</time>
      </trkpt>
      <trkpt lat="45.42808" lon="-0.87712">
        <ele>39.9</ele>
        <time>2016-11-27T12:12:15Z</time>
      </trkpt>
      <trkpt lat="45.42796" lon="-0.877">
        <ele>40.05</ele>
        <time>2016-11-27T12:12:19Z</time>
      </trkpt>
      <trkpt lat="45.42777" lon="-0.87681">
        <ele>39.94</ele>
        <time>2016-11-27T12:12:25Z</time>
      </trkpt>
      <trkpt lat="45.42758" lon="-0.87662">
        <ele>39.83</ele>
        <time>2016-11-27T12:12:31Z</time>
      </trkpt>
      <trkpt lat="45.42746" lon="-0.87649">
        <ele>39.87</ele>
        <time>2016-11-27T12:12:35Z</time>
      </trkpt>
      <trkpt lat="45.42723" lon="-0.87626">
        <ele>39.85</ele>
        <time>2016-11-27T12:12:42Z</time>
      </trkpt>
      <trkpt lat="45.42665" lon="-0.87571">
        <ele>39.49</ele>
        <time>2016-11-27T12:13:00Z</time>
      </trkpt>
      <trkpt lat="45.42646" lon="-0.87552">
        <ele>39.55</ele>
        <time>2016-11-27T12:13:06Z</time>
      </trkpt>
      <trkpt lat="45.42637" lon="-0.87543">
        <ele>39.56</ele>
        <time>2016-11-27T12:13:09Z</time>
      </trkpt>
      <trkpt lat="45.42625" lon="-0.87531">
        <ele>39.58</ele>
        <time>2016-11-27T12:13:13Z</time>
      </trkpt>
      <trkpt lat="45.42618" lon="-0.87525">
        <ele>39.61</ele>
        <time>2016-11-27T12:13:15Z</time>
      </trkpt>
      <trkpt lat="45.42595" lon="-0.875">
        <ele>39.47</ele>
        <time>2016-11-27T12:13:23Z</time>
      </trkpt>
      <trkpt lat="45.42535" lon="-0.87439">
        <ele>39.75</ele>
        <time>2016-11-27T12:13:45Z</time>
      </trkpt>
      <trkpt lat="45.42466" lon="-0.87364">
        <ele>40.36</ele>
        <time>2016-11-27T12:14:08Z</time>
      </trkpt>
      <trkpt lat="45.42421" lon="-0.87314">
        <ele>39.88</ele>
        <time>2016-11-27T12:14:22Z</time>
      </trkpt>
      <trkpt lat="45.42379" lon="-0.87281">
        <ele>40.12</ele>
        <time>2016-11-27T12:14:31Z</time>
      </trkpt>
      <trkpt lat="45.4235" lon="-0.87248">
        <ele>40.17</ele>
        <time>2016-11-27T12:14:40Z</time>
      </trkpt>
      <trkpt lat="45.4234" lon="-0.87237">
        <ele>39.87</ele>
        <time>2016-11-27T12:14:43Z</time>
      </trkpt>
      <trkpt lat="45.42326" lon="-0.87222">
        <ele>39.59</ele>
        <time>2016-11-27T12:14:47Z</time>
      </trkpt>
      <trkpt lat="45.42304" lon="-0.87199">
        <ele>40.53</ele>
        <time>2016-11-27T12:14:54Z</time>
      </trkpt>
      <trkpt lat="45.42291" lon="-0.87185">
        <ele>40.24</ele>
        <time>2016-11-27T12:14:58Z</time>
      </trkpt>
      <trkpt lat="45.42281" lon="-0.87176">
        <ele>40.22</ele>
        <time>2016-11-27T12:15:01Z</time>
      </trkpt>
      <trkpt lat="45.42248" lon="-0.87138">
        <ele>39.68</ele>
        <time>2016-11-27T12:15:12Z</time>
      </trkpt>
      <trkpt lat="45.42222" lon="-0.87111">
        <ele>40.31</ele>
        <time>2016-11-27T12:15:20Z</time>
      </trkpt>
      <trkpt lat="45.42157" lon="-0.87046">
        <ele>40.22</ele>
        <time>2016-11-27T12:15:40Z</time>
      </trkpt>
      <trkpt lat="45.42147" lon="-0.87036">
        <ele>40.45</ele>
        <time>2016-11-27T12:15:43Z</time>
      </trkpt>
      <trkpt lat="45.42134" lon="-0.87023">
        <ele>40.38</ele>
        <time>2016-11-27T12:15:47Z</time>
      </trkpt>
      <trkpt lat="45.42127" lon="-0.87016">
        <ele>40.38</ele>
        <time>2016-11-27T12:15:49Z</time>
      </trkpt>
      <trkpt lat="45.42069" lon="-0.86948">
        <ele>41.12</ele>
        <time>2016-11-27T12:16:09Z</time>
      </trkpt>
      <trkpt lat="45.4206" lon="-0.86937">
        <ele>40.94</ele>
        <time>2016-11-27T12:16:12Z</time>
      </trkpt>
      <trkpt lat="45.4205" lon="-0.86924">
        <ele>40.88</ele>
        <time>2016-11-27T12:16:15Z</time>
      </trkpt>
      <trkpt lat="45.42035" lon="-0.86909">
        <ele>40.99</ele>
        <time>2016-11-27T12:16:19Z</time>
      </trkpt>
      <trkpt lat="45.42016" lon="-0.86889">
        <ele>40.87</ele>
        <time>2016-11-27T12:16:24Z</time>
      </trkpt>
      <trkpt lat="45.42004" lon="-0.86877">
        <ele>40.92</ele>
        <time>2016-11-27T12:16:27Z</time>
      </trkpt>
      <trkpt lat="45.41997" lon="-0.86868">
        <ele>40.87</ele>
        <time>2016-11-27T12:16:29Z</time>
      </trkpt>
      <trkpt lat="45.41988" lon="-0.86857">
        <ele>40.78</ele>
        <time>2016-11-27T12:16:32Z</time>
      </trkpt>
      <trkpt lat="45.4196" lon="-0.86822">
        <ele>41.18</ele>
        <time>2016-11-27T12:16:41Z</time>
      </trkpt>
      <trkpt lat="45.41948" lon="-0.86807">
        <ele>41.22</ele>
        <time>2016-11-27T12:16:45Z</time>
      </trkpt>
      <trkpt lat="45.41943" lon="-0.86799">
        <ele>41.1</ele>
        <time>2016-11-27T12:16:47Z</time>
      </trkpt>
      <trkpt lat="45.41937" lon="-0.86791">
        <ele>41.15</ele>
        <time>2016-11-27T12:16:49Z</time>
      </trkpt>
      <trkpt lat="45.41924" lon="-0.86779">
        <ele>41.12</ele>
        <time>2016-11-27T12:16:53Z</time>
      </trkpt>
      <trkpt lat="45.41909" lon="-0.86759">
        <ele>41.24</ele>
        <time>2016-11-27T12:16:58Z</time>
      </trkpt>
      <trkpt lat="45.41903" lon="-0.86751">
        <ele>41.2</ele>
        <time>2016-11-27T12:17:00Z</time>
      </trkpt>
      <trkpt lat="45.41896" lon="-0.86743">
        <ele>41.2</ele>
        <time>2016-11-27T12:17:02Z</time>
      </trkpt>
      <trkpt lat="45.41882" lon="-0.86727">
        <ele>41.24</ele>
        <time>2016-11-27T12:17:06Z</time>
      </trkpt>
      <trkpt lat="45.41868" lon="-0.86712">
        <ele>41.34</ele>
        <time>2016-11-27T12:17:10Z</time>
      </trkpt>
      <trkpt lat="45.41847" lon="-0.86691">
        <ele>41.03</ele>
        <time>2016-11-27T12:17:16Z</time>
      </trkpt>
      <trkpt lat="45.41808" lon="-0.8665">
        <ele>41.06</ele>
        <time>2016-11-27T12:17:28Z</time>
      </trkpt>
      <trkpt lat="45.41798" lon="-0.8664">
        <ele>41.26</ele>
        <time>2016-11-27T12:17:31Z</time>
      </trkpt>
      <trkpt lat="45.41785" lon="-0.86627">
        <ele>41.18</ele>
        <time>2016-11-27T12:17:35Z</time>
      </trkpt>
      <trkpt lat="45.41749" lon="-0.8659">
        <ele>41.23</ele>
        <time>2016-11-27T12:17:43Z</time>
      </trkpt>
      <trkpt lat="45.41714" lon="-0.86548">
        <ele>41.26</ele>
        <time>2016-11-27T12:17:54Z</time>
      </trkpt>
      <trkpt lat="45.41695" lon="-0.86526">
        <ele>40.81</ele>
        <time>2016-11-27T12:18:00Z</time>
      </trkpt>
      <trkpt lat="45.41674" lon="-0.86506">
        <ele>40.85</ele>
        <time>2016-11-27T12:18:06Z</time>
      </trkpt>
      <trkpt lat="45.41657" lon="-0.86488">
        <ele>41.14</ele>
        <time>2016-11-27T12:18:11Z</time>
      </trkpt>
      <trkpt lat="45.41651" lon="-0.86481">
        <ele>41.25</ele>
        <time>2016-11-27T12:18:13Z</time>
      </trkpt>
      <trkpt lat="45.4164" lon="-0.86469">
        <ele>41.23</ele>
        <time>2016-11-27T12:18:16Z</time>
      </trkpt>
      <trkpt lat="45.4162" lon="-0.86446">
        <ele>40.94</ele>
        <time>2016-11-27T12:18:22Z</time>
      </trkpt>
      <trkpt lat="45.41614" lon="-0.86439">
        <ele>41.15</ele>
        <time>2016-11-27T12:18:24Z</time>
      </trkpt>
      <trkpt lat="45.41593" lon="-0.86416">
        <ele>40.97</ele>
        <time>2016-11-27T12:18:30Z</time>
      </trkpt>
      <trkpt lat="45.41583" lon="-0.86405">
        <ele>40.93</ele>
        <time>2016-11-27T12:18:33Z</time>
      </trkpt>
      <trkpt lat="45.41552" lon="-0.86373">
        <ele>41.57</ele>
        <time>2016-11-27T12:18:42Z</time>
      </trkpt>
      <trkpt lat="45.41546" lon="-0.86366">
        <ele>41.51</ele>
        <time>2016-11-27T12:18:44Z</time>
      </trkpt>
      <trkpt lat="45.41536" lon="-0.86354">
        <ele>41.63</ele>
        <time>2016-11-27T12:18:47Z</time>
      </trkpt>
      <trkpt lat="45.4153" lon="-0.86345">
        <ele>41.67</ele>
        <time>2016-11-27T12:18:49Z</time>
      </trkpt>
      <trkpt lat="45.41516" lon="-0.8633">
        <ele>41.29</ele>
        <time>2016-11-27T12:18:53Z</time>
      </trkpt>
      <trkpt lat="45.41503" lon="-0.86315">
        <ele>41.25</ele>
        <time>2016-11-27T12:18:57Z</time>
      </trkpt>
      <trkpt lat="45.41495" lon="-0.86308">
        <ele>41.18</ele>
        <time>2016-11-27T12:18:59Z</time>
      </trkpt>
      <trkpt lat="45.41482" lon="-0.86293">
        <ele>41.06</ele>
        <time>2016-11-27T12:19:03Z</time>
      </trkpt>
      <trkpt lat="45.41468" lon="-0.86278">
        <ele>41.11</ele>
        <time>2016-11-27T12:19:07Z</time>
      </trkpt>
      <trkpt lat="45.41452" lon="-0.8626">
        <ele>41.31</ele>
        <time>2016-11-27T12:19:12Z</time>
      </trkpt>
      <trkpt lat="45.41425" lon="-0.86232">
        <ele>41.03</ele>
        <time>2016-11-27T12:19:20Z</time>
      </trkpt>
      <trkpt lat="45.41405" lon="-0.86203">
        <ele>41.21</ele>
        <time>2016-11-27T12:19:27Z</time>
      </trkpt>
      <trkpt lat="45.41399" lon="-0.86195">
        <ele>41.18</ele>
        <time>2016-11-27T12:19:29Z</time>
      </trkpt>
      <trkpt lat="45.41364" lon="-0.86146">
        <ele>40.6</ele>
        <time>2016-11-27T12:19:41Z</time>
      </trkpt>
      <trkpt lat="45.41352" lon="-0.86133">
        <ele>40.63</ele>
        <time>2016-11-27T12:19:45Z</time>
      </trkpt>
      <trkpt lat="45.41333" lon="-0.8611">
        <ele>40.86</ele>
        <time>2016-11-27T12:19:51Z</time>
      </trkpt>
      <trkpt lat="45.41324" lon="-0.861">
        <ele>40.69</ele>
        <time>2016-11-27T12:19:54Z</time>
      </trkpt>
      <trkpt lat="45.41311" lon="-0.86085">
        <ele>40.73</ele>
        <time>2016-11-27T12:19:58Z</time>
      </trkpt>
      <trkpt lat="45.41271" lon="-0.86033">
        <ele>41.24</ele>
        <time>2016-11-27T12:20:12Z</time>
      </trkpt>
      <trkpt lat="45.41232" lon="-0.85979">
        <ele>41.3</ele>
        <time>2016-11-27T12:20:26Z</time>
      </trkpt>
      <trkpt lat="45.41217" lon="-0.85956">
        <ele>41.34</ele>
        <time>2016-11-27T12:20:32Z</time>
      </trkpt>
      <trkpt lat="45.41165" lon="-0.85878">
        <ele>41.45</ele>
        <time>2016-11-27T12:20:51Z</time>
      </trkpt>
      <trkpt lat="45.41155" lon="-0.85867">
        <ele>41.61</ele>
        <time>2016-11-27T12:20:54Z</time>
      </trkpt>
      <trkpt lat="45.41145" lon="-0.85856">
        <ele>41.64</ele>
        <time>2016-11-27T12:20:57Z</time>
      </trkpt>
      <trkpt lat="45.41096" lon="-0.85793">
        <ele>41.18</ele>
        <time>2016-11-27T12:21:13Z</time>
      </trkpt>
      <trkpt lat="45.41046" lon="-0.85717">
        <ele>41.1</ele>
        <time>2016-11-27T12:21:31Z</time>
      </trkpt>
      <trkpt lat="45.40996" lon="-0.85649">
        <ele>41.15</ele>
        <time>2016-11-27T12:21:46Z</time>
      </trkpt>
      <trkpt lat="45.40941" lon="-0.85609">
        <ele>41.23</ele>
        <time>2016-11-27T12:21:58Z</time>
      </trkpt>
      <trkpt lat="45.40908" lon="-0.85568">
        <ele>40.61</ele>
        <time>2016-11-27T12:22:09Z</time>
      </trkpt>
      <trkpt lat="45.40888" lon="-0.85539">
        <ele>41.27</ele>
        <time>2016-11-27T12:22:16Z</time>
      </trkpt>
      <trkpt lat="45.40847" lon="-0.85489">
        <ele>41.1</ele>
        <time>2016-11-27T12:22:30Z</time>
      </trkpt>
      <trkpt lat="45.4083" lon="-0.85468">
        <ele>40.92</ele>
        <time>2016-11-27T12:22:34Z</time>
      </trkpt>
      <trkpt lat="45.40809" lon="-0.85445">
        <ele>41.29</ele>
        <time>2016-11-27T12:22:41Z</time>
      </trkpt>
      <trkpt lat="45.40791" lon="-0.85426">
        <ele>41.06</ele>
        <time>2016-11-27T12:22:46Z</time>
      </trkpt>
      <trkpt lat="45.40754" lon="-0.85383">
        <ele>40.08</ele>
        <time>2016-11-27T12:22:57Z</time>
      </trkpt>
      <trkpt lat="45.40717" lon="-0.85335">
        <ele>41.3</ele>
        <time>2016-11-27T12:23:09Z</time>
      </trkpt>
      <trkpt lat="45.407" lon="-0.85316">
        <ele>41.35</ele>
        <time>2016-11-27T12:23:14Z</time>
      </trkpt>
      <trkpt lat="45.40684" lon="-0.85298">
        <ele>40.71</ele>
        <time>2016-11-27T12:23:19Z</time>
      </trkpt>
      <trkpt lat="45.40665" lon="-0.85275">
        <ele>40.71</ele>
        <time>2016-11-27T12:23:25Z</time>
      </trkpt>
      <trkpt lat="45.40651" lon="-0.8526">
        <ele>40.86</ele>
        <time>2016-11-27T12:23:29Z</time>
      </trkpt>
      <trkpt lat="45.40645" lon="-0.85253">
        <ele>40.68</ele>
        <time>2016-11-27T12:23:31Z</time>
      </trkpt>
      <trkpt lat="45.40635" lon="-0.85242">
        <ele>40.76</ele>
        <time>2016-11-27T12:23:34Z</time>
      </trkpt>
      <trkpt lat="45.40599" lon="-0.85203">
        <ele>40.9</ele>
        <time>2016-11-27T12:23:45Z</time>
      </trkpt>
      <trkpt lat="45.40565" lon="-0.8516">
        <ele>40.85</ele>
        <time>2016-11-27T12:23:56Z</time>
      </trkpt>
      <trkpt lat="45.40549" lon="-0.85142">
        <ele>40.92</ele>
        <time>2016-11-27T12:24:01Z</time>
      </trkpt>
      <trkpt lat="45.4053" lon="-0.85118">
        <ele>41.25</ele>
        <time>2016-11-27T12:24:07Z</time>
      </trkpt>
      <trkpt lat="45.40521" lon="-0.85107">
        <ele>41.06</ele>
        <time>2016-11-27T12:24:10Z</time>
      </trkpt>
      <trkpt lat="45.40468" lon="-0.85046">
        <ele>40.91</ele>
        <time>2016-11-27T12:24:26Z</time>
      </trkpt>
      <trkpt lat="45.40462" lon="-0.85039">
        <ele>40.8</ele>
        <time>2016-11-27T12:24:28Z</time>
      </trkpt>
      <trkpt lat="45.40452" lon="-0.85028">
        <ele>40.76</ele>
        <time>2016-11-27T12:24:31Z</time>
      </trkpt>
      <trkpt lat="45.40436" lon="-0.85009">
        <ele>41.16</ele>
        <time>2016-11-27T12:24:36Z</time>
      </trkpt>
      <trkpt lat="45.40416" lon="-0.84987">
        <ele>40.84</ele>
        <time>2016-11-27T12:24:42Z</time>
      </trkpt>
      <trkpt lat="45.40394" lon="-0.84961">
        <ele>41.07</ele>
        <time>2016-11-27T12:24:49Z</time>
      </trkpt>
      <trkpt lat="45.40381" lon="-0.84946">
        <ele>40.99</ele>
        <time>2016-11-27T12:24:53Z</time>
      </trkpt>
      <trkpt lat="45.40352" lon="-0.84915">
        <ele>40.53</ele>
        <time>2016-11-27T12:25:02Z</time>
      </trkpt>
      <trkpt lat="45.40302" lon="-0.84857">
        <ele>40.5</ele>
        <time>2016-11-27T12:25:18Z</time>
      </trkpt>
      <trkpt lat="45.4026" lon="-0.84811">
        <ele>40.52</ele>
        <time>2016-11-27T12:25:31Z</time>
      </trkpt>
      <trkpt lat="45.4025" lon="-0.848">
        <ele>40.55</ele>
        <time>2016-11-27T12:25:34Z</time>
      </trkpt>
      <trkpt lat="45.40241" lon="-0.84788">
        <ele>40.64</ele>
        <time>2016-11-27T12:25:37Z</time>
      </trkpt>
      <trkpt lat="45.40219" lon="-0.84763">
        <ele>41.39</ele>
        <time>2016-11-27T12:25:44Z</time>
      </trkpt>
      <trkpt lat="45.40178" lon="-0.84716">
        <ele>40.55</ele>
        <time>2016-11-27T12:25:57Z</time>
      </trkpt>
      <trkpt lat="45.40161" lon="-0.84694">
        <ele>40.08</ele>
        <time>2016-11-27T12:26:03Z</time>
      </trkpt>
      <trkpt lat="45.40108" lon="-0.8463">
        <ele>40.47</ele>
        <time>2016-11-27T12:26:20Z</time>
      </trkpt>
      <trkpt lat="45.40066" lon="-0.84575">
        <ele>40.59</ele>
        <time>2016-11-27T12:26:34Z</time>
      </trkpt>
      <trkpt lat="45.40046" lon="-0.84549">
        <ele>40.64</ele>
        <time>2016-11-27T12:26:41Z</time>
      </trkpt>
      <trkpt lat="45.40023" lon="-0.84525">
        <ele>40.78</ele>
        <time>2016-11-27T12:26:48Z</time>
      </trkpt>
      <trkpt lat="45.40011" lon="-0.8451">
        <ele>40.9</ele>
        <time>2016-11-27T12:26:52Z</time>
      </trkpt>
      <trkpt lat="45.39999" lon="-0.84494">
        <ele>40.39</ele>
        <time>2016-11-27T12:26:56Z</time>
      </trkpt>
      <trkpt lat="45.39974" lon="-0.84464">
        <ele>40.24</ele>
        <time>2016-11-27T12:27:04Z</time>
      </trkpt>
      <trkpt lat="45.39956" lon="-0.84444">
        <ele>40.27</ele>
        <time>2016-11-27T12:27:10Z</time>
      </trkpt>
      <trkpt lat="45.39932" lon="-0.84416">
        <ele>40.35</ele>
        <time>2016-11-27T12:27:18Z</time>
      </trkpt>
      <trkpt lat="45.39914" lon="-0.84394">
        <ele>40.1</ele>
        <time>2016-11-27T12:27:24Z</time>
      </trkpt>
      <trkpt lat="45.39899" lon="-0.84376">
        <ele>40.13</ele>
        <time>2016-11-27T12:27:29Z</time>
      </trkpt>
      <trkpt lat="45.39877" lon="-0.8435">
        <ele>40.02</ele>
        <time>2016-11-27T12:27:36Z</time>
      </trkpt>
      <trkpt lat="45.39859" lon="-0.84327">
        <ele>40.84</ele>
        <time>2016-11-27T12:27:42Z</time>
      </trkpt>
      <trkpt lat="45.39834" lon="-0.84296">
        <ele>40.78</ele>
        <time>2016-11-27T12:27:50Z</time>
      </trkpt>
      <trkpt lat="45.39821" lon="-0.84281">
        <ele>40.63</ele>
        <time>2016-11-27T12:27:54Z</time>
      </trkpt>
      <trkpt lat="45.39776" lon="-0.84224">
        <ele>40.6</ele>
        <time>2016-11-27T12:28:08Z</time>
      </trkpt>
      <trkpt lat="45.39773" lon="-0.8422">
        <ele>40.59</ele>
        <time>2016-11-27T12:28:09Z</time>
      </trkpt>
      <trkpt lat="45.39754" lon="-0.84197">
        <ele>40.54</ele>
        <time>2016-11-27T12:28:15Z</time>
      </trkpt>
      <trkpt lat="45.39745" lon="-0.84186">
        <ele>40.44</ele>
        <time>2016-11-27T12:28:18Z</time>
      </trkpt>
      <trkpt lat="45.39732" lon="-0.84171">
        <ele>40.79</ele>
        <time>2016-11-27T12:28:22Z</time>
      </trkpt>
      <trkpt lat="45.3971" lon="-0.84145">
        <ele>40.76</ele>
        <time>2016-11-27T12:28:29Z</time>
      </trkpt>
      <trkpt lat="45.39666" lon="-0.84092">
        <ele>40.76</ele>
        <time>2016-11-27T12:28:43Z</time>
      </trkpt>
      <trkpt lat="45.39659" lon="-0.84084">
        <ele>40.62</ele>
        <time>2016-11-27T12:28:45Z</time>
      </trkpt>
      <trkpt lat="45.39653" lon="-0.84076">
        <ele>40.43</ele>
        <time>2016-11-27T12:28:47Z</time>
      </trkpt>
      <trkpt lat="45.39613" lon="-0.84027">
        <ele>40.38</ele>
        <time>2016-11-27T12:29:00Z</time>
      </trkpt>
      <trkpt lat="45.39594" lon="-0.84004">
        <ele>40.16</ele>
        <time>2016-11-27T12:29:06Z</time>
      </trkpt>
      <trkpt lat="45.39582" lon="-0.83987">
        <ele>40.35</ele>
        <time>2016-11-27T12:29:10Z</time>
      </trkpt>
      <trkpt lat="45.39575" lon="-0.83979">
        <ele>40.18</ele>
        <time>2016-11-27T12:29:12Z</time>
      </trkpt>
      <trkpt lat="45.3955" lon="-0.8395">
        <ele>41.1</ele>
        <time>2016-11-27T12:29:20Z</time>
      </trkpt>
      <trkpt lat="45.39532" lon="-0.83926">
        <ele>41.22</ele>
        <time>2016-11-27T12:29:26Z</time>
      </trkpt>
      <trkpt lat="45.39506" lon="-0.83894">
        <ele>40.93</ele>
        <time>2016-11-27T12:29:34Z</time>
      </trkpt>
      <trkpt lat="45.395" lon="-0.83886">
        <ele>40.9</ele>
        <time>2016-11-27T12:29:36Z</time>
      </trkpt>
      <trkpt lat="45.39484" lon="-0.83867">
        <ele>40.34</ele>
        <time>2016-11-27T12:29:41Z</time>
      </trkpt>
      <trkpt lat="45.39469" lon="-0.83846">
        <ele>40.22</ele>
        <time>2016-11-27T12:29:46Z</time>
      </trkpt>
      <trkpt lat="45.39434" lon="-0.83804">
        <ele>40.7</ele>
        <time>2016-11-27T12:29:57Z</time>
      </trkpt>
      <trkpt lat="45.39425" lon="-0.83791">
        <ele>40.22</ele>
        <time>2016-11-27T12:30:00Z</time>
      </trkpt>
      <trkpt lat="45.39381" lon="-0.83736">
        <ele>40.12</ele>
        <time>2016-11-27T12:30:14Z</time>
      </trkpt>
      <trkpt lat="45.39359" lon="-0.83709">
        <ele>41.4</ele>
        <time>2016-11-27T12:30:21Z</time>
      </trkpt>
      <trkpt lat="45.39337" lon="-0.83681">
        <ele>41.87</ele>
        <time>2016-11-27T12:30:28Z</time>
      </trkpt>
      <trkpt lat="45.3933" lon="-0.83673">
        <ele>41.83</ele>
        <time>2016-11-27T12:30:30Z</time>
      </trkpt>
      <trkpt lat="45.39317" lon="-0.83658">
        <ele>41.91</ele>
        <time>2016-11-27T12:30:34Z</time>
      </trkpt>
      <trkpt lat="45.3928" lon="-0.83613">
        <ele>40.55</ele>
        <time>2016-11-27T12:30:46Z</time>
      </trkpt>
      <trkpt lat="45.39251" lon="-0.83579">
        <ele>40.6</ele>
        <time>2016-11-27T12:30:55Z</time>
      </trkpt>
      <trkpt lat="45.39245" lon="-0.83571">
        <ele>40.76</ele>
        <time>2016-11-27T12:30:57Z</time>
      </trkpt>
      <trkpt lat="45.39238" lon="-0.83564">
        <ele>40.77</ele>
        <time>2016-11-27T12:30:59Z</time>
      </trkpt>
      <trkpt lat="45.39225" lon="-0.8355">
        <ele>40.67</ele>
        <time>2016-11-27T12:31:03Z</time>
      </trkpt>
      <trkpt lat="45.39206" lon="-0.83527">
        <ele>40.75</ele>
        <time>2016-11-27T12:31:09Z</time>
      </trkpt>
      <trkpt lat="45.39193" lon="-0.83511">
        <ele>41.07</ele>
        <time>2016-11-27T12:31:13Z</time>
      </trkpt>
      <trkpt lat="45.39142" lon="-0.8345">
        <ele>41.01</ele>
        <time>2016-11-27T12:31:30Z</time>
      </trkpt>
      <trkpt lat="45.39133" lon="-0.83439">
        <ele>40.98</ele>
        <time>2016-11-27T12:31:33Z</time>
      </trkpt>
      <trkpt lat="45.39122" lon="-0.83425">
        <ele>41.1</ele>
        <time>2016-11-27T12:31:36Z</time>
      </trkpt>
      <trkpt lat="45.39112" lon="-0.83414">
        <ele>41</ele>
        <time>2016-11-27T12:31:39Z</time>
      </trkpt>
      <trkpt lat="45.39099" lon="-0.834">
        <ele>40.71</ele>
        <time>2016-11-27T12:31:43Z</time>
      </trkpt>
      <trkpt lat="45.39092" lon="-0.83392">
        <ele>40.78</ele>
        <time>2016-11-27T12:31:45Z</time>
      </trkpt>
      <trkpt lat="45.39071" lon="-0.83366">
        <ele>40.71</ele>
        <time>2016-11-27T12:31:52Z</time>
      </trkpt>
      <trkpt lat="45.39046" lon="-0.83342">
        <ele>40.83</ele>
        <time>2016-11-27T12:31:59Z</time>
      </trkpt>
      <trkpt lat="45.39002" lon="-0.8329">
        <ele>40.93</ele>
        <time>2016-11-27T12:32:13Z</time>
      </trkpt>
      <trkpt lat="45.38935" lon="-0.83218">
        <ele>40.78</ele>
        <time>2016-11-27T12:32:34Z</time>
      </trkpt>
      <trkpt lat="45.3889" lon="-0.8317">
        <ele>41.08</ele>
        <time>2016-11-27T12:32:48Z</time>
      </trkpt>
      <trkpt lat="45.38836" lon="-0.8311">
        <ele>40.92</ele>
        <time>2016-11-27T12:33:04Z</time>
      </trkpt>
      <trkpt lat="45.38812" lon="-0.83076">
        <ele>41.03</ele>
        <time>2016-11-27T12:33:13Z</time>
      </trkpt>
      <trkpt lat="45.38777" lon="-0.83043">
        <ele>40.91</ele>
        <time>2016-11-27T12:33:23Z</time>
      </trkpt>
      <trkpt lat="45.38754" lon="-0.83022">
        <ele>40.93</ele>
        <time>2016-11-27T12:33:30Z</time>
      </trkpt>
      <trkpt lat="45.38748" lon="-0.83014">
        <ele>41.01</ele>
        <time>2016-11-27T12:33:32Z</time>
      </trkpt>
      <trkpt lat="45.38701" lon="-0.82956">
        <ele>40.83</ele>
        <time>2016-11-27T12:33:48Z</time>
      </trkpt>
      <trkpt lat="45.38661" lon="-0.82905">
        <ele>41</ele>
        <time>2016-11-27T12:34:04Z</time>
      </trkpt>
      <trkpt lat="45.38656" lon="-0.82899">
        <ele>41</ele>
        <time>2016-11-27T12:34:06Z</time>
      </trkpt>
      <trkpt lat="45.38641" lon="-0.82882">
        <ele>41.08</ele>
        <time>2016-11-27T12:34:11Z</time>
      </trkpt>
      <trkpt lat="45.3863" lon="-0.82869">
        <ele>41.09</ele>
        <time>2016-11-27T12:34:15Z</time>
      </trkpt>
      <trkpt lat="45.38583" lon="-0.82818">
        <ele>41.15</ele>
        <time>2016-11-27T12:34:32Z</time>
      </trkpt>
      <trkpt lat="45.3853" lon="-0.8276">
        <ele>41.06</ele>
        <time>2016-11-27T12:34:53Z</time>
      </trkpt>
      <trkpt lat="45.38494" lon="-0.82718">
        <ele>41.13</ele>
        <time>2016-11-27T12:35:05Z</time>
      </trkpt>
      <trkpt lat="45.3847" lon="-0.82694">
        <ele>41.24</ele>
        <time>2016-11-27T12:35:12Z</time>
      </trkpt>
      <trkpt lat="45.3841" lon="-0.82623">
        <ele>41.29</ele>
        <time>2016-11-27T12:35:33Z</time>
      </trkpt>
      <trkpt lat="45.38342" lon="-0.82551">
        <ele>41.41</ele>
        <time>2016-11-27T12:35:55Z</time>
      </trkpt>
      <trkpt lat="45.38289" lon="-0.82497">
        <ele>41.53</ele>
        <time>2016-11-27T12:36:13Z</time>
      </trkpt>
      <trkpt lat="45.3823" lon="-0.82422">
        <ele>41.5</ele>
        <time>2016-11-27T12:36:35Z</time>
      </trkpt>
      <trkpt lat="45.38171" lon="-0.82357">
        <ele>41.55</ele>
        <time>2016-11-27T12:36:56Z</time>
      </trkpt>
      <trkpt lat="45.38101" lon="-0.82282">
        <ele>41.69</ele>
        <time>2016-11-27T12:37:19Z</time>
      </trkpt>
      <trkpt lat="45.38056" lon="-0.82239">
        <ele>41.89</ele>
        <time>2016-11-27T12:37:37Z</time>
      </trkpt>
      <trkpt lat="45.38014" lon="-0.8218">
        <ele>42.16</ele>
        <time>2016-11-27T12:37:55Z</time>
      </trkpt>
      <trkpt lat="45.37957" lon="-0.82112">
        <ele>42.18</ele>
        <time>2016-11-27T12:38:15Z</time>
      </trkpt>
      <trkpt lat="45.37903" lon="-0.82046">
        <ele>42.52</ele>
        <time>2016-11-27T12:38:32Z</time>
      </trkpt>
      <trkpt lat="45.37859" lon="-0.81996">
        <ele>42.46</ele>
        <time>2016-11-27T12:38:46Z</time>
      </trkpt>
      <trkpt lat="45.37784" lon="-0.81921">
        <ele>42.51</ele>
        <time>2016-11-27T12:39:09Z</time>
      </trkpt>
      <trkpt lat="45.37781" lon="-0.81918">
        <ele>42.52</ele>
        <time>2016-11-27T12:39:10Z</time>
      </trkpt>
      <trkpt lat="45.37752" lon="-0.81884">
        <ele>42.5</ele>
        <time>2016-11-27T12:39:19Z</time>
      </trkpt>
      <trkpt lat="45.37708" lon="-0.81836">
        <ele>42.62</ele>
        <time>2016-11-27T12:39:34Z</time>
      </trkpt>
      <trkpt lat="45.37691" lon="-0.81814">
        <ele>42.24</ele>
        <time>2016-11-27T12:39:40Z</time>
      </trkpt>
      <trkpt lat="45.37675" lon="-0.81796">
        <ele>42.42</ele>
        <time>2016-11-27T12:39:45Z</time>
      </trkpt>
      <trkpt lat="45.37629" lon="-0.81749">
        <ele>42.58</ele>
        <time>2016-11-27T12:39:59Z</time>
      </trkpt>
      <trkpt lat="45.37607" lon="-0.81726">
        <ele>42.22</ele>
        <time>2016-11-27T12:40:06Z</time>
      </trkpt>
      <trkpt lat="45.37582" lon="-0.81699">
        <ele>42.65</ele>
        <time>2016-11-27T12:40:14Z</time>
      </trkpt>
      <trkpt lat="45.37568" lon="-0.81682">
        <ele>42.53</ele>
        <time>2016-11-27T12:40:19Z</time>
      </trkpt>
      <trkpt lat="45.3754" lon="-0.81649">
        <ele>42.73</ele>
        <time>2016-11-27T12:40:29Z</time>
      </trkpt>
      <trkpt lat="45.37528" lon="-0.81636">
        <ele>42.59</ele>
        <time>2016-11-27T12:40:33Z</time>
      </trkpt>
      <trkpt lat="45.37487" lon="-0.8159">
        <ele>42.63</ele>
        <time>2016-11-27T12:40:47Z</time>
      </trkpt>
      <trkpt lat="45.37447" lon="-0.81544">
        <ele>42.37</ele>
        <time>2016-11-27T12:41:01Z</time>
      </trkpt>
      <trkpt lat="45.37435" lon="-0.8153">
        <ele>42.18</ele>
        <time>2016-11-27T12:41:05Z</time>
      </trkpt>
      <trkpt lat="45.3741" lon="-0.81504">
        <ele>42.92</ele>
        <time>2016-11-27T12:41:13Z</time>
      </trkpt>
      <trkpt lat="45.37404" lon="-0.81497">
        <ele>42.63</ele>
        <time>2016-11-27T12:41:15Z</time>
      </trkpt>
      <trkpt lat="45.37377" lon="-0.81472">
        <ele>42.27</ele>
        <time>2016-11-27T12:41:24Z</time>
      </trkpt>
      <trkpt lat="45.37366" lon="-0.81459">
        <ele>42.25</ele>
        <time>2016-11-27T12:41:28Z</time>
      </trkpt>
      <trkpt lat="45.37343" lon="-0.81434">
        <ele>42.8</ele>
        <time>2016-11-27T12:41:36Z</time>
      </trkpt>
      <trkpt lat="45.37337" lon="-0.81429">
        <ele>42.66</ele>
        <time>2016-11-27T12:41:38Z</time>
      </trkpt>
      <trkpt lat="45.37283" lon="-0.81377">
        <ele>42.7</ele>
        <time>2016-11-27T12:41:57Z</time>
      </trkpt>
      <trkpt lat="45.37275" lon="-0.81368">
        <ele>42.71</ele>
        <time>2016-11-27T12:42:00Z</time>
      </trkpt>
      <trkpt lat="45.37259" lon="-0.81355">
        <ele>42.67</ele>
        <time>2016-11-27T12:42:05Z</time>
      </trkpt>
      <trkpt lat="45.37242" lon="-0.81339">
        <ele>42.65</ele>
        <time>2016-11-27T12:42:11Z</time>
      </trkpt>
      <trkpt lat="45.37224" lon="-0.81321">
        <ele>42.73</ele>
        <time>2016-11-27T12:42:18Z</time>
      </trkpt>
      <trkpt lat="45.37212" lon="-0.81309">
        <ele>42.74</ele>
        <time>2016-11-27T12:42:22Z</time>
      </trkpt>
      <trkpt lat="45.37173" lon="-0.8127">
        <ele>42.81</ele>
        <time>2016-11-27T12:42:37Z</time>
      </trkpt>
      <trkpt lat="45.37137" lon="-0.81236">
        <ele>42.83</ele>
        <time>2016-11-27T12:42:50Z</time>
      </trkpt>
      <trkpt lat="45.37098" lon="-0.81197">
        <ele>42.94</ele>
        <time>2016-11-27T12:43:05Z</time>
      </trkpt>
      <trkpt lat="45.37093" lon="-0.81193">
        <ele>42.89</ele>
        <time>2016-11-27T12:43:07Z</time>
      </trkpt>
      <trkpt lat="45.37082" lon="-0.81182">
        <ele>42.91</ele>
        <time>2016-11-27T12:43:11Z</time>
      </trkpt>
      <trkpt lat="45.37038" lon="-0.81141">
        <ele>42.89</ele>
        <time>2016-11-27T12:43:28Z</time>
      </trkpt>
      <trkpt lat="45.37027" lon="-0.81131">
        <ele>43.09</ele>
        <time>2016-11-27T12:43:32Z</time>
      </trkpt>
      <trkpt lat="45.37014" lon="-0.81119">
        <ele>42.99</ele>
        <time>2016-11-27T12:43:37Z</time>
      </trkpt>
      <trkpt lat="45.36986" lon="-0.81094">
        <ele>43.01</ele>
        <time>2016-11-27T12:43:47Z</time>
      </trkpt>
      <trkpt lat="45.36943" lon="-0.81059">
        <ele>42.99</ele>
        <time>2016-11-27T12:44:02Z</time>
      </trkpt>
      <trkpt lat="45.36897" lon="-0.81022">
        <ele>43.03</ele>
        <time>2016-11-27T12:44:18Z</time>
      </trkpt>
      <trkpt lat="45.36857" lon="-0.80986">
        <ele>43.1</ele>
        <time>2016-11-27T12:44:33Z</time>
      </trkpt>
      <trkpt lat="45.36833" lon="-0.80969">
        <ele>42.9</ele>
        <time>2016-11-27T12:44:41Z</time>
      </trkpt>
      <trkpt lat="45.36788" lon="-0.80931">
        <ele>43</ele>
        <time>2016-11-27T12:44:57Z</time>
      </trkpt>
      <trkpt lat="45.36742" lon="-0.80887">
        <ele>42.8</ele>
        <time>2016-11-27T12:45:14Z</time>
      </trkpt>
      <trkpt lat="45.36723" lon="-0.80869">
        <ele>42.91</ele>
        <time>2016-11-27T12:45:21Z</time>
      </trkpt>
      <trkpt lat="45.3671" lon="-0.80857">
        <ele>43.29</ele>
        <time>2016-11-27T12:45:26Z</time>
      </trkpt>
      <trkpt lat="45.3669" lon="-0.80841">
        <ele>42.86</ele>
        <time>2016-11-27T12:45:33Z</time>
      </trkpt>
      <trkpt lat="45.36685" lon="-0.80836">
        <ele>42.83</ele>
        <time>2016-11-27T12:45:35Z</time>
      </trkpt>
      <trkpt lat="45.36676" lon="-0.80827">
        <ele>42.82</ele>
        <time>2016-11-27T12:45:38Z</time>
      </trkpt>
      <trkpt lat="45.36635" lon="-0.80793">
        <ele>43.12</ele>
        <time>2016-11-27T12:45:52Z</time>
      </trkpt>
      <trkpt lat="45.36629" lon="-0.80788">
        <ele>43.11</ele>
        <time>2016-11-27T12:45:54Z</time>
      </trkpt>
      <trkpt lat="45.36604" lon="-0.80766">
        <ele>43.11</ele>
        <time>2016-11-27T12:46:03Z</time>
      </trkpt>
      <trkpt lat="45.36571" lon="-0.80739">
        <ele>43.12</ele>
        <time>2016-11-27T12:46:15Z</time>
      </trkpt>
      <trkpt lat="45.36561" lon="-0.8073">
        <ele>43.16</ele>
        <time>2016-11-27T12:46:19Z</time>
      </trkpt>
      <trkpt lat="45.36514" lon="-0.80694">
        <ele>43.07</ele>
        <time>2016-11-27T12:46:35Z</time>
      </trkpt>
      <trkpt lat="45.3646" lon="-0.8065">
        <ele>43.06</ele>
        <time>2016-11-27T12:46:54Z</time>
      </trkpt>
      <trkpt lat="45.36438" lon="-0.80632">
        <ele>43.07</ele>
        <time>2016-11-27T12:47:02Z</time>
      </trkpt>
      <trkpt lat="45.3643" lon="-0.80627">
        <ele>43.29</ele>
        <time>2016-11-27T12:47:05Z</time>
      </trkpt>
      <trkpt lat="45.36384" lon="-0.80591">
        <ele>43.36</ele>
        <time>2016-11-27T12:47:22Z</time>
      </trkpt>
      <trkpt lat="45.36366" lon="-0.80578">
        <ele>43.38</ele>
        <time>2016-11-27T12:47:28Z</time>
      </trkpt>
      <trkpt lat="45.36343" lon="-0.80557">
        <ele>43.3</ele>
        <time>2016-11-27T12:47:35Z</time>
      </trkpt>
      <trkpt lat="45.36301" lon="-0.80523">
        <ele>43.58</ele>
        <time>2016-11-27T12:47:50Z</time>
      </trkpt>
      <trkpt lat="45.36252" lon="-0.80485">
        <ele>43.34</ele>
        <time>2016-11-27T12:48:07Z</time>
      </trkpt>
      <trkpt lat="45.36212" lon="-0.80453">
        <ele>43.26</ele>
        <time>2016-11-27T12:48:21Z</time>
      </trkpt>
      <trkpt lat="45.36167" lon="-0.80417">
        <ele>43.24</ele>
        <time>2016-11-27T12:48:37Z</time>
      </trkpt>
      <trkpt lat="45.36125" lon="-0.80385">
        <ele>43.15</ele>
        <time>2016-11-27T12:48:52Z</time>
      </trkpt>
      <trkpt lat="45.36078" lon="-0.80348">
        <ele>43.21</ele>
        <time>2016-11-27T12:49:09Z</time>
      </trkpt>
      <trkpt lat="45.36033" lon="-0.80312">
        <ele>43.48</ele>
        <time>2016-11-27T12:49:25Z</time>
      </trkpt>
      <trkpt lat="45.35994" lon="-0.80282">
        <ele>43.19</ele>
        <time>2016-11-27T12:49:39Z</time>
      </trkpt>
      <trkpt lat="45.35948" lon="-0.80247">
        <ele>43.13</ele>
        <time>2016-11-27T12:49:55Z</time>
      </trkpt>
      <trkpt lat="45.35932" lon="-0.80235">
        <ele>43.08</ele>
        <time>2016-11-27T12:50:01Z</time>
      </trkpt>
      <trkpt lat="45.35894" lon="-0.80203">
        <ele>43.03</ele>
        <time>2016-11-27T12:50:15Z</time>
      </trkpt>
      <trkpt lat="45.35838" lon="-0.80155">
        <ele>43.19</ele>
        <time>2016-11-27T12:50:35Z</time>
      </trkpt>
      <trkpt lat="45.35787" lon="-0.80113">
        <ele>43.34</ele>
        <time>2016-11-27T12:50:53Z</time>
      </trkpt>
      <trkpt lat="45.35739" lon="-0.80075">
        <ele>43.36</ele>
        <time>2016-11-27T12:51:09Z</time>
      </trkpt>
      <trkpt lat="45.35701" lon="-0.80045">
        <ele>44.22</ele>
        <time>2016-11-27T12:51:22Z</time>
      </trkpt>
      <trkpt lat="45.35664" lon="-0.80014">
        <ele>44.22</ele>
        <time>2016-11-27T12:51:34Z</time>
      </trkpt>
      <trkpt lat="45.35613" lon="-0.79971">
        <ele>44.04</ele>
        <time>2016-11-27T12:51:51Z</time>
      </trkpt>
      <trkpt lat="45.35564" lon="-0.7993">
        <ele>44.05</ele>
        <time>2016-11-27T12:52:07Z</time>
      </trkpt>
      <trkpt lat="45.35542" lon="-0.79912">
        <ele>44.24</ele>
        <time>2016-11-27T12:52:14Z</time>
      </trkpt>
      <trkpt lat="45.35512" lon="-0.79889">
        <ele>43.97</ele>
        <time>2016-11-27T12:52:24Z</time>
      </trkpt>
      <trkpt lat="45.35494" lon="-0.79877">
        <ele>43.37</ele>
        <time>2016-11-27T12:52:30Z</time>
      </trkpt>
      <trkpt lat="45.35469" lon="-0.79859">
        <ele>43.43</ele>
        <time>2016-11-27T12:52:38Z</time>
      </trkpt>
      <trkpt lat="45.35427" lon="-0.7983">
        <ele>43.67</ele>
        <time>2016-11-27T12:52:51Z</time>
      </trkpt>
      <trkpt lat="45.35421" lon="-0.79826">
        <ele>43.84</ele>
        <time>2016-11-27T12:52:53Z</time>
      </trkpt>
      <trkpt lat="45.35362" lon="-0.79795">
        <ele>43.95</ele>
        <time>2016-11-27T12:53:11Z</time>
      </trkpt>
      <trkpt lat="45.35358" lon="-0.79786">
        <ele>44.08</ele>
        <time>2016-11-27T12:53:13Z</time>
      </trkpt>
      <trkpt lat="45.35309" lon="-0.79757">
        <ele>44.45</ele>
        <time>2016-11-27T12:53:27Z</time>
      </trkpt>
      <trkpt lat="45.35302" lon="-0.79753">
        <ele>44.46</ele>
        <time>2016-11-27T12:53:29Z</time>
      </trkpt>
      <trkpt lat="45.35282" lon="-0.79741">
        <ele>43.97</ele>
        <time>2016-11-27T12:53:35Z</time>
      </trkpt>
      <trkpt lat="45.35269" lon="-0.79734">
        <ele>43.78</ele>
        <time>2016-11-27T12:53:39Z</time>
      </trkpt>
      <trkpt lat="45.35209" lon="-0.79702">
        <ele>43.94</ele>
        <time>2016-11-27T12:53:57Z</time>
      </trkpt>
      <trkpt lat="45.35146" lon="-0.79668">
        <ele>44.13</ele>
        <time>2016-11-27T12:54:17Z</time>
      </trkpt>
      <trkpt lat="45.35086" lon="-0.79631">
        <ele>44.12</ele>
        <time>2016-11-27T12:54:34Z</time>
      </trkpt>
      <trkpt lat="45.35042" lon="-0.7961">
        <ele>43.94</ele>
        <time>2016-11-27T12:54:48Z</time>
      </trkpt>
      <trkpt lat="45.34989" lon="-0.7959">
        <ele>43.95</ele>
        <time>2016-11-27T12:55:05Z</time>
      </trkpt>
      <trkpt lat="45.34979" lon="-0.79587">
        <ele>43.8</ele>
        <time>2016-11-27T12:55:08Z</time>
      </trkpt>
      <trkpt lat="45.34964" lon="-0.79581">
        <ele>44.12</ele>
        <time>2016-11-27T12:55:13Z</time>
      </trkpt>
      <trkpt lat="45.34958" lon="-0.79579">
        <ele>44.21</ele>
        <time>2016-11-27T12:55:15Z</time>
      </trkpt>
      <trkpt lat="45.34946" lon="-0.79574">
        <ele>44.09</ele>
        <time>2016-11-27T12:55:19Z</time>
      </trkpt>
      <trkpt lat="45.34891" lon="-0.79552">
        <ele>44.34</ele>
        <time>2016-11-27T12:55:37Z</time>
      </trkpt>
      <trkpt lat="45.34855" lon="-0.79538">
        <ele>44.4</ele>
        <time>2016-11-27T12:55:48Z</time>
      </trkpt>
      <trkpt lat="45.34822" lon="-0.79526">
        <ele>44.18</ele>
        <time>2016-11-27T12:55:59Z</time>
      </trkpt>
      <trkpt lat="45.34768" lon="-0.79505">
        <ele>44.29</ele>
        <time>2016-11-27T12:56:17Z</time>
      </trkpt>
      <trkpt lat="45.34724" lon="-0.79489">
        <ele>44.31</ele>
        <time>2016-11-27T12:56:31Z</time>
      </trkpt>
      <trkpt lat="45.34668" lon="-0.79469">
        <ele>44.4</ele>
        <time>2016-11-27T12:56:49Z</time>
      </trkpt>
      <trkpt lat="45.34613" lon="-0.79451">
        <ele>44.46</ele>
        <time>2016-11-27T12:57:07Z</time>
      </trkpt>
      <trkpt lat="45.34564" lon="-0.79432">
        <ele>44.57</ele>
        <time>2016-11-27T12:57:23Z</time>
      </trkpt>
      <trkpt lat="45.3452" lon="-0.79416">
        <ele>44.69</ele>
        <time>2016-11-27T12:57:38Z</time>
      </trkpt>
      <trkpt lat="45.3446" lon="-0.79398">
        <ele>44.51</ele>
        <time>2016-11-27T12:57:57Z</time>
      </trkpt>
      <trkpt lat="45.34407" lon="-0.79379">
        <ele>44.5</ele>
        <time>2016-11-27T12:58:15Z</time>
      </trkpt>
      <trkpt lat="45.34358" lon="-0.79365">
        <ele>44.66</ele>
        <time>2016-11-27T12:58:31Z</time>
      </trkpt>
      <trkpt lat="45.343" lon="-0.79348">
        <ele>44.54</ele>
        <time>2016-11-27T12:58:50Z</time>
      </trkpt>
      <trkpt lat="45.34249" lon="-0.79335">
        <ele>44.73</ele>
        <time>2016-11-27T12:59:06Z</time>
      </trkpt>
      <trkpt lat="45.34203" lon="-0.79322">
        <ele>44.75</ele>
        <time>2016-11-27T12:59:21Z</time>
      </trkpt>
      <trkpt lat="45.34147" lon="-0.79307">
        <ele>44.86</ele>
        <time>2016-11-27T12:59:39Z</time>
      </trkpt>
      <trkpt lat="45.34097" lon="-0.79292">
        <ele>44.87</ele>
        <time>2016-11-27T12:59:55Z</time>
      </trkpt>
      <trkpt lat="45.34053" lon="-0.79279">
        <ele>44.88</ele>
        <time>2016-11-27T13:00:10Z</time>
      </trkpt>
      <trkpt lat="45.34003" lon="-0.79263">
        <ele>44.89</ele>
        <time>2016-11-27T13:00:27Z</time>
      </trkpt>
      <trkpt lat="45.33995" lon="-0.79261">
        <ele>44.86</ele>
        <time>2016-11-27T13:00:30Z</time>
      </trkpt>
      <trkpt lat="45.3398" lon="-0.79257">
        <ele>45</ele>
        <time>2016-11-27T13:00:35Z</time>
      </trkpt>
      <trkpt lat="45.33931" lon="-0.79237">
        <ele>45.14</ele>
        <time>2016-11-27T13:00:53Z</time>
      </trkpt>
      <trkpt lat="45.33907" lon="-0.79226">
        <ele>45.14</ele>
        <time>2016-11-27T13:01:01Z</time>
      </trkpt>
      <trkpt lat="45.33861" lon="-0.79198">
        <ele>45.27</ele>
        <time>2016-11-27T13:01:17Z</time>
      </trkpt>
      <trkpt lat="45.33826" lon="-0.79173">
        <ele>45.15</ele>
        <time>2016-11-27T13:01:30Z</time>
      </trkpt>
      <trkpt lat="45.33802" lon="-0.79155">
        <ele>45.19</ele>
        <time>2016-11-27T13:01:39Z</time>
      </trkpt>
      <trkpt lat="45.33791" lon="-0.79147">
        <ele>45.43</ele>
        <time>2016-11-27T13:01:43Z</time>
      </trkpt>
      <trkpt lat="45.3378" lon="-0.79138">
        <ele>45.24</ele>
        <time>2016-11-27T13:01:47Z</time>
      </trkpt>
      <trkpt lat="45.33768" lon="-0.79128">
        <ele>45.29</ele>
        <time>2016-11-27T13:01:52Z</time>
      </trkpt>
      <trkpt lat="45.33729" lon="-0.79101">
        <ele>45.19</ele>
        <time>2016-11-27T13:02:06Z</time>
      </trkpt>
      <trkpt lat="45.33701" lon="-0.79079">
        <ele>45.18</ele>
        <time>2016-11-27T13:02:16Z</time>
      </trkpt>
      <trkpt lat="45.33687" lon="-0.7907">
        <ele>45.31</ele>
        <time>2016-11-27T13:02:21Z</time>
      </trkpt>
      <trkpt lat="45.33668" lon="-0.79056">
        <ele>44.88</ele>
        <time>2016-11-27T13:02:28Z</time>
      </trkpt>
      <trkpt lat="45.33648" lon="-0.79041">
        <ele>45.24</ele>
        <time>2016-11-27T13:02:35Z</time>
      </trkpt>
      <trkpt lat="45.33639" lon="-0.79035">
        <ele>45.26</ele>
        <time>2016-11-27T13:02:38Z</time>
      </trkpt>
      <trkpt lat="45.33605" lon="-0.79015">
        <ele>45.38</ele>
        <time>2016-11-27T13:02:49Z</time>
      </trkpt>
      <trkpt lat="45.33594" lon="-0.79007">
        <ele>45.39</ele>
        <time>2016-11-27T13:02:53Z</time>
      </trkpt>
      <trkpt lat="45.33554" lon="-0.78983">
        <ele>45.18</ele>
        <time>2016-11-27T13:03:07Z</time>
      </trkpt>
      <trkpt lat="45.33537" lon="-0.78972">
        <ele>45.21</ele>
        <time>2016-11-27T13:03:13Z</time>
      </trkpt>
      <trkpt lat="45.33506" lon="-0.78952">
        <ele>45.09</ele>
        <time>2016-11-27T13:03:24Z</time>
      </trkpt>
      <trkpt lat="45.335" lon="-0.78949">
        <ele>45.1</ele>
        <time>2016-11-27T13:03:26Z</time>
      </trkpt>
      <trkpt lat="45.33452" lon="-0.78921">
        <ele>45.17</ele>
        <time>2016-11-27T13:03:42Z</time>
      </trkpt>
      <trkpt lat="45.33448" lon="-0.78919">
        <ele>45.16</ele>
        <time>2016-11-27T13:03:43Z</time>
      </trkpt>
      <trkpt lat="45.3343" lon="-0.78908">
        <ele>45.17</ele>
        <time>2016-11-27T13:03:49Z</time>
      </trkpt>
      <trkpt lat="45.33406" lon="-0.78894">
        <ele>44.84</ele>
        <time>2016-11-27T13:03:57Z</time>
      </trkpt>
      <trkpt lat="45.33379" lon="-0.78879">
        <ele>44.85</ele>
        <time>2016-11-27T13:04:06Z</time>
      </trkpt>
      <trkpt lat="45.33366" lon="-0.78871">
        <ele>44.84</ele>
        <time>2016-11-27T13:04:10Z</time>
      </trkpt>
      <trkpt lat="45.33359" lon="-0.78868">
        <ele>44.82</ele>
        <time>2016-11-27T13:04:12Z</time>
      </trkpt>
      <trkpt lat="45.33346" lon="-0.7886">
        <ele>44.97</ele>
        <time>2016-11-27T13:04:16Z</time>
      </trkpt>
      <trkpt lat="45.33333" lon="-0.78852">
        <ele>44.92</ele>
        <time>2016-11-27T13:04:20Z</time>
      </trkpt>
      <trkpt lat="45.33301" lon="-0.78833">
        <ele>44.95</ele>
        <time>2016-11-27T13:04:30Z</time>
      </trkpt>
      <trkpt lat="45.33284" lon="-0.78823">
        <ele>45.02</ele>
        <time>2016-11-27T13:04:35Z</time>
      </trkpt>
      <trkpt lat="45.33248" lon="-0.78802">
        <ele>45.18</ele>
        <time>2016-11-27T13:04:46Z</time>
      </trkpt>
      <trkpt lat="45.33241" lon="-0.78798">
        <ele>45.12</ele>
        <time>2016-11-27T13:04:48Z</time>
      </trkpt>
      <trkpt lat="45.33223" lon="-0.78788">
        <ele>45.46</ele>
        <time>2016-11-27T13:04:53Z</time>
      </trkpt>
      <trkpt lat="45.33209" lon="-0.7878">
        <ele>45.32</ele>
        <time>2016-11-27T13:04:57Z</time>
      </trkpt>
      <trkpt lat="45.33183" lon="-0.78764">
        <ele>45.4</ele>
        <time>2016-11-27T13:05:05Z</time>
      </trkpt>
      <trkpt lat="45.33131" lon="-0.78735">
        <ele>45.21</ele>
        <time>2016-11-27T13:05:20Z</time>
      </trkpt>
      <trkpt lat="45.33114" lon="-0.78725">
        <ele>45.44</ele>
        <time>2016-11-27T13:05:25Z</time>
      </trkpt>
      <trkpt lat="45.33076" lon="-0.78705">
        <ele>45.29</ele>
        <time>2016-11-27T13:05:35Z</time>
      </trkpt>
      <trkpt lat="45.33043" lon="-0.78685">
        <ele>45.42</ele>
        <time>2016-11-27T13:05:44Z</time>
      </trkpt>
      <trkpt lat="45.33017" lon="-0.78669">
        <ele>45.39</ele>
        <time>2016-11-27T13:05:51Z</time>
      </trkpt>
      <trkpt lat="45.32999" lon="-0.78657">
        <ele>45.36</ele>
        <time>2016-11-27T13:05:56Z</time>
      </trkpt>
      <trkpt lat="45.32977" lon="-0.78644">
        <ele>45.53</ele>
        <time>2016-11-27T13:06:02Z</time>
      </trkpt>
      <trkpt lat="45.32958" lon="-0.78631">
        <ele>45.43</ele>
        <time>2016-11-27T13:06:07Z</time>
      </trkpt>
      <trkpt lat="45.32896" lon="-0.78598">
        <ele>45.38</ele>
        <time>2016-11-27T13:06:24Z</time>
      </trkpt>
      <trkpt lat="45.32821" lon="-0.78551">
        <ele>45.43</ele>
        <time>2016-11-27T13:06:45Z</time>
      </trkpt>
      <trkpt lat="45.3279" lon="-0.78529">
        <ele>45.56</ele>
        <time>2016-11-27T13:06:54Z</time>
      </trkpt>
      <trkpt lat="45.32777" lon="-0.78532">
        <ele>45.61</ele>
        <time>2016-11-27T13:06:57Z</time>
      </trkpt>
      <trkpt lat="45.3274" lon="-0.78507">
        <ele>45.46</ele>
        <time>2016-11-27T13:07:07Z</time>
      </trkpt>
      <trkpt lat="45.32701" lon="-0.78487">
        <ele>45.54</ele>
        <time>2016-11-27T13:07:17Z</time>
      </trkpt>
      <trkpt lat="45.32693" lon="-0.78481">
        <ele>45.6</ele>
        <time>2016-11-27T13:07:19Z</time>
      </trkpt>
      <trkpt lat="45.32669" lon="-0.78468">
        <ele>45.57</ele>
        <time>2016-11-27T13:07:25Z</time>
      </trkpt>
      <trkpt lat="45.32589" lon="-0.78417">
        <ele>45.66</ele>
        <time>2016-11-27T13:07:48Z</time>
      </trkpt>
      <trkpt lat="45.32509" lon="-0.78371">
        <ele>45.76</ele>
        <time>2016-11-27T13:08:10Z</time>
      </trkpt>
      <trkpt lat="45.32509" lon="-0.78371">
        <ele>45.89</ele>
        <time>2016-11-27T13:08:40Z</time>
      </trkpt>
      <trkpt lat="45.32374" lon="-0.78291">
        <ele>45.98</ele>
        <time>2016-11-27T13:08:48Z</time>
      </trkpt>
      <trkpt lat="45.32318" lon="-0.78254">
        <ele>45.81</ele>
        <time>2016-11-27T13:09:05Z</time>
      </trkpt>
      <trkpt lat="45.32243" lon="-0.78207">
        <ele>46</ele>
        <time>2016-11-27T13:09:26Z</time>
      </trkpt>
      <trkpt lat="45.32192" lon="-0.78177">
        <ele>46.12</ele>
        <time>2016-11-27T13:09:42Z</time>
      </trkpt>
      <trkpt lat="45.32136" lon="-0.78144">
        <ele>46.14</ele>
        <time>2016-11-27T13:09:59Z</time>
      </trkpt>
      <trkpt lat="45.32066" lon="-0.78102">
        <ele>46.15</ele>
        <time>2016-11-27T13:10:19Z</time>
      </trkpt>
      <trkpt lat="45.32051" lon="-0.78093">
        <ele>46.36</ele>
        <time>2016-11-27T13:10:23Z</time>
      </trkpt>
      <trkpt lat="45.31988" lon="-0.78057">
        <ele>46.25</ele>
        <time>2016-11-27T13:10:41Z</time>
      </trkpt>
      <trkpt lat="45.31981" lon="-0.78053">
        <ele>46.27</ele>
        <time>2016-11-27T13:10:43Z</time>
      </trkpt>
      <trkpt lat="45.31893" lon="-0.78">
        <ele>46.58</ele>
        <time>2016-11-27T13:11:09Z</time>
      </trkpt>
      <trkpt lat="45.31889" lon="-0.77998">
        <ele>46.59</ele>
        <time>2016-11-27T13:11:10Z</time>
      </trkpt>
      <trkpt lat="45.31817" lon="-0.77954">
        <ele>46.46</ele>
        <time>2016-11-27T13:11:28Z</time>
      </trkpt>
      <trkpt lat="45.31805" lon="-0.7795">
        <ele>46.5</ele>
        <time>2016-11-27T13:11:31Z</time>
      </trkpt>
      <trkpt lat="45.31786" lon="-0.77943">
        <ele>46.45</ele>
        <time>2016-11-27T13:11:36Z</time>
      </trkpt>
      <trkpt lat="45.31724" lon="-0.77922">
        <ele>46.54</ele>
        <time>2016-11-27T13:11:53Z</time>
      </trkpt>
      <trkpt lat="45.31655" lon="-0.779">
        <ele>46.51</ele>
        <time>2016-11-27T13:12:13Z</time>
      </trkpt>
      <trkpt lat="45.31625" lon="-0.77887">
        <ele>46.75</ele>
        <time>2016-11-27T13:12:22Z</time>
      </trkpt>
      <trkpt lat="45.31585" lon="-0.77866">
        <ele>46.44</ele>
        <time>2016-11-27T13:12:33Z</time>
      </trkpt>
      <trkpt lat="45.31545" lon="-0.77843">
        <ele>46.48</ele>
        <time>2016-11-27T13:12:45Z</time>
      </trkpt>
      <trkpt lat="45.31525" lon="-0.77833">
        <ele>46.9</ele>
        <time>2016-11-27T13:12:51Z</time>
      </trkpt>
      <trkpt lat="45.31483" lon="-0.7781">
        <ele>46.99</ele>
        <time>2016-11-27T13:13:04Z</time>
      </trkpt>
      <trkpt lat="45.31463" lon="-0.77797">
        <ele>46.84</ele>
        <time>2016-11-27T13:13:09Z</time>
      </trkpt>
      <trkpt lat="45.31445" lon="-0.77787">
        <ele>46.92</ele>
        <time>2016-11-27T13:13:14Z</time>
      </trkpt>
      <trkpt lat="45.31434" lon="-0.77778">
        <ele>46.48</ele>
        <time>2016-11-27T13:13:18Z</time>
      </trkpt>
      <trkpt lat="45.31427" lon="-0.77773">
        <ele>46.1</ele>
        <time>2016-11-27T13:13:20Z</time>
      </trkpt>
      <trkpt lat="45.31415" lon="-0.77765">
        <ele>46.65</ele>
        <time>2016-11-27T13:13:24Z</time>
      </trkpt>
      <trkpt lat="45.31386" lon="-0.77746">
        <ele>46.72</ele>
        <time>2016-11-27T13:13:32Z</time>
      </trkpt>
      <trkpt lat="45.31362" lon="-0.77732">
        <ele>46.82</ele>
        <time>2016-11-27T13:13:39Z</time>
      </trkpt>
      <trkpt lat="45.31298" lon="-0.77692">
        <ele>46.76</ele>
        <time>2016-11-27T13:13:59Z</time>
      </trkpt>
      <trkpt lat="45.31232" lon="-0.77652">
        <ele>46.8</ele>
        <time>2016-11-27T13:14:18Z</time>
      </trkpt>
      <trkpt lat="45.3118" lon="-0.77619">
        <ele>46.79</ele>
        <time>2016-11-27T13:14:32Z</time>
      </trkpt>
      <trkpt lat="45.31114" lon="-0.77578">
        <ele>47.02</ele>
        <time>2016-11-27T13:14:50Z</time>
      </trkpt>
      <trkpt lat="45.31096" lon="-0.77567">
        <ele>47</ele>
        <time>2016-11-27T13:14:55Z</time>
      </trkpt>
      <trkpt lat="45.3108" lon="-0.77559">
        <ele>47.03</ele>
        <time>2016-11-27T13:14:59Z</time>
      </trkpt>
      <trkpt lat="45.31068" lon="-0.77552">
        <ele>47.05</ele>
        <time>2016-11-27T13:15:02Z</time>
      </trkpt>
      <trkpt lat="45.31036" lon="-0.77531">
        <ele>47.12</ele>
        <time>2016-11-27T13:15:11Z</time>
      </trkpt>
      <trkpt lat="45.30968" lon="-0.77487">
        <ele>47.14</ele>
        <time>2016-11-27T13:15:30Z</time>
      </trkpt>
      <trkpt lat="45.30931" lon="-0.77461">
        <ele>47.03</ele>
        <time>2016-11-27T13:15:40Z</time>
      </trkpt>
      <trkpt lat="45.30891" lon="-0.77436">
        <ele>47.1</ele>
        <time>2016-11-27T13:15:51Z</time>
      </trkpt>
      <trkpt lat="45.30833" lon="-0.77392">
        <ele>47.22</ele>
        <time>2016-11-27T13:16:07Z</time>
      </trkpt>
      <trkpt lat="45.30816" lon="-0.77386">
        <ele>47.06</ele>
        <time>2016-11-27T13:16:13Z</time>
      </trkpt>
      <trkpt lat="45.3076" lon="-0.77345">
        <ele>47.21</ele>
        <time>2016-11-27T13:16:33Z</time>
      </trkpt>
      <trkpt lat="45.30696" lon="-0.77299">
        <ele>47.18</ele>
        <time>2016-11-27T13:16:50Z</time>
      </trkpt>
      <trkpt lat="45.30628" lon="-0.77255">
        <ele>47.13</ele>
        <time>2016-11-27T13:17:10Z</time>
      </trkpt>
      <trkpt lat="45.30609" lon="-0.77252">
        <ele>46.83</ele>
        <time>2016-11-27T13:17:14Z</time>
      </trkpt>
      <trkpt lat="45.30546" lon="-0.77205">
        <ele>47.27</ele>
        <time>2016-11-27T13:17:34Z</time>
      </trkpt>
      <trkpt lat="45.3048" lon="-0.77164">
        <ele>47.24</ele>
        <time>2016-11-27T13:17:55Z</time>
      </trkpt>
      <trkpt lat="45.30437" lon="-0.77137">
        <ele>47.22</ele>
        <time>2016-11-27T13:18:09Z</time>
      </trkpt>
      <trkpt lat="45.30383" lon="-0.77102">
        <ele>46.87</ele>
        <time>2016-11-27T13:18:25Z</time>
      </trkpt>
      <trkpt lat="45.30323" lon="-0.77061">
        <ele>46.91</ele>
        <time>2016-11-27T13:18:44Z</time>
      </trkpt>
      <trkpt lat="45.3027" lon="-0.77029">
        <ele>46.98</ele>
        <time>2016-11-27T13:19:02Z</time>
      </trkpt>
      <trkpt lat="45.30255" lon="-0.77018">
        <ele>46.88</ele>
        <time>2016-11-27T13:19:07Z</time>
      </trkpt>
      <trkpt lat="45.30244" lon="-0.77011">
        <ele>47</ele>
        <time>2016-11-27T13:19:10Z</time>
      </trkpt>
      <trkpt lat="45.30229" lon="-0.77002">
        <ele>47.26</ele>
        <time>2016-11-27T13:19:15Z</time>
      </trkpt>
      <trkpt lat="45.30222" lon="-0.76998">
        <ele>47.33</ele>
        <time>2016-11-27T13:19:17Z</time>
      </trkpt>
      <trkpt lat="45.30203" lon="-0.76986">
        <ele>47.3</ele>
        <time>2016-11-27T13:19:23Z</time>
      </trkpt>
      <trkpt lat="45.30194" lon="-0.7698">
        <ele>47.29</ele>
        <time>2016-11-27T13:19:26Z</time>
      </trkpt>
      <trkpt lat="45.30157" lon="-0.76956">
        <ele>47.1</ele>
        <time>2016-11-27T13:19:37Z</time>
      </trkpt>
      <trkpt lat="45.30108" lon="-0.76924">
        <ele>46.95</ele>
        <time>2016-11-27T13:19:51Z</time>
      </trkpt>
      <trkpt lat="45.30095" lon="-0.76915">
        <ele>47.05</ele>
        <time>2016-11-27T13:19:55Z</time>
      </trkpt>
      <trkpt lat="45.30059" lon="-0.76893">
        <ele>46.99</ele>
        <time>2016-11-27T13:20:06Z</time>
      </trkpt>
      <trkpt lat="45.30034" lon="-0.76876">
        <ele>47.18</ele>
        <time>2016-11-27T13:20:14Z</time>
      </trkpt>
      <trkpt lat="45.29984" lon="-0.76845">
        <ele>47.08</ele>
        <time>2016-11-27T13:20:29Z</time>
      </trkpt>
      <trkpt lat="45.29968" lon="-0.76834">
        <ele>47.07</ele>
        <time>2016-11-27T13:20:34Z</time>
      </trkpt>
      <trkpt lat="45.29948" lon="-0.76821">
        <ele>47.15</ele>
        <time>2016-11-27T13:20:40Z</time>
      </trkpt>
      <trkpt lat="45.29917" lon="-0.76801">
        <ele>46.78</ele>
        <time>2016-11-27T13:20:50Z</time>
      </trkpt>
      <trkpt lat="45.29895" lon="-0.76787">
        <ele>47.14</ele>
        <time>2016-11-27T13:20:56Z</time>
      </trkpt>
      <trkpt lat="45.29834" lon="-0.76748">
        <ele>47.05</ele>
        <time>2016-11-27T13:21:14Z</time>
      </trkpt>
      <trkpt lat="45.29769" lon="-0.76704">
        <ele>47.05</ele>
        <time>2016-11-27T13:21:33Z</time>
      </trkpt>
      <trkpt lat="45.29738" lon="-0.76683">
        <ele>47.06</ele>
        <time>2016-11-27T13:21:42Z</time>
      </trkpt>
      <trkpt lat="45.29717" lon="-0.7667">
        <ele>47.59</ele>
        <time>2016-11-27T13:21:47Z</time>
      </trkpt>
      <trkpt lat="45.29702" lon="-0.76657">
        <ele>47.71</ele>
        <time>2016-11-27T13:21:52Z</time>
      </trkpt>
      <trkpt lat="45.2965" lon="-0.76622">
        <ele>47.35</ele>
        <time>2016-11-27T13:22:07Z</time>
      </trkpt>
      <trkpt lat="45.2958" lon="-0.76575">
        <ele>47.36</ele>
        <time>2016-11-27T13:22:27Z</time>
      </trkpt>
      <trkpt lat="45.29529" lon="-0.76543">
        <ele>47.42</ele>
        <time>2016-11-27T13:22:40Z</time>
      </trkpt>
      <trkpt lat="45.29467" lon="-0.76503">
        <ele>47.41</ele>
        <time>2016-11-27T13:22:57Z</time>
      </trkpt>
      <trkpt lat="45.29463" lon="-0.765">
        <ele>47.41</ele>
        <time>2016-11-27T13:22:58Z</time>
      </trkpt>
      <trkpt lat="45.29456" lon="-0.76495">
        <ele>47.14</ele>
        <time>2016-11-27T13:23:00Z</time>
      </trkpt>
      <trkpt lat="45.2942" lon="-0.76473">
        <ele>47.17</ele>
        <time>2016-11-27T13:23:10Z</time>
      </trkpt>
      <trkpt lat="45.29413" lon="-0.76468">
        <ele>47.15</ele>
        <time>2016-11-27T13:23:12Z</time>
      </trkpt>
      <trkpt lat="45.29378" lon="-0.76447">
        <ele>47.06</ele>
        <time>2016-11-27T13:23:22Z</time>
      </trkpt>
      <trkpt lat="45.29309" lon="-0.76401">
        <ele>47.33</ele>
        <time>2016-11-27T13:23:42Z</time>
      </trkpt>
      <trkpt lat="45.29243" lon="-0.76359">
        <ele>47.47</ele>
        <time>2016-11-27T13:24:01Z</time>
      </trkpt>
      <trkpt lat="45.29182" lon="-0.7632">
        <ele>47.52</ele>
        <time>2016-11-27T13:24:19Z</time>
      </trkpt>
      <trkpt lat="45.29141" lon="-0.76295">
        <ele>47.62</ele>
        <time>2016-11-27T13:24:31Z</time>
      </trkpt>
      <trkpt lat="45.29126" lon="-0.76285">
        <ele>47.77</ele>
        <time>2016-11-27T13:24:35Z</time>
      </trkpt>
      <trkpt lat="45.29115" lon="-0.76279">
        <ele>47.84</ele>
        <time>2016-11-27T13:24:38Z</time>
      </trkpt>
      <trkpt lat="45.29101" lon="-0.7627">
        <ele>47.71</ele>
        <time>2016-11-27T13:24:42Z</time>
      </trkpt>
      <trkpt lat="45.29067" lon="-0.76249">
        <ele>47.68</ele>
        <time>2016-11-27T13:24:52Z</time>
      </trkpt>
      <trkpt lat="45.29056" lon="-0.76244">
        <ele>47.86</ele>
        <time>2016-11-27T13:24:55Z</time>
      </trkpt>
      <trkpt lat="45.29042" lon="-0.76236">
        <ele>47.83</ele>
        <time>2016-11-27T13:24:59Z</time>
      </trkpt>
      <trkpt lat="45.2901" lon="-0.76219">
        <ele>47.86</ele>
        <time>2016-11-27T13:25:08Z</time>
      </trkpt>
      <trkpt lat="45.28995" lon="-0.76212">
        <ele>47.63</ele>
        <time>2016-11-27T13:25:12Z</time>
      </trkpt>
      <trkpt lat="45.28977" lon="-0.76202">
        <ele>47.39</ele>
        <time>2016-11-27T13:25:17Z</time>
      </trkpt>
      <trkpt lat="45.28956" lon="-0.7619">
        <ele>47.71</ele>
        <time>2016-11-27T13:25:23Z</time>
      </trkpt>
      <trkpt lat="45.28946" lon="-0.76185">
        <ele>47.64</ele>
        <time>2016-11-27T13:25:26Z</time>
      </trkpt>
      <trkpt lat="45.28914" lon="-0.76167">
        <ele>47.65</ele>
        <time>2016-11-27T13:25:35Z</time>
      </trkpt>
      <trkpt lat="45.28896" lon="-0.76157">
        <ele>47.58</ele>
        <time>2016-11-27T13:25:40Z</time>
      </trkpt>
      <trkpt lat="45.28888" lon="-0.76152">
        <ele>47.62</ele>
        <time>2016-11-27T13:25:42Z</time>
      </trkpt>
      <trkpt lat="45.28874" lon="-0.76145">
        <ele>47.74</ele>
        <time>2016-11-27T13:25:46Z</time>
      </trkpt>
      <trkpt lat="45.28844" lon="-0.7613">
        <ele>47.98</ele>
        <time>2016-11-27T13:25:54Z</time>
      </trkpt>
      <trkpt lat="45.28796" lon="-0.76103">
        <ele>47.66</ele>
        <time>2016-11-27T13:26:07Z</time>
      </trkpt>
      <trkpt lat="45.2877" lon="-0.76089">
        <ele>47.78</ele>
        <time>2016-11-27T13:26:14Z</time>
      </trkpt>
      <trkpt lat="45.28663" lon="-0.76033">
        <ele>47.87</ele>
        <time>2016-11-27T13:26:43Z</time>
      </trkpt>
      <trkpt lat="45.28637" lon="-0.7602">
        <ele>47.83</ele>
        <time>2016-11-27T13:26:50Z</time>
      </trkpt>
      <trkpt lat="45.28618" lon="-0.7601">
        <ele>48.17</ele>
        <time>2016-11-27T13:26:55Z</time>
      </trkpt>
      <trkpt lat="45.28599" lon="-0.76">
        <ele>48.08</ele>
        <time>2016-11-27T13:27:00Z</time>
      </trkpt>
      <trkpt lat="45.28587" lon="-0.75995">
        <ele>48.08</ele>
        <time>2016-11-27T13:27:03Z</time>
      </trkpt>
      <trkpt lat="45.28556" lon="-0.7598">
        <ele>47.75</ele>
        <time>2016-11-27T13:27:11Z</time>
      </trkpt>
      <trkpt lat="45.28526" lon="-0.75965">
        <ele>47.63</ele>
        <time>2016-11-27T13:27:19Z</time>
      </trkpt>
      <trkpt lat="45.28481" lon="-0.75941">
        <ele>48.08</ele>
        <time>2016-11-27T13:27:31Z</time>
      </trkpt>
      <trkpt lat="45.28477" lon="-0.75939">
        <ele>48.18</ele>
        <time>2016-11-27T13:27:32Z</time>
      </trkpt>
      <trkpt lat="45.28428" lon="-0.75915">
        <ele>48.5</ele>
        <time>2016-11-27T13:27:45Z</time>
      </trkpt>
      <trkpt lat="45.28405" lon="-0.75904">
        <ele>48.5</ele>
        <time>2016-11-27T13:27:51Z</time>
      </trkpt>
      <trkpt lat="45.28394" lon="-0.75898">
        <ele>48.44</ele>
        <time>2016-11-27T13:27:54Z</time>
      </trkpt>
      <trkpt lat="45.28385" lon="-0.75894">
        <ele>48.48</ele>
        <time>2016-11-27T13:27:56Z</time>
      </trkpt>
      <trkpt lat="45.28366" lon="-0.75885">
        <ele>48.55</ele>
        <time>2016-11-27T13:28:01Z</time>
      </trkpt>
      <trkpt lat="45.2835" lon="-0.75877">
        <ele>48.58</ele>
        <time>2016-11-27T13:28:05Z</time>
      </trkpt>
      <trkpt lat="45.28338" lon="-0.75871">
        <ele>48.58</ele>
        <time>2016-11-27T13:28:08Z</time>
      </trkpt>
      <trkpt lat="45.28292" lon="-0.75849">
        <ele>48.5</ele>
        <time>2016-11-27T13:28:20Z</time>
      </trkpt>
      <trkpt lat="45.28225" lon="-0.75815">
        <ele>48.64</ele>
        <time>2016-11-27T13:28:37Z</time>
      </trkpt>
      <trkpt lat="45.28151" lon="-0.75777">
        <ele>48.52</ele>
        <time>2016-11-27T13:28:56Z</time>
      </trkpt>
      <trkpt lat="45.28068" lon="-0.75737">
        <ele>48.73</ele>
        <time>2016-11-27T13:29:17Z</time>
      </trkpt>
      <trkpt lat="45.28022" lon="-0.75714">
        <ele>48.75</ele>
        <time>2016-11-27T13:29:28Z</time>
      </trkpt>
      <trkpt lat="45.28003" lon="-0.75704">
        <ele>48.63</ele>
        <time>2016-11-27T13:29:33Z</time>
      </trkpt>
      <trkpt lat="45.27928" lon="-0.7567">
        <ele>48.61</ele>
        <time>2016-11-27T13:29:54Z</time>
      </trkpt>
      <trkpt lat="45.2784" lon="-0.75623">
        <ele>48.72</ele>
        <time>2016-11-27T13:30:18Z</time>
      </trkpt>
      <trkpt lat="45.27784" lon="-0.7559">
        <ele>48.74</ele>
        <time>2016-11-27T13:30:33Z</time>
      </trkpt>
      <trkpt lat="45.27739" lon="-0.7557">
        <ele>48.66</ele>
        <time>2016-11-27T13:30:39Z</time>
      </trkpt>
      <trkpt lat="45.27681" lon="-0.75541">
        <ele>48.74</ele>
        <time>2016-11-27T13:30:55Z</time>
      </trkpt>
      <trkpt lat="45.27612" lon="-0.75506">
        <ele>48.81</ele>
        <time>2016-11-27T13:31:13Z</time>
      </trkpt>
      <trkpt lat="45.27535" lon="-0.75466">
        <ele>48.92</ele>
        <time>2016-11-27T13:31:34Z</time>
      </trkpt>
      <trkpt lat="45.27505" lon="-0.75457">
        <ele>48.87</ele>
        <time>2016-11-27T13:31:42Z</time>
      </trkpt>
      <trkpt lat="45.27477" lon="-0.75444">
        <ele>48.88</ele>
        <time>2016-11-27T13:31:48Z</time>
      </trkpt>
      <trkpt lat="45.27469" lon="-0.75442">
        <ele>48.81</ele>
        <time>2016-11-27T13:31:50Z</time>
      </trkpt>
      <trkpt lat="45.27434" lon="-0.75427">
        <ele>49.02</ele>
        <time>2016-11-27T13:31:59Z</time>
      </trkpt>
      <trkpt lat="45.27367" lon="-0.75409">
        <ele>48.8</ele>
        <time>2016-11-27T13:32:18Z</time>
      </trkpt>
      <trkpt lat="45.27357" lon="-0.75406">
        <ele>48.82</ele>
        <time>2016-11-27T13:32:20Z</time>
      </trkpt>
      <trkpt lat="45.27336" lon="-0.75396">
        <ele>49.25</ele>
        <time>2016-11-27T13:32:26Z</time>
      </trkpt>
      <trkpt lat="45.27326" lon="-0.75391">
        <ele>49.27</ele>
        <time>2016-11-27T13:32:29Z</time>
      </trkpt>
      <trkpt lat="45.27309" lon="-0.75385">
        <ele>49.06</ele>
        <time>2016-11-27T13:32:34Z</time>
      </trkpt>
      <trkpt lat="45.27236" lon="-0.75355">
        <ele>48.95</ele>
        <time>2016-11-27T13:32:57Z</time>
      </trkpt>
      <trkpt lat="45.27162" lon="-0.75316">
        <ele>49</ele>
        <time>2016-11-27T13:33:18Z</time>
      </trkpt>
      <trkpt lat="45.27084" lon="-0.75287">
        <ele>49.1</ele>
        <time>2016-11-27T13:33:39Z</time>
      </trkpt>
      <trkpt lat="45.2702" lon="-0.75279">
        <ele>49.11</ele>
        <time>2016-11-27T13:33:59Z</time>
      </trkpt>
      <trkpt lat="45.2695" lon="-0.75234">
        <ele>49.26</ele>
        <time>2016-11-27T13:34:18Z</time>
      </trkpt>
      <trkpt lat="45.26874" lon="-0.752">
        <ele>49.35</ele>
        <time>2016-11-27T13:34:39Z</time>
      </trkpt>
      <trkpt lat="45.26786" lon="-0.75168">
        <ele>49.46</ele>
        <time>2016-11-27T13:35:01Z</time>
      </trkpt>
      <trkpt lat="45.26712" lon="-0.75137">
        <ele>49.51</ele>
        <time>2016-11-27T13:35:21Z</time>
      </trkpt>
      <trkpt lat="45.26648" lon="-0.75104">
        <ele>49.47</ele>
        <time>2016-11-27T13:35:42Z</time>
      </trkpt>
      <trkpt lat="45.26578" lon="-0.75067">
        <ele>49.53</ele>
        <time>2016-11-27T13:36:04Z</time>
      </trkpt>
      <trkpt lat="45.26519" lon="-0.75057">
        <ele>49.45</ele>
        <time>2016-11-27T13:36:25Z</time>
      </trkpt>
      <trkpt lat="45.26473" lon="-0.75021">
        <ele>49.6</ele>
        <time>2016-11-27T13:36:45Z</time>
      </trkpt>
      <trkpt lat="45.2645" lon="-0.75025">
        <ele>49.56</ele>
        <time>2016-11-27T13:36:49Z</time>
      </trkpt>
      <trkpt lat="45.26421" lon="-0.75019">
        <ele>49.28</ele>
        <time>2016-11-27T13:36:55Z</time>
      </trkpt>
      <trkpt lat="45.26381" lon="-0.75004">
        <ele>49.58</ele>
        <time>2016-11-27T13:37:07Z</time>
      </trkpt>
      <trkpt lat="45.26358" lon="-0.74996">
        <ele>49.61</ele>
        <time>2016-11-27T13:37:14Z</time>
      </trkpt>
      <trkpt lat="45.26309" lon="-0.74985">
        <ele>49.7</ele>
        <time>2016-11-27T13:37:30Z</time>
      </trkpt>
      <trkpt lat="45.26261" lon="-0.74975">
        <ele>49.61</ele>
        <time>2016-11-27T13:37:46Z</time>
      </trkpt>
      <trkpt lat="45.26212" lon="-0.7496">
        <ele>49.71</ele>
        <time>2016-11-27T13:38:02Z</time>
      </trkpt>
      <trkpt lat="45.26165" lon="-0.74946">
        <ele>49.7</ele>
        <time>2016-11-27T13:38:17Z</time>
      </trkpt>
      <trkpt lat="45.26107" lon="-0.74926">
        <ele>49.77</ele>
        <time>2016-11-27T13:38:35Z</time>
      </trkpt>
      <trkpt lat="45.26056" lon="-0.74904">
        <ele>49.84</ele>
        <time>2016-11-27T13:38:51Z</time>
      </trkpt>
      <trkpt lat="45.26016" lon="-0.74888">
        <ele>49.93</ele>
        <time>2016-11-27T13:39:03Z</time>
      </trkpt>
      <trkpt lat="45.26003" lon="-0.74883">
        <ele>49.45</ele>
        <time>2016-11-27T13:39:07Z</time>
      </trkpt>
      <trkpt lat="45.25996" lon="-0.7488">
        <ele>49.45</ele>
        <time>2016-11-27T13:39:09Z</time>
      </trkpt>
      <trkpt lat="45.25925" lon="-0.74851">
        <ele>49.79</ele>
        <time>2016-11-27T13:39:31Z</time>
      </trkpt>
      <trkpt lat="45.25809" lon="-0.74802">
        <ele>49.88</ele>
        <time>2016-11-27T13:40:07Z</time>
      </trkpt>
      <trkpt lat="45.25703" lon="-0.74758">
        <ele>49.97</ele>
        <time>2016-11-27T13:40:40Z</time>
      </trkpt>
      <trkpt lat="45.25605" lon="-0.7472">
        <ele>50.11</ele>
        <time>2016-11-27T13:41:11Z</time>
      </trkpt>
      <trkpt lat="45.25546" lon="-0.74698">
        <ele>50.13</ele>
        <time>2016-11-27T13:41:30Z</time>
      </trkpt>
      <trkpt lat="45.25475" lon="-0.7467">
        <ele>49.93</ele>
        <time>2016-11-27T13:41:52Z</time>
      </trkpt>
      <trkpt lat="45.25406" lon="-0.74644">
        <ele>49.93</ele>
        <time>2016-11-27T13:42:15Z</time>
      </trkpt>
      <trkpt lat="45.25356" lon="-0.74629">
        <ele>50.13</ele>
        <time>2016-11-27T13:42:31Z</time>
      </trkpt>
      <trkpt lat="45.25343" lon="-0.74626">
        <ele>50.18</ele>
        <time>2016-11-27T13:42:35Z</time>
      </trkpt>
      <trkpt lat="45.2531" lon="-0.74614">
        <ele>50.3</ele>
        <time>2016-11-27T13:42:46Z</time>
      </trkpt>
      <trkpt lat="45.25297" lon="-0.74609">
        <ele>50.32</ele>
        <time>2016-11-27T13:42:50Z</time>
      </trkpt>
      <trkpt lat="45.25245" lon="-0.7459">
        <ele>50.3</ele>
        <time>2016-11-27T13:43:07Z</time>
      </trkpt>
      <trkpt lat="45.25216" lon="-0.7458">
        <ele>50.24</ele>
        <time>2016-11-27T13:43:16Z</time>
      </trkpt>
      <trkpt lat="45.25204" lon="-0.74576">
        <ele>50.32</ele>
        <time>2016-11-27T13:43:20Z</time>
      </trkpt>
      <trkpt lat="45.25184" lon="-0.74569">
        <ele>50.42</ele>
        <time>2016-11-27T13:43:27Z</time>
      </trkpt>
      <trkpt lat="45.2514" lon="-0.74554">
        <ele>50.54</ele>
        <time>2016-11-27T13:43:41Z</time>
      </trkpt>
      <trkpt lat="45.25128" lon="-0.7455">
        <ele>50.58</ele>
        <time>2016-11-27T13:43:45Z</time>
      </trkpt>
      <trkpt lat="45.25062" lon="-0.74524">
        <ele>50.41</ele>
        <time>2016-11-27T13:44:06Z</time>
      </trkpt>
      <trkpt lat="45.25044" lon="-0.74516">
        <ele>51.01</ele>
        <time>2016-11-27T13:44:11Z</time>
      </trkpt>
      <trkpt lat="45.25027" lon="-0.74511">
        <ele>51.04</ele>
        <time>2016-11-27T13:44:17Z</time>
      </trkpt>
      <trkpt lat="45.25009" lon="-0.74508">
        <ele>51.13</ele>
        <time>2016-11-27T13:44:23Z</time>
      </trkpt>
      <trkpt lat="45.24995" lon="-0.74505">
        <ele>50.7</ele>
        <time>2016-11-27T13:44:28Z</time>
      </trkpt>
      <trkpt lat="45.24934" lon="-0.74488">
        <ele>50.48</ele>
        <time>2016-11-27T13:44:49Z</time>
      </trkpt>
      <trkpt lat="45.24887" lon="-0.74475">
        <ele>50.47</ele>
        <time>2016-11-27T13:45:05Z</time>
      </trkpt>
      <trkpt lat="45.24852" lon="-0.74466">
        <ele>50.47</ele>
        <time>2016-11-27T13:45:16Z</time>
      </trkpt>
      <trkpt lat="45.24824" lon="-0.74459">
        <ele>50.47</ele>
        <time>2016-11-27T13:45:25Z</time>
      </trkpt>
      <trkpt lat="45.24818" lon="-0.74457">
        <ele>50.35</ele>
        <time>2016-11-27T13:45:27Z</time>
      </trkpt>
      <trkpt lat="45.24805" lon="-0.74453">
        <ele>50.51</ele>
        <time>2016-11-27T13:45:31Z</time>
      </trkpt>
      <trkpt lat="45.248" lon="-0.74451">
        <ele>50.26</ele>
        <time>2016-11-27T13:45:33Z</time>
      </trkpt>
      <trkpt lat="45.24788" lon="-0.74447">
        <ele>50.27</ele>
        <time>2016-11-27T13:45:37Z</time>
      </trkpt>
      <trkpt lat="45.24764" lon="-0.7444">
        <ele>50.16</ele>
        <time>2016-11-27T13:45:45Z</time>
      </trkpt>
      <trkpt lat="45.24745" lon="-0.74435">
        <ele>50.26</ele>
        <time>2016-11-27T13:45:51Z</time>
      </trkpt>
      <trkpt lat="45.24713" lon="-0.74426">
        <ele>50.2</ele>
        <time>2016-11-27T13:46:02Z</time>
      </trkpt>
      <trkpt lat="45.24706" lon="-0.74425">
        <ele>50.19</ele>
        <time>2016-11-27T13:46:04Z</time>
      </trkpt>
      <trkpt lat="45.24692" lon="-0.74421">
        <ele>50.21</ele>
        <time>2016-11-27T13:46:09Z</time>
      </trkpt>
      <trkpt lat="45.2468" lon="-0.74417">
        <ele>50.26</ele>
        <time>2016-11-27T13:46:13Z</time>
      </trkpt>
      <trkpt lat="45.24674" lon="-0.74415">
        <ele>50.3</ele>
        <time>2016-11-27T13:46:15Z</time>
      </trkpt>
      <trkpt lat="45.24663" lon="-0.74411">
        <ele>50.39</ele>
        <time>2016-11-27T13:46:19Z</time>
      </trkpt>
      <trkpt lat="45.24654" lon="-0.74409">
        <ele>50.67</ele>
        <time>2016-11-27T13:46:22Z</time>
      </trkpt>
      <trkpt lat="45.2463" lon="-0.74403">
        <ele>50.24</ele>
        <time>2016-11-27T13:46:30Z</time>
      </trkpt>
      <trkpt lat="45.24617" lon="-0.74399">
        <ele>50.31</ele>
        <time>2016-11-27T13:46:34Z</time>
      </trkpt>
      <trkpt lat="45.24595" lon="-0.74394">
        <ele>50.21</ele>
        <time>2016-11-27T13:46:41Z</time>
      </trkpt>
      <trkpt lat="45.24552" lon="-0.74381">
        <ele>51.21</ele>
        <time>2016-11-27T13:46:55Z</time>
      </trkpt>
      <trkpt lat="45.24518" lon="-0.74374">
        <ele>51.08</ele>
        <time>2016-11-27T13:47:06Z</time>
      </trkpt>
      <trkpt lat="45.24514" lon="-0.74373">
        <ele>51.08</ele>
        <time>2016-11-27T13:47:07Z</time>
      </trkpt>
      <trkpt lat="45.24484" lon="-0.74366">
        <ele>51.1</ele>
        <time>2016-11-27T13:47:17Z</time>
      </trkpt>
      <trkpt lat="45.24468" lon="-0.74363">
        <ele>51.61</ele>
        <time>2016-11-27T13:47:22Z</time>
      </trkpt>
      <trkpt lat="45.24439" lon="-0.74358">
        <ele>51.17</ele>
        <time>2016-11-27T13:47:31Z</time>
      </trkpt>
      <trkpt lat="45.2442" lon="-0.74354">
        <ele>51.09</ele>
        <time>2016-11-27T13:47:37Z</time>
      </trkpt>
      <trkpt lat="45.24383" lon="-0.74345">
        <ele>51.5</ele>
        <time>2016-11-27T13:47:49Z</time>
      </trkpt>
      <trkpt lat="45.24373" lon="-0.74343">
        <ele>51.45</ele>
        <time>2016-11-27T13:47:52Z</time>
      </trkpt>
      <trkpt lat="45.24356" lon="-0.74339">
        <ele>51.35</ele>
        <time>2016-11-27T13:47:57Z</time>
      </trkpt>
      <trkpt lat="45.24333" lon="-0.74332">
        <ele>51.32</ele>
        <time>2016-11-27T13:48:04Z</time>
      </trkpt>
      <trkpt lat="45.24273" lon="-0.7432">
        <ele>50.61</ele>
        <time>2016-11-27T13:48:23Z</time>
      </trkpt>
      <trkpt lat="45.24229" lon="-0.74311">
        <ele>50.61</ele>
        <time>2016-11-27T13:48:36Z</time>
      </trkpt>
      <trkpt lat="45.2421" lon="-0.74305">
        <ele>50.4</ele>
        <time>2016-11-27T13:48:42Z</time>
      </trkpt>
      <trkpt lat="45.24169" lon="-0.74299">
        <ele>51.39</ele>
        <time>2016-11-27T13:48:55Z</time>
      </trkpt>
      <trkpt lat="45.24157" lon="-0.74297">
        <ele>51.3</ele>
        <time>2016-11-27T13:48:59Z</time>
      </trkpt>
      <trkpt lat="45.24151" lon="-0.74295">
        <ele>51.35</ele>
        <time>2016-11-27T13:49:01Z</time>
      </trkpt>
      <trkpt lat="45.241" lon="-0.74285">
        <ele>51.23</ele>
        <time>2016-11-27T13:49:17Z</time>
      </trkpt>
      <trkpt lat="45.24082" lon="-0.74281">
        <ele>51.13</ele>
        <time>2016-11-27T13:49:23Z</time>
      </trkpt>
      <trkpt lat="45.2407" lon="-0.74279">
        <ele>51.12</ele>
        <time>2016-11-27T13:49:27Z</time>
      </trkpt>
      <trkpt lat="45.24029" lon="-0.74271">
        <ele>51.27</ele>
        <time>2016-11-27T13:49:40Z</time>
      </trkpt>
      <trkpt lat="45.24025" lon="-0.7427">
        <ele>51.05</ele>
        <time>2016-11-27T13:49:41Z</time>
      </trkpt>
      <trkpt lat="45.24001" lon="-0.74266">
        <ele>50.87</ele>
        <time>2016-11-27T13:49:48Z</time>
      </trkpt>
      <trkpt lat="45.23968" lon="-0.74257">
        <ele>51.67</ele>
        <time>2016-11-27T13:49:58Z</time>
      </trkpt>
      <trkpt lat="45.23936" lon="-0.74251">
        <ele>51.47</ele>
        <time>2016-11-27T13:50:07Z</time>
      </trkpt>
      <trkpt lat="45.23929" lon="-0.7425">
        <ele>51.41</ele>
        <time>2016-11-27T13:50:09Z</time>
      </trkpt>
      <trkpt lat="45.2389" lon="-0.74244">
        <ele>51.16</ele>
        <time>2016-11-27T13:50:21Z</time>
      </trkpt>
      <trkpt lat="45.23847" lon="-0.74225">
        <ele>51.1</ele>
        <time>2016-11-27T13:50:34Z</time>
      </trkpt>
      <trkpt lat="45.2384" lon="-0.74209">
        <ele>51.73</ele>
        <time>2016-11-27T13:50:46Z</time>
      </trkpt>
      <trkpt lat="45.23839" lon="-0.7421">
        <ele>51.7</ele>
        <time>2016-11-27T13:50:48Z</time>
      </trkpt>
      <trkpt lat="45.23833" lon="-0.74217">
        <ele>51.53</ele>
        <time>2016-11-27T13:51:06Z</time>
      </trkpt>
      <trkpt lat="45.23825" lon="-0.74214">
        <ele>51.7</ele>
        <time>2016-11-27T13:51:23Z</time>
      </trkpt>
      <trkpt lat="45.23816" lon="-0.74223">
        <ele>51.65</ele>
        <time>2016-11-27T13:51:39Z</time>
      </trkpt>
      <trkpt lat="45.23805" lon="-0.7424">
        <ele>52.75</ele>
        <time>2016-11-27T13:51:59Z</time>
      </trkpt>
      <trkpt lat="45.23795" lon="-0.74254">
        <ele>52.63</ele>
        <time>2016-11-27T13:52:16Z</time>
      </trkpt>
      <trkpt lat="45.23795" lon="-0.74256">
        <ele>52.6</ele>
        <time>2016-11-27T13:52:17Z</time>
      </trkpt>
      <trkpt lat="45.23789" lon="-0.74261">
        <ele>52.22</ele>
        <time>2016-11-27T13:52:27Z</time>
      </trkpt>
      <trkpt lat="45.23787" lon="-0.74263">
        <ele>52.22</ele>
        <time>2016-11-27T13:52:29Z</time>
      </trkpt>
      <trkpt lat="45.23777" lon="-0.74272">
        <ele>52.01</ele>
        <time>2016-11-27T13:52:36Z</time>
      </trkpt>
      <trkpt lat="45.23761" lon="-0.74274">
        <ele>51.94</ele>
        <time>2016-11-27T13:52:42Z</time>
      </trkpt>
      <trkpt lat="45.23724" lon="-0.74272">
        <ele>52.05</ele>
        <time>2016-11-27T13:52:55Z</time>
      </trkpt>
      <trkpt lat="45.23714" lon="-0.74271">
        <ele>51.57</ele>
        <time>2016-11-27T13:52:58Z</time>
      </trkpt>
      <trkpt lat="45.23708" lon="-0.7427">
        <ele>51.28</ele>
        <time>2016-11-27T13:53:00Z</time>
      </trkpt>
      <trkpt lat="45.23693" lon="-0.74269">
        <ele>51.37</ele>
        <time>2016-11-27T13:53:05Z</time>
      </trkpt>
      <trkpt lat="45.23661" lon="-0.74267">
        <ele>51.59</ele>
        <time>2016-11-27T13:53:16Z</time>
      </trkpt>
      <trkpt lat="45.23652" lon="-0.74268">
        <ele>51.42</ele>
        <time>2016-11-27T13:53:19Z</time>
      </trkpt>
      <trkpt lat="45.23615" lon="-0.74266">
        <ele>51.61</ele>
        <time>2016-11-27T13:53:33Z</time>
      </trkpt>
      <trkpt lat="45.23612" lon="-0.74266">
        <ele>51.63</ele>
        <time>2016-11-27T13:53:34Z</time>
      </trkpt>
      <trkpt lat="45.23603" lon="-0.74265">
        <ele>51.67</ele>
        <time>2016-11-27T13:53:37Z</time>
      </trkpt>
      <trkpt lat="45.23564" lon="-0.74269">
        <ele>51.42</ele>
        <time>2016-11-27T13:53:51Z</time>
      </trkpt>
      <trkpt lat="45.23552" lon="-0.74269">
        <ele>51.48</ele>
        <time>2016-11-27T13:53:55Z</time>
      </trkpt>
      <trkpt lat="45.23525" lon="-0.74276">
        <ele>51.4</ele>
        <time>2016-11-27T13:54:06Z</time>
      </trkpt>
      <trkpt lat="45.2352" lon="-0.74276">
        <ele>51.49</ele>
        <time>2016-11-27T13:54:08Z</time>
      </trkpt>
      <trkpt lat="45.23484" lon="-0.74274">
        <ele>51.84</ele>
        <time>2016-11-27T13:54:20Z</time>
      </trkpt>
      <trkpt lat="45.23474" lon="-0.74271">
        <ele>51.79</ele>
        <time>2016-11-27T13:54:23Z</time>
      </trkpt>
      <trkpt lat="45.23443" lon="-0.74261">
        <ele>51.76</ele>
        <time>2016-11-27T13:54:33Z</time>
      </trkpt>
      <trkpt lat="45.23417" lon="-0.74251">
        <ele>51.72</ele>
        <time>2016-11-27T13:54:43Z</time>
      </trkpt>
      <trkpt lat="45.23405" lon="-0.74247">
        <ele>51.79</ele>
        <time>2016-11-27T13:54:47Z</time>
      </trkpt>
      <trkpt lat="45.23396" lon="-0.74244">
        <ele>51.83</ele>
        <time>2016-11-27T13:54:50Z</time>
      </trkpt>
      <trkpt lat="45.23381" lon="-0.74241">
        <ele>52.09</ele>
        <time>2016-11-27T13:54:55Z</time>
      </trkpt>
      <trkpt lat="45.23372" lon="-0.74239">
        <ele>51.97</ele>
        <time>2016-11-27T13:54:58Z</time>
      </trkpt>
      <trkpt lat="45.23355" lon="-0.74235">
        <ele>52.31</ele>
        <time>2016-11-27T13:55:04Z</time>
      </trkpt>
      <trkpt lat="45.23343" lon="-0.74233">
        <ele>51.93</ele>
        <time>2016-11-27T13:55:08Z</time>
      </trkpt>
      <trkpt lat="45.23332" lon="-0.74229">
        <ele>52.33</ele>
        <time>2016-11-27T13:55:12Z</time>
      </trkpt>
      <trkpt lat="45.23319" lon="-0.74222">
        <ele>52.1</ele>
        <time>2016-11-27T13:55:17Z</time>
      </trkpt>
      <trkpt lat="45.23311" lon="-0.74218">
        <ele>52.07</ele>
        <time>2016-11-27T13:55:20Z</time>
      </trkpt>
      <trkpt lat="45.23296" lon="-0.74213">
        <ele>52.59</ele>
        <time>2016-11-27T13:55:26Z</time>
      </trkpt>
      <trkpt lat="45.23282" lon="-0.74208">
        <ele>52.29</ele>
        <time>2016-11-27T13:55:31Z</time>
      </trkpt>
      <trkpt lat="45.23268" lon="-0.74205">
        <ele>52.57</ele>
        <time>2016-11-27T13:55:36Z</time>
      </trkpt>
      <trkpt lat="45.23234" lon="-0.74198">
        <ele>52.57</ele>
        <time>2016-11-27T13:55:47Z</time>
      </trkpt>
      <trkpt lat="45.23229" lon="-0.74198">
        <ele>52.65</ele>
        <time>2016-11-27T13:55:49Z</time>
      </trkpt>
      <trkpt lat="45.23214" lon="-0.74197">
        <ele>52.9</ele>
        <time>2016-11-27T13:55:54Z</time>
      </trkpt>
      <trkpt lat="45.23159" lon="-0.74191">
        <ele>52.79</ele>
        <time>2016-11-27T13:56:13Z</time>
      </trkpt>
      <trkpt lat="45.2312" lon="-0.74176">
        <ele>52.69</ele>
        <time>2016-11-27T13:56:28Z</time>
      </trkpt>
      <trkpt lat="45.23088" lon="-0.74162">
        <ele>52.67</ele>
        <time>2016-11-27T13:56:40Z</time>
      </trkpt>
      <trkpt lat="45.23082" lon="-0.7416">
        <ele>52.77</ele>
        <time>2016-11-27T13:56:42Z</time>
      </trkpt>
      <trkpt lat="45.23052" lon="-0.7415">
        <ele>52.59</ele>
        <time>2016-11-27T13:56:53Z</time>
      </trkpt>
      <trkpt lat="45.23031" lon="-0.74147">
        <ele>52.04</ele>
        <time>2016-11-27T13:57:01Z</time>
      </trkpt>
      <trkpt lat="45.23013" lon="-0.74142">
        <ele>51.98</ele>
        <time>2016-11-27T13:57:07Z</time>
      </trkpt>
      <trkpt lat="45.22956" lon="-0.74122">
        <ele>51.75</ele>
        <time>2016-11-27T13:57:25Z</time>
      </trkpt>
      <trkpt lat="45.22897" lon="-0.74093">
        <ele>51.88</ele>
        <time>2016-11-27T13:57:44Z</time>
      </trkpt>
      <trkpt lat="45.22861" lon="-0.74083">
        <ele>51.77</ele>
        <time>2016-11-27T13:57:55Z</time>
      </trkpt>
      <trkpt lat="45.22815" lon="-0.74081">
        <ele>52.06</ele>
        <time>2016-11-27T13:58:09Z</time>
      </trkpt>
      <trkpt lat="45.22754" lon="-0.74083">
        <ele>52.09</ele>
        <time>2016-11-27T13:58:28Z</time>
      </trkpt>
      <trkpt lat="45.22725" lon="-0.74078">
        <ele>52.11</ele>
        <time>2016-11-27T13:58:37Z</time>
      </trkpt>
      <trkpt lat="45.22702" lon="-0.74072">
        <ele>52.16</ele>
        <time>2016-11-27T13:58:44Z</time>
      </trkpt>
      <trkpt lat="45.22679" lon="-0.74068">
        <ele>52.09</ele>
        <time>2016-11-27T13:58:51Z</time>
      </trkpt>
      <trkpt lat="45.22641" lon="-0.74062">
        <ele>52.63</ele>
        <time>2016-11-27T13:59:02Z</time>
      </trkpt>
      <trkpt lat="45.22635" lon="-0.7406">
        <ele>52.55</ele>
        <time>2016-11-27T13:59:04Z</time>
      </trkpt>
      <trkpt lat="45.22598" lon="-0.74048">
        <ele>52.87</ele>
        <time>2016-11-27T13:59:15Z</time>
      </trkpt>
      <trkpt lat="45.22572" lon="-0.74038">
        <ele>52.75</ele>
        <time>2016-11-27T13:59:23Z</time>
      </trkpt>
      <trkpt lat="45.22532" lon="-0.74024">
        <ele>52.88</ele>
        <time>2016-11-27T13:59:34Z</time>
      </trkpt>
      <trkpt lat="45.22487" lon="-0.74006">
        <ele>52.44</ele>
        <time>2016-11-27T13:59:47Z</time>
      </trkpt>
      <trkpt lat="45.22462" lon="-0.74003">
        <ele>52.5</ele>
        <time>2016-11-27T13:59:54Z</time>
      </trkpt>
      <trkpt lat="45.22442" lon="-0.74001">
        <ele>52.84</ele>
        <time>2016-11-27T14:00:00Z</time>
      </trkpt>
      <trkpt lat="45.22404" lon="-0.73991">
        <ele>52.64</ele>
        <time>2016-11-27T14:00:11Z</time>
      </trkpt>
      <trkpt lat="45.22348" lon="-0.73971">
        <ele>52.73</ele>
        <time>2016-11-27T14:00:27Z</time>
      </trkpt>
      <trkpt lat="45.22319" lon="-0.73963">
        <ele>52.95</ele>
        <time>2016-11-27T14:00:36Z</time>
      </trkpt>
      <trkpt lat="45.22296" lon="-0.73956">
        <ele>52.7</ele>
        <time>2016-11-27T14:00:43Z</time>
      </trkpt>
      <trkpt lat="45.22283" lon="-0.73952">
        <ele>52.73</ele>
        <time>2016-11-27T14:00:47Z</time>
      </trkpt>
      <trkpt lat="45.22251" lon="-0.73942">
        <ele>52.83</ele>
        <time>2016-11-27T14:00:57Z</time>
      </trkpt>
      <trkpt lat="45.22209" lon="-0.73925">
        <ele>52.75</ele>
        <time>2016-11-27T14:01:10Z</time>
      </trkpt>
      <trkpt lat="45.22198" lon="-0.73921">
        <ele>52.35</ele>
        <time>2016-11-27T14:01:13Z</time>
      </trkpt>
      <trkpt lat="45.22154" lon="-0.73915">
        <ele>52.69</ele>
        <time>2016-11-27T14:01:26Z</time>
      </trkpt>
      <trkpt lat="45.22144" lon="-0.73914">
        <ele>52.78</ele>
        <time>2016-11-27T14:01:29Z</time>
      </trkpt>
      <trkpt lat="45.22133" lon="-0.73914">
        <ele>52.99</ele>
        <time>2016-11-27T14:01:32Z</time>
      </trkpt>
      <trkpt lat="45.22112" lon="-0.73916">
        <ele>53.08</ele>
        <time>2016-11-27T14:01:38Z</time>
      </trkpt>
      <trkpt lat="45.22078" lon="-0.7392">
        <ele>52.93</ele>
        <time>2016-11-27T14:01:48Z</time>
      </trkpt>
      <trkpt lat="45.22065" lon="-0.73921">
        <ele>52.71</ele>
        <time>2016-11-27T14:01:52Z</time>
      </trkpt>
      <trkpt lat="45.22049" lon="-0.73922">
        <ele>53.06</ele>
        <time>2016-11-27T14:01:57Z</time>
      </trkpt>
      <trkpt lat="45.21995" lon="-0.73924">
        <ele>53.06</ele>
        <time>2016-11-27T14:02:13Z</time>
      </trkpt>
      <trkpt lat="45.21992" lon="-0.73924">
        <ele>53.04</ele>
        <time>2016-11-27T14:02:14Z</time>
      </trkpt>
      <trkpt lat="45.21973" lon="-0.73927">
        <ele>53.06</ele>
        <time>2016-11-27T14:02:20Z</time>
      </trkpt>
      <trkpt lat="45.21945" lon="-0.73934">
        <ele>53.09</ele>
        <time>2016-11-27T14:02:29Z</time>
      </trkpt>
      <trkpt lat="45.21924" lon="-0.73939">
        <ele>52.96</ele>
        <time>2016-11-27T14:02:35Z</time>
      </trkpt>
      <trkpt lat="45.21904" lon="-0.73942">
        <ele>52.75</ele>
        <time>2016-11-27T14:02:41Z</time>
      </trkpt>
      <trkpt lat="45.21888" lon="-0.73936">
        <ele>52.62</ele>
        <time>2016-11-27T14:02:46Z</time>
      </trkpt>
      <trkpt lat="45.21837" lon="-0.7393">
        <ele>52.66</ele>
        <time>2016-11-27T14:03:00Z</time>
      </trkpt>
      <trkpt lat="45.21791" lon="-0.73933">
        <ele>52.55</ele>
        <time>2016-11-27T14:03:13Z</time>
      </trkpt>
      <trkpt lat="45.21785" lon="-0.73935">
        <ele>52.61</ele>
        <time>2016-11-27T14:03:15Z</time>
      </trkpt>
      <trkpt lat="45.21768" lon="-0.7394">
        <ele>52.57</ele>
        <time>2016-11-27T14:03:20Z</time>
      </trkpt>
      <trkpt lat="45.21743" lon="-0.73943">
        <ele>52.45</ele>
        <time>2016-11-27T14:03:27Z</time>
      </trkpt>
      <trkpt lat="45.21735" lon="-0.73942">
        <ele>52.48</ele>
        <time>2016-11-27T14:03:29Z</time>
      </trkpt>
      <trkpt lat="45.21713" lon="-0.73946">
        <ele>52.81</ele>
        <time>2016-11-27T14:03:35Z</time>
      </trkpt>
      <trkpt lat="45.21661" lon="-0.73953">
        <ele>53.5</ele>
        <time>2016-11-27T14:03:48Z</time>
      </trkpt>
      <trkpt lat="45.21628" lon="-0.73964">
        <ele>53.8</ele>
        <time>2016-11-27T14:03:58Z</time>
      </trkpt>
      <trkpt lat="45.21618" lon="-0.73966">
        <ele>53.74</ele>
        <time>2016-11-27T14:04:01Z</time>
      </trkpt>
      <trkpt lat="45.21608" lon="-0.73968">
        <ele>53.18</ele>
        <time>2016-11-27T14:04:04Z</time>
      </trkpt>
      <trkpt lat="45.21591" lon="-0.73976">
        <ele>53.07</ele>
        <time>2016-11-27T14:04:09Z</time>
      </trkpt>
      <trkpt lat="45.21557" lon="-0.73981">
        <ele>53</ele>
        <time>2016-11-27T14:04:19Z</time>
      </trkpt>
      <trkpt lat="45.2154" lon="-0.73982">
        <ele>52.98</ele>
        <time>2016-11-27T14:04:24Z</time>
      </trkpt>
      <trkpt lat="45.21509" lon="-0.7399">
        <ele>53.04</ele>
        <time>2016-11-27T14:04:32Z</time>
      </trkpt>
      <trkpt lat="45.21462" lon="-0.74004">
        <ele>53.13</ele>
        <time>2016-11-27T14:04:45Z</time>
      </trkpt>
      <trkpt lat="45.21422" lon="-0.74018">
        <ele>53.26</ele>
        <time>2016-11-27T14:04:57Z</time>
      </trkpt>
      <trkpt lat="45.21377" lon="-0.74016">
        <ele>52.86</ele>
        <time>2016-11-27T14:05:09Z</time>
      </trkpt>
      <trkpt lat="45.21335" lon="-0.74019">
        <ele>53.28</ele>
        <time>2016-11-27T14:05:20Z</time>
      </trkpt>
      <trkpt lat="45.21314" lon="-0.74024">
        <ele>52.63</ele>
        <time>2016-11-27T14:05:26Z</time>
      </trkpt>
      <trkpt lat="45.21303" lon="-0.74026">
        <ele>52.24</ele>
        <time>2016-11-27T14:05:29Z</time>
      </trkpt>
      <trkpt lat="45.21268" lon="-0.74029">
        <ele>52.63</ele>
        <time>2016-11-27T14:05:38Z</time>
      </trkpt>
      <trkpt lat="45.21252" lon="-0.74028">
        <ele>52.97</ele>
        <time>2016-11-27T14:05:42Z</time>
      </trkpt>
      <trkpt lat="45.21234" lon="-0.74024">
        <ele>53.34</ele>
        <time>2016-11-27T14:05:47Z</time>
      </trkpt>
      <trkpt lat="45.21208" lon="-0.74021">
        <ele>53.36</ele>
        <time>2016-11-27T14:05:54Z</time>
      </trkpt>
      <trkpt lat="45.21182" lon="-0.74018">
        <ele>53.35</ele>
        <time>2016-11-27T14:06:01Z</time>
      </trkpt>
      <trkpt lat="45.21167" lon="-0.74017">
        <ele>53.05</ele>
        <time>2016-11-27T14:06:05Z</time>
      </trkpt>
      <trkpt lat="45.21135" lon="-0.74009">
        <ele>53.07</ele>
        <time>2016-11-27T14:06:14Z</time>
      </trkpt>
      <trkpt lat="45.21128" lon="-0.74007">
        <ele>53.1</ele>
        <time>2016-11-27T14:06:16Z</time>
      </trkpt>
      <trkpt lat="45.21094" lon="-0.73998">
        <ele>52.66</ele>
        <time>2016-11-27T14:06:25Z</time>
      </trkpt>
      <trkpt lat="45.20995" lon="-0.73998">
        <ele>52.61</ele>
        <time>2016-11-27T14:06:51Z</time>
      </trkpt>
      <trkpt lat="45.20919" lon="-0.74009">
        <ele>52.62</ele>
        <time>2016-11-27T14:07:12Z</time>
      </trkpt>
      <trkpt lat="45.20905" lon="-0.74011">
        <ele>53.01</ele>
        <time>2016-11-27T14:07:16Z</time>
      </trkpt>
      <trkpt lat="45.2087" lon="-0.74019">
        <ele>53.68</ele>
        <time>2016-11-27T14:07:26Z</time>
      </trkpt>
      <trkpt lat="45.20857" lon="-0.74023">
        <ele>53.67</ele>
        <time>2016-11-27T14:07:30Z</time>
      </trkpt>
      <trkpt lat="45.2082" lon="-0.74033">
        <ele>53.59</ele>
        <time>2016-11-27T14:07:41Z</time>
      </trkpt>
      <trkpt lat="45.20799" lon="-0.74037">
        <ele>53.16</ele>
        <time>2016-11-27T14:07:47Z</time>
      </trkpt>
      <trkpt lat="45.20775" lon="-0.74041">
        <ele>53.67</ele>
        <time>2016-11-27T14:07:54Z</time>
      </trkpt>
      <trkpt lat="45.20761" lon="-0.74044">
        <ele>53.64</ele>
        <time>2016-11-27T14:07:58Z</time>
      </trkpt>
      <trkpt lat="45.20747" lon="-0.74045">
        <ele>53.6</ele>
        <time>2016-11-27T14:08:02Z</time>
      </trkpt>
      <trkpt lat="45.2069" lon="-0.74044">
        <ele>53.61</ele>
        <time>2016-11-27T14:08:18Z</time>
      </trkpt>
      <trkpt lat="45.20663" lon="-0.74041">
        <ele>53.48</ele>
        <time>2016-11-27T14:08:26Z</time>
      </trkpt>
      <trkpt lat="45.20642" lon="-0.74041">
        <ele>53.59</ele>
        <time>2016-11-27T14:08:32Z</time>
      </trkpt>
      <trkpt lat="45.20625" lon="-0.74039">
        <ele>53.49</ele>
        <time>2016-11-27T14:08:37Z</time>
      </trkpt>
      <trkpt lat="45.20578" lon="-0.74036">
        <ele>53.61</ele>
        <time>2016-11-27T14:08:50Z</time>
      </trkpt>
      <trkpt lat="45.20564" lon="-0.74036">
        <ele>53.55</ele>
        <time>2016-11-27T14:08:54Z</time>
      </trkpt>
      <trkpt lat="45.20552" lon="-0.74038">
        <ele>53.63</ele>
        <time>2016-11-27T14:08:58Z</time>
      </trkpt>
      <trkpt lat="45.20509" lon="-0.74043">
        <ele>53.16</ele>
        <time>2016-11-27T14:09:11Z</time>
      </trkpt>
      <trkpt lat="45.20493" lon="-0.74048">
        <ele>53.21</ele>
        <time>2016-11-27T14:09:16Z</time>
      </trkpt>
      <trkpt lat="45.20484" lon="-0.74052">
        <ele>53.32</ele>
        <time>2016-11-27T14:09:19Z</time>
      </trkpt>
      <trkpt lat="45.20431" lon="-0.74071">
        <ele>53.99</ele>
        <time>2016-11-27T14:09:37Z</time>
      </trkpt>
      <trkpt lat="45.20386" lon="-0.7408">
        <ele>53.61</ele>
        <time>2016-11-27T14:09:52Z</time>
      </trkpt>
      <trkpt lat="45.20371" lon="-0.74082">
        <ele>53.54</ele>
        <time>2016-11-27T14:09:57Z</time>
      </trkpt>
      <trkpt lat="45.20365" lon="-0.74082">
        <ele>53.64</ele>
        <time>2016-11-27T14:09:59Z</time>
      </trkpt>
      <trkpt lat="45.20352" lon="-0.74083">
        <ele>53.57</ele>
        <time>2016-11-27T14:10:03Z</time>
      </trkpt>
      <trkpt lat="45.20318" lon="-0.74088">
        <ele>53.72</ele>
        <time>2016-11-27T14:10:14Z</time>
      </trkpt>
      <trkpt lat="45.20293" lon="-0.74091">
        <ele>53.66</ele>
        <time>2016-11-27T14:10:22Z</time>
      </trkpt>
      <trkpt lat="45.20277" lon="-0.74092">
        <ele>53.68</ele>
        <time>2016-11-27T14:10:27Z</time>
      </trkpt>
      <trkpt lat="45.20269" lon="-0.74093">
        <ele>53.66</ele>
        <time>2016-11-27T14:10:30Z</time>
      </trkpt>
      <trkpt lat="45.20251" lon="-0.74096">
        <ele>53.18</ele>
        <time>2016-11-27T14:10:36Z</time>
      </trkpt>
      <trkpt lat="45.20195" lon="-0.74106">
        <ele>53.65</ele>
        <time>2016-11-27T14:10:55Z</time>
      </trkpt>
      <trkpt lat="45.20156" lon="-0.74114">
        <ele>53.62</ele>
        <time>2016-11-27T14:11:08Z</time>
      </trkpt>
      <trkpt lat="45.20144" lon="-0.74116">
        <ele>53.51</ele>
        <time>2016-11-27T14:11:12Z</time>
      </trkpt>
      <trkpt lat="45.2013" lon="-0.7412">
        <ele>53.27</ele>
        <time>2016-11-27T14:11:17Z</time>
      </trkpt>
      <trkpt lat="45.20106" lon="-0.74126">
        <ele>53.67</ele>
        <time>2016-11-27T14:11:25Z</time>
      </trkpt>
      <trkpt lat="45.20098" lon="-0.7413">
        <ele>53.64</ele>
        <time>2016-11-27T14:11:28Z</time>
      </trkpt>
      <trkpt lat="45.20079" lon="-0.74137">
        <ele>53.18</ele>
        <time>2016-11-27T14:11:35Z</time>
      </trkpt>
      <trkpt lat="45.20068" lon="-0.74142">
        <ele>53.51</ele>
        <time>2016-11-27T14:11:39Z</time>
      </trkpt>
      <trkpt lat="45.20055" lon="-0.74147">
        <ele>53.78</ele>
        <time>2016-11-27T14:11:44Z</time>
      </trkpt>
      <trkpt lat="45.20051" lon="-0.7415">
        <ele>53.82</ele>
        <time>2016-11-27T14:11:46Z</time>
      </trkpt>
      <trkpt lat="45.20011" lon="-0.74176">
        <ele>53.73</ele>
        <time>2016-11-27T14:12:04Z</time>
      </trkpt>
      <trkpt lat="45.20004" lon="-0.7418">
        <ele>53.84</ele>
        <time>2016-11-27T14:12:07Z</time>
      </trkpt>
      <trkpt lat="45.19972" lon="-0.742">
        <ele>53.46</ele>
        <time>2016-11-27T14:12:21Z</time>
      </trkpt>
      <trkpt lat="45.19965" lon="-0.74203">
        <ele>53.4</ele>
        <time>2016-11-27T14:12:24Z</time>
      </trkpt>
      <trkpt lat="45.19956" lon="-0.74207">
        <ele>53.43</ele>
        <time>2016-11-27T14:12:28Z</time>
      </trkpt>
      <trkpt lat="45.19948" lon="-0.74208">
        <ele>53.64</ele>
        <time>2016-11-27T14:12:31Z</time>
      </trkpt>
      <trkpt lat="45.1994" lon="-0.7421">
        <ele>53.75</ele>
        <time>2016-11-27T14:12:34Z</time>
      </trkpt>
      <trkpt lat="45.19896" lon="-0.74218">
        <ele>53.74</ele>
        <time>2016-11-27T14:12:51Z</time>
      </trkpt>
      <trkpt lat="45.19889" lon="-0.7422">
        <ele>53.48</ele>
        <time>2016-11-27T14:12:54Z</time>
      </trkpt>
      <trkpt lat="45.19871" lon="-0.74224">
        <ele>53.61</ele>
        <time>2016-11-27T14:13:01Z</time>
      </trkpt>
      <trkpt lat="45.19845" lon="-0.7423">
        <ele>53.5</ele>
        <time>2016-11-27T14:13:11Z</time>
      </trkpt>
      <trkpt lat="45.19835" lon="-0.74229">
        <ele>53.25</ele>
        <time>2016-11-27T14:13:15Z</time>
      </trkpt>
      <trkpt lat="45.19826" lon="-0.74229">
        <ele>53.66</ele>
        <time>2016-11-27T14:13:18Z</time>
      </trkpt>
      <trkpt lat="45.19794" lon="-0.74221">
        <ele>53.51</ele>
        <time>2016-11-27T14:13:31Z</time>
      </trkpt>
      <trkpt lat="45.19783" lon="-0.74219">
        <ele>53.56</ele>
        <time>2016-11-27T14:13:35Z</time>
      </trkpt>
      <trkpt lat="45.19764" lon="-0.74217">
        <ele>53.48</ele>
        <time>2016-11-27T14:13:42Z</time>
      </trkpt>
      <trkpt lat="45.19739" lon="-0.74225">
        <ele>53.04</ele>
        <time>2016-11-27T14:13:53Z</time>
      </trkpt>
      <trkpt lat="45.19738" lon="-0.74227">
        <ele>53.04</ele>
        <time>2016-11-27T14:13:54Z</time>
      </trkpt>
      <trkpt lat="45.19734" lon="-0.74232">
        <ele>53.21</ele>
        <time>2016-11-27T14:13:57Z</time>
      </trkpt>
      <trkpt lat="45.19726" lon="-0.7425">
        <ele>53.06</ele>
        <time>2016-11-27T14:14:05Z</time>
      </trkpt>
      <trkpt lat="45.19723" lon="-0.74262">
        <ele>53.1</ele>
        <time>2016-11-27T14:14:11Z</time>
      </trkpt>
      <trkpt lat="45.1972" lon="-0.74273">
        <ele>53.14</ele>
        <time>2016-11-27T14:14:16Z</time>
      </trkpt>
      <trkpt lat="45.19718" lon="-0.74279">
        <ele>52.91</ele>
        <time>2016-11-27T14:14:19Z</time>
      </trkpt>
      <trkpt lat="45.19716" lon="-0.74286">
        <ele>53.06</ele>
        <time>2016-11-27T14:14:23Z</time>
      </trkpt>
      <trkpt lat="45.19712" lon="-0.74295">
        <ele>53.18</ele>
        <time>2016-11-27T14:14:27Z</time>
      </trkpt>
      <trkpt lat="45.19712" lon="-0.74299">
        <ele>53.15</ele>
        <time>2016-11-27T14:14:29Z</time>
      </trkpt>
      <trkpt lat="45.19711" lon="-0.74308">
        <ele>52.8</ele>
        <time>2016-11-27T14:14:34Z</time>
      </trkpt>
      <trkpt lat="45.19713" lon="-0.74317">
        <ele>53.09</ele>
        <time>2016-11-27T14:14:40Z</time>
      </trkpt>
      <trkpt lat="45.19726" lon="-0.74315">
        <ele>54.03</ele>
        <time>2016-11-27T14:14:57Z</time>
      </trkpt>
      <trkpt lat="45.19731" lon="-0.74307">
        <ele>53.88</ele>
        <time>2016-11-27T14:15:05Z</time>
      </trkpt>
      <trkpt lat="45.19745" lon="-0.74294">
        <ele>53.7</ele>
        <time>2016-11-27T14:15:23Z</time>
      </trkpt>
      <trkpt lat="45.19746" lon="-0.74293">
        <ele>53.5</ele>
        <time>2016-11-27T14:15:24Z</time>
      </trkpt>
      <trkpt lat="45.19751" lon="-0.74289">
        <ele>53.39</ele>
        <time>2016-11-27T14:15:31Z</time>
      </trkpt>
      <trkpt lat="45.19758" lon="-0.74284">
        <ele>52.82</ele>
        <time>2016-11-27T14:15:40Z</time>
      </trkpt>
      <trkpt lat="45.19771" lon="-0.74286">
        <ele>53.3</ele>
        <time>2016-11-27T14:15:59Z</time>
      </trkpt>
      <trkpt lat="45.19774" lon="-0.74287">
        <ele>53.37</ele>
        <time>2016-11-27T14:16:20Z</time>
      </trkpt>
      <trkpt lat="45.19777" lon="-0.7429">
        <ele>53.07</ele>
        <time>2016-11-27T14:16:37Z</time>
      </trkpt>
      <trkpt lat="45.19776" lon="-0.74287">
        <ele>53.63</ele>
        <time>2016-11-27T14:16:54Z</time>
      </trkpt>
      <trkpt lat="45.19772" lon="-0.74287">
        <ele>53.53</ele>
        <time>2016-11-27T14:17:10Z</time>
      </trkpt>
      <trkpt lat="45.19771" lon="-0.74286">
        <ele>53.08</ele>
        <time>2016-11-27T14:17:30Z</time>
      </trkpt>
      <trkpt lat="45.19771" lon="-0.74285">
        <ele>53.22</ele>
        <time>2016-11-27T14:17:45Z</time>
      </trkpt>
      <trkpt lat="45.19772" lon="-0.74285">
        <ele>53.23</ele>
        <time>2016-11-27T14:18:08Z</time>
      </trkpt>
      <trkpt lat="45.19773" lon="-0.74285">
        <ele>53.04</ele>
        <time>2016-11-27T14:18:30Z</time>
      </trkpt>
      <trkpt lat="45.19774" lon="-0.74289">
        <ele>53.76</ele>
        <time>2016-11-27T14:18:58Z</time>
      </trkpt>
      <trkpt lat="45.19773" lon="-0.74288">
        <ele>53.49</ele>
        <time>2016-11-27T14:19:15Z</time>
      </trkpt>
      <trkpt lat="45.19774" lon="-0.7429">
        <ele>53.69</ele>
        <time>2016-11-27T14:19:42Z</time>
      </trkpt>
      <trkpt lat="45.1977" lon="-0.74291">
        <ele>53.19</ele>
        <time>2016-11-27T14:20:00Z</time>
      </trkpt>
      <trkpt lat="45.19775" lon="-0.74291">
        <ele>53.65</ele>
        <time>2016-11-27T14:20:22Z</time>
      </trkpt>
      <trkpt lat="45.19775" lon="-0.74291">
        <ele>53.78</ele>
        <time>2016-11-27T14:20:34Z</time>
      </trkpt>
      <trkpt lat="44.87296" lon="-0.61139">
        <ele>33.71</ele>
        <time>2017-02-03T12:16:56Z</time>
      </trkpt>
      <trkpt lat="44.85041" lon="-0.701">
        <ele>30.16</ele>
        <time>2017-02-03T12:16:57Z</time>
      </trkpt>
      <trkpt lat="44.85047" lon="-0.70094">
        <ele>31.03</ele>
        <time>2017-02-03T12:17:05Z</time>
      </trkpt>
      <trkpt lat="44.85062" lon="-0.70102">
        <ele>30.21</ele>
        <time>2017-02-03T12:17:16Z</time>
      </trkpt>
      <trkpt lat="44.85067" lon="-0.70106">
        <ele>29.35</ele>
        <time>2017-02-03T12:17:18Z</time>
      </trkpt>
      <trkpt lat="44.85074" lon="-0.70113">
        <ele>30.05</ele>
        <time>2017-02-03T12:17:28Z</time>
      </trkpt>
      <trkpt lat="44.85079" lon="-0.70115">
        <ele>29.72</ele>
        <time>2017-02-03T12:17:31Z</time>
      </trkpt>
      <trkpt lat="44.85098" lon="-0.70123">
        <ele>28.79</ele>
        <time>2017-02-03T12:17:44Z</time>
      </trkpt>
      <trkpt lat="44.85113" lon="-0.70132">
        <ele>28.9</ele>
        <time>2017-02-03T12:17:56Z</time>
      </trkpt>
      <trkpt lat="44.85118" lon="-0.70135">
        <ele>28.88</ele>
        <time>2017-02-03T12:18:00Z</time>
      </trkpt>
      <trkpt lat="44.85125" lon="-0.7014">
        <ele>27.69</ele>
        <time>2017-02-03T12:18:08Z</time>
      </trkpt>
      <trkpt lat="44.85131" lon="-0.70144">
        <ele>27.34</ele>
        <time>2017-02-03T12:18:12Z</time>
      </trkpt>
      <trkpt lat="44.85134" lon="-0.70146">
        <ele>27.53</ele>
        <time>2017-02-03T12:18:14Z</time>
      </trkpt>
      <trkpt lat="44.85144" lon="-0.70152">
        <ele>28.61</ele>
        <time>2017-02-03T12:18:21Z</time>
      </trkpt>
      <trkpt lat="44.85147" lon="-0.70153">
        <ele>28.76</ele>
        <time>2017-02-03T12:18:23Z</time>
      </trkpt>
      <trkpt lat="44.85153" lon="-0.70155">
        <ele>27.88</ele>
        <time>2017-02-03T12:18:28Z</time>
      </trkpt>
      <trkpt lat="44.85162" lon="-0.70157">
        <ele>28.91</ele>
        <time>2017-02-03T12:18:36Z</time>
      </trkpt>
      <trkpt lat="44.85168" lon="-0.70148">
        <ele>29.68</ele>
        <time>2017-02-03T12:18:40Z</time>
      </trkpt>
      <trkpt lat="44.85184" lon="-0.70124">
        <ele>29.07</ele>
        <time>2017-02-03T12:18:53Z</time>
      </trkpt>
      <trkpt lat="44.85197" lon="-0.70105">
        <ele>28.6</ele>
        <time>2017-02-03T12:19:05Z</time>
      </trkpt>
      <trkpt lat="44.852" lon="-0.70099">
        <ele>29.03</ele>
        <time>2017-02-03T12:19:09Z</time>
      </trkpt>
      <trkpt lat="44.85202" lon="-0.70092">
        <ele>28.8</ele>
        <time>2017-02-03T12:19:13Z</time>
      </trkpt>
      <trkpt lat="44.85204" lon="-0.70087">
        <ele>28.79</ele>
        <time>2017-02-03T12:19:15Z</time>
      </trkpt>
      <trkpt lat="44.85213" lon="-0.70066">
        <ele>28.5</ele>
        <time>2017-02-03T12:19:27Z</time>
      </trkpt>
      <trkpt lat="44.85218" lon="-0.70045">
        <ele>27.94</ele>
        <time>2017-02-03T12:19:38Z</time>
      </trkpt>
      <trkpt lat="44.85222" lon="-0.70036">
        <ele>27.87</ele>
        <time>2017-02-03T12:19:44Z</time>
      </trkpt>
      <trkpt lat="44.85229" lon="-0.70001">
        <ele>27.22</ele>
        <time>2017-02-03T12:20:00Z</time>
      </trkpt>
      <trkpt lat="44.85239" lon="-0.69982">
        <ele>28.23</ele>
        <time>2017-02-03T12:20:11Z</time>
      </trkpt>
      <trkpt lat="44.85239" lon="-0.69961">
        <ele>28.51</ele>
        <time>2017-02-03T12:20:22Z</time>
      </trkpt>
      <trkpt lat="44.85256" lon="-0.69934">
        <ele>27.98</ele>
        <time>2017-02-03T12:20:39Z</time>
      </trkpt>
      <trkpt lat="44.85257" lon="-0.69933">
        <ele>27.75</ele>
        <time>2017-02-03T12:20:40Z</time>
      </trkpt>
      <trkpt lat="44.85259" lon="-0.69919">
        <ele>28.7</ele>
        <time>2017-02-03T12:20:46Z</time>
      </trkpt>
      <trkpt lat="44.8526" lon="-0.69912">
        <ele>28.84</ele>
        <time>2017-02-03T12:20:49Z</time>
      </trkpt>
      <trkpt lat="44.85261" lon="-0.69909">
        <ele>28.99</ele>
        <time>2017-02-03T12:20:51Z</time>
      </trkpt>
      <trkpt lat="44.85263" lon="-0.699">
        <ele>29.07</ele>
        <time>2017-02-03T12:20:57Z</time>
      </trkpt>
      <trkpt lat="44.85273" lon="-0.69876">
        <ele>28.84</ele>
        <time>2017-02-03T12:21:10Z</time>
      </trkpt>
      <trkpt lat="44.8528" lon="-0.6987">
        <ele>28.92</ele>
        <time>2017-02-03T12:21:18Z</time>
      </trkpt>
      <trkpt lat="44.85299" lon="-0.69872">
        <ele>29.31</ele>
        <time>2017-02-03T12:21:31Z</time>
      </trkpt>
      <trkpt lat="44.85309" lon="-0.69856">
        <ele>28.63</ele>
        <time>2017-02-03T12:21:41Z</time>
      </trkpt>
      <trkpt lat="44.8532" lon="-0.69829">
        <ele>29.59</ele>
        <time>2017-02-03T12:21:57Z</time>
      </trkpt>
      <trkpt lat="44.85321" lon="-0.69827">
        <ele>29.34</ele>
        <time>2017-02-03T12:21:58Z</time>
      </trkpt>
      <trkpt lat="44.85326" lon="-0.69818">
        <ele>29.48</ele>
        <time>2017-02-03T12:22:04Z</time>
      </trkpt>
      <trkpt lat="44.8533" lon="-0.69811">
        <ele>29.52</ele>
        <time>2017-02-03T12:22:08Z</time>
      </trkpt>
      <trkpt lat="44.85349" lon="-0.6979">
        <ele>29.1</ele>
        <time>2017-02-03T12:22:22Z</time>
      </trkpt>
      <trkpt lat="44.85352" lon="-0.69783">
        <ele>29.04</ele>
        <time>2017-02-03T12:22:26Z</time>
      </trkpt>
      <trkpt lat="44.85354" lon="-0.6978">
        <ele>29.73</ele>
        <time>2017-02-03T12:22:31Z</time>
      </trkpt>
      <trkpt lat="44.85356" lon="-0.69769">
        <ele>29.34</ele>
        <time>2017-02-03T12:22:37Z</time>
      </trkpt>
      <trkpt lat="44.85356" lon="-0.69757">
        <ele>29.82</ele>
        <time>2017-02-03T12:22:42Z</time>
      </trkpt>
      <trkpt lat="44.85356" lon="-0.69748">
        <ele>30.43</ele>
        <time>2017-02-03T12:22:46Z</time>
      </trkpt>
      <trkpt lat="44.85355" lon="-0.69738">
        <ele>30.68</ele>
        <time>2017-02-03T12:22:50Z</time>
      </trkpt>
      <trkpt lat="44.85355" lon="-0.69732">
        <ele>30.78</ele>
        <time>2017-02-03T12:22:53Z</time>
      </trkpt>
      <trkpt lat="44.85356" lon="-0.69705">
        <ele>29.54</ele>
        <time>2017-02-03T12:23:07Z</time>
      </trkpt>
      <trkpt lat="44.85361" lon="-0.69681">
        <ele>29</ele>
        <time>2017-02-03T12:23:20Z</time>
      </trkpt>
      <trkpt lat="44.85364" lon="-0.69653">
        <ele>29.59</ele>
        <time>2017-02-03T12:23:33Z</time>
      </trkpt>
      <trkpt lat="44.85364" lon="-0.69648">
        <ele>29.53</ele>
        <time>2017-02-03T12:23:36Z</time>
      </trkpt>
      <trkpt lat="44.85366" lon="-0.6964">
        <ele>29.47</ele>
        <time>2017-02-03T12:23:41Z</time>
      </trkpt>
      <trkpt lat="44.85368" lon="-0.69632">
        <ele>29.97</ele>
        <time>2017-02-03T12:23:47Z</time>
      </trkpt>
      <trkpt lat="44.85371" lon="-0.69622">
        <ele>29.47</ele>
        <time>2017-02-03T12:23:52Z</time>
      </trkpt>
      <trkpt lat="44.85376" lon="-0.69606">
        <ele>28.93</ele>
        <time>2017-02-03T12:24:05Z</time>
      </trkpt>
      <trkpt lat="44.85386" lon="-0.69609">
        <ele>29.62</ele>
        <time>2017-02-03T12:24:24Z</time>
      </trkpt>
      <trkpt lat="44.85395" lon="-0.69619">
        <ele>29.54</ele>
        <time>2017-02-03T12:24:43Z</time>
      </trkpt>
      <trkpt lat="44.85418" lon="-0.6963">
        <ele>30.33</ele>
        <time>2017-02-03T12:25:03Z</time>
      </trkpt>
      <trkpt lat="44.85455" lon="-0.69652">
        <ele>29.64</ele>
        <time>2017-02-03T12:25:23Z</time>
      </trkpt>
      <trkpt lat="44.85467" lon="-0.69658">
        <ele>29.64</ele>
        <time>2017-02-03T12:25:42Z</time>
      </trkpt>
      <trkpt lat="44.85477" lon="-0.69665">
        <ele>29.76</ele>
        <time>2017-02-03T12:25:58Z</time>
      </trkpt>
      <trkpt lat="44.8548" lon="-0.6968">
        <ele>29.31</ele>
        <time>2017-02-03T12:26:17Z</time>
      </trkpt>
      <trkpt lat="44.85489" lon="-0.69691">
        <ele>28.31</ele>
        <time>2017-02-03T12:26:35Z</time>
      </trkpt>
      <trkpt lat="44.85483" lon="-0.69685">
        <ele>28.41</ele>
        <time>2017-02-03T12:26:52Z</time>
      </trkpt>
      <trkpt lat="44.8548" lon="-0.69685">
        <ele>28.41</ele>
        <time>2017-02-03T12:26:55Z</time>
      </trkpt>
      <trkpt lat="44.87297" lon="-0.61143">
        <ele>-12.5</ele>
        <time>2017-03-18T08:46:05Z</time>
      </trkpt>
      <trkpt lat="44.95722" lon="-0.5444">
        <ele>-12.66</ele>
        <time>2017-03-18T08:46:08Z</time>
      </trkpt>
      <trkpt lat="44.95759" lon="-0.54435">
        <ele>-12.82</ele>
        <time>2017-03-18T08:46:19Z</time>
      </trkpt>
      <trkpt lat="44.95756" lon="-0.5443">
        <ele>-12.94</ele>
        <time>2017-03-18T08:46:22Z</time>
      </trkpt>
      <trkpt lat="44.95781" lon="-0.54419">
        <ele>-13.21</ele>
        <time>2017-03-18T08:46:35Z</time>
      </trkpt>
      <trkpt lat="44.95792" lon="-0.54414">
        <ele>-13.37</ele>
        <time>2017-03-18T08:46:41Z</time>
      </trkpt>
      <trkpt lat="44.95806" lon="-0.54409">
        <ele>-13.44</ele>
        <time>2017-03-18T08:46:48Z</time>
      </trkpt>
      <trkpt lat="44.95829" lon="-0.54398">
        <ele>-13.77</ele>
        <time>2017-03-18T08:47:01Z</time>
      </trkpt>
      <trkpt lat="44.95849" lon="-0.54386">
        <ele>-14.07</ele>
        <time>2017-03-18T08:47:14Z</time>
      </trkpt>
      <trkpt lat="44.95866" lon="-0.54376">
        <ele>-14.16</ele>
        <time>2017-03-18T08:47:25Z</time>
      </trkpt>
      <trkpt lat="44.95872" lon="-0.54373">
        <ele>-14.39</ele>
        <time>2017-03-18T08:47:29Z</time>
      </trkpt>
      <trkpt lat="44.95891" lon="-0.54362">
        <ele>-14.35</ele>
        <time>2017-03-18T08:47:42Z</time>
      </trkpt>
      <trkpt lat="44.95908" lon="-0.54353">
        <ele>-14.25</ele>
        <time>2017-03-18T08:47:52Z</time>
      </trkpt>
      <trkpt lat="44.9591" lon="-0.54352">
        <ele>-14.27</ele>
        <time>2017-03-18T08:47:53Z</time>
      </trkpt>
      <trkpt lat="44.95926" lon="-0.54348">
        <ele>-14.27</ele>
        <time>2017-03-18T08:48:03Z</time>
      </trkpt>
      <trkpt lat="44.95941" lon="-0.54343">
        <ele>-14.18</ele>
        <time>2017-03-18T08:48:11Z</time>
      </trkpt>
      <trkpt lat="44.9595" lon="-0.54338">
        <ele>-14.33</ele>
        <time>2017-03-18T08:48:17Z</time>
      </trkpt>
      <trkpt lat="44.95955" lon="-0.54336">
        <ele>-14.35</ele>
        <time>2017-03-18T08:48:20Z</time>
      </trkpt>
      <trkpt lat="44.95975" lon="-0.54323">
        <ele>-14.24</ele>
        <time>2017-03-18T08:48:34Z</time>
      </trkpt>
      <trkpt lat="44.95976" lon="-0.54322">
        <ele>-14.08</ele>
        <time>2017-03-18T08:48:35Z</time>
      </trkpt>
      <trkpt lat="44.95999" lon="-0.54305">
        <ele>-14.14</ele>
        <time>2017-03-18T08:48:52Z</time>
      </trkpt>
      <trkpt lat="44.9601" lon="-0.54297">
        <ele>-14.12</ele>
        <time>2017-03-18T08:49:01Z</time>
      </trkpt>
      <trkpt lat="44.96019" lon="-0.54296">
        <ele>-14.07</ele>
        <time>2017-03-18T08:49:06Z</time>
      </trkpt>
      <trkpt lat="44.96037" lon="-0.54289">
        <ele>-13.98</ele>
        <time>2017-03-18T08:49:19Z</time>
      </trkpt>
      <trkpt lat="44.96043" lon="-0.54285">
        <ele>-13.96</ele>
        <time>2017-03-18T08:49:24Z</time>
      </trkpt>
      <trkpt lat="44.96069" lon="-0.54281">
        <ele>-13.87</ele>
        <time>2017-03-18T08:49:39Z</time>
      </trkpt>
      <trkpt lat="44.96071" lon="-0.5428">
        <ele>-13.85</ele>
        <time>2017-03-18T08:49:40Z</time>
      </trkpt>
      <trkpt lat="44.96089" lon="-0.54276">
        <ele>-13.83</ele>
        <time>2017-03-18T08:49:52Z</time>
      </trkpt>
      <trkpt lat="44.96108" lon="-0.5427">
        <ele>-12.61</ele>
        <time>2017-03-18T08:50:04Z</time>
      </trkpt>
      <trkpt lat="44.9611" lon="-0.54269">
        <ele>-12.48</ele>
        <time>2017-03-18T08:50:06Z</time>
      </trkpt>
      <trkpt lat="44.96115" lon="-0.54269">
        <ele>-12.35</ele>
        <time>2017-03-18T08:50:10Z</time>
      </trkpt>
      <trkpt lat="44.96117" lon="-0.54268">
        <ele>-12.34</ele>
        <time>2017-03-18T08:50:12Z</time>
      </trkpt>
      <trkpt lat="44.96118" lon="-0.54267">
        <ele>-12.38</ele>
        <time>2017-03-18T08:50:14Z</time>
      </trkpt>
      <trkpt lat="44.96122" lon="-0.54265">
        <ele>-13.16</ele>
        <time>2017-03-18T08:50:31Z</time>
      </trkpt>
      <trkpt lat="44.96123" lon="-0.54266">
        <ele>-12.82</ele>
        <time>2017-03-18T08:50:52Z</time>
      </trkpt>
      <trkpt lat="44.96127" lon="-0.54268">
        <ele>-12.67</ele>
        <time>2017-03-18T08:51:06Z</time>
      </trkpt>
      <trkpt lat="44.96146" lon="-0.54266">
        <ele>-13.51</ele>
        <time>2017-03-18T08:51:18Z</time>
      </trkpt>
      <trkpt lat="44.96164" lon="-0.54259">
        <ele>-13.69</ele>
        <time>2017-03-18T08:51:30Z</time>
      </trkpt>
      <trkpt lat="44.96165" lon="-0.54258">
        <ele>-13.67</ele>
        <time>2017-03-18T08:51:31Z</time>
      </trkpt>
      <trkpt lat="44.96173" lon="-0.54256">
        <ele>-13.42</ele>
        <time>2017-03-18T08:51:36Z</time>
      </trkpt>
      <trkpt lat="44.96184" lon="-0.54253">
        <ele>-13.54</ele>
        <time>2017-03-18T08:51:43Z</time>
      </trkpt>
      <trkpt lat="44.96188" lon="-0.54251">
        <ele>-13.59</ele>
        <time>2017-03-18T08:51:46Z</time>
      </trkpt>
      <trkpt lat="44.9621" lon="-0.5425">
        <ele>-13.51</ele>
        <time>2017-03-18T08:51:59Z</time>
      </trkpt>
      <trkpt lat="44.96212" lon="-0.5425">
        <ele>-13.69</ele>
        <time>2017-03-18T08:52:00Z</time>
      </trkpt>
      <trkpt lat="44.96235" lon="-0.54247">
        <ele>-13.44</ele>
        <time>2017-03-18T08:52:14Z</time>
      </trkpt>
      <trkpt lat="44.96245" lon="-0.54246">
        <ele>-12.9</ele>
        <time>2017-03-18T08:52:19Z</time>
      </trkpt>
      <trkpt lat="44.96269" lon="-0.54245">
        <ele>-13.16</ele>
        <time>2017-03-18T08:52:33Z</time>
      </trkpt>
      <trkpt lat="44.96274" lon="-0.54244">
        <ele>-12.97</ele>
        <time>2017-03-18T08:52:37Z</time>
      </trkpt>
      <trkpt lat="44.96286" lon="-0.54243">
        <ele>-12.27</ele>
        <time>2017-03-18T08:52:44Z</time>
      </trkpt>
      <trkpt lat="44.96305" lon="-0.54243">
        <ele>-11.97</ele>
        <time>2017-03-18T08:52:55Z</time>
      </trkpt>
      <trkpt lat="44.96328" lon="-0.54244">
        <ele>-11.47</ele>
        <time>2017-03-18T08:53:08Z</time>
      </trkpt>
      <trkpt lat="44.9633" lon="-0.54244">
        <ele>-11.26</ele>
        <time>2017-03-18T08:53:09Z</time>
      </trkpt>
      <trkpt lat="44.96341" lon="-0.54245">
        <ele>-11.4</ele>
        <time>2017-03-18T08:53:15Z</time>
      </trkpt>
      <trkpt lat="44.96348" lon="-0.54246">
        <ele>-11.47</ele>
        <time>2017-03-18T08:53:19Z</time>
      </trkpt>
      <trkpt lat="44.96356" lon="-0.54245">
        <ele>-11.61</ele>
        <time>2017-03-18T08:53:24Z</time>
      </trkpt>
      <trkpt lat="44.96371" lon="-0.54245">
        <ele>-11.53</ele>
        <time>2017-03-18T08:53:33Z</time>
      </trkpt>
      <trkpt lat="44.96378" lon="-0.54244">
        <ele>-11.5</ele>
        <time>2017-03-18T08:53:37Z</time>
      </trkpt>
      <trkpt lat="44.96388" lon="-0.54245">
        <ele>-11.6</ele>
        <time>2017-03-18T08:53:43Z</time>
      </trkpt>
      <trkpt lat="44.964" lon="-0.54243">
        <ele>-11.11</ele>
        <time>2017-03-18T08:53:50Z</time>
      </trkpt>
      <trkpt lat="44.96412" lon="-0.54242">
        <ele>-11.25</ele>
        <time>2017-03-18T08:53:57Z</time>
      </trkpt>
      <trkpt lat="44.96427" lon="-0.5424">
        <ele>-10.8</ele>
        <time>2017-03-18T08:54:06Z</time>
      </trkpt>
      <trkpt lat="44.96447" lon="-0.54234">
        <ele>-11.76</ele>
        <time>2017-03-18T08:54:17Z</time>
      </trkpt>
      <trkpt lat="44.96478" lon="-0.54233">
        <ele>-11.75</ele>
        <time>2017-03-18T08:54:34Z</time>
      </trkpt>
      <trkpt lat="44.96486" lon="-0.54232">
        <ele>-10.83</ele>
        <time>2017-03-18T08:54:40Z</time>
      </trkpt>
      <trkpt lat="44.96493" lon="-0.54236">
        <ele>-11.45</ele>
        <time>2017-03-18T08:54:45Z</time>
      </trkpt>
      <trkpt lat="44.96501" lon="-0.54236">
        <ele>-11.75</ele>
        <time>2017-03-18T08:54:49Z</time>
      </trkpt>
      <trkpt lat="44.96524" lon="-0.54234">
        <ele>-11.53</ele>
        <time>2017-03-18T08:55:02Z</time>
      </trkpt>
      <trkpt lat="44.96532" lon="-0.54234">
        <ele>-11.4</ele>
        <time>2017-03-18T08:55:07Z</time>
      </trkpt>
      <trkpt lat="44.96535" lon="-0.54235">
        <ele>-11.5</ele>
        <time>2017-03-18T08:55:09Z</time>
      </trkpt>
      <trkpt lat="44.96539" lon="-0.54234">
        <ele>-11.41</ele>
        <time>2017-03-18T08:55:11Z</time>
      </trkpt>
      <trkpt lat="44.96551" lon="-0.54234">
        <ele>-11.72</ele>
        <time>2017-03-18T08:55:19Z</time>
      </trkpt>
      <trkpt lat="44.96558" lon="-0.54234">
        <ele>-11.55</ele>
        <time>2017-03-18T08:55:23Z</time>
      </trkpt>
      <trkpt lat="44.96562" lon="-0.54234">
        <ele>-11.36</ele>
        <time>2017-03-18T08:55:25Z</time>
      </trkpt>
      <trkpt lat="44.9657" lon="-0.54233">
        <ele>-11.32</ele>
        <time>2017-03-18T08:55:30Z</time>
      </trkpt>
      <trkpt lat="44.96574" lon="-0.54232">
        <ele>-11.41</ele>
        <time>2017-03-18T08:55:33Z</time>
      </trkpt>
      <trkpt lat="44.96607" lon="-0.54227">
        <ele>-11.23</ele>
        <time>2017-03-18T08:55:52Z</time>
      </trkpt>
      <trkpt lat="44.96637" lon="-0.54222">
        <ele>-11.27</ele>
        <time>2017-03-18T08:56:10Z</time>
      </trkpt>
      <trkpt lat="44.96652" lon="-0.54221">
        <ele>-11.4</ele>
        <time>2017-03-18T08:56:17Z</time>
      </trkpt>
      <trkpt lat="44.96654" lon="-0.5422">
        <ele>-11.23</ele>
        <time>2017-03-18T08:56:19Z</time>
      </trkpt>
      <trkpt lat="44.96672" lon="-0.54217">
        <ele>-11.47</ele>
        <time>2017-03-18T08:56:29Z</time>
      </trkpt>
      <trkpt lat="44.96681" lon="-0.54215">
        <ele>-11.22</ele>
        <time>2017-03-18T08:56:34Z</time>
      </trkpt>
      <trkpt lat="44.96707" lon="-0.54204">
        <ele>-11.49</ele>
        <time>2017-03-18T08:56:48Z</time>
      </trkpt>
      <trkpt lat="44.96714" lon="-0.54203">
        <ele>-11.7</ele>
        <time>2017-03-18T08:56:52Z</time>
      </trkpt>
      <trkpt lat="44.9672" lon="-0.54203">
        <ele>-11.64</ele>
        <time>2017-03-18T08:56:55Z</time>
      </trkpt>
      <trkpt lat="44.96728" lon="-0.54203">
        <ele>-11.67</ele>
        <time>2017-03-18T08:56:59Z</time>
      </trkpt>
      <trkpt lat="44.96734" lon="-0.54204">
        <ele>-11.11</ele>
        <time>2017-03-18T08:57:02Z</time>
      </trkpt>
      <trkpt lat="44.96744" lon="-0.54203">
        <ele>-11.26</ele>
        <time>2017-03-18T08:57:07Z</time>
      </trkpt>
      <trkpt lat="44.96769" lon="-0.54206">
        <ele>-11.26</ele>
        <time>2017-03-18T08:57:20Z</time>
      </trkpt>
      <trkpt lat="44.96786" lon="-0.54207">
        <ele>-11.25</ele>
        <time>2017-03-18T08:57:29Z</time>
      </trkpt>
      <trkpt lat="44.96799" lon="-0.54206">
        <ele>-11.27</ele>
        <time>2017-03-18T08:57:36Z</time>
      </trkpt>
      <trkpt lat="44.96816" lon="-0.54206">
        <ele>-11.18</ele>
        <time>2017-03-18T08:57:45Z</time>
      </trkpt>
      <trkpt lat="44.96847" lon="-0.54207">
        <ele>-11.04</ele>
        <time>2017-03-18T08:58:02Z</time>
      </trkpt>
      <trkpt lat="44.96866" lon="-0.54207">
        <ele>-10.94</ele>
        <time>2017-03-18T08:58:12Z</time>
      </trkpt>
      <trkpt lat="44.96879" lon="-0.54208">
        <ele>-11.8</ele>
        <time>2017-03-18T08:58:19Z</time>
      </trkpt>
      <trkpt lat="44.96884" lon="-0.54208">
        <ele>-11.72</ele>
        <time>2017-03-18T08:58:22Z</time>
      </trkpt>
      <trkpt lat="44.96893" lon="-0.54209">
        <ele>-11.86</ele>
        <time>2017-03-18T08:58:27Z</time>
      </trkpt>
      <trkpt lat="44.96933" lon="-0.54207">
        <ele>-11.92</ele>
        <time>2017-03-18T08:58:47Z</time>
      </trkpt>
      <trkpt lat="44.96941" lon="-0.54207">
        <ele>-11.69</ele>
        <time>2017-03-18T08:58:51Z</time>
      </trkpt>
      <trkpt lat="44.96972" lon="-0.54206">
        <ele>-11.45</ele>
        <time>2017-03-18T08:59:07Z</time>
      </trkpt>
      <trkpt lat="44.96993" lon="-0.54203">
        <ele>-11.35</ele>
        <time>2017-03-18T08:59:18Z</time>
      </trkpt>
      <trkpt lat="44.96996" lon="-0.54203">
        <ele>-11.33</ele>
        <time>2017-03-18T08:59:20Z</time>
      </trkpt>
      <trkpt lat="44.97004" lon="-0.54202">
        <ele>-11.2</ele>
        <time>2017-03-18T08:59:24Z</time>
      </trkpt>
      <trkpt lat="44.97008" lon="-0.54201">
        <ele>-11.22</ele>
        <time>2017-03-18T08:59:26Z</time>
      </trkpt>
      <trkpt lat="44.97024" lon="-0.54198">
        <ele>-11.27</ele>
        <time>2017-03-18T08:59:35Z</time>
      </trkpt>
      <trkpt lat="44.9704" lon="-0.54185">
        <ele>-11.4</ele>
        <time>2017-03-18T08:59:44Z</time>
      </trkpt>
      <trkpt lat="44.97043" lon="-0.54181">
        <ele>-11.46</ele>
        <time>2017-03-18T08:59:46Z</time>
      </trkpt>
      <trkpt lat="44.97049" lon="-0.5417">
        <ele>-11.5</ele>
        <time>2017-03-18T08:59:51Z</time>
      </trkpt>
      <trkpt lat="44.97057" lon="-0.54156">
        <ele>-11.52</ele>
        <time>2017-03-18T08:59:57Z</time>
      </trkpt>
      <trkpt lat="44.97069" lon="-0.54142">
        <ele>-11.43</ele>
        <time>2017-03-18T09:00:04Z</time>
      </trkpt>
      <trkpt lat="44.97071" lon="-0.54139">
        <ele>-11.49</ele>
        <time>2017-03-18T09:00:06Z</time>
      </trkpt>
      <trkpt lat="44.97082" lon="-0.54122">
        <ele>-11.64</ele>
        <time>2017-03-18T09:00:14Z</time>
      </trkpt>
      <trkpt lat="44.97089" lon="-0.54107">
        <ele>-11.66</ele>
        <time>2017-03-18T09:00:20Z</time>
      </trkpt>
      <trkpt lat="44.97104" lon="-0.54058">
        <ele>-11.71</ele>
        <time>2017-03-18T09:00:37Z</time>
      </trkpt>
      <trkpt lat="44.97111" lon="-0.54011">
        <ele>-11.71</ele>
        <time>2017-03-18T09:00:53Z</time>
      </trkpt>
      <trkpt lat="44.97111" lon="-0.54008">
        <ele>-11.71</ele>
        <time>2017-03-18T09:00:54Z</time>
      </trkpt>
      <trkpt lat="44.97112" lon="-0.54001">
        <ele>-11.74</ele>
        <time>2017-03-18T09:00:56Z</time>
      </trkpt>
      <trkpt lat="44.97115" lon="-0.53972">
        <ele>-11.69</ele>
        <time>2017-03-18T09:01:05Z</time>
      </trkpt>
      <trkpt lat="44.97119" lon="-0.53956">
        <ele>-11.72</ele>
        <time>2017-03-18T09:01:11Z</time>
      </trkpt>
      <trkpt lat="44.97121" lon="-0.53951">
        <ele>-11.78</ele>
        <time>2017-03-18T09:01:13Z</time>
      </trkpt>
      <trkpt lat="44.97127" lon="-0.53937">
        <ele>-11.92</ele>
        <time>2017-03-18T09:01:19Z</time>
      </trkpt>
      <trkpt lat="44.97138" lon="-0.53921">
        <ele>-11.89</ele>
        <time>2017-03-18T09:01:28Z</time>
      </trkpt>
      <trkpt lat="44.97144" lon="-0.53912">
        <ele>-11.95</ele>
        <time>2017-03-18T09:01:32Z</time>
      </trkpt>
      <trkpt lat="44.97164" lon="-0.53886">
        <ele>-11.58</ele>
        <time>2017-03-18T09:01:47Z</time>
      </trkpt>
      <trkpt lat="44.9717" lon="-0.53878">
        <ele>-11.74</ele>
        <time>2017-03-18T09:01:51Z</time>
      </trkpt>
      <trkpt lat="44.97177" lon="-0.53871">
        <ele>-11.69</ele>
        <time>2017-03-18T09:01:56Z</time>
      </trkpt>
      <trkpt lat="44.97205" lon="-0.53843">
        <ele>-12.07</ele>
        <time>2017-03-18T09:02:15Z</time>
      </trkpt>
      <trkpt lat="44.97209" lon="-0.53839">
        <ele>-12.16</ele>
        <time>2017-03-18T09:02:18Z</time>
      </trkpt>
      <trkpt lat="44.97214" lon="-0.53834">
        <ele>-12.2</ele>
        <time>2017-03-18T09:02:22Z</time>
      </trkpt>
      <trkpt lat="44.97219" lon="-0.53828">
        <ele>-12.19</ele>
        <time>2017-03-18T09:02:26Z</time>
      </trkpt>
      <trkpt lat="44.97225" lon="-0.53823">
        <ele>-12.28</ele>
        <time>2017-03-18T09:02:30Z</time>
      </trkpt>
      <trkpt lat="44.97232" lon="-0.53819">
        <ele>-12.2</ele>
        <time>2017-03-18T09:02:35Z</time>
      </trkpt>
      <trkpt lat="44.97246" lon="-0.53812">
        <ele>-12.31</ele>
        <time>2017-03-18T09:02:44Z</time>
      </trkpt>
      <trkpt lat="44.97251" lon="-0.53809">
        <ele>-12.35</ele>
        <time>2017-03-18T09:02:48Z</time>
      </trkpt>
      <trkpt lat="44.97259" lon="-0.53806">
        <ele>-12.31</ele>
        <time>2017-03-18T09:02:53Z</time>
      </trkpt>
      <trkpt lat="44.97274" lon="-0.53798">
        <ele>-12.26</ele>
        <time>2017-03-18T09:03:02Z</time>
      </trkpt>
      <trkpt lat="44.97285" lon="-0.53793">
        <ele>-12.57</ele>
        <time>2017-03-18T09:03:07Z</time>
      </trkpt>
      <trkpt lat="44.97299" lon="-0.53789">
        <ele>-12.76</ele>
        <time>2017-03-18T09:03:18Z</time>
      </trkpt>
      <trkpt lat="44.97312" lon="-0.53804">
        <ele>-11.47</ele>
        <time>2017-03-18T09:03:29Z</time>
      </trkpt>
      <trkpt lat="44.97312" lon="-0.53808">
        <ele>-11.36</ele>
        <time>2017-03-18T09:03:31Z</time>
      </trkpt>
      <trkpt lat="44.97311" lon="-0.5382">
        <ele>-11.92</ele>
        <time>2017-03-18T09:03:44Z</time>
      </trkpt>
      <trkpt lat="44.9731" lon="-0.53822">
        <ele>-12.18</ele>
        <time>2017-03-18T09:03:46Z</time>
      </trkpt>
      <trkpt lat="44.97299" lon="-0.53832">
        <ele>-12.94</ele>
        <time>2017-03-18T09:04:06Z</time>
      </trkpt>
      <trkpt lat="44.9729" lon="-0.53837">
        <ele>-12.81</ele>
        <time>2017-03-18T09:04:27Z</time>
      </trkpt>
      <trkpt lat="44.9728" lon="-0.53832">
        <ele>-13.31</ele>
        <time>2017-03-18T09:04:49Z</time>
      </trkpt>
      <trkpt lat="44.97276" lon="-0.53828">
        <ele>-12.7</ele>
        <time>2017-03-18T09:05:14Z</time>
      </trkpt>
      <trkpt lat="44.9727" lon="-0.53834">
        <ele>-13.39</ele>
        <time>2017-03-18T09:05:37Z</time>
      </trkpt>
      <trkpt lat="44.97258" lon="-0.53836">
        <ele>-13.33</ele>
        <time>2017-03-18T09:06:02Z</time>
      </trkpt>
      <trkpt lat="44.97253" lon="-0.53843">
        <ele>-12.96</ele>
        <time>2017-03-18T09:06:26Z</time>
      </trkpt>
      <trkpt lat="44.97253" lon="-0.53844">
        <ele>-13.16</ele>
        <time>2017-03-18T09:06:27Z</time>
      </trkpt>
      <trkpt lat="44.9725" lon="-0.53855">
        <ele>-12.62</ele>
        <time>2017-03-18T09:06:33Z</time>
      </trkpt>
      <trkpt lat="44.97249" lon="-0.53858">
        <ele>-12.58</ele>
        <time>2017-03-18T09:06:35Z</time>
      </trkpt>
      <trkpt lat="44.9724" lon="-0.53874">
        <ele>-12.58</ele>
        <time>2017-03-18T09:06:45Z</time>
      </trkpt>
      <trkpt lat="44.9724" lon="-0.53877">
        <ele>-12.43</ele>
        <time>2017-03-18T09:06:47Z</time>
      </trkpt>
      <trkpt lat="44.97238" lon="-0.53892">
        <ele>-13.03</ele>
        <time>2017-03-18T09:07:07Z</time>
      </trkpt>
      <trkpt lat="44.97234" lon="-0.539">
        <ele>-13.78</ele>
        <time>2017-03-18T09:07:31Z</time>
      </trkpt>
      <trkpt lat="44.97233" lon="-0.53901">
        <ele>-13.59</ele>
        <time>2017-03-18T09:07:34Z</time>
      </trkpt>
      <trkpt lat="44.97228" lon="-0.53906">
        <ele>-13.25</ele>
        <time>2017-03-18T09:07:47Z</time>
      </trkpt>
      <trkpt lat="44.97215" lon="-0.53918">
        <ele>-13.64</ele>
        <time>2017-03-18T09:08:24Z</time>
      </trkpt>
      <trkpt lat="44.97209" lon="-0.53929">
        <ele>-13.09</ele>
        <time>2017-03-18T09:08:47Z</time>
      </trkpt>
      <trkpt lat="44.97207" lon="-0.53939">
        <ele>-14.06</ele>
        <time>2017-03-18T09:09:03Z</time>
      </trkpt>
      <trkpt lat="44.97212" lon="-0.53945">
        <ele>-13.85</ele>
        <time>2017-03-18T09:09:18Z</time>
      </trkpt>
      <trkpt lat="44.97217" lon="-0.53955">
        <ele>-13.87</ele>
        <time>2017-03-18T09:09:41Z</time>
      </trkpt>
      <trkpt lat="44.97225" lon="-0.53958">
        <ele>-13.75</ele>
        <time>2017-03-18T09:10:01Z</time>
      </trkpt>
      <trkpt lat="44.97234" lon="-0.53961">
        <ele>-13.56</ele>
        <time>2017-03-18T09:10:25Z</time>
      </trkpt>
      <trkpt lat="44.97243" lon="-0.53964">
        <ele>-13.64</ele>
        <time>2017-03-18T09:10:44Z</time>
      </trkpt>
      <trkpt lat="44.97259" lon="-0.53974">
        <ele>-13.37</ele>
        <time>2017-03-18T09:11:15Z</time>
      </trkpt>
      <trkpt lat="44.97277" lon="-0.53988">
        <ele>-13.51</ele>
        <time>2017-03-18T09:11:51Z</time>
      </trkpt>
      <trkpt lat="44.9729" lon="-0.53999">
        <ele>-12.96</ele>
        <time>2017-03-18T09:12:13Z</time>
      </trkpt>
      <trkpt lat="44.97292" lon="-0.54">
        <ele>-12.73</ele>
        <time>2017-03-18T09:12:15Z</time>
      </trkpt>
      <trkpt lat="44.97301" lon="-0.54007">
        <ele>-12.68</ele>
        <time>2017-03-18T09:12:31Z</time>
      </trkpt>
      <trkpt lat="44.97309" lon="-0.54013">
        <ele>-12.71</ele>
        <time>2017-03-18T09:12:46Z</time>
      </trkpt>
      <trkpt lat="44.97316" lon="-0.54017">
        <ele>-12.36</ele>
        <time>2017-03-18T09:12:54Z</time>
      </trkpt>
      <trkpt lat="44.97334" lon="-0.54028">
        <ele>-13.59</ele>
        <time>2017-03-18T09:13:17Z</time>
      </trkpt>
      <trkpt lat="44.97341" lon="-0.54034">
        <ele>-13.21</ele>
        <time>2017-03-18T09:13:25Z</time>
      </trkpt>
      <trkpt lat="44.97356" lon="-0.54043">
        <ele>-13.29</ele>
        <time>2017-03-18T09:13:43Z</time>
      </trkpt>
      <trkpt lat="44.97375" lon="-0.54052">
        <ele>-13.74</ele>
        <time>2017-03-18T09:14:04Z</time>
      </trkpt>
      <trkpt lat="44.97379" lon="-0.54054">
        <ele>-13.82</ele>
        <time>2017-03-18T09:14:08Z</time>
      </trkpt>
      <trkpt lat="44.97386" lon="-0.5406">
        <ele>-13.52</ele>
        <time>2017-03-18T09:14:16Z</time>
      </trkpt>
      <trkpt lat="44.97399" lon="-0.54071">
        <ele>-13.75</ele>
        <time>2017-03-18T09:14:31Z</time>
      </trkpt>
      <trkpt lat="44.97406" lon="-0.54077">
        <ele>-13.53</ele>
        <time>2017-03-18T09:14:36Z</time>
      </trkpt>
      <trkpt lat="44.97411" lon="-0.54081">
        <ele>-13.9</ele>
        <time>2017-03-18T09:14:39Z</time>
      </trkpt>
      <trkpt lat="44.97435" lon="-0.54099">
        <ele>-13.08</ele>
        <time>2017-03-18T09:14:51Z</time>
      </trkpt>
      <trkpt lat="44.9747" lon="-0.54112">
        <ele>-12.84</ele>
        <time>2017-03-18T09:15:07Z</time>
      </trkpt>
      <trkpt lat="44.97489" lon="-0.54111">
        <ele>-14.03</ele>
        <time>2017-03-18T09:15:16Z</time>
      </trkpt>
      <trkpt lat="44.97498" lon="-0.54111">
        <ele>-13.79</ele>
        <time>2017-03-18T09:15:20Z</time>
      </trkpt>
      <trkpt lat="44.97513" lon="-0.54107">
        <ele>-14.24</ele>
        <time>2017-03-18T09:15:27Z</time>
      </trkpt>
      <trkpt lat="44.97556" lon="-0.54095">
        <ele>-14.21</ele>
        <time>2017-03-18T09:15:49Z</time>
      </trkpt>
      <trkpt lat="44.97569" lon="-0.54092">
        <ele>-14.43</ele>
        <time>2017-03-18T09:15:56Z</time>
      </trkpt>
      <trkpt lat="44.97609" lon="-0.54087">
        <ele>-13.66</ele>
        <time>2017-03-18T09:16:16Z</time>
      </trkpt>
      <trkpt lat="44.97642" lon="-0.54091">
        <ele>-13.54</ele>
        <time>2017-03-18T09:16:33Z</time>
      </trkpt>
      <trkpt lat="44.97644" lon="-0.54092">
        <ele>-13.75</ele>
        <time>2017-03-18T09:16:34Z</time>
      </trkpt>
      <trkpt lat="44.97663" lon="-0.54096">
        <ele>-13.23</ele>
        <time>2017-03-18T09:16:45Z</time>
      </trkpt>
      <trkpt lat="44.97668" lon="-0.54098">
        <ele>-13.17</ele>
        <time>2017-03-18T09:16:48Z</time>
      </trkpt>
      <trkpt lat="44.97702" lon="-0.54105">
        <ele>-13.69</ele>
        <time>2017-03-18T09:17:08Z</time>
      </trkpt>
      <trkpt lat="44.97704" lon="-0.54106">
        <ele>-13.66</ele>
        <time>2017-03-18T09:17:09Z</time>
      </trkpt>
      <trkpt lat="44.97719" lon="-0.5411">
        <ele>-13.23</ele>
        <time>2017-03-18T09:17:17Z</time>
      </trkpt>
      <trkpt lat="44.97722" lon="-0.54111">
        <ele>-13.26</ele>
        <time>2017-03-18T09:17:19Z</time>
      </trkpt>
      <trkpt lat="44.97736" lon="-0.54114">
        <ele>-14.46</ele>
        <time>2017-03-18T09:17:26Z</time>
      </trkpt>
      <trkpt lat="44.9775" lon="-0.54116">
        <ele>-13.77</ele>
        <time>2017-03-18T09:17:34Z</time>
      </trkpt>
      <trkpt lat="44.97777" lon="-0.54122">
        <ele>-13.25</ele>
        <time>2017-03-18T09:17:49Z</time>
      </trkpt>
      <trkpt lat="44.97806" lon="-0.54127">
        <ele>-14.38</ele>
        <time>2017-03-18T09:18:06Z</time>
      </trkpt>
      <trkpt lat="44.97833" lon="-0.54128">
        <ele>-14.32</ele>
        <time>2017-03-18T09:18:25Z</time>
      </trkpt>
      <trkpt lat="44.9784" lon="-0.54128">
        <ele>-14.63</ele>
        <time>2017-03-18T09:18:29Z</time>
      </trkpt>
      <trkpt lat="44.97865" lon="-0.54129">
        <ele>-14.5</ele>
        <time>2017-03-18T09:18:46Z</time>
      </trkpt>
      <trkpt lat="44.97887" lon="-0.54129">
        <ele>-14.14</ele>
        <time>2017-03-18T09:19:03Z</time>
      </trkpt>
      <trkpt lat="44.9789" lon="-0.54129">
        <ele>-14.34</ele>
        <time>2017-03-18T09:19:05Z</time>
      </trkpt>
      <trkpt lat="44.97909" lon="-0.54129">
        <ele>-14.38</ele>
        <time>2017-03-18T09:19:22Z</time>
      </trkpt>
      <trkpt lat="44.97928" lon="-0.54129">
        <ele>-13.82</ele>
        <time>2017-03-18T09:19:39Z</time>
      </trkpt>
      <trkpt lat="44.97936" lon="-0.54129">
        <ele>-13.86</ele>
        <time>2017-03-18T09:19:48Z</time>
      </trkpt>
      <trkpt lat="44.97951" lon="-0.54129">
        <ele>-14.76</ele>
        <time>2017-03-18T09:20:05Z</time>
      </trkpt>
      <trkpt lat="44.97958" lon="-0.54128">
        <ele>-14.2</ele>
        <time>2017-03-18T09:20:14Z</time>
      </trkpt>
      <trkpt lat="44.97981" lon="-0.54125">
        <ele>-14.44</ele>
        <time>2017-03-18T09:20:39Z</time>
      </trkpt>
      <trkpt lat="44.97989" lon="-0.54126">
        <ele>-14.11</ele>
        <time>2017-03-18T09:20:48Z</time>
      </trkpt>
      <trkpt lat="44.97991" lon="-0.54125">
        <ele>-14.2</ele>
        <time>2017-03-18T09:20:50Z</time>
      </trkpt>
      <trkpt lat="44.98011" lon="-0.54122">
        <ele>-15.05</ele>
        <time>2017-03-18T09:21:07Z</time>
      </trkpt>
      <trkpt lat="44.98024" lon="-0.54122">
        <ele>-14.3</ele>
        <time>2017-03-18T09:21:18Z</time>
      </trkpt>
      <trkpt lat="44.98032" lon="-0.54121">
        <ele>-13.89</ele>
        <time>2017-03-18T09:21:26Z</time>
      </trkpt>
      <trkpt lat="44.98036" lon="-0.5412">
        <ele>-13.97</ele>
        <time>2017-03-18T09:21:30Z</time>
      </trkpt>
      <trkpt lat="44.98038" lon="-0.54121">
        <ele>-13.98</ele>
        <time>2017-03-18T09:21:32Z</time>
      </trkpt>
      <trkpt lat="44.9804" lon="-0.54121">
        <ele>-14.12</ele>
        <time>2017-03-18T09:21:34Z</time>
      </trkpt>
      <trkpt lat="44.98044" lon="-0.54121">
        <ele>-14.57</ele>
        <time>2017-03-18T09:21:39Z</time>
      </trkpt>
      <trkpt lat="44.98053" lon="-0.54119">
        <ele>-15.2</ele>
        <time>2017-03-18T09:21:48Z</time>
      </trkpt>
      <trkpt lat="44.98056" lon="-0.54118">
        <ele>-14.86</ele>
        <time>2017-03-18T09:21:52Z</time>
      </trkpt>
      <trkpt lat="44.98064" lon="-0.54115">
        <ele>-14.16</ele>
        <time>2017-03-18T09:21:58Z</time>
      </trkpt>
      <trkpt lat="44.98072" lon="-0.54113">
        <ele>-14.29</ele>
        <time>2017-03-18T09:22:06Z</time>
      </trkpt>
      <trkpt lat="44.98083" lon="-0.5411">
        <ele>-15.23</ele>
        <time>2017-03-18T09:22:20Z</time>
      </trkpt>
      <trkpt lat="44.98085" lon="-0.54109">
        <ele>-15.15</ele>
        <time>2017-03-18T09:22:22Z</time>
      </trkpt>
      <trkpt lat="44.9809" lon="-0.54108">
        <ele>-14.75</ele>
        <time>2017-03-18T09:22:27Z</time>
      </trkpt>
      <trkpt lat="44.98098" lon="-0.54109">
        <ele>-14.29</ele>
        <time>2017-03-18T09:22:36Z</time>
      </trkpt>
      <trkpt lat="44.98103" lon="-0.54108">
        <ele>-14.47</ele>
        <time>2017-03-18T09:22:40Z</time>
      </trkpt>
      <trkpt lat="44.98119" lon="-0.54102">
        <ele>-15.25</ele>
        <time>2017-03-18T09:22:54Z</time>
      </trkpt>
      <trkpt lat="44.9812" lon="-0.54101">
        <ele>-15.25</ele>
        <time>2017-03-18T09:22:55Z</time>
      </trkpt>
      <trkpt lat="44.98129" lon="-0.54098">
        <ele>-15.18</ele>
        <time>2017-03-18T09:23:04Z</time>
      </trkpt>
      <trkpt lat="44.98137" lon="-0.54096">
        <ele>-15.41</ele>
        <time>2017-03-18T09:23:13Z</time>
      </trkpt>
      <trkpt lat="44.98145" lon="-0.54093">
        <ele>-14.58</ele>
        <time>2017-03-18T09:23:18Z</time>
      </trkpt>
      <trkpt lat="44.98158" lon="-0.5409">
        <ele>-16.01</ele>
        <time>2017-03-18T09:23:28Z</time>
      </trkpt>
      <trkpt lat="44.9817" lon="-0.54088">
        <ele>-13.5</ele>
        <time>2017-03-18T09:23:35Z</time>
      </trkpt>
      <trkpt lat="44.98191" lon="-0.54084">
        <ele>-14.49</ele>
        <time>2017-03-18T09:23:50Z</time>
      </trkpt>
      <trkpt lat="44.98193" lon="-0.54083">
        <ele>-14.49</ele>
        <time>2017-03-18T09:23:52Z</time>
      </trkpt>
      <trkpt lat="44.98211" lon="-0.54078">
        <ele>-13.87</ele>
        <time>2017-03-18T09:24:05Z</time>
      </trkpt>
      <trkpt lat="44.9822" lon="-0.54074">
        <ele>-13.54</ele>
        <time>2017-03-18T09:24:13Z</time>
      </trkpt>
      <trkpt lat="44.98239" lon="-0.5407">
        <ele>-13.44</ele>
        <time>2017-03-18T09:24:27Z</time>
      </trkpt>
      <trkpt lat="44.98241" lon="-0.5407">
        <ele>-13.17</ele>
        <time>2017-03-18T09:24:28Z</time>
      </trkpt>
      <trkpt lat="44.98255" lon="-0.54068">
        <ele>-13.59</ele>
        <time>2017-03-18T09:24:37Z</time>
      </trkpt>
      <trkpt lat="44.98258" lon="-0.54069">
        <ele>-13.09</ele>
        <time>2017-03-18T09:24:39Z</time>
      </trkpt>
      <trkpt lat="44.98279" lon="-0.54071">
        <ele>-15.73</ele>
        <time>2017-03-18T09:24:52Z</time>
      </trkpt>
      <trkpt lat="44.9828" lon="-0.5407">
        <ele>-16.02</ele>
        <time>2017-03-18T09:24:53Z</time>
      </trkpt>
      <trkpt lat="44.98282" lon="-0.5407">
        <ele>-15.92</ele>
        <time>2017-03-18T09:24:54Z</time>
      </trkpt>
      <trkpt lat="44.98294" lon="-0.54067">
        <ele>-15.98</ele>
        <time>2017-03-18T09:25:01Z</time>
      </trkpt>
      <trkpt lat="44.98298" lon="-0.54065">
        <ele>-15.78</ele>
        <time>2017-03-18T09:25:04Z</time>
      </trkpt>
      <trkpt lat="44.9831" lon="-0.54061">
        <ele>-16.37</ele>
        <time>2017-03-18T09:25:10Z</time>
      </trkpt>
      <trkpt lat="44.98315" lon="-0.54059">
        <ele>-16.57</ele>
        <time>2017-03-18T09:25:13Z</time>
      </trkpt>
      <trkpt lat="44.98318" lon="-0.54056">
        <ele>-16.01</ele>
        <time>2017-03-18T09:25:15Z</time>
      </trkpt>
      <trkpt lat="44.98323" lon="-0.54055">
        <ele>-15.27</ele>
        <time>2017-03-18T09:25:17Z</time>
      </trkpt>
      <trkpt lat="44.98331" lon="-0.54051">
        <ele>-15.06</ele>
        <time>2017-03-18T09:25:22Z</time>
      </trkpt>
      <trkpt lat="44.98339" lon="-0.54048">
        <ele>-15.81</ele>
        <time>2017-03-18T09:25:26Z</time>
      </trkpt>
      <trkpt lat="44.98348" lon="-0.54042">
        <ele>-15.56</ele>
        <time>2017-03-18T09:25:30Z</time>
      </trkpt>
      <trkpt lat="44.98353" lon="-0.54041">
        <ele>-15.17</ele>
        <time>2017-03-18T09:25:33Z</time>
      </trkpt>
      <trkpt lat="44.98371" lon="-0.54033">
        <ele>-15.69</ele>
        <time>2017-03-18T09:25:43Z</time>
      </trkpt>
      <trkpt lat="44.98392" lon="-0.54024">
        <ele>-16.14</ele>
        <time>2017-03-18T09:25:54Z</time>
      </trkpt>
      <trkpt lat="44.98394" lon="-0.54023">
        <ele>-16.25</ele>
        <time>2017-03-18T09:25:55Z</time>
      </trkpt>
      <trkpt lat="44.98418" lon="-0.54013">
        <ele>-16.13</ele>
        <time>2017-03-18T09:26:07Z</time>
      </trkpt>
      <trkpt lat="44.98423" lon="-0.54011">
        <ele>-16.27</ele>
        <time>2017-03-18T09:26:10Z</time>
      </trkpt>
      <trkpt lat="44.98454" lon="-0.53999">
        <ele>-17.02</ele>
        <time>2017-03-18T09:26:26Z</time>
      </trkpt>
      <trkpt lat="44.98471" lon="-0.5399">
        <ele>-16.07</ele>
        <time>2017-03-18T09:26:35Z</time>
      </trkpt>
      <trkpt lat="44.98472" lon="-0.53989">
        <ele>-16.01</ele>
        <time>2017-03-18T09:26:36Z</time>
      </trkpt>
      <trkpt lat="44.98491" lon="-0.53986">
        <ele>-15.6</ele>
        <time>2017-03-18T09:26:47Z</time>
      </trkpt>
      <trkpt lat="44.98497" lon="-0.53986">
        <ele>-15.83</ele>
        <time>2017-03-18T09:26:51Z</time>
      </trkpt>
      <trkpt lat="44.98506" lon="-0.53991">
        <ele>-15.64</ele>
        <time>2017-03-18T09:27:03Z</time>
      </trkpt>
      <trkpt lat="44.98497" lon="-0.53996">
        <ele>-16.29</ele>
        <time>2017-03-18T09:27:13Z</time>
      </trkpt>
      <trkpt lat="44.98489" lon="-0.54">
        <ele>-16.96</ele>
        <time>2017-03-18T09:27:19Z</time>
      </trkpt>
      <trkpt lat="44.98466" lon="-0.5401">
        <ele>-16.39</ele>
        <time>2017-03-18T09:27:34Z</time>
      </trkpt>
      <trkpt lat="44.98448" lon="-0.54019">
        <ele>-16.55</ele>
        <time>2017-03-18T09:27:46Z</time>
      </trkpt>
      <trkpt lat="44.98442" lon="-0.54022">
        <ele>-16.49</ele>
        <time>2017-03-18T09:27:50Z</time>
      </trkpt>
      <trkpt lat="44.98434" lon="-0.54028">
        <ele>-16.73</ele>
        <time>2017-03-18T09:27:56Z</time>
      </trkpt>
      <trkpt lat="44.98432" lon="-0.54032">
        <ele>-16.84</ele>
        <time>2017-03-18T09:27:59Z</time>
      </trkpt>
      <trkpt lat="44.9843" lon="-0.54034">
        <ele>-16.75</ele>
        <time>2017-03-18T09:28:01Z</time>
      </trkpt>
      <trkpt lat="44.98417" lon="-0.54047">
        <ele>-16.57</ele>
        <time>2017-03-18T09:28:11Z</time>
      </trkpt>
      <trkpt lat="44.98412" lon="-0.54056">
        <ele>-16.71</ele>
        <time>2017-03-18T09:28:16Z</time>
      </trkpt>
      <trkpt lat="44.98397" lon="-0.54082">
        <ele>-17.19</ele>
        <time>2017-03-18T09:28:30Z</time>
      </trkpt>
      <trkpt lat="44.98392" lon="-0.54091">
        <ele>-17.01</ele>
        <time>2017-03-18T09:28:35Z</time>
      </trkpt>
      <trkpt lat="44.98384" lon="-0.54108">
        <ele>-17.83</ele>
        <time>2017-03-18T09:28:43Z</time>
      </trkpt>
      <trkpt lat="44.98379" lon="-0.5412">
        <ele>-17.29</ele>
        <time>2017-03-18T09:28:48Z</time>
      </trkpt>
      <trkpt lat="44.98371" lon="-0.54136">
        <ele>-17.27</ele>
        <time>2017-03-18T09:28:55Z</time>
      </trkpt>
      <trkpt lat="44.98367" lon="-0.54143">
        <ele>-17.14</ele>
        <time>2017-03-18T09:28:59Z</time>
      </trkpt>
      <trkpt lat="44.98357" lon="-0.54163">
        <ele>-17.39</ele>
        <time>2017-03-18T09:29:09Z</time>
      </trkpt>
      <trkpt lat="44.98342" lon="-0.54195">
        <ele>-17.14</ele>
        <time>2017-03-18T09:29:25Z</time>
      </trkpt>
      <trkpt lat="44.98337" lon="-0.54207">
        <ele>-17.13</ele>
        <time>2017-03-18T09:29:30Z</time>
      </trkpt>
      <trkpt lat="44.98331" lon="-0.54216">
        <ele>-17</ele>
        <time>2017-03-18T09:29:34Z</time>
      </trkpt>
      <trkpt lat="44.98328" lon="-0.54225">
        <ele>-16.77</ele>
        <time>2017-03-18T09:29:38Z</time>
      </trkpt>
      <trkpt lat="44.98324" lon="-0.54238">
        <ele>-17.22</ele>
        <time>2017-03-18T09:29:44Z</time>
      </trkpt>
      <trkpt lat="44.98306" lon="-0.5428">
        <ele>-17.1</ele>
        <time>2017-03-18T09:30:05Z</time>
      </trkpt>
      <trkpt lat="44.98289" lon="-0.5431">
        <ele>-17.07</ele>
        <time>2017-03-18T09:30:23Z</time>
      </trkpt>
      <trkpt lat="44.98271" lon="-0.54345">
        <ele>-17.22</ele>
        <time>2017-03-18T09:30:42Z</time>
      </trkpt>
      <trkpt lat="44.98269" lon="-0.54354">
        <ele>-17.18</ele>
        <time>2017-03-18T09:30:46Z</time>
      </trkpt>
      <trkpt lat="44.98258" lon="-0.54376">
        <ele>-17.4</ele>
        <time>2017-03-18T09:31:00Z</time>
      </trkpt>
      <trkpt lat="44.98256" lon="-0.54382">
        <ele>-17.37</ele>
        <time>2017-03-18T09:31:05Z</time>
      </trkpt>
      <trkpt lat="44.98254" lon="-0.54385">
        <ele>-17.5</ele>
        <time>2017-03-18T09:31:07Z</time>
      </trkpt>
      <trkpt lat="44.98252" lon="-0.54387">
        <ele>-17.59</ele>
        <time>2017-03-18T09:31:09Z</time>
      </trkpt>
      <trkpt lat="44.98248" lon="-0.54391">
        <ele>-17.54</ele>
        <time>2017-03-18T09:31:13Z</time>
      </trkpt>
      <trkpt lat="44.98245" lon="-0.54394">
        <ele>-17.5</ele>
        <time>2017-03-18T09:31:16Z</time>
      </trkpt>
      <trkpt lat="44.98227" lon="-0.54413">
        <ele>-17.33</ele>
        <time>2017-03-18T09:31:30Z</time>
      </trkpt>
      <trkpt lat="44.98218" lon="-0.54423">
        <ele>-17.06</ele>
        <time>2017-03-18T09:31:36Z</time>
      </trkpt>
      <trkpt lat="44.98212" lon="-0.54431">
        <ele>-17.19</ele>
        <time>2017-03-18T09:31:41Z</time>
      </trkpt>
      <trkpt lat="44.98208" lon="-0.54446">
        <ele>-17.34</ele>
        <time>2017-03-18T09:31:54Z</time>
      </trkpt>
      <trkpt lat="44.98217" lon="-0.54446">
        <ele>-16.79</ele>
        <time>2017-03-18T09:32:05Z</time>
      </trkpt>
      <trkpt lat="44.9822" lon="-0.54446">
        <ele>-16.5</ele>
        <time>2017-03-18T09:32:09Z</time>
      </trkpt>
      <trkpt lat="44.98224" lon="-0.54444">
        <ele>-16.61</ele>
        <time>2017-03-18T09:32:12Z</time>
      </trkpt>
      <trkpt lat="44.98228" lon="-0.54442">
        <ele>-16.59</ele>
        <time>2017-03-18T09:32:16Z</time>
      </trkpt>
      <trkpt lat="44.98233" lon="-0.54441">
        <ele>-16.94</ele>
        <time>2017-03-18T09:32:20Z</time>
      </trkpt>
      <trkpt lat="44.98236" lon="-0.54439">
        <ele>-16.81</ele>
        <time>2017-03-18T09:32:24Z</time>
      </trkpt>
      <trkpt lat="44.98238" lon="-0.54439">
        <ele>-16.83</ele>
        <time>2017-03-18T09:32:26Z</time>
      </trkpt>
      <trkpt lat="44.9824" lon="-0.54439">
        <ele>-16.63</ele>
        <time>2017-03-18T09:32:28Z</time>
      </trkpt>
      <trkpt lat="44.98244" lon="-0.54436">
        <ele>-16.63</ele>
        <time>2017-03-18T09:32:32Z</time>
      </trkpt>
      <trkpt lat="44.98249" lon="-0.54434">
        <ele>-16.44</ele>
        <time>2017-03-18T09:32:38Z</time>
      </trkpt>
      <trkpt lat="44.98259" lon="-0.54428">
        <ele>-17.39</ele>
        <time>2017-03-18T09:32:51Z</time>
      </trkpt>
      <trkpt lat="44.98268" lon="-0.5441">
        <ele>-17.04</ele>
        <time>2017-03-18T09:33:17Z</time>
      </trkpt>
      <trkpt lat="44.98278" lon="-0.54394">
        <ele>-17.34</ele>
        <time>2017-03-18T09:33:39Z</time>
      </trkpt>
      <trkpt lat="44.98279" lon="-0.54392">
        <ele>-17.55</ele>
        <time>2017-03-18T09:33:41Z</time>
      </trkpt>
      <trkpt lat="44.98284" lon="-0.54375">
        <ele>-17.5</ele>
        <time>2017-03-18T09:33:56Z</time>
      </trkpt>
      <trkpt lat="44.98285" lon="-0.54372">
        <ele>-17.83</ele>
        <time>2017-03-18T09:33:58Z</time>
      </trkpt>
      <trkpt lat="44.98287" lon="-0.54366">
        <ele>-17.85</ele>
        <time>2017-03-18T09:34:02Z</time>
      </trkpt>
      <trkpt lat="44.98288" lon="-0.54363">
        <ele>-17.89</ele>
        <time>2017-03-18T09:34:04Z</time>
      </trkpt>
      <trkpt lat="44.9829" lon="-0.54358">
        <ele>-17.91</ele>
        <time>2017-03-18T09:34:08Z</time>
      </trkpt>
      <trkpt lat="44.98301" lon="-0.54342">
        <ele>-18.25</ele>
        <time>2017-03-18T09:34:20Z</time>
      </trkpt>
      <trkpt lat="44.98311" lon="-0.54326">
        <ele>-17.83</ele>
        <time>2017-03-18T09:34:34Z</time>
      </trkpt>
      <trkpt lat="44.98313" lon="-0.54324">
        <ele>-17.9</ele>
        <time>2017-03-18T09:34:36Z</time>
      </trkpt>
      <trkpt lat="44.98314" lon="-0.54322">
        <ele>-17.8</ele>
        <time>2017-03-18T09:34:38Z</time>
      </trkpt>
      <trkpt lat="44.98316" lon="-0.54319">
        <ele>-17.7</ele>
        <time>2017-03-18T09:34:41Z</time>
      </trkpt>
      <trkpt lat="44.98321" lon="-0.54313">
        <ele>-17.69</ele>
        <time>2017-03-18T09:34:47Z</time>
      </trkpt>
      <trkpt lat="44.98332" lon="-0.54297">
        <ele>-17.55</ele>
        <time>2017-03-18T09:35:01Z</time>
      </trkpt>
      <trkpt lat="44.98335" lon="-0.54293">
        <ele>-17.3</ele>
        <time>2017-03-18T09:35:05Z</time>
      </trkpt>
      <trkpt lat="44.98337" lon="-0.54289">
        <ele>-17.4</ele>
        <time>2017-03-18T09:35:08Z</time>
      </trkpt>
      <trkpt lat="44.98342" lon="-0.54283">
        <ele>-17.86</ele>
        <time>2017-03-18T09:35:15Z</time>
      </trkpt>
      <trkpt lat="44.9835" lon="-0.54273">
        <ele>-17.5</ele>
        <time>2017-03-18T09:35:26Z</time>
      </trkpt>
      <trkpt lat="44.98364" lon="-0.54263">
        <ele>-17.67</ele>
        <time>2017-03-18T09:35:36Z</time>
      </trkpt>
      <trkpt lat="44.98385" lon="-0.54249">
        <ele>-17.38</ele>
        <time>2017-03-18T09:35:50Z</time>
      </trkpt>
      <trkpt lat="44.98404" lon="-0.54243">
        <ele>-17.52</ele>
        <time>2017-03-18T09:36:04Z</time>
      </trkpt>
      <trkpt lat="44.98408" lon="-0.54244">
        <ele>-17.36</ele>
        <time>2017-03-18T09:36:07Z</time>
      </trkpt>
      <trkpt lat="44.9841" lon="-0.54243">
        <ele>-17.37</ele>
        <time>2017-03-18T09:36:09Z</time>
      </trkpt>
      <trkpt lat="44.98431" lon="-0.54238">
        <ele>-17.2</ele>
        <time>2017-03-18T09:36:26Z</time>
      </trkpt>
      <trkpt lat="44.98455" lon="-0.54239">
        <ele>-17.32</ele>
        <time>2017-03-18T09:36:43Z</time>
      </trkpt>
      <trkpt lat="44.98456" lon="-0.54238">
        <ele>-17.37</ele>
        <time>2017-03-18T09:36:44Z</time>
      </trkpt>
      <trkpt lat="44.98456" lon="-0.54237">
        <ele>-17.35</ele>
        <time>2017-03-18T09:36:46Z</time>
      </trkpt>
      <trkpt lat="44.9846" lon="-0.54237">
        <ele>-17.03</ele>
        <time>2017-03-18T09:36:49Z</time>
      </trkpt>
      <trkpt lat="44.98463" lon="-0.54237">
        <ele>-16.67</ele>
        <time>2017-03-18T09:36:51Z</time>
      </trkpt>
      <trkpt lat="44.98468" lon="-0.54237">
        <ele>-17.07</ele>
        <time>2017-03-18T09:36:55Z</time>
      </trkpt>
      <trkpt lat="44.98472" lon="-0.54237">
        <ele>-16.6</ele>
        <time>2017-03-18T09:37:00Z</time>
      </trkpt>
      <trkpt lat="44.98479" lon="-0.54237">
        <ele>-17.03</ele>
        <time>2017-03-18T09:37:07Z</time>
      </trkpt>
      <trkpt lat="44.98485" lon="-0.54236">
        <ele>-16.86</ele>
        <time>2017-03-18T09:37:12Z</time>
      </trkpt>
      <trkpt lat="44.98489" lon="-0.54236">
        <ele>-16.72</ele>
        <time>2017-03-18T09:37:14Z</time>
      </trkpt>
      <trkpt lat="44.98505" lon="-0.54239">
        <ele>-16.45</ele>
        <time>2017-03-18T09:37:21Z</time>
      </trkpt>
      <trkpt lat="44.98521" lon="-0.54243">
        <ele>-17.13</ele>
        <time>2017-03-18T09:37:28Z</time>
      </trkpt>
      <trkpt lat="44.98551" lon="-0.54253">
        <ele>-17.23</ele>
        <time>2017-03-18T09:37:43Z</time>
      </trkpt>
      <trkpt lat="44.98553" lon="-0.54253">
        <ele>-17.23</ele>
        <time>2017-03-18T09:37:44Z</time>
      </trkpt>
      <trkpt lat="44.98564" lon="-0.54256">
        <ele>-17.13</ele>
        <time>2017-03-18T09:37:51Z</time>
      </trkpt>
      <trkpt lat="44.98571" lon="-0.54257">
        <ele>-16.99</ele>
        <time>2017-03-18T09:37:56Z</time>
      </trkpt>
      <trkpt lat="44.98577" lon="-0.54257">
        <ele>-17.02</ele>
        <time>2017-03-18T09:38:01Z</time>
      </trkpt>
      <trkpt lat="44.98584" lon="-0.54257">
        <ele>-16.95</ele>
        <time>2017-03-18T09:38:06Z</time>
      </trkpt>
      <trkpt lat="44.9859" lon="-0.54256">
        <ele>-16.88</ele>
        <time>2017-03-18T09:38:10Z</time>
      </trkpt>
      <trkpt lat="44.98614" lon="-0.54253">
        <ele>-17.05</ele>
        <time>2017-03-18T09:38:23Z</time>
      </trkpt>
      <trkpt lat="44.98617" lon="-0.54252">
        <ele>-17.08</ele>
        <time>2017-03-18T09:38:25Z</time>
      </trkpt>
      <trkpt lat="44.98628" lon="-0.54252">
        <ele>-17.1</ele>
        <time>2017-03-18T09:38:31Z</time>
      </trkpt>
      <trkpt lat="44.98632" lon="-0.54252">
        <ele>-16.98</ele>
        <time>2017-03-18T09:38:33Z</time>
      </trkpt>
      <trkpt lat="44.98659" lon="-0.54249">
        <ele>-16.96</ele>
        <time>2017-03-18T09:38:50Z</time>
      </trkpt>
      <trkpt lat="44.98673" lon="-0.54249">
        <ele>-17.06</ele>
        <time>2017-03-18T09:38:59Z</time>
      </trkpt>
      <trkpt lat="44.98697" lon="-0.54251">
        <ele>-17.17</ele>
        <time>2017-03-18T09:39:15Z</time>
      </trkpt>
      <trkpt lat="44.98706" lon="-0.54252">
        <ele>-17.13</ele>
        <time>2017-03-18T09:39:21Z</time>
      </trkpt>
      <trkpt lat="44.98722" lon="-0.54256">
        <ele>-17.08</ele>
        <time>2017-03-18T09:39:31Z</time>
      </trkpt>
      <trkpt lat="44.98745" lon="-0.54268">
        <ele>-16.93</ele>
        <time>2017-03-18T09:39:44Z</time>
      </trkpt>
      <trkpt lat="44.98756" lon="-0.54274">
        <ele>-16.95</ele>
        <time>2017-03-18T09:39:50Z</time>
      </trkpt>
      <trkpt lat="44.98768" lon="-0.54281">
        <ele>-17.47</ele>
        <time>2017-03-18T09:39:57Z</time>
      </trkpt>
      <trkpt lat="44.98798" lon="-0.54296">
        <ele>-17.16</ele>
        <time>2017-03-18T09:40:15Z</time>
      </trkpt>
      <trkpt lat="44.98807" lon="-0.54301">
        <ele>-17.24</ele>
        <time>2017-03-18T09:40:20Z</time>
      </trkpt>
      <trkpt lat="44.9882" lon="-0.54305">
        <ele>-17.22</ele>
        <time>2017-03-18T09:40:27Z</time>
      </trkpt>
      <trkpt lat="44.98824" lon="-0.54307">
        <ele>-17.36</ele>
        <time>2017-03-18T09:40:29Z</time>
      </trkpt>
      <trkpt lat="44.98851" lon="-0.54318">
        <ele>-17.4</ele>
        <time>2017-03-18T09:40:44Z</time>
      </trkpt>
      <trkpt lat="44.98853" lon="-0.54318">
        <ele>-17.44</ele>
        <time>2017-03-18T09:40:45Z</time>
      </trkpt>
      <trkpt lat="44.9886" lon="-0.54321">
        <ele>-17.51</ele>
        <time>2017-03-18T09:40:49Z</time>
      </trkpt>
      <trkpt lat="44.98883" lon="-0.54331">
        <ele>-17.52</ele>
        <time>2017-03-18T09:41:03Z</time>
      </trkpt>
      <trkpt lat="44.98911" lon="-0.54345">
        <ele>-17.64</ele>
        <time>2017-03-18T09:41:19Z</time>
      </trkpt>
      <trkpt lat="44.98932" lon="-0.54355">
        <ele>-17.92</ele>
        <time>2017-03-18T09:41:30Z</time>
      </trkpt>
      <trkpt lat="44.98965" lon="-0.54373">
        <ele>-17.75</ele>
        <time>2017-03-18T09:41:48Z</time>
      </trkpt>
      <trkpt lat="44.98981" lon="-0.54379">
        <ele>-17.37</ele>
        <time>2017-03-18T09:41:57Z</time>
      </trkpt>
      <trkpt lat="44.9901" lon="-0.54389">
        <ele>-17.48</ele>
        <time>2017-03-18T09:42:15Z</time>
      </trkpt>
      <trkpt lat="44.99018" lon="-0.54392">
        <ele>-17.47</ele>
        <time>2017-03-18T09:42:19Z</time>
      </trkpt>
      <trkpt lat="44.99022" lon="-0.54394">
        <ele>-17.15</ele>
        <time>2017-03-18T09:42:21Z</time>
      </trkpt>
      <trkpt lat="44.99034" lon="-0.54399">
        <ele>-17.5</ele>
        <time>2017-03-18T09:42:26Z</time>
      </trkpt>
      <trkpt lat="44.99057" lon="-0.5441">
        <ele>-18.62</ele>
        <time>2017-03-18T09:42:36Z</time>
      </trkpt>
      <trkpt lat="44.99061" lon="-0.5442">
        <ele>-17.52</ele>
        <time>2017-03-18T09:42:40Z</time>
      </trkpt>
      <trkpt lat="44.99071" lon="-0.54427">
        <ele>-17.19</ele>
        <time>2017-03-18T09:42:44Z</time>
      </trkpt>
      <trkpt lat="44.991" lon="-0.54452">
        <ele>-17.42</ele>
        <time>2017-03-18T09:42:57Z</time>
      </trkpt>
      <trkpt lat="44.99102" lon="-0.54454">
        <ele>-17.65</ele>
        <time>2017-03-18T09:42:58Z</time>
      </trkpt>
      <trkpt lat="44.99135" lon="-0.54481">
        <ele>-17.85</ele>
        <time>2017-03-18T09:43:14Z</time>
      </trkpt>
      <trkpt lat="44.99163" lon="-0.54504">
        <ele>-17.82</ele>
        <time>2017-03-18T09:43:30Z</time>
      </trkpt>
      <trkpt lat="44.9918" lon="-0.54514">
        <ele>-17.81</ele>
        <time>2017-03-18T09:43:39Z</time>
      </trkpt>
      <trkpt lat="44.99187" lon="-0.54519">
        <ele>-17.85</ele>
        <time>2017-03-18T09:43:43Z</time>
      </trkpt>
      <trkpt lat="44.99214" lon="-0.54539">
        <ele>-17.66</ele>
        <time>2017-03-18T09:44:01Z</time>
      </trkpt>
      <trkpt lat="44.99239" lon="-0.54557">
        <ele>-17.51</ele>
        <time>2017-03-18T09:44:14Z</time>
      </trkpt>
      <trkpt lat="44.9926" lon="-0.54575">
        <ele>-17.5</ele>
        <time>2017-03-18T09:44:25Z</time>
      </trkpt>
      <trkpt lat="44.99268" lon="-0.54582">
        <ele>-19.04</ele>
        <time>2017-03-18T09:44:29Z</time>
      </trkpt>
      <trkpt lat="44.99278" lon="-0.5459">
        <ele>-19.61</ele>
        <time>2017-03-18T09:44:34Z</time>
      </trkpt>
      <trkpt lat="44.99284" lon="-0.54595">
        <ele>-18.57</ele>
        <time>2017-03-18T09:44:37Z</time>
      </trkpt>
      <trkpt lat="44.99294" lon="-0.54603">
        <ele>-17.28</ele>
        <time>2017-03-18T09:44:43Z</time>
      </trkpt>
      <trkpt lat="44.99312" lon="-0.54618">
        <ele>-17.53</ele>
        <time>2017-03-18T09:44:53Z</time>
      </trkpt>
      <trkpt lat="44.99326" lon="-0.54629">
        <ele>-17.55</ele>
        <time>2017-03-18T09:45:00Z</time>
      </trkpt>
      <trkpt lat="44.99348" lon="-0.54649">
        <ele>-17.52</ele>
        <time>2017-03-18T09:45:12Z</time>
      </trkpt>
      <trkpt lat="44.9935" lon="-0.54653">
        <ele>-17.72</ele>
        <time>2017-03-18T09:45:14Z</time>
      </trkpt>
      <trkpt lat="44.99343" lon="-0.54673">
        <ele>-17.52</ele>
        <time>2017-03-18T09:45:25Z</time>
      </trkpt>
      <trkpt lat="44.99342" lon="-0.54674">
        <ele>-17.45</ele>
        <time>2017-03-18T09:45:26Z</time>
      </trkpt>
      <trkpt lat="44.99334" lon="-0.54683">
        <ele>-17.44</ele>
        <time>2017-03-18T09:45:32Z</time>
      </trkpt>
      <trkpt lat="44.99329" lon="-0.54687">
        <ele>-17.52</ele>
        <time>2017-03-18T09:45:36Z</time>
      </trkpt>
      <trkpt lat="44.99322" lon="-0.54694">
        <ele>-17.58</ele>
        <time>2017-03-18T09:45:41Z</time>
      </trkpt>
      <trkpt lat="44.99309" lon="-0.54709">
        <ele>-17.85</ele>
        <time>2017-03-18T09:45:50Z</time>
      </trkpt>
      <trkpt lat="44.99287" lon="-0.5475">
        <ele>-17.33</ele>
        <time>2017-03-18T09:46:09Z</time>
      </trkpt>
      <trkpt lat="44.99279" lon="-0.54773">
        <ele>-16.6</ele>
        <time>2017-03-18T09:46:21Z</time>
      </trkpt>
      <trkpt lat="44.99278" lon="-0.54775">
        <ele>-16.6</ele>
        <time>2017-03-18T09:46:22Z</time>
      </trkpt>
      <trkpt lat="44.99274" lon="-0.54784">
        <ele>-17.46</ele>
        <time>2017-03-18T09:46:27Z</time>
      </trkpt>
      <trkpt lat="44.99266" lon="-0.54808">
        <ele>-17.37</ele>
        <time>2017-03-18T09:46:38Z</time>
      </trkpt>
      <trkpt lat="44.9926" lon="-0.54828">
        <ele>-16.48</ele>
        <time>2017-03-18T09:46:46Z</time>
      </trkpt>
      <trkpt lat="44.99255" lon="-0.54849">
        <ele>-16.42</ele>
        <time>2017-03-18T09:46:54Z</time>
      </trkpt>
      <trkpt lat="44.99252" lon="-0.54869">
        <ele>-16.47</ele>
        <time>2017-03-18T09:47:01Z</time>
      </trkpt>
      <trkpt lat="44.99251" lon="-0.54882">
        <ele>-16.53</ele>
        <time>2017-03-18T09:47:05Z</time>
      </trkpt>
      <trkpt lat="44.9925" lon="-0.54906">
        <ele>-16.24</ele>
        <time>2017-03-18T09:47:12Z</time>
      </trkpt>
      <trkpt lat="44.99249" lon="-0.54928">
        <ele>-16.36</ele>
        <time>2017-03-18T09:47:19Z</time>
      </trkpt>
      <trkpt lat="44.99248" lon="-0.54955">
        <ele>-16.31</ele>
        <time>2017-03-18T09:47:28Z</time>
      </trkpt>
      <trkpt lat="44.99247" lon="-0.54967">
        <ele>-16.23</ele>
        <time>2017-03-18T09:47:32Z</time>
      </trkpt>
      <trkpt lat="44.99247" lon="-0.54976">
        <ele>-16.22</ele>
        <time>2017-03-18T09:47:35Z</time>
      </trkpt>
      <trkpt lat="44.9924" lon="-0.55028">
        <ele>-16.15</ele>
        <time>2017-03-18T09:47:56Z</time>
      </trkpt>
      <trkpt lat="44.99239" lon="-0.55035">
        <ele>-16.28</ele>
        <time>2017-03-18T09:47:59Z</time>
      </trkpt>
      <trkpt lat="44.99236" lon="-0.55051">
        <ele>-16.47</ele>
        <time>2017-03-18T09:48:06Z</time>
      </trkpt>
      <trkpt lat="44.99234" lon="-0.55063">
        <ele>-16.39</ele>
        <time>2017-03-18T09:48:11Z</time>
      </trkpt>
      <trkpt lat="44.99232" lon="-0.55072">
        <ele>-16.33</ele>
        <time>2017-03-18T09:48:15Z</time>
      </trkpt>
      <trkpt lat="44.99227" lon="-0.55094">
        <ele>-16.32</ele>
        <time>2017-03-18T09:48:26Z</time>
      </trkpt>
      <trkpt lat="44.99217" lon="-0.55138">
        <ele>-16.32</ele>
        <time>2017-03-18T09:48:45Z</time>
      </trkpt>
      <trkpt lat="44.99215" lon="-0.55148">
        <ele>-16.48</ele>
        <time>2017-03-18T09:48:50Z</time>
      </trkpt>
      <trkpt lat="44.9921" lon="-0.55159">
        <ele>-16.42</ele>
        <time>2017-03-18T09:48:56Z</time>
      </trkpt>
      <trkpt lat="44.99204" lon="-0.55171">
        <ele>-16.35</ele>
        <time>2017-03-18T09:49:02Z</time>
      </trkpt>
      <trkpt lat="44.99192" lon="-0.55209">
        <ele>-16.45</ele>
        <time>2017-03-18T09:49:19Z</time>
      </trkpt>
      <trkpt lat="44.99189" lon="-0.55218">
        <ele>-16.35</ele>
        <time>2017-03-18T09:49:23Z</time>
      </trkpt>
      <trkpt lat="44.99186" lon="-0.55226">
        <ele>-16.52</ele>
        <time>2017-03-18T09:49:27Z</time>
      </trkpt>
      <trkpt lat="44.9917" lon="-0.55264">
        <ele>-16.42</ele>
        <time>2017-03-18T09:49:46Z</time>
      </trkpt>
      <trkpt lat="44.99163" lon="-0.55282">
        <ele>-16.34</ele>
        <time>2017-03-18T09:49:54Z</time>
      </trkpt>
      <trkpt lat="44.99154" lon="-0.55303">
        <ele>-16.79</ele>
        <time>2017-03-18T09:50:03Z</time>
      </trkpt>
      <trkpt lat="44.99146" lon="-0.55323">
        <ele>-17.33</ele>
        <time>2017-03-18T09:50:11Z</time>
      </trkpt>
      <trkpt lat="44.99138" lon="-0.55345">
        <ele>-16.65</ele>
        <time>2017-03-18T09:50:20Z</time>
      </trkpt>
      <trkpt lat="44.99127" lon="-0.55375">
        <ele>-16.34</ele>
        <time>2017-03-18T09:50:31Z</time>
      </trkpt>
      <trkpt lat="44.99122" lon="-0.5539">
        <ele>-16.54</ele>
        <time>2017-03-18T09:50:37Z</time>
      </trkpt>
      <trkpt lat="44.9912" lon="-0.55397">
        <ele>-16.55</ele>
        <time>2017-03-18T09:50:40Z</time>
      </trkpt>
      <trkpt lat="44.99117" lon="-0.55412">
        <ele>-16.82</ele>
        <time>2017-03-18T09:50:46Z</time>
      </trkpt>
      <trkpt lat="44.99115" lon="-0.55417">
        <ele>-16.98</ele>
        <time>2017-03-18T09:50:48Z</time>
      </trkpt>
      <trkpt lat="44.99105" lon="-0.55449">
        <ele>-17.19</ele>
        <time>2017-03-18T09:50:59Z</time>
      </trkpt>
      <trkpt lat="44.99103" lon="-0.55475">
        <ele>-17.37</ele>
        <time>2017-03-18T09:51:10Z</time>
      </trkpt>
      <trkpt lat="44.99107" lon="-0.55486">
        <ele>-17.66</ele>
        <time>2017-03-18T09:51:18Z</time>
      </trkpt>
      <trkpt lat="44.99132" lon="-0.55484">
        <ele>-18.66</ele>
        <time>2017-03-18T09:51:32Z</time>
      </trkpt>
      <trkpt lat="44.99151" lon="-0.55484">
        <ele>-18.33</ele>
        <time>2017-03-18T09:51:41Z</time>
      </trkpt>
      <trkpt lat="44.99176" lon="-0.55484">
        <ele>-17.21</ele>
        <time>2017-03-18T09:51:55Z</time>
      </trkpt>
      <trkpt lat="44.99185" lon="-0.55486">
        <ele>-17.12</ele>
        <time>2017-03-18T09:52:00Z</time>
      </trkpt>
      <trkpt lat="44.99189" lon="-0.55487">
        <ele>-17.14</ele>
        <time>2017-03-18T09:52:02Z</time>
      </trkpt>
      <trkpt lat="44.99196" lon="-0.55489">
        <ele>-17.57</ele>
        <time>2017-03-18T09:52:06Z</time>
      </trkpt>
      <trkpt lat="44.99222" lon="-0.55501">
        <ele>-17.77</ele>
        <time>2017-03-18T09:52:19Z</time>
      </trkpt>
      <trkpt lat="44.99258" lon="-0.55526">
        <ele>-18.64</ele>
        <time>2017-03-18T09:52:34Z</time>
      </trkpt>
      <trkpt lat="44.99282" lon="-0.55546">
        <ele>-18.73</ele>
        <time>2017-03-18T09:52:45Z</time>
      </trkpt>
      <trkpt lat="44.99305" lon="-0.55561">
        <ele>-18.13</ele>
        <time>2017-03-18T09:52:56Z</time>
      </trkpt>
      <trkpt lat="44.99343" lon="-0.55587">
        <ele>-17.53</ele>
        <time>2017-03-18T09:53:17Z</time>
      </trkpt>
      <trkpt lat="44.99366" lon="-0.55602">
        <ele>-17.75</ele>
        <time>2017-03-18T09:53:28Z</time>
      </trkpt>
      <trkpt lat="44.9939" lon="-0.5562">
        <ele>-17.97</ele>
        <time>2017-03-18T09:53:40Z</time>
      </trkpt>
      <trkpt lat="44.99402" lon="-0.55628">
        <ele>-17.97</ele>
        <time>2017-03-18T09:53:46Z</time>
      </trkpt>
      <trkpt lat="44.99405" lon="-0.5563">
        <ele>-18.13</ele>
        <time>2017-03-18T09:53:48Z</time>
      </trkpt>
      <trkpt lat="44.99439" lon="-0.55652">
        <ele>-18.03</ele>
        <time>2017-03-18T09:54:05Z</time>
      </trkpt>
      <trkpt lat="44.99466" lon="-0.5567">
        <ele>-17.61</ele>
        <time>2017-03-18T09:54:18Z</time>
      </trkpt>
      <trkpt lat="44.99468" lon="-0.55672">
        <ele>-17.6</ele>
        <time>2017-03-18T09:54:19Z</time>
      </trkpt>
      <trkpt lat="44.99481" lon="-0.55681">
        <ele>-17.45</ele>
        <time>2017-03-18T09:54:25Z</time>
      </trkpt>
      <trkpt lat="44.99494" lon="-0.55689">
        <ele>-17.77</ele>
        <time>2017-03-18T09:54:31Z</time>
      </trkpt>
      <trkpt lat="44.99514" lon="-0.55704">
        <ele>-17.25</ele>
        <time>2017-03-18T09:54:41Z</time>
      </trkpt>
      <trkpt lat="44.99525" lon="-0.55712">
        <ele>-17.22</ele>
        <time>2017-03-18T09:54:47Z</time>
      </trkpt>
      <trkpt lat="44.99551" lon="-0.55726">
        <ele>-17.23</ele>
        <time>2017-03-18T09:55:00Z</time>
      </trkpt>
      <trkpt lat="44.99561" lon="-0.55732">
        <ele>-17.39</ele>
        <time>2017-03-18T09:55:05Z</time>
      </trkpt>
      <trkpt lat="44.99579" lon="-0.55743">
        <ele>-17.29</ele>
        <time>2017-03-18T09:55:14Z</time>
      </trkpt>
      <trkpt lat="44.99604" lon="-0.55755">
        <ele>-17.28</ele>
        <time>2017-03-18T09:55:24Z</time>
      </trkpt>
      <trkpt lat="44.99606" lon="-0.55756">
        <ele>-17.22</ele>
        <time>2017-03-18T09:55:25Z</time>
      </trkpt>
      <trkpt lat="44.99645" lon="-0.55782">
        <ele>-17.15</ele>
        <time>2017-03-18T09:55:42Z</time>
      </trkpt>
      <trkpt lat="44.99665" lon="-0.55795">
        <ele>-17.2</ele>
        <time>2017-03-18T09:55:52Z</time>
      </trkpt>
      <trkpt lat="44.99702" lon="-0.5582">
        <ele>-17.21</ele>
        <time>2017-03-18T09:56:11Z</time>
      </trkpt>
      <trkpt lat="44.9973" lon="-0.55834">
        <ele>-17.18</ele>
        <time>2017-03-18T09:56:24Z</time>
      </trkpt>
      <trkpt lat="44.99737" lon="-0.55838">
        <ele>-17.2</ele>
        <time>2017-03-18T09:56:28Z</time>
      </trkpt>
      <trkpt lat="44.99743" lon="-0.55842">
        <ele>-17.14</ele>
        <time>2017-03-18T09:56:31Z</time>
      </trkpt>
      <trkpt lat="44.99751" lon="-0.55847">
        <ele>-17.3</ele>
        <time>2017-03-18T09:56:35Z</time>
      </trkpt>
      <trkpt lat="44.99791" lon="-0.55874">
        <ele>-17.54</ele>
        <time>2017-03-18T09:56:53Z</time>
      </trkpt>
      <trkpt lat="44.99803" lon="-0.55883">
        <ele>-17.5</ele>
        <time>2017-03-18T09:56:59Z</time>
      </trkpt>
      <trkpt lat="44.99838" lon="-0.55911">
        <ele>-17.81</ele>
        <time>2017-03-18T09:57:17Z</time>
      </trkpt>
      <trkpt lat="44.99873" lon="-0.5594">
        <ele>-17.86</ele>
        <time>2017-03-18T09:57:37Z</time>
      </trkpt>
      <trkpt lat="44.99884" lon="-0.5595">
        <ele>-17.7</ele>
        <time>2017-03-18T09:57:44Z</time>
      </trkpt>
      <trkpt lat="44.99887" lon="-0.55953">
        <ele>-17.74</ele>
        <time>2017-03-18T09:57:46Z</time>
      </trkpt>
      <trkpt lat="44.99894" lon="-0.55959">
        <ele>-18.09</ele>
        <time>2017-03-18T09:57:50Z</time>
      </trkpt>
      <trkpt lat="44.9992" lon="-0.55979">
        <ele>-18.51</ele>
        <time>2017-03-18T09:58:04Z</time>
      </trkpt>
      <trkpt lat="44.99935" lon="-0.55992">
        <ele>-18.33</ele>
        <time>2017-03-18T09:58:13Z</time>
      </trkpt>
      <trkpt lat="44.99938" lon="-0.55994">
        <ele>-18.13</ele>
        <time>2017-03-18T09:58:15Z</time>
      </trkpt>
      <trkpt lat="44.99945" lon="-0.55999">
        <ele>-18.14</ele>
        <time>2017-03-18T09:58:19Z</time>
      </trkpt>
      <trkpt lat="44.99953" lon="-0.56005">
        <ele>-18.05</ele>
        <time>2017-03-18T09:58:24Z</time>
      </trkpt>
      <trkpt lat="44.99983" lon="-0.56028">
        <ele>-19.06</ele>
        <time>2017-03-18T09:58:44Z</time>
      </trkpt>
      <trkpt lat="45.00019" lon="-0.56045">
        <ele>-19.13</ele>
        <time>2017-03-18T09:59:02Z</time>
      </trkpt>
      <trkpt lat="45.00056" lon="-0.56067">
        <ele>-19.17</ele>
        <time>2017-03-18T09:59:20Z</time>
      </trkpt>
      <trkpt lat="45.00088" lon="-0.56088">
        <ele>-18.99</ele>
        <time>2017-03-18T09:59:37Z</time>
      </trkpt>
      <trkpt lat="45.00113" lon="-0.56099">
        <ele>-19.29</ele>
        <time>2017-03-18T09:59:50Z</time>
      </trkpt>
      <trkpt lat="45.00145" lon="-0.56122">
        <ele>-19.09</ele>
        <time>2017-03-18T10:00:07Z</time>
      </trkpt>
      <trkpt lat="45.00172" lon="-0.56146">
        <ele>-19.07</ele>
        <time>2017-03-18T10:00:23Z</time>
      </trkpt>
      <trkpt lat="45.002" lon="-0.56168">
        <ele>-18.94</ele>
        <time>2017-03-18T10:00:40Z</time>
      </trkpt>
      <trkpt lat="45.00227" lon="-0.56185">
        <ele>-19.08</ele>
        <time>2017-03-18T10:00:54Z</time>
      </trkpt>
      <trkpt lat="45.00241" lon="-0.56196">
        <ele>-19.26</ele>
        <time>2017-03-18T10:01:01Z</time>
      </trkpt>
      <trkpt lat="45.00271" lon="-0.56221">
        <ele>-19.59</ele>
        <time>2017-03-18T10:01:17Z</time>
      </trkpt>
      <trkpt lat="45.00274" lon="-0.56223">
        <ele>-19.67</ele>
        <time>2017-03-18T10:01:18Z</time>
      </trkpt>
      <trkpt lat="45.00312" lon="-0.56255">
        <ele>-19.23</ele>
        <time>2017-03-18T10:01:36Z</time>
      </trkpt>
      <trkpt lat="45.00322" lon="-0.56266">
        <ele>-19.21</ele>
        <time>2017-03-18T10:01:41Z</time>
      </trkpt>
      <trkpt lat="45.00334" lon="-0.56281">
        <ele>-18.56</ele>
        <time>2017-03-18T10:01:48Z</time>
      </trkpt>
      <trkpt lat="45.00349" lon="-0.56295">
        <ele>-18.93</ele>
        <time>2017-03-18T10:01:56Z</time>
      </trkpt>
      <trkpt lat="45.00386" lon="-0.56332">
        <ele>-18.98</ele>
        <time>2017-03-18T10:02:20Z</time>
      </trkpt>
      <trkpt lat="45.00422" lon="-0.56359">
        <ele>-19.21</ele>
        <time>2017-03-18T10:02:41Z</time>
      </trkpt>
      <trkpt lat="45.00468" lon="-0.56397">
        <ele>-18.87</ele>
        <time>2017-03-18T10:03:02Z</time>
      </trkpt>
      <trkpt lat="45.00474" lon="-0.56405">
        <ele>-18.89</ele>
        <time>2017-03-18T10:03:06Z</time>
      </trkpt>
      <trkpt lat="45.00499" lon="-0.56428">
        <ele>-18.79</ele>
        <time>2017-03-18T10:03:20Z</time>
      </trkpt>
      <trkpt lat="45.00508" lon="-0.56438">
        <ele>-18.45</ele>
        <time>2017-03-18T10:03:25Z</time>
      </trkpt>
      <trkpt lat="45.0052" lon="-0.56451">
        <ele>-18.42</ele>
        <time>2017-03-18T10:03:32Z</time>
      </trkpt>
      <trkpt lat="45.00524" lon="-0.56458">
        <ele>-18.5</ele>
        <time>2017-03-18T10:03:35Z</time>
      </trkpt>
      <trkpt lat="45.00524" lon="-0.56482">
        <ele>-18.47</ele>
        <time>2017-03-18T10:03:49Z</time>
      </trkpt>
      <trkpt lat="45.00503" lon="-0.56513">
        <ele>-18.26</ele>
        <time>2017-03-18T10:04:05Z</time>
      </trkpt>
      <trkpt lat="45.00497" lon="-0.56526">
        <ele>-18.29</ele>
        <time>2017-03-18T10:04:10Z</time>
      </trkpt>
      <trkpt lat="45.00493" lon="-0.56536">
        <ele>-18.26</ele>
        <time>2017-03-18T10:04:14Z</time>
      </trkpt>
      <trkpt lat="45.00465" lon="-0.56596">
        <ele>-18.18</ele>
        <time>2017-03-18T10:04:38Z</time>
      </trkpt>
      <trkpt lat="45.00442" lon="-0.56625">
        <ele>-18.24</ele>
        <time>2017-03-18T10:04:59Z</time>
      </trkpt>
      <trkpt lat="45.00442" lon="-0.56637">
        <ele>-18.21</ele>
        <time>2017-03-18T10:05:05Z</time>
      </trkpt>
      <trkpt lat="45.00431" lon="-0.56665">
        <ele>-18.19</ele>
        <time>2017-03-18T10:05:17Z</time>
      </trkpt>
      <trkpt lat="45.00427" lon="-0.56691">
        <ele>-18.28</ele>
        <time>2017-03-18T10:05:29Z</time>
      </trkpt>
      <trkpt lat="45.00412" lon="-0.56731">
        <ele>-18.25</ele>
        <time>2017-03-18T10:05:49Z</time>
      </trkpt>
      <trkpt lat="45.00391" lon="-0.56768">
        <ele>-18.15</ele>
        <time>2017-03-18T10:06:06Z</time>
      </trkpt>
      <trkpt lat="45.00374" lon="-0.56786">
        <ele>-18.19</ele>
        <time>2017-03-18T10:06:17Z</time>
      </trkpt>
      <trkpt lat="45.00376" lon="-0.56813">
        <ele>-18.12</ele>
        <time>2017-03-18T10:06:34Z</time>
      </trkpt>
      <trkpt lat="45.00367" lon="-0.56831">
        <ele>-18.25</ele>
        <time>2017-03-18T10:06:38Z</time>
      </trkpt>
      <trkpt lat="45.00345" lon="-0.56864">
        <ele>-17.9</ele>
        <time>2017-03-18T10:06:53Z</time>
      </trkpt>
      <trkpt lat="45.00328" lon="-0.56907">
        <ele>-18.07</ele>
        <time>2017-03-18T10:07:14Z</time>
      </trkpt>
      <trkpt lat="45.00314" lon="-0.56925">
        <ele>-18.31</ele>
        <time>2017-03-18T10:07:22Z</time>
      </trkpt>
      <trkpt lat="45.00295" lon="-0.56953">
        <ele>-18.87</ele>
        <time>2017-03-18T10:07:34Z</time>
      </trkpt>
      <trkpt lat="45.00289" lon="-0.56977">
        <ele>-18.61</ele>
        <time>2017-03-18T10:07:46Z</time>
      </trkpt>
      <trkpt lat="45.00296" lon="-0.56983">
        <ele>-18.5</ele>
        <time>2017-03-18T10:07:51Z</time>
      </trkpt>
      <trkpt lat="45.0032" lon="-0.57001">
        <ele>-18.03</ele>
        <time>2017-03-18T10:08:02Z</time>
      </trkpt>
      <trkpt lat="45.00343" lon="-0.57017">
        <ele>-18.31</ele>
        <time>2017-03-18T10:08:13Z</time>
      </trkpt>
      <trkpt lat="45.00347" lon="-0.57021">
        <ele>-18.73</ele>
        <time>2017-03-18T10:08:16Z</time>
      </trkpt>
      <trkpt lat="45.00399" lon="-0.57064">
        <ele>-18.89</ele>
        <time>2017-03-18T10:08:40Z</time>
      </trkpt>
      <trkpt lat="45.00425" lon="-0.57109">
        <ele>-18.46</ele>
        <time>2017-03-18T10:08:58Z</time>
      </trkpt>
      <trkpt lat="45.00428" lon="-0.57112">
        <ele>-18.44</ele>
        <time>2017-03-18T10:08:59Z</time>
      </trkpt>
      <trkpt lat="45.00447" lon="-0.57124">
        <ele>-18.19</ele>
        <time>2017-03-18T10:09:07Z</time>
      </trkpt>
      <trkpt lat="45.00457" lon="-0.57135">
        <ele>-18.16</ele>
        <time>2017-03-18T10:09:12Z</time>
      </trkpt>
      <trkpt lat="45.00485" lon="-0.57168">
        <ele>-18.08</ele>
        <time>2017-03-18T10:09:27Z</time>
      </trkpt>
      <trkpt lat="45.00487" lon="-0.57171">
        <ele>-18.09</ele>
        <time>2017-03-18T10:09:28Z</time>
      </trkpt>
      <trkpt lat="45.00498" lon="-0.57182">
        <ele>-18.16</ele>
        <time>2017-03-18T10:09:33Z</time>
      </trkpt>
      <trkpt lat="45.0051" lon="-0.57197">
        <ele>-18.08</ele>
        <time>2017-03-18T10:09:39Z</time>
      </trkpt>
      <trkpt lat="45.00517" lon="-0.57205">
        <ele>-18.14</ele>
        <time>2017-03-18T10:09:43Z</time>
      </trkpt>
      <trkpt lat="45.00526" lon="-0.57216">
        <ele>-18.04</ele>
        <time>2017-03-18T10:09:48Z</time>
      </trkpt>
      <trkpt lat="45.00529" lon="-0.5722">
        <ele>-18.1</ele>
        <time>2017-03-18T10:09:50Z</time>
      </trkpt>
      <trkpt lat="45.00536" lon="-0.5723">
        <ele>-18.05</ele>
        <time>2017-03-18T10:09:54Z</time>
      </trkpt>
      <trkpt lat="45.00548" lon="-0.57245">
        <ele>-18.33</ele>
        <time>2017-03-18T10:10:01Z</time>
      </trkpt>
      <trkpt lat="45.00564" lon="-0.57261">
        <ele>-18.69</ele>
        <time>2017-03-18T10:10:09Z</time>
      </trkpt>
      <trkpt lat="45.00576" lon="-0.57278">
        <ele>-18.49</ele>
        <time>2017-03-18T10:10:16Z</time>
      </trkpt>
      <trkpt lat="45.00588" lon="-0.57291">
        <ele>-18.75</ele>
        <time>2017-03-18T10:10:23Z</time>
      </trkpt>
      <trkpt lat="45.00599" lon="-0.57301">
        <ele>-18.38</ele>
        <time>2017-03-18T10:10:29Z</time>
      </trkpt>
      <trkpt lat="45.00606" lon="-0.57308">
        <ele>-18.7</ele>
        <time>2017-03-18T10:10:33Z</time>
      </trkpt>
      <trkpt lat="45.00619" lon="-0.57318">
        <ele>-18.48</ele>
        <time>2017-03-18T10:10:40Z</time>
      </trkpt>
      <trkpt lat="45.00644" lon="-0.57339">
        <ele>-18.54</ele>
        <time>2017-03-18T10:10:55Z</time>
      </trkpt>
      <trkpt lat="45.00682" lon="-0.57364">
        <ele>-18.48</ele>
        <time>2017-03-18T10:11:15Z</time>
      </trkpt>
      <trkpt lat="45.0072" lon="-0.57385">
        <ele>-18.46</ele>
        <time>2017-03-18T10:11:32Z</time>
      </trkpt>
      <trkpt lat="45.0076" lon="-0.5741">
        <ele>-18.47</ele>
        <time>2017-03-18T10:11:49Z</time>
      </trkpt>
      <trkpt lat="45.00774" lon="-0.5742">
        <ele>-19</ele>
        <time>2017-03-18T10:11:55Z</time>
      </trkpt>
      <trkpt lat="45.00795" lon="-0.57436">
        <ele>-18.34</ele>
        <time>2017-03-18T10:12:04Z</time>
      </trkpt>
      <trkpt lat="45.00805" lon="-0.57445">
        <ele>-19.58</ele>
        <time>2017-03-18T10:12:09Z</time>
      </trkpt>
      <trkpt lat="45.00809" lon="-0.57449">
        <ele>-19.43</ele>
        <time>2017-03-18T10:12:11Z</time>
      </trkpt>
      <trkpt lat="45.00823" lon="-0.57462">
        <ele>-20.1</ele>
        <time>2017-03-18T10:12:18Z</time>
      </trkpt>
      <trkpt lat="45.00837" lon="-0.57479">
        <ele>-18.84</ele>
        <time>2017-03-18T10:12:25Z</time>
      </trkpt>
      <trkpt lat="45.00842" lon="-0.57483">
        <ele>-18.89</ele>
        <time>2017-03-18T10:12:27Z</time>
      </trkpt>
      <trkpt lat="45.00858" lon="-0.575">
        <ele>-18.7</ele>
        <time>2017-03-18T10:12:34Z</time>
      </trkpt>
      <trkpt lat="45.00866" lon="-0.57511">
        <ele>-18.59</ele>
        <time>2017-03-18T10:12:38Z</time>
      </trkpt>
      <trkpt lat="45.00872" lon="-0.57518">
        <ele>-18.74</ele>
        <time>2017-03-18T10:12:41Z</time>
      </trkpt>
      <trkpt lat="45.00879" lon="-0.57527">
        <ele>-19.28</ele>
        <time>2017-03-18T10:12:45Z</time>
      </trkpt>
      <trkpt lat="45.00913" lon="-0.57572">
        <ele>-18.2</ele>
        <time>2017-03-18T10:13:07Z</time>
      </trkpt>
      <trkpt lat="45.00921" lon="-0.57583">
        <ele>-17.91</ele>
        <time>2017-03-18T10:13:12Z</time>
      </trkpt>
      <trkpt lat="45.00966" lon="-0.57644">
        <ele>-18.2</ele>
        <time>2017-03-18T10:13:37Z</time>
      </trkpt>
      <trkpt lat="45.00972" lon="-0.57653">
        <ele>-18.09</ele>
        <time>2017-03-18T10:13:42Z</time>
      </trkpt>
      <trkpt lat="45.00986" lon="-0.57668">
        <ele>-17.96</ele>
        <time>2017-03-18T10:13:44Z</time>
      </trkpt>
      <trkpt lat="45.00998" lon="-0.57681">
        <ele>-17.55</ele>
        <time>2017-03-18T10:13:48Z</time>
      </trkpt>
      <trkpt lat="45.01007" lon="-0.57693">
        <ele>-17.28</ele>
        <time>2017-03-18T10:13:52Z</time>
      </trkpt>
      <trkpt lat="45.01026" lon="-0.57728">
        <ele>-17.14</ele>
        <time>2017-03-18T10:14:02Z</time>
      </trkpt>
      <trkpt lat="45.01042" lon="-0.57752">
        <ele>-17.33</ele>
        <time>2017-03-18T10:14:10Z</time>
      </trkpt>
      <trkpt lat="45.01088" lon="-0.57836">
        <ele>-17.08</ele>
        <time>2017-03-18T10:14:35Z</time>
      </trkpt>
      <trkpt lat="45.01142" lon="-0.57908">
        <ele>-16.83</ele>
        <time>2017-03-18T10:14:54Z</time>
      </trkpt>
      <trkpt lat="45.01172" lon="-0.57972">
        <ele>-16.48</ele>
        <time>2017-03-18T10:15:12Z</time>
      </trkpt>
      <trkpt lat="45.01208" lon="-0.58021">
        <ele>-17.43</ele>
        <time>2017-03-18T10:15:28Z</time>
      </trkpt>
      <trkpt lat="45.01223" lon="-0.58038">
        <ele>-17.4</ele>
        <time>2017-03-18T10:15:35Z</time>
      </trkpt>
      <trkpt lat="45.01258" lon="-0.58084">
        <ele>-17.77</ele>
        <time>2017-03-18T10:15:51Z</time>
      </trkpt>
      <trkpt lat="45.01268" lon="-0.58094">
        <ele>-17.85</ele>
        <time>2017-03-18T10:15:56Z</time>
      </trkpt>
      <trkpt lat="45.01279" lon="-0.58099">
        <ele>-17.96</ele>
        <time>2017-03-18T10:16:00Z</time>
      </trkpt>
      <trkpt lat="45.0131" lon="-0.5813">
        <ele>-17.57</ele>
        <time>2017-03-18T10:16:18Z</time>
      </trkpt>
      <trkpt lat="45.01352" lon="-0.58165">
        <ele>-17.62</ele>
        <time>2017-03-18T10:16:36Z</time>
      </trkpt>
      <trkpt lat="45.01393" lon="-0.582">
        <ele>-17.91</ele>
        <time>2017-03-18T10:16:52Z</time>
      </trkpt>
      <trkpt lat="45.01427" lon="-0.58232">
        <ele>-18.05</ele>
        <time>2017-03-18T10:17:09Z</time>
      </trkpt>
      <trkpt lat="45.01429" lon="-0.58233">
        <ele>-18.04</ele>
        <time>2017-03-18T10:17:10Z</time>
      </trkpt>
      <trkpt lat="45.01447" lon="-0.58249">
        <ele>-18.51</ele>
        <time>2017-03-18T10:17:20Z</time>
      </trkpt>
      <trkpt lat="45.01458" lon="-0.5826">
        <ele>-19.25</ele>
        <time>2017-03-18T10:17:26Z</time>
      </trkpt>
      <trkpt lat="45.0146" lon="-0.58294">
        <ele>-18.72</ele>
        <time>2017-03-18T10:17:40Z</time>
      </trkpt>
      <trkpt lat="45.01447" lon="-0.58318">
        <ele>-18.68</ele>
        <time>2017-03-18T10:17:49Z</time>
      </trkpt>
      <trkpt lat="45.01445" lon="-0.58324">
        <ele>-18.6</ele>
        <time>2017-03-18T10:17:51Z</time>
      </trkpt>
      <trkpt lat="45.01432" lon="-0.58389">
        <ele>-18.39</ele>
        <time>2017-03-18T10:18:12Z</time>
      </trkpt>
      <trkpt lat="45.01422" lon="-0.58408">
        <ele>-18.74</ele>
        <time>2017-03-18T10:18:16Z</time>
      </trkpt>
      <trkpt lat="45.0142" lon="-0.58422">
        <ele>-18.53</ele>
        <time>2017-03-18T10:18:20Z</time>
      </trkpt>
      <trkpt lat="45.01411" lon="-0.58442">
        <ele>-18.65</ele>
        <time>2017-03-18T10:18:27Z</time>
      </trkpt>
      <trkpt lat="45.01396" lon="-0.58525">
        <ele>-18.34</ele>
        <time>2017-03-18T10:18:52Z</time>
      </trkpt>
      <trkpt lat="45.0138" lon="-0.58616">
        <ele>-18.29</ele>
        <time>2017-03-18T10:19:15Z</time>
      </trkpt>
      <trkpt lat="45.01368" lon="-0.58718">
        <ele>-18.11</ele>
        <time>2017-03-18T10:19:39Z</time>
      </trkpt>
      <trkpt lat="45.01372" lon="-0.58798">
        <ele>-18.43</ele>
        <time>2017-03-18T10:20:01Z</time>
      </trkpt>
      <trkpt lat="45.01374" lon="-0.58869">
        <ele>-18.47</ele>
        <time>2017-03-18T10:20:20Z</time>
      </trkpt>
      <trkpt lat="45.01383" lon="-0.58919">
        <ele>-18.61</ele>
        <time>2017-03-18T10:20:33Z</time>
      </trkpt>
      <trkpt lat="45.01384" lon="-0.58972">
        <ele>-19.06</ele>
        <time>2017-03-18T10:20:47Z</time>
      </trkpt>
      <trkpt lat="45.01391" lon="-0.58992">
        <ele>-19.73</ele>
        <time>2017-03-18T10:20:54Z</time>
      </trkpt>
      <trkpt lat="45.01402" lon="-0.58998">
        <ele>-19</ele>
        <time>2017-03-18T10:21:01Z</time>
      </trkpt>
      <trkpt lat="45.01407" lon="-0.59001">
        <ele>-18.72</ele>
        <time>2017-03-18T10:21:04Z</time>
      </trkpt>
      <trkpt lat="45.01425" lon="-0.59008">
        <ele>-18.37</ele>
        <time>2017-03-18T10:21:11Z</time>
      </trkpt>
      <trkpt lat="45.01443" lon="-0.5902">
        <ele>-18.81</ele>
        <time>2017-03-18T10:21:19Z</time>
      </trkpt>
      <trkpt lat="45.01452" lon="-0.59018">
        <ele>-19.03</ele>
        <time>2017-03-18T10:21:23Z</time>
      </trkpt>
      <trkpt lat="45.01496" lon="-0.59035">
        <ele>-18.67</ele>
        <time>2017-03-18T10:21:41Z</time>
      </trkpt>
      <trkpt lat="45.01498" lon="-0.59036">
        <ele>-18.6</ele>
        <time>2017-03-18T10:21:42Z</time>
      </trkpt>
      <trkpt lat="45.01509" lon="-0.59042">
        <ele>-18.27</ele>
        <time>2017-03-18T10:21:46Z</time>
      </trkpt>
      <trkpt lat="45.01553" lon="-0.59076">
        <ele>-19.14</ele>
        <time>2017-03-18T10:22:05Z</time>
      </trkpt>
      <trkpt lat="45.01599" lon="-0.59092">
        <ele>-19.22</ele>
        <time>2017-03-18T10:22:23Z</time>
      </trkpt>
      <trkpt lat="45.01647" lon="-0.59113">
        <ele>-18.97</ele>
        <time>2017-03-18T10:22:42Z</time>
      </trkpt>
      <trkpt lat="45.01689" lon="-0.59145">
        <ele>-19.05</ele>
        <time>2017-03-18T10:22:59Z</time>
      </trkpt>
      <trkpt lat="45.01751" lon="-0.59165">
        <ele>-19.03</ele>
        <time>2017-03-18T10:23:18Z</time>
      </trkpt>
      <trkpt lat="45.01774" lon="-0.59185">
        <ele>-19.23</ele>
        <time>2017-03-18T10:23:34Z</time>
      </trkpt>
      <trkpt lat="45.01825" lon="-0.59209">
        <ele>-19.13</ele>
        <time>2017-03-18T10:23:55Z</time>
      </trkpt>
      <trkpt lat="45.01905" lon="-0.59241">
        <ele>-18.91</ele>
        <time>2017-03-18T10:24:17Z</time>
      </trkpt>
      <trkpt lat="45.01954" lon="-0.59272">
        <ele>-18.93</ele>
        <time>2017-03-18T10:24:38Z</time>
      </trkpt>
      <trkpt lat="45.02029" lon="-0.59308">
        <ele>-19.03</ele>
        <time>2017-03-18T10:24:59Z</time>
      </trkpt>
      <trkpt lat="45.02082" lon="-0.59342">
        <ele>-18.97</ele>
        <time>2017-03-18T10:25:20Z</time>
      </trkpt>
      <trkpt lat="45.0216" lon="-0.59369">
        <ele>-18.97</ele>
        <time>2017-03-18T10:25:39Z</time>
      </trkpt>
      <trkpt lat="45.0219" lon="-0.59388">
        <ele>-18.65</ele>
        <time>2017-03-18T10:25:55Z</time>
      </trkpt>
      <trkpt lat="45.02235" lon="-0.59418">
        <ele>-19.1</ele>
        <time>2017-03-18T10:26:15Z</time>
      </trkpt>
      <trkpt lat="45.02294" lon="-0.5945">
        <ele>-19.31</ele>
        <time>2017-03-18T10:26:35Z</time>
      </trkpt>
      <trkpt lat="45.02355" lon="-0.59487">
        <ele>-18.95</ele>
        <time>2017-03-18T10:26:56Z</time>
      </trkpt>
      <trkpt lat="45.02412" lon="-0.59518">
        <ele>-19.01</ele>
        <time>2017-03-18T10:27:14Z</time>
      </trkpt>
      <trkpt lat="45.02495" lon="-0.59549">
        <ele>-19.08</ele>
        <time>2017-03-18T10:27:30Z</time>
      </trkpt>
      <trkpt lat="45.02559" lon="-0.59579">
        <ele>-18.99</ele>
        <time>2017-03-18T10:27:51Z</time>
      </trkpt>
      <trkpt lat="45.02606" lon="-0.59594">
        <ele>-19.19</ele>
        <time>2017-03-18T10:28:02Z</time>
      </trkpt>
      <trkpt lat="45.02634" lon="-0.59603">
        <ele>-20.1</ele>
        <time>2017-03-18T10:28:12Z</time>
      </trkpt>
      <trkpt lat="45.02642" lon="-0.59628">
        <ele>-19.59</ele>
        <time>2017-03-18T10:28:22Z</time>
      </trkpt>
      <trkpt lat="45.02637" lon="-0.59637">
        <ele>-19.35</ele>
        <time>2017-03-18T10:28:27Z</time>
      </trkpt>
      <trkpt lat="45.02627" lon="-0.59697">
        <ele>-19.02</ele>
        <time>2017-03-18T10:28:46Z</time>
      </trkpt>
      <trkpt lat="45.02628" lon="-0.59714">
        <ele>-19.07</ele>
        <time>2017-03-18T10:28:50Z</time>
      </trkpt>
      <trkpt lat="45.02628" lon="-0.59729">
        <ele>-19.17</ele>
        <time>2017-03-18T10:28:54Z</time>
      </trkpt>
      <trkpt lat="45.02622" lon="-0.59765">
        <ele>-19.15</ele>
        <time>2017-03-18T10:29:06Z</time>
      </trkpt>
      <trkpt lat="45.0263" lon="-0.59773">
        <ele>-18.87</ele>
        <time>2017-03-18T10:29:10Z</time>
      </trkpt>
      <trkpt lat="45.02621" lon="-0.59847">
        <ele>-18.83</ele>
        <time>2017-03-18T10:29:31Z</time>
      </trkpt>
      <trkpt lat="45.02624" lon="-0.59901">
        <ele>-18.98</ele>
        <time>2017-03-18T10:29:43Z</time>
      </trkpt>
      <trkpt lat="45.02619" lon="-0.59927">
        <ele>-18.97</ele>
        <time>2017-03-18T10:29:53Z</time>
      </trkpt>
      <trkpt lat="45.0262" lon="-0.59968">
        <ele>-18.97</ele>
        <time>2017-03-18T10:30:09Z</time>
      </trkpt>
      <trkpt lat="45.0262" lon="-0.59975">
        <ele>-18.89</ele>
        <time>2017-03-18T10:30:11Z</time>
      </trkpt>
      <trkpt lat="45.02617" lon="-0.60008">
        <ele>-18.79</ele>
        <time>2017-03-18T10:30:21Z</time>
      </trkpt>
      <trkpt lat="45.02614" lon="-0.60022">
        <ele>-18.85</ele>
        <time>2017-03-18T10:30:25Z</time>
      </trkpt>
      <trkpt lat="45.02613" lon="-0.60034">
        <ele>-18.93</ele>
        <time>2017-03-18T10:30:29Z</time>
      </trkpt>
      <trkpt lat="45.02615" lon="-0.60045">
        <ele>-18.92</ele>
        <time>2017-03-18T10:30:33Z</time>
      </trkpt>
      <trkpt lat="45.02615" lon="-0.60055">
        <ele>-18.98</ele>
        <time>2017-03-18T10:30:37Z</time>
      </trkpt>
      <trkpt lat="45.02615" lon="-0.60089">
        <ele>-18.92</ele>
        <time>2017-03-18T10:30:54Z</time>
      </trkpt>
      <trkpt lat="45.02615" lon="-0.60104">
        <ele>-18.8</ele>
        <time>2017-03-18T10:31:01Z</time>
      </trkpt>
      <trkpt lat="45.02615" lon="-0.6012">
        <ele>-18.75</ele>
        <time>2017-03-18T10:31:08Z</time>
      </trkpt>
      <trkpt lat="45.02608" lon="-0.60137">
        <ele>-18.78</ele>
        <time>2017-03-18T10:31:15Z</time>
      </trkpt>
      <trkpt lat="45.0261" lon="-0.60162">
        <ele>-18.78</ele>
        <time>2017-03-18T10:31:25Z</time>
      </trkpt>
      <trkpt lat="45.02599" lon="-0.6019">
        <ele>-19.22</ele>
        <time>2017-03-18T10:31:39Z</time>
      </trkpt>
      <trkpt lat="45.02611" lon="-0.6021">
        <ele>-18.88</ele>
        <time>2017-03-18T10:31:50Z</time>
      </trkpt>
      <trkpt lat="45.02613" lon="-0.6021">
        <ele>-18.8</ele>
        <time>2017-03-18T10:31:51Z</time>
      </trkpt>
      <trkpt lat="45.0265" lon="-0.60214">
        <ele>-18.39</ele>
        <time>2017-03-18T10:32:06Z</time>
      </trkpt>
      <trkpt lat="45.02664" lon="-0.60219">
        <ele>-18.94</ele>
        <time>2017-03-18T10:32:12Z</time>
      </trkpt>
      <trkpt lat="45.02701" lon="-0.60236">
        <ele>-18.7</ele>
        <time>2017-03-18T10:32:30Z</time>
      </trkpt>
      <trkpt lat="45.02739" lon="-0.60255">
        <ele>-18.6</ele>
        <time>2017-03-18T10:32:48Z</time>
      </trkpt>
      <trkpt lat="45.02761" lon="-0.60262">
        <ele>-19.03</ele>
        <time>2017-03-18T10:32:57Z</time>
      </trkpt>
      <trkpt lat="45.02791" lon="-0.60276">
        <ele>-18.44</ele>
        <time>2017-03-18T10:33:08Z</time>
      </trkpt>
      <trkpt lat="45.02841" lon="-0.60307">
        <ele>-18.3</ele>
        <time>2017-03-18T10:33:27Z</time>
      </trkpt>
      <trkpt lat="45.02892" lon="-0.60345">
        <ele>-17.96</ele>
        <time>2017-03-18T10:33:46Z</time>
      </trkpt>
      <trkpt lat="45.02931" lon="-0.60379">
        <ele>-18.05</ele>
        <time>2017-03-18T10:34:03Z</time>
      </trkpt>
      <trkpt lat="45.02993" lon="-0.60412">
        <ele>-17.64</ele>
        <time>2017-03-18T10:34:21Z</time>
      </trkpt>
      <trkpt lat="45.02998" lon="-0.60412">
        <ele>-17.6</ele>
        <time>2017-03-18T10:34:22Z</time>
      </trkpt>
      <trkpt lat="45.03008" lon="-0.60416">
        <ele>-17.67</ele>
        <time>2017-03-18T10:34:25Z</time>
      </trkpt>
      <trkpt lat="45.03019" lon="-0.60426">
        <ele>-17.56</ele>
        <time>2017-03-18T10:34:29Z</time>
      </trkpt>
      <trkpt lat="45.03068" lon="-0.60468">
        <ele>-18.22</ele>
        <time>2017-03-18T10:34:45Z</time>
      </trkpt>
      <trkpt lat="45.03115" lon="-0.60499">
        <ele>-18.49</ele>
        <time>2017-03-18T10:35:02Z</time>
      </trkpt>
      <trkpt lat="45.0316" lon="-0.60528">
        <ele>-18.37</ele>
        <time>2017-03-18T10:35:18Z</time>
      </trkpt>
      <trkpt lat="45.0322" lon="-0.60576">
        <ele>-18.16</ele>
        <time>2017-03-18T10:35:38Z</time>
      </trkpt>
      <trkpt lat="45.03259" lon="-0.60608">
        <ele>-17.88</ele>
        <time>2017-03-18T10:35:55Z</time>
      </trkpt>
      <trkpt lat="45.03315" lon="-0.60656">
        <ele>-18.17</ele>
        <time>2017-03-18T10:36:14Z</time>
      </trkpt>
      <trkpt lat="45.03364" lon="-0.60682">
        <ele>-18.22</ele>
        <time>2017-03-18T10:36:32Z</time>
      </trkpt>
      <trkpt lat="45.03414" lon="-0.60715">
        <ele>-18.19</ele>
        <time>2017-03-18T10:36:50Z</time>
      </trkpt>
      <trkpt lat="45.03458" lon="-0.6074">
        <ele>-18.74</ele>
        <time>2017-03-18T10:37:07Z</time>
      </trkpt>
      <trkpt lat="45.03463" lon="-0.60743">
        <ele>-18.75</ele>
        <time>2017-03-18T10:37:09Z</time>
      </trkpt>
      <trkpt lat="45.03473" lon="-0.60747">
        <ele>-18.56</ele>
        <time>2017-03-18T10:37:13Z</time>
      </trkpt>
      <trkpt lat="45.0349" lon="-0.60756">
        <ele>-18.33</ele>
        <time>2017-03-18T10:37:20Z</time>
      </trkpt>
      <trkpt lat="45.03498" lon="-0.6076">
        <ele>-18.43</ele>
        <time>2017-03-18T10:37:23Z</time>
      </trkpt>
      <trkpt lat="45.03509" lon="-0.60764">
        <ele>-18.61</ele>
        <time>2017-03-18T10:37:27Z</time>
      </trkpt>
      <trkpt lat="45.03555" lon="-0.60784">
        <ele>-18.54</ele>
        <time>2017-03-18T10:37:44Z</time>
      </trkpt>
      <trkpt lat="45.03607" lon="-0.60806">
        <ele>-18.03</ele>
        <time>2017-03-18T10:38:01Z</time>
      </trkpt>
      <trkpt lat="45.03653" lon="-0.60833">
        <ele>-17.81</ele>
        <time>2017-03-18T10:38:17Z</time>
      </trkpt>
      <trkpt lat="45.03707" lon="-0.60863">
        <ele>-17.5</ele>
        <time>2017-03-18T10:38:35Z</time>
      </trkpt>
      <trkpt lat="45.03752" lon="-0.60893">
        <ele>-17.9</ele>
        <time>2017-03-18T10:38:51Z</time>
      </trkpt>
      <trkpt lat="45.03798" lon="-0.60926">
        <ele>-18.05</ele>
        <time>2017-03-18T10:39:07Z</time>
      </trkpt>
      <trkpt lat="45.03854" lon="-0.60965">
        <ele>-18.05</ele>
        <time>2017-03-18T10:39:26Z</time>
      </trkpt>
      <trkpt lat="45.03899" lon="-0.60994">
        <ele>-18.47</ele>
        <time>2017-03-18T10:39:42Z</time>
      </trkpt>
      <trkpt lat="45.03941" lon="-0.61025">
        <ele>-18.23</ele>
        <time>2017-03-18T10:39:57Z</time>
      </trkpt>
      <trkpt lat="45.03961" lon="-0.61043">
        <ele>-18.04</ele>
        <time>2017-03-18T10:40:04Z</time>
      </trkpt>
      <trkpt lat="45.03998" lon="-0.61079">
        <ele>-17.75</ele>
        <time>2017-03-18T10:40:20Z</time>
      </trkpt>
      <trkpt lat="45.04047" lon="-0.61122">
        <ele>-17.89</ele>
        <time>2017-03-18T10:40:36Z</time>
      </trkpt>
      <trkpt lat="45.04104" lon="-0.61166">
        <ele>-17.97</ele>
        <time>2017-03-18T10:40:55Z</time>
      </trkpt>
      <trkpt lat="45.04163" lon="-0.61221">
        <ele>-18.02</ele>
        <time>2017-03-18T10:41:15Z</time>
      </trkpt>
      <trkpt lat="45.04218" lon="-0.6126">
        <ele>-18.4</ele>
        <time>2017-03-18T10:41:32Z</time>
      </trkpt>
      <trkpt lat="45.04265" lon="-0.61296">
        <ele>-18.26</ele>
        <time>2017-03-18T10:41:48Z</time>
      </trkpt>
      <trkpt lat="45.04312" lon="-0.61335">
        <ele>-18.05</ele>
        <time>2017-03-18T10:42:04Z</time>
      </trkpt>
      <trkpt lat="45.0433" lon="-0.61348">
        <ele>-18.08</ele>
        <time>2017-03-18T10:42:10Z</time>
      </trkpt>
      <trkpt lat="45.04371" lon="-0.61386">
        <ele>-18.02</ele>
        <time>2017-03-18T10:42:25Z</time>
      </trkpt>
      <trkpt lat="45.04381" lon="-0.61393">
        <ele>-18.22</ele>
        <time>2017-03-18T10:42:28Z</time>
      </trkpt>
      <trkpt lat="45.04396" lon="-0.61406">
        <ele>-18.29</ele>
        <time>2017-03-18T10:42:33Z</time>
      </trkpt>
      <trkpt lat="45.04452" lon="-0.61457">
        <ele>-18.01</ele>
        <time>2017-03-18T10:42:52Z</time>
      </trkpt>
      <trkpt lat="45.04495" lon="-0.61496">
        <ele>-18.45</ele>
        <time>2017-03-18T10:43:06Z</time>
      </trkpt>
      <trkpt lat="45.04513" lon="-0.61509">
        <ele>-18.75</ele>
        <time>2017-03-18T10:43:12Z</time>
      </trkpt>
      <trkpt lat="45.04545" lon="-0.6153">
        <ele>-18.2</ele>
        <time>2017-03-18T10:43:22Z</time>
      </trkpt>
      <trkpt lat="45.04552" lon="-0.61536">
        <ele>-18.09</ele>
        <time>2017-03-18T10:43:24Z</time>
      </trkpt>
      <trkpt lat="45.04608" lon="-0.61577">
        <ele>-17.94</ele>
        <time>2017-03-18T10:43:42Z</time>
      </trkpt>
      <trkpt lat="45.04667" lon="-0.61619">
        <ele>-18.19</ele>
        <time>2017-03-18T10:44:02Z</time>
      </trkpt>
      <trkpt lat="45.04702" lon="-0.61647">
        <ele>-18.19</ele>
        <time>2017-03-18T10:44:15Z</time>
      </trkpt>
      <trkpt lat="45.04749" lon="-0.61676">
        <ele>-18.33</ele>
        <time>2017-03-18T10:44:31Z</time>
      </trkpt>
      <trkpt lat="45.04796" lon="-0.61709">
        <ele>-18.08</ele>
        <time>2017-03-18T10:44:48Z</time>
      </trkpt>
      <trkpt lat="45.0485" lon="-0.61739">
        <ele>-18.13</ele>
        <time>2017-03-18T10:45:04Z</time>
      </trkpt>
      <trkpt lat="45.04903" lon="-0.61765">
        <ele>-18.25</ele>
        <time>2017-03-18T10:45:20Z</time>
      </trkpt>
      <trkpt lat="45.04956" lon="-0.6179">
        <ele>-17.9</ele>
        <time>2017-03-18T10:45:37Z</time>
      </trkpt>
      <trkpt lat="45.05004" lon="-0.61818">
        <ele>-17.71</ele>
        <time>2017-03-18T10:45:53Z</time>
      </trkpt>
      <trkpt lat="45.0505" lon="-0.61845">
        <ele>-17.79</ele>
        <time>2017-03-18T10:46:07Z</time>
      </trkpt>
      <trkpt lat="45.05096" lon="-0.61869">
        <ele>-17.83</ele>
        <time>2017-03-18T10:46:22Z</time>
      </trkpt>
      <trkpt lat="45.05148" lon="-0.61893">
        <ele>-17.49</ele>
        <time>2017-03-18T10:46:38Z</time>
      </trkpt>
      <trkpt lat="45.05161" lon="-0.61897">
        <ele>-17.41</ele>
        <time>2017-03-18T10:46:42Z</time>
      </trkpt>
      <trkpt lat="45.05224" lon="-0.61933">
        <ele>-17.56</ele>
        <time>2017-03-18T10:47:01Z</time>
      </trkpt>
      <trkpt lat="45.05279" lon="-0.61971">
        <ele>-17.58</ele>
        <time>2017-03-18T10:47:19Z</time>
      </trkpt>
      <trkpt lat="45.05334" lon="-0.62009">
        <ele>-17.46</ele>
        <time>2017-03-18T10:47:36Z</time>
      </trkpt>
      <trkpt lat="45.05337" lon="-0.62012">
        <ele>-17.43</ele>
        <time>2017-03-18T10:47:37Z</time>
      </trkpt>
      <trkpt lat="45.05357" lon="-0.62021">
        <ele>-17.36</ele>
        <time>2017-03-18T10:47:41Z</time>
      </trkpt>
      <trkpt lat="45.05408" lon="-0.62058">
        <ele>-18.11</ele>
        <time>2017-03-18T10:47:58Z</time>
      </trkpt>
      <trkpt lat="45.05461" lon="-0.62099">
        <ele>-18.07</ele>
        <time>2017-03-18T10:48:17Z</time>
      </trkpt>
      <trkpt lat="45.05516" lon="-0.62136">
        <ele>-18.06</ele>
        <time>2017-03-18T10:48:35Z</time>
      </trkpt>
      <trkpt lat="45.05522" lon="-0.62141">
        <ele>-18.17</ele>
        <time>2017-03-18T10:48:37Z</time>
      </trkpt>
      <trkpt lat="45.05567" lon="-0.62177">
        <ele>-17.94</ele>
        <time>2017-03-18T10:48:52Z</time>
      </trkpt>
      <trkpt lat="45.05622" lon="-0.6222">
        <ele>-17.85</ele>
        <time>2017-03-18T10:49:09Z</time>
      </trkpt>
      <trkpt lat="45.05668" lon="-0.62271">
        <ele>-17.92</ele>
        <time>2017-03-18T10:49:26Z</time>
      </trkpt>
      <trkpt lat="45.05727" lon="-0.62321">
        <ele>-18.07</ele>
        <time>2017-03-18T10:49:46Z</time>
      </trkpt>
      <trkpt lat="45.0578" lon="-0.62351">
        <ele>-18.35</ele>
        <time>2017-03-18T10:50:02Z</time>
      </trkpt>
      <trkpt lat="45.05822" lon="-0.62383">
        <ele>-18.41</ele>
        <time>2017-03-18T10:50:17Z</time>
      </trkpt>
      <trkpt lat="45.05872" lon="-0.62415">
        <ele>-18.08</ele>
        <time>2017-03-18T10:50:33Z</time>
      </trkpt>
      <trkpt lat="45.05879" lon="-0.62419">
        <ele>-18.17</ele>
        <time>2017-03-18T10:50:35Z</time>
      </trkpt>
      <trkpt lat="45.05911" lon="-0.62435">
        <ele>-18.88</ele>
        <time>2017-03-18T10:50:44Z</time>
      </trkpt>
      <trkpt lat="45.05924" lon="-0.62445">
        <ele>-19.01</ele>
        <time>2017-03-18T10:50:48Z</time>
      </trkpt>
      <trkpt lat="45.0594" lon="-0.62466">
        <ele>-18.34</ele>
        <time>2017-03-18T10:50:57Z</time>
      </trkpt>
      <trkpt lat="45.05937" lon="-0.62493">
        <ele>-17.5</ele>
        <time>2017-03-18T10:51:06Z</time>
      </trkpt>
      <trkpt lat="45.0593" lon="-0.62543">
        <ele>-17.64</ele>
        <time>2017-03-18T10:51:19Z</time>
      </trkpt>
      <trkpt lat="45.05926" lon="-0.62579">
        <ele>-18.33</ele>
        <time>2017-03-18T10:51:29Z</time>
      </trkpt>
      <trkpt lat="45.05923" lon="-0.62596">
        <ele>-18.45</ele>
        <time>2017-03-18T10:51:34Z</time>
      </trkpt>
      <trkpt lat="45.05921" lon="-0.62604">
        <ele>-18.33</ele>
        <time>2017-03-18T10:51:36Z</time>
      </trkpt>
      <trkpt lat="45.05913" lon="-0.62657">
        <ele>-17.86</ele>
        <time>2017-03-18T10:51:50Z</time>
      </trkpt>
      <trkpt lat="45.05904" lon="-0.62697">
        <ele>-17.66</ele>
        <time>2017-03-18T10:52:00Z</time>
      </trkpt>
      <trkpt lat="45.05903" lon="-0.62705">
        <ele>-17.48</ele>
        <time>2017-03-18T10:52:02Z</time>
      </trkpt>
      <trkpt lat="45.059" lon="-0.62725">
        <ele>-18.06</ele>
        <time>2017-03-18T10:52:07Z</time>
      </trkpt>
      <trkpt lat="45.05897" lon="-0.62746">
        <ele>-17.77</ele>
        <time>2017-03-18T10:52:12Z</time>
      </trkpt>
      <trkpt lat="45.05892" lon="-0.62812">
        <ele>-17.47</ele>
        <time>2017-03-18T10:52:27Z</time>
      </trkpt>
      <trkpt lat="45.05892" lon="-0.6283">
        <ele>-17.61</ele>
        <time>2017-03-18T10:52:31Z</time>
      </trkpt>
      <trkpt lat="45.05893" lon="-0.62873">
        <ele>-17.61</ele>
        <time>2017-03-18T10:52:41Z</time>
      </trkpt>
      <trkpt lat="45.05894" lon="-0.629">
        <ele>-17.82</ele>
        <time>2017-03-18T10:52:46Z</time>
      </trkpt>
      <trkpt lat="45.05895" lon="-0.62914">
        <ele>-17.6</ele>
        <time>2017-03-18T10:52:49Z</time>
      </trkpt>
      <trkpt lat="45.05897" lon="-0.62932">
        <ele>-17.49</ele>
        <time>2017-03-18T10:52:53Z</time>
      </trkpt>
      <trkpt lat="45.059" lon="-0.62951">
        <ele>-17.91</ele>
        <time>2017-03-18T10:52:57Z</time>
      </trkpt>
      <trkpt lat="45.05907" lon="-0.63035">
        <ele>-17.54</ele>
        <time>2017-03-18T10:53:14Z</time>
      </trkpt>
      <trkpt lat="45.05918" lon="-0.63125">
        <ele>-17.74</ele>
        <time>2017-03-18T10:53:31Z</time>
      </trkpt>
      <trkpt lat="45.05922" lon="-0.63147">
        <ele>-17.64</ele>
        <time>2017-03-18T10:53:35Z</time>
      </trkpt>
      <trkpt lat="45.05934" lon="-0.63221">
        <ele>-17.67</ele>
        <time>2017-03-18T10:53:52Z</time>
      </trkpt>
      <trkpt lat="45.05935" lon="-0.63242">
        <ele>-17.28</ele>
        <time>2017-03-18T10:53:58Z</time>
      </trkpt>
      <trkpt lat="45.05937" lon="-0.63252">
        <ele>-17.08</ele>
        <time>2017-03-18T10:54:00Z</time>
      </trkpt>
      <trkpt lat="45.05939" lon="-0.63265">
        <ele>-17.42</ele>
        <time>2017-03-18T10:54:03Z</time>
      </trkpt>
      <trkpt lat="45.05947" lon="-0.63325">
        <ele>-18.07</ele>
        <time>2017-03-18T10:54:16Z</time>
      </trkpt>
      <trkpt lat="45.05948" lon="-0.63348">
        <ele>-18.63</ele>
        <time>2017-03-18T10:54:21Z</time>
      </trkpt>
      <trkpt lat="45.05949" lon="-0.63378">
        <ele>-19.71</ele>
        <time>2017-03-18T10:54:28Z</time>
      </trkpt>
      <trkpt lat="45.0595" lon="-0.6339">
        <ele>-19</ele>
        <time>2017-03-18T10:54:31Z</time>
      </trkpt>
      <trkpt lat="45.05971" lon="-0.63404">
        <ele>-18.63</ele>
        <time>2017-03-18T10:54:42Z</time>
      </trkpt>
      <trkpt lat="45.05994" lon="-0.63403">
        <ele>-18.28</ele>
        <time>2017-03-18T10:54:49Z</time>
      </trkpt>
      <trkpt lat="45.06017" lon="-0.63405">
        <ele>-17.96</ele>
        <time>2017-03-18T10:54:55Z</time>
      </trkpt>
      <trkpt lat="45.06032" lon="-0.63411">
        <ele>-18.2</ele>
        <time>2017-03-18T10:54:59Z</time>
      </trkpt>
      <trkpt lat="45.06073" lon="-0.63434">
        <ele>-18.98</ele>
        <time>2017-03-18T10:55:11Z</time>
      </trkpt>
      <trkpt lat="45.06076" lon="-0.63436">
        <ele>-19.12</ele>
        <time>2017-03-18T10:55:12Z</time>
      </trkpt>
      <trkpt lat="45.06112" lon="-0.63462">
        <ele>-18.11</ele>
        <time>2017-03-18T10:55:23Z</time>
      </trkpt>
      <trkpt lat="45.06128" lon="-0.63473">
        <ele>-18.35</ele>
        <time>2017-03-18T10:55:28Z</time>
      </trkpt>
      <trkpt lat="45.06172" lon="-0.63506">
        <ele>-18.46</ele>
        <time>2017-03-18T10:55:43Z</time>
      </trkpt>
      <trkpt lat="45.06202" lon="-0.63514">
        <ele>-18.67</ele>
        <time>2017-03-18T10:55:50Z</time>
      </trkpt>
      <trkpt lat="45.06227" lon="-0.63529">
        <ele>-18.3</ele>
        <time>2017-03-18T10:55:58Z</time>
      </trkpt>
      <trkpt lat="45.06233" lon="-0.63533">
        <ele>-18.48</ele>
        <time>2017-03-18T10:56:00Z</time>
      </trkpt>
      <trkpt lat="45.06269" lon="-0.63556">
        <ele>-18.22</ele>
        <time>2017-03-18T10:56:12Z</time>
      </trkpt>
      <trkpt lat="45.06289" lon="-0.63568">
        <ele>-17.91</ele>
        <time>2017-03-18T10:56:18Z</time>
      </trkpt>
      <trkpt lat="45.06296" lon="-0.63572">
        <ele>-17.93</ele>
        <time>2017-03-18T10:56:20Z</time>
      </trkpt>
      <trkpt lat="45.06326" lon="-0.63592">
        <ele>-18.21</ele>
        <time>2017-03-18T10:56:29Z</time>
      </trkpt>
      <trkpt lat="45.06345" lon="-0.63601">
        <ele>-18.28</ele>
        <time>2017-03-18T10:56:34Z</time>
      </trkpt>
      <trkpt lat="45.06352" lon="-0.63604">
        <ele>-18.19</ele>
        <time>2017-03-18T10:56:36Z</time>
      </trkpt>
      <trkpt lat="45.06362" lon="-0.63609">
        <ele>-18.21</ele>
        <time>2017-03-18T10:56:39Z</time>
      </trkpt>
      <trkpt lat="45.06369" lon="-0.63612">
        <ele>-18.18</ele>
        <time>2017-03-18T10:56:41Z</time>
      </trkpt>
      <trkpt lat="45.06393" lon="-0.63623">
        <ele>-18.35</ele>
        <time>2017-03-18T10:56:48Z</time>
      </trkpt>
      <trkpt lat="45.06449" lon="-0.6366">
        <ele>-17.95</ele>
        <time>2017-03-18T10:57:07Z</time>
      </trkpt>
      <trkpt lat="45.06483" lon="-0.63678">
        <ele>-18.27</ele>
        <time>2017-03-18T10:57:18Z</time>
      </trkpt>
      <trkpt lat="45.06507" lon="-0.63689">
        <ele>-18</ele>
        <time>2017-03-18T10:57:25Z</time>
      </trkpt>
      <trkpt lat="45.06559" lon="-0.63726">
        <ele>-17.65</ele>
        <time>2017-03-18T10:57:42Z</time>
      </trkpt>
      <trkpt lat="45.06576" lon="-0.63739">
        <ele>-17.48</ele>
        <time>2017-03-18T10:57:47Z</time>
      </trkpt>
      <trkpt lat="45.06598" lon="-0.63752">
        <ele>-17.68</ele>
        <time>2017-03-18T10:57:54Z</time>
      </trkpt>
      <trkpt lat="45.06622" lon="-0.63767">
        <ele>-17.72</ele>
        <time>2017-03-18T10:58:01Z</time>
      </trkpt>
      <trkpt lat="45.06635" lon="-0.63777">
        <ele>-17.52</ele>
        <time>2017-03-18T10:58:05Z</time>
      </trkpt>
      <trkpt lat="45.06688" lon="-0.6382">
        <ele>-17.53</ele>
        <time>2017-03-18T10:58:21Z</time>
      </trkpt>
      <trkpt lat="45.06742" lon="-0.63862">
        <ele>-17.34</ele>
        <time>2017-03-18T10:58:37Z</time>
      </trkpt>
      <trkpt lat="45.06753" lon="-0.63867">
        <ele>-17.21</ele>
        <time>2017-03-18T10:58:40Z</time>
      </trkpt>
      <trkpt lat="45.06787" lon="-0.63889">
        <ele>-17.22</ele>
        <time>2017-03-18T10:58:49Z</time>
      </trkpt>
      <trkpt lat="45.06809" lon="-0.63903">
        <ele>-17.76</ele>
        <time>2017-03-18T10:58:55Z</time>
      </trkpt>
      <trkpt lat="45.06838" lon="-0.63922">
        <ele>-17.67</ele>
        <time>2017-03-18T10:59:03Z</time>
      </trkpt>
      <trkpt lat="45.06846" lon="-0.63926">
        <ele>-17.53</ele>
        <time>2017-03-18T10:59:05Z</time>
      </trkpt>
      <trkpt lat="45.06863" lon="-0.63938">
        <ele>-17.72</ele>
        <time>2017-03-18T10:59:10Z</time>
      </trkpt>
      <trkpt lat="45.06892" lon="-0.63958">
        <ele>-17.34</ele>
        <time>2017-03-18T10:59:18Z</time>
      </trkpt>
      <trkpt lat="45.06912" lon="-0.63972">
        <ele>-17.22</ele>
        <time>2017-03-18T10:59:24Z</time>
      </trkpt>
      <trkpt lat="45.06926" lon="-0.63983">
        <ele>-17.22</ele>
        <time>2017-03-18T10:59:28Z</time>
      </trkpt>
      <trkpt lat="45.06983" lon="-0.64033">
        <ele>-17.93</ele>
        <time>2017-03-18T10:59:46Z</time>
      </trkpt>
      <trkpt lat="45.07037" lon="-0.64067">
        <ele>-17.88</ele>
        <time>2017-03-18T11:00:01Z</time>
      </trkpt>
      <trkpt lat="45.0708" lon="-0.64088">
        <ele>-17.91</ele>
        <time>2017-03-18T11:00:12Z</time>
      </trkpt>
      <trkpt lat="45.07111" lon="-0.64105">
        <ele>-18.04</ele>
        <time>2017-03-18T11:00:20Z</time>
      </trkpt>
      <trkpt lat="45.07162" lon="-0.64139">
        <ele>-17.71</ele>
        <time>2017-03-18T11:00:36Z</time>
      </trkpt>
      <trkpt lat="45.07214" lon="-0.64171">
        <ele>-18.05</ele>
        <time>2017-03-18T11:00:52Z</time>
      </trkpt>
      <trkpt lat="45.07257" lon="-0.6419">
        <ele>-18.34</ele>
        <time>2017-03-18T11:01:07Z</time>
      </trkpt>
      <trkpt lat="45.07283" lon="-0.64195">
        <ele>-18.44</ele>
        <time>2017-03-18T11:01:16Z</time>
      </trkpt>
      <trkpt lat="45.07326" lon="-0.64211">
        <ele>-17.97</ele>
        <time>2017-03-18T11:01:33Z</time>
      </trkpt>
      <trkpt lat="45.07368" lon="-0.64219">
        <ele>-17.7</ele>
        <time>2017-03-18T11:01:49Z</time>
      </trkpt>
      <trkpt lat="45.07413" lon="-0.6424">
        <ele>-17.97</ele>
        <time>2017-03-18T11:02:05Z</time>
      </trkpt>
      <trkpt lat="45.07458" lon="-0.6427">
        <ele>-17.99</ele>
        <time>2017-03-18T11:02:21Z</time>
      </trkpt>
      <trkpt lat="45.07511" lon="-0.64301">
        <ele>-17.27</ele>
        <time>2017-03-18T11:02:40Z</time>
      </trkpt>
      <trkpt lat="45.07571" lon="-0.64342">
        <ele>-17.07</ele>
        <time>2017-03-18T11:03:00Z</time>
      </trkpt>
      <trkpt lat="45.07621" lon="-0.64373">
        <ele>-17.66</ele>
        <time>2017-03-18T11:03:15Z</time>
      </trkpt>
      <trkpt lat="45.07637" lon="-0.64383">
        <ele>-17.84</ele>
        <time>2017-03-18T11:03:20Z</time>
      </trkpt>
      <trkpt lat="45.07653" lon="-0.64389">
        <ele>-17.4</ele>
        <time>2017-03-18T11:03:25Z</time>
      </trkpt>
      <trkpt lat="45.07662" lon="-0.64393">
        <ele>-17.09</ele>
        <time>2017-03-18T11:03:28Z</time>
      </trkpt>
      <trkpt lat="45.07684" lon="-0.644">
        <ele>-17.19</ele>
        <time>2017-03-18T11:03:34Z</time>
      </trkpt>
      <trkpt lat="45.07743" lon="-0.64423">
        <ele>-17.71</ele>
        <time>2017-03-18T11:03:50Z</time>
      </trkpt>
      <trkpt lat="45.07747" lon="-0.64424">
        <ele>-17.69</ele>
        <time>2017-03-18T11:03:51Z</time>
      </trkpt>
      <trkpt lat="45.07761" lon="-0.6443">
        <ele>-18.6</ele>
        <time>2017-03-18T11:03:55Z</time>
      </trkpt>
      <trkpt lat="45.07804" lon="-0.64447">
        <ele>-17.8</ele>
        <time>2017-03-18T11:04:07Z</time>
      </trkpt>
      <trkpt lat="45.07829" lon="-0.64458">
        <ele>-17.59</ele>
        <time>2017-03-18T11:04:14Z</time>
      </trkpt>
      <trkpt lat="45.07901" lon="-0.64488">
        <ele>-17.17</ele>
        <time>2017-03-18T11:04:35Z</time>
      </trkpt>
      <trkpt lat="45.07937" lon="-0.64503">
        <ele>-17.03</ele>
        <time>2017-03-18T11:04:45Z</time>
      </trkpt>
      <trkpt lat="45.0795" lon="-0.64507">
        <ele>-16.78</ele>
        <time>2017-03-18T11:04:49Z</time>
      </trkpt>
      <trkpt lat="45.07957" lon="-0.64509">
        <ele>-16.65</ele>
        <time>2017-03-18T11:04:51Z</time>
      </trkpt>
      <trkpt lat="45.07975" lon="-0.64514">
        <ele>-16.19</ele>
        <time>2017-03-18T11:04:56Z</time>
      </trkpt>
      <trkpt lat="45.0804" lon="-0.64538">
        <ele>-16.47</ele>
        <time>2017-03-18T11:05:13Z</time>
      </trkpt>
      <trkpt lat="45.08059" lon="-0.64547">
        <ele>-16.67</ele>
        <time>2017-03-18T11:05:18Z</time>
      </trkpt>
      <trkpt lat="45.08131" lon="-0.64582">
        <ele>-16.86</ele>
        <time>2017-03-18T11:05:38Z</time>
      </trkpt>
      <trkpt lat="45.08171" lon="-0.6461">
        <ele>-17.17</ele>
        <time>2017-03-18T11:05:52Z</time>
      </trkpt>
      <trkpt lat="45.0822" lon="-0.64639">
        <ele>-17.17</ele>
        <time>2017-03-18T11:06:08Z</time>
      </trkpt>
      <trkpt lat="45.08248" lon="-0.64655">
        <ele>-16.61</ele>
        <time>2017-03-18T11:06:17Z</time>
      </trkpt>
      <trkpt lat="45.08274" lon="-0.64667">
        <ele>-16.54</ele>
        <time>2017-03-18T11:06:24Z</time>
      </trkpt>
      <trkpt lat="45.08285" lon="-0.64673">
        <ele>-16.74</ele>
        <time>2017-03-18T11:06:27Z</time>
      </trkpt>
      <trkpt lat="45.08291" lon="-0.64677">
        <ele>-16.72</ele>
        <time>2017-03-18T11:06:29Z</time>
      </trkpt>
      <trkpt lat="45.08317" lon="-0.64692">
        <ele>-16.8</ele>
        <time>2017-03-18T11:06:37Z</time>
      </trkpt>
      <trkpt lat="45.08327" lon="-0.64695">
        <ele>-16.93</ele>
        <time>2017-03-18T11:06:40Z</time>
      </trkpt>
      <trkpt lat="45.08358" lon="-0.6471">
        <ele>-17.38</ele>
        <time>2017-03-18T11:06:50Z</time>
      </trkpt>
      <trkpt lat="45.08391" lon="-0.64727">
        <ele>-17.41</ele>
        <time>2017-03-18T11:07:00Z</time>
      </trkpt>
      <trkpt lat="45.08397" lon="-0.6473">
        <ele>-17.57</ele>
        <time>2017-03-18T11:07:02Z</time>
      </trkpt>
      <trkpt lat="45.084" lon="-0.64739">
        <ele>-18.11</ele>
        <time>2017-03-18T11:07:05Z</time>
      </trkpt>
      <trkpt lat="45.08398" lon="-0.64748">
        <ele>-17.76</ele>
        <time>2017-03-18T11:07:10Z</time>
      </trkpt>
      <trkpt lat="45.08395" lon="-0.64751">
        <ele>-17.88</ele>
        <time>2017-03-18T11:07:13Z</time>
      </trkpt>
      <trkpt lat="45.08389" lon="-0.64763">
        <ele>-17.22</ele>
        <time>2017-03-18T11:07:19Z</time>
      </trkpt>
      <trkpt lat="45.08386" lon="-0.64796">
        <ele>-17.12</ele>
        <time>2017-03-18T11:07:30Z</time>
      </trkpt>
      <trkpt lat="45.08388" lon="-0.64834">
        <ele>-17.15</ele>
        <time>2017-03-18T11:07:40Z</time>
      </trkpt>
      <trkpt lat="45.08388" lon="-0.64841">
        <ele>-17.02</ele>
        <time>2017-03-18T11:07:42Z</time>
      </trkpt>
      <trkpt lat="45.08385" lon="-0.64893">
        <ele>-16.98</ele>
        <time>2017-03-18T11:07:55Z</time>
      </trkpt>
      <trkpt lat="45.08381" lon="-0.64925">
        <ele>-17.13</ele>
        <time>2017-03-18T11:08:04Z</time>
      </trkpt>
      <trkpt lat="45.08385" lon="-0.6499">
        <ele>-17.35</ele>
        <time>2017-03-18T11:08:21Z</time>
      </trkpt>
      <trkpt lat="45.08396" lon="-0.6508">
        <ele>-17.47</ele>
        <time>2017-03-18T11:08:44Z</time>
      </trkpt>
      <trkpt lat="45.08401" lon="-0.65158">
        <ele>-17.56</ele>
        <time>2017-03-18T11:09:06Z</time>
      </trkpt>
      <trkpt lat="45.08402" lon="-0.6517">
        <ele>-17.61</ele>
        <time>2017-03-18T11:09:10Z</time>
      </trkpt>
      <trkpt lat="45.084" lon="-0.65186">
        <ele>-17.79</ele>
        <time>2017-03-18T11:09:15Z</time>
      </trkpt>
      <trkpt lat="45.08401" lon="-0.65197">
        <ele>-17.73</ele>
        <time>2017-03-18T11:09:18Z</time>
      </trkpt>
      <trkpt lat="45.08406" lon="-0.65218">
        <ele>-17.69</ele>
        <time>2017-03-18T11:09:24Z</time>
      </trkpt>
      <trkpt lat="45.08411" lon="-0.65284">
        <ele>-17.68</ele>
        <time>2017-03-18T11:09:45Z</time>
      </trkpt>
      <trkpt lat="45.08411" lon="-0.65305">
        <ele>-17.65</ele>
        <time>2017-03-18T11:09:52Z</time>
      </trkpt>
      <trkpt lat="45.0841" lon="-0.65374">
        <ele>-17.64</ele>
        <time>2017-03-18T11:10:10Z</time>
      </trkpt>
      <trkpt lat="45.08412" lon="-0.654">
        <ele>-17.75</ele>
        <time>2017-03-18T11:10:17Z</time>
      </trkpt>
      <trkpt lat="45.0841" lon="-0.65404">
        <ele>-17.97</ele>
        <time>2017-03-18T11:10:21Z</time>
      </trkpt>
      <trkpt lat="45.08397" lon="-0.65452">
        <ele>-17.06</ele>
        <time>2017-03-18T11:10:39Z</time>
      </trkpt>
      <trkpt lat="45.08387" lon="-0.65498">
        <ele>-17.2</ele>
        <time>2017-03-18T11:10:53Z</time>
      </trkpt>
      <trkpt lat="45.08386" lon="-0.65505">
        <ele>-17.41</ele>
        <time>2017-03-18T11:10:55Z</time>
      </trkpt>
      <trkpt lat="45.08373" lon="-0.65571">
        <ele>-17.36</ele>
        <time>2017-03-18T11:11:14Z</time>
      </trkpt>
      <trkpt lat="45.08369" lon="-0.65595">
        <ele>-17.68</ele>
        <time>2017-03-18T11:11:21Z</time>
      </trkpt>
      <trkpt lat="45.08364" lon="-0.65622">
        <ele>-17.61</ele>
        <time>2017-03-18T11:11:29Z</time>
      </trkpt>
      <trkpt lat="45.08357" lon="-0.65646">
        <ele>-17.39</ele>
        <time>2017-03-18T11:11:36Z</time>
      </trkpt>
      <trkpt lat="45.08351" lon="-0.65674">
        <ele>-18.07</ele>
        <time>2017-03-18T11:11:44Z</time>
      </trkpt>
      <trkpt lat="45.08347" lon="-0.65703">
        <ele>-17.87</ele>
        <time>2017-03-18T11:11:52Z</time>
      </trkpt>
      <trkpt lat="45.08336" lon="-0.6576">
        <ele>-17.78</ele>
        <time>2017-03-18T11:12:10Z</time>
      </trkpt>
      <trkpt lat="45.08332" lon="-0.6583">
        <ele>-17.91</ele>
        <time>2017-03-18T11:12:34Z</time>
      </trkpt>
      <trkpt lat="45.08329" lon="-0.65878">
        <ele>-17.61</ele>
        <time>2017-03-18T11:12:53Z</time>
      </trkpt>
      <trkpt lat="45.08324" lon="-0.65901">
        <ele>-17.4</ele>
        <time>2017-03-18T11:12:58Z</time>
      </trkpt>
      <trkpt lat="45.08317" lon="-0.65919">
        <ele>-17.56</ele>
        <time>2017-03-18T11:13:04Z</time>
      </trkpt>
      <trkpt lat="45.08299" lon="-0.65971">
        <ele>-17.94</ele>
        <time>2017-03-18T11:13:22Z</time>
      </trkpt>
      <trkpt lat="45.08307" lon="-0.66074">
        <ele>-17.95</ele>
        <time>2017-03-18T11:13:45Z</time>
      </trkpt>
      <trkpt lat="45.08297" lon="-0.66131">
        <ele>-17.77</ele>
        <time>2017-03-18T11:14:04Z</time>
      </trkpt>
      <trkpt lat="45.08281" lon="-0.66216">
        <ele>-17.54</ele>
        <time>2017-03-18T11:14:28Z</time>
      </trkpt>
      <trkpt lat="45.08302" lon="-0.66286">
        <ele>-17.63</ele>
        <time>2017-03-18T11:14:47Z</time>
      </trkpt>
      <trkpt lat="45.08303" lon="-0.66288">
        <ele>-17.6</ele>
        <time>2017-03-18T11:14:48Z</time>
      </trkpt>
      <trkpt lat="45.08299" lon="-0.66308">
        <ele>-17.69</ele>
        <time>2017-03-18T11:14:50Z</time>
      </trkpt>
      <trkpt lat="45.08303" lon="-0.66359">
        <ele>-17.93</ele>
        <time>2017-03-18T11:15:04Z</time>
      </trkpt>
      <trkpt lat="45.08314" lon="-0.66381">
        <ele>-17.63</ele>
        <time>2017-03-18T11:15:11Z</time>
      </trkpt>
      <trkpt lat="45.08325" lon="-0.66382">
        <ele>-17.29</ele>
        <time>2017-03-18T11:15:15Z</time>
      </trkpt>
      <trkpt lat="45.08339" lon="-0.66381">
        <ele>-17.16</ele>
        <time>2017-03-18T11:15:19Z</time>
      </trkpt>
      <trkpt lat="45.08372" lon="-0.66385">
        <ele>-16.97</ele>
        <time>2017-03-18T11:15:28Z</time>
      </trkpt>
      <trkpt lat="45.08379" lon="-0.66388">
        <ele>-16.92</ele>
        <time>2017-03-18T11:15:30Z</time>
      </trkpt>
      <trkpt lat="45.08417" lon="-0.66408">
        <ele>-17.57</ele>
        <time>2017-03-18T11:15:41Z</time>
      </trkpt>
      <trkpt lat="45.08425" lon="-0.66411">
        <ele>-17.26</ele>
        <time>2017-03-18T11:15:43Z</time>
      </trkpt>
      <trkpt lat="45.08435" lon="-0.66415">
        <ele>-17.19</ele>
        <time>2017-03-18T11:15:46Z</time>
      </trkpt>
      <trkpt lat="45.08446" lon="-0.6642">
        <ele>-17.47</ele>
        <time>2017-03-18T11:15:50Z</time>
      </trkpt>
      <trkpt lat="45.08497" lon="-0.66442">
        <ele>-16.97</ele>
        <time>2017-03-18T11:16:07Z</time>
      </trkpt>
      <trkpt lat="45.08515" lon="-0.66447">
        <ele>-16.59</ele>
        <time>2017-03-18T11:16:13Z</time>
      </trkpt>
      <trkpt lat="45.08524" lon="-0.6645">
        <ele>-17.88</ele>
        <time>2017-03-18T11:16:15Z</time>
      </trkpt>
      <trkpt lat="45.08579" lon="-0.66476">
        <ele>-16.95</ele>
        <time>2017-03-18T11:16:31Z</time>
      </trkpt>
      <trkpt lat="45.08638" lon="-0.66509">
        <ele>-16.98</ele>
        <time>2017-03-18T11:16:46Z</time>
      </trkpt>
      <trkpt lat="45.08646" lon="-0.66514">
        <ele>-17.1</ele>
        <time>2017-03-18T11:16:49Z</time>
      </trkpt>
      <trkpt lat="45.08676" lon="-0.66519">
        <ele>-17.32</ele>
        <time>2017-03-18T11:16:58Z</time>
      </trkpt>
      <trkpt lat="45.0869" lon="-0.66524">
        <ele>-17.27</ele>
        <time>2017-03-18T11:17:02Z</time>
      </trkpt>
      <trkpt lat="45.08704" lon="-0.66529">
        <ele>-16.66</ele>
        <time>2017-03-18T11:17:06Z</time>
      </trkpt>
      <trkpt lat="45.0875" lon="-0.66546">
        <ele>-16.05</ele>
        <time>2017-03-18T11:17:18Z</time>
      </trkpt>
      <trkpt lat="45.08778" lon="-0.66559">
        <ele>-16.46</ele>
        <time>2017-03-18T11:17:26Z</time>
      </trkpt>
      <trkpt lat="45.08785" lon="-0.66563">
        <ele>-16.4</ele>
        <time>2017-03-18T11:17:28Z</time>
      </trkpt>
      <trkpt lat="45.08798" lon="-0.66569">
        <ele>-16.55</ele>
        <time>2017-03-18T11:17:32Z</time>
      </trkpt>
      <trkpt lat="45.08828" lon="-0.66583">
        <ele>-16.47</ele>
        <time>2017-03-18T11:17:40Z</time>
      </trkpt>
      <trkpt lat="45.08867" lon="-0.66598">
        <ele>-16.38</ele>
        <time>2017-03-18T11:17:50Z</time>
      </trkpt>
      <trkpt lat="45.08878" lon="-0.66603">
        <ele>-16.22</ele>
        <time>2017-03-18T11:17:53Z</time>
      </trkpt>
      <trkpt lat="45.08893" lon="-0.6661">
        <ele>-16.32</ele>
        <time>2017-03-18T11:17:57Z</time>
      </trkpt>
      <trkpt lat="45.08899" lon="-0.66613">
        <ele>-16.44</ele>
        <time>2017-03-18T11:17:59Z</time>
      </trkpt>
      <trkpt lat="45.08951" lon="-0.66636">
        <ele>-16.73</ele>
        <time>2017-03-18T11:18:13Z</time>
      </trkpt>
      <trkpt lat="45.08996" lon="-0.66657">
        <ele>-16.61</ele>
        <time>2017-03-18T11:18:25Z</time>
      </trkpt>
      <trkpt lat="45.09012" lon="-0.66664">
        <ele>-17.22</ele>
        <time>2017-03-18T11:18:29Z</time>
      </trkpt>
      <trkpt lat="45.09019" lon="-0.66667">
        <ele>-18.32</ele>
        <time>2017-03-18T11:18:31Z</time>
      </trkpt>
      <trkpt lat="45.09042" lon="-0.66676">
        <ele>-16.67</ele>
        <time>2017-03-18T11:18:37Z</time>
      </trkpt>
      <trkpt lat="45.0906" lon="-0.66683">
        <ele>-16.87</ele>
        <time>2017-03-18T11:18:42Z</time>
      </trkpt>
      <trkpt lat="45.09068" lon="-0.66686">
        <ele>-16.96</ele>
        <time>2017-03-18T11:18:44Z</time>
      </trkpt>
      <trkpt lat="45.09084" lon="-0.66693">
        <ele>-16.92</ele>
        <time>2017-03-18T11:18:48Z</time>
      </trkpt>
      <trkpt lat="45.09105" lon="-0.66701">
        <ele>-17.07</ele>
        <time>2017-03-18T11:18:54Z</time>
      </trkpt>
      <trkpt lat="45.09148" lon="-0.66716">
        <ele>-16.86</ele>
        <time>2017-03-18T11:19:05Z</time>
      </trkpt>
      <trkpt lat="45.09179" lon="-0.6673">
        <ele>-16.67</ele>
        <time>2017-03-18T11:19:14Z</time>
      </trkpt>
      <trkpt lat="45.09209" lon="-0.66744">
        <ele>-17.86</ele>
        <time>2017-03-18T11:19:22Z</time>
      </trkpt>
      <trkpt lat="45.09216" lon="-0.66748">
        <ele>-17.71</ele>
        <time>2017-03-18T11:19:24Z</time>
      </trkpt>
      <trkpt lat="45.09283" lon="-0.66776">
        <ele>-17.28</ele>
        <time>2017-03-18T11:19:42Z</time>
      </trkpt>
      <trkpt lat="45.09291" lon="-0.66779">
        <ele>-17.23</ele>
        <time>2017-03-18T11:19:44Z</time>
      </trkpt>
      <trkpt lat="45.09303" lon="-0.66782">
        <ele>-17.4</ele>
        <time>2017-03-18T11:19:47Z</time>
      </trkpt>
      <trkpt lat="45.09315" lon="-0.66784">
        <ele>-17.61</ele>
        <time>2017-03-18T11:19:51Z</time>
      </trkpt>
      <trkpt lat="45.09347" lon="-0.66786">
        <ele>-18.14</ele>
        <time>2017-03-18T11:20:01Z</time>
      </trkpt>
      <trkpt lat="45.09352" lon="-0.6679">
        <ele>-18</ele>
        <time>2017-03-18T11:20:03Z</time>
      </trkpt>
      <trkpt lat="45.09362" lon="-0.66825">
        <ele>-17.73</ele>
        <time>2017-03-18T11:20:15Z</time>
      </trkpt>
      <trkpt lat="45.0937" lon="-0.66848">
        <ele>-17.07</ele>
        <time>2017-03-18T11:20:22Z</time>
      </trkpt>
      <trkpt lat="45.09376" lon="-0.66866">
        <ele>-17.35</ele>
        <time>2017-03-18T11:20:27Z</time>
      </trkpt>
      <trkpt lat="45.09381" lon="-0.66886">
        <ele>-17.35</ele>
        <time>2017-03-18T11:20:32Z</time>
      </trkpt>
      <trkpt lat="45.09392" lon="-0.66927">
        <ele>-17.42</ele>
        <time>2017-03-18T11:20:42Z</time>
      </trkpt>
      <trkpt lat="45.09409" lon="-0.66979">
        <ele>-18.35</ele>
        <time>2017-03-18T11:20:54Z</time>
      </trkpt>
      <trkpt lat="45.09419" lon="-0.67008">
        <ele>-17.28</ele>
        <time>2017-03-18T11:21:01Z</time>
      </trkpt>
      <trkpt lat="45.09425" lon="-0.67028">
        <ele>-17.96</ele>
        <time>2017-03-18T11:21:06Z</time>
      </trkpt>
      <trkpt lat="45.09435" lon="-0.67063">
        <ele>-16.01</ele>
        <time>2017-03-18T11:21:15Z</time>
      </trkpt>
      <trkpt lat="45.09446" lon="-0.67109">
        <ele>-16.1</ele>
        <time>2017-03-18T11:21:26Z</time>
      </trkpt>
      <trkpt lat="45.09462" lon="-0.67166">
        <ele>-16.01</ele>
        <time>2017-03-18T11:21:40Z</time>
      </trkpt>
      <trkpt lat="45.09467" lon="-0.67184">
        <ele>-17.36</ele>
        <time>2017-03-18T11:21:45Z</time>
      </trkpt>
      <trkpt lat="45.09469" lon="-0.67191">
        <ele>-17.05</ele>
        <time>2017-03-18T11:21:47Z</time>
      </trkpt>
      <trkpt lat="45.09472" lon="-0.67202">
        <ele>-16.26</ele>
        <time>2017-03-18T11:21:50Z</time>
      </trkpt>
      <trkpt lat="45.09476" lon="-0.67225">
        <ele>-16.16</ele>
        <time>2017-03-18T11:21:56Z</time>
      </trkpt>
      <trkpt lat="45.0948" lon="-0.67246">
        <ele>-16.1</ele>
        <time>2017-03-18T11:22:01Z</time>
      </trkpt>
      <trkpt lat="45.09483" lon="-0.67263">
        <ele>-15.67</ele>
        <time>2017-03-18T11:22:05Z</time>
      </trkpt>
      <trkpt lat="45.0949" lon="-0.67293">
        <ele>-15.29</ele>
        <time>2017-03-18T11:22:12Z</time>
      </trkpt>
      <trkpt lat="45.09493" lon="-0.6732">
        <ele>-16.79</ele>
        <time>2017-03-18T11:22:18Z</time>
      </trkpt>
      <trkpt lat="45.09494" lon="-0.67329">
        <ele>-17.04</ele>
        <time>2017-03-18T11:22:20Z</time>
      </trkpt>
      <trkpt lat="45.09498" lon="-0.67367">
        <ele>-16.85</ele>
        <time>2017-03-18T11:22:28Z</time>
      </trkpt>
      <trkpt lat="45.095" lon="-0.67385">
        <ele>-16.59</ele>
        <time>2017-03-18T11:22:32Z</time>
      </trkpt>
      <trkpt lat="45.09502" lon="-0.67398">
        <ele>-18.11</ele>
        <time>2017-03-18T11:22:35Z</time>
      </trkpt>
      <trkpt lat="45.09505" lon="-0.67421">
        <ele>-16.2</ele>
        <time>2017-03-18T11:22:40Z</time>
      </trkpt>
      <trkpt lat="45.09506" lon="-0.67434">
        <ele>-15.97</ele>
        <time>2017-03-18T11:22:43Z</time>
      </trkpt>
      <trkpt lat="45.0951" lon="-0.6747">
        <ele>-15.86</ele>
        <time>2017-03-18T11:22:51Z</time>
      </trkpt>
      <trkpt lat="45.09517" lon="-0.67554">
        <ele>-16.69</ele>
        <time>2017-03-18T11:23:10Z</time>
      </trkpt>
      <trkpt lat="45.09517" lon="-0.67577">
        <ele>-16.72</ele>
        <time>2017-03-18T11:23:15Z</time>
      </trkpt>
      <trkpt lat="45.09533" lon="-0.6761">
        <ele>-17.36</ele>
        <time>2017-03-18T11:23:26Z</time>
      </trkpt>
      <trkpt lat="45.09561" lon="-0.67611">
        <ele>-16.73</ele>
        <time>2017-03-18T11:23:35Z</time>
      </trkpt>
      <trkpt lat="45.09571" lon="-0.67614">
        <ele>-16.73</ele>
        <time>2017-03-18T11:23:38Z</time>
      </trkpt>
      <trkpt lat="45.09609" lon="-0.67627">
        <ele>-16.66</ele>
        <time>2017-03-18T11:23:49Z</time>
      </trkpt>
      <trkpt lat="45.09663" lon="-0.6765">
        <ele>-16.71</ele>
        <time>2017-03-18T11:24:06Z</time>
      </trkpt>
      <trkpt lat="45.09722" lon="-0.67675">
        <ele>-16.45</ele>
        <time>2017-03-18T11:24:23Z</time>
      </trkpt>
      <trkpt lat="45.09766" lon="-0.677">
        <ele>-16.61</ele>
        <time>2017-03-18T11:24:35Z</time>
      </trkpt>
      <trkpt lat="45.09792" lon="-0.67715">
        <ele>-16.47</ele>
        <time>2017-03-18T11:24:43Z</time>
      </trkpt>
      <trkpt lat="45.09839" lon="-0.67746">
        <ele>-17.3</ele>
        <time>2017-03-18T11:24:56Z</time>
      </trkpt>
      <trkpt lat="45.09868" lon="-0.67764">
        <ele>-17.05</ele>
        <time>2017-03-18T11:25:04Z</time>
      </trkpt>
      <trkpt lat="45.09876" lon="-0.67767">
        <ele>-16.97</ele>
        <time>2017-03-18T11:25:06Z</time>
      </trkpt>
      <trkpt lat="45.09893" lon="-0.67776">
        <ele>-16.88</ele>
        <time>2017-03-18T11:25:11Z</time>
      </trkpt>
      <trkpt lat="45.09945" lon="-0.67808">
        <ele>-17.07</ele>
        <time>2017-03-18T11:25:28Z</time>
      </trkpt>
      <trkpt lat="45.09989" lon="-0.67839">
        <ele>-16.75</ele>
        <time>2017-03-18T11:25:43Z</time>
      </trkpt>
      <trkpt lat="45.09992" lon="-0.67842">
        <ele>-16.81</ele>
        <time>2017-03-18T11:25:44Z</time>
      </trkpt>
      <trkpt lat="45.10046" lon="-0.6788">
        <ele>-16.94</ele>
        <time>2017-03-18T11:26:02Z</time>
      </trkpt>
      <trkpt lat="45.10055" lon="-0.67887">
        <ele>-16.95</ele>
        <time>2017-03-18T11:26:05Z</time>
      </trkpt>
      <trkpt lat="45.10069" lon="-0.67895">
        <ele>-17.21</ele>
        <time>2017-03-18T11:26:09Z</time>
      </trkpt>
      <trkpt lat="45.10122" lon="-0.67923">
        <ele>-17.04</ele>
        <time>2017-03-18T11:26:27Z</time>
      </trkpt>
      <trkpt lat="45.10161" lon="-0.67939">
        <ele>-16</ele>
        <time>2017-03-18T11:26:38Z</time>
      </trkpt>
      <trkpt lat="45.10209" lon="-0.67966">
        <ele>-16.75</ele>
        <time>2017-03-18T11:26:52Z</time>
      </trkpt>
      <trkpt lat="45.10219" lon="-0.67972">
        <ele>-16.68</ele>
        <time>2017-03-18T11:26:55Z</time>
      </trkpt>
      <trkpt lat="45.10233" lon="-0.67982">
        <ele>-16.74</ele>
        <time>2017-03-18T11:27:00Z</time>
      </trkpt>
      <trkpt lat="45.10256" lon="-0.67996">
        <ele>-16.45</ele>
        <time>2017-03-18T11:27:07Z</time>
      </trkpt>
      <trkpt lat="45.10281" lon="-0.68016">
        <ele>-16.41</ele>
        <time>2017-03-18T11:27:15Z</time>
      </trkpt>
      <trkpt lat="45.10298" lon="-0.68028">
        <ele>-15.93</ele>
        <time>2017-03-18T11:27:20Z</time>
      </trkpt>
      <trkpt lat="45.10351" lon="-0.68075">
        <ele>-16.32</ele>
        <time>2017-03-18T11:27:38Z</time>
      </trkpt>
      <trkpt lat="45.10362" lon="-0.68085">
        <ele>-16.31</ele>
        <time>2017-03-18T11:27:42Z</time>
      </trkpt>
      <trkpt lat="45.10376" lon="-0.68098">
        <ele>-16.15</ele>
        <time>2017-03-18T11:27:46Z</time>
      </trkpt>
      <trkpt lat="45.10423" lon="-0.68147">
        <ele>-16.3</ele>
        <time>2017-03-18T11:28:03Z</time>
      </trkpt>
      <trkpt lat="45.10474" lon="-0.68198">
        <ele>-16.44</ele>
        <time>2017-03-18T11:28:21Z</time>
      </trkpt>
      <trkpt lat="45.1051" lon="-0.68236">
        <ele>-16.48</ele>
        <time>2017-03-18T11:28:35Z</time>
      </trkpt>
      <trkpt lat="45.10571" lon="-0.68293">
        <ele>-16.27</ele>
        <time>2017-03-18T11:28:54Z</time>
      </trkpt>
      <trkpt lat="45.10625" lon="-0.68345">
        <ele>-16.6</ele>
        <time>2017-03-18T11:29:12Z</time>
      </trkpt>
      <trkpt lat="45.10677" lon="-0.68391">
        <ele>-16.55</ele>
        <time>2017-03-18T11:29:29Z</time>
      </trkpt>
      <trkpt lat="45.10725" lon="-0.68435">
        <ele>-16.44</ele>
        <time>2017-03-18T11:29:44Z</time>
      </trkpt>
      <trkpt lat="45.10775" lon="-0.6848">
        <ele>-16.93</ele>
        <time>2017-03-18T11:30:01Z</time>
      </trkpt>
      <trkpt lat="45.10826" lon="-0.68513">
        <ele>-16.83</ele>
        <time>2017-03-18T11:30:18Z</time>
      </trkpt>
      <trkpt lat="45.10874" lon="-0.68547">
        <ele>-17.04</ele>
        <time>2017-03-18T11:30:37Z</time>
      </trkpt>
      <trkpt lat="45.10913" lon="-0.68567">
        <ele>-17.04</ele>
        <time>2017-03-18T11:30:53Z</time>
      </trkpt>
      <trkpt lat="45.10931" lon="-0.68582">
        <ele>-17.11</ele>
        <time>2017-03-18T11:31:04Z</time>
      </trkpt>
      <trkpt lat="45.10976" lon="-0.6859">
        <ele>-16.87</ele>
        <time>2017-03-18T11:31:19Z</time>
      </trkpt>
      <trkpt lat="45.11033" lon="-0.68608">
        <ele>-16.66</ele>
        <time>2017-03-18T11:31:38Z</time>
      </trkpt>
      <trkpt lat="45.11077" lon="-0.68625">
        <ele>-16.85</ele>
        <time>2017-03-18T11:31:52Z</time>
      </trkpt>
      <trkpt lat="45.11089" lon="-0.68628">
        <ele>-16.96</ele>
        <time>2017-03-18T11:31:56Z</time>
      </trkpt>
      <trkpt lat="45.11102" lon="-0.68633">
        <ele>-16.74</ele>
        <time>2017-03-18T11:32:00Z</time>
      </trkpt>
      <trkpt lat="45.11145" lon="-0.68637">
        <ele>-16.44</ele>
        <time>2017-03-18T11:32:13Z</time>
      </trkpt>
      <trkpt lat="45.11158" lon="-0.6864">
        <ele>-16.61</ele>
        <time>2017-03-18T11:32:17Z</time>
      </trkpt>
      <trkpt lat="45.11179" lon="-0.68643">
        <ele>-16.81</ele>
        <time>2017-03-18T11:32:24Z</time>
      </trkpt>
      <trkpt lat="45.11237" lon="-0.68658">
        <ele>-16.52</ele>
        <time>2017-03-18T11:32:45Z</time>
      </trkpt>
      <trkpt lat="45.11259" lon="-0.68657">
        <ele>-16.66</ele>
        <time>2017-03-18T11:32:50Z</time>
      </trkpt>
      <trkpt lat="45.11273" lon="-0.68659">
        <ele>-17.24</ele>
        <time>2017-03-18T11:32:55Z</time>
      </trkpt>
      <trkpt lat="45.11292" lon="-0.68662">
        <ele>-17.35</ele>
        <time>2017-03-18T11:33:02Z</time>
      </trkpt>
      <trkpt lat="45.11301" lon="-0.68672">
        <ele>-16.92</ele>
        <time>2017-03-18T11:33:07Z</time>
      </trkpt>
      <trkpt lat="45.11303" lon="-0.6869">
        <ele>-16.86</ele>
        <time>2017-03-18T11:33:14Z</time>
      </trkpt>
      <trkpt lat="45.11303" lon="-0.68707">
        <ele>-16.75</ele>
        <time>2017-03-18T11:33:19Z</time>
      </trkpt>
      <trkpt lat="45.11305" lon="-0.68719">
        <ele>-16.96</ele>
        <time>2017-03-18T11:33:22Z</time>
      </trkpt>
      <trkpt lat="45.1131" lon="-0.68759">
        <ele>-16.48</ele>
        <time>2017-03-18T11:33:32Z</time>
      </trkpt>
      <trkpt lat="45.11313" lon="-0.68788">
        <ele>-15.82</ele>
        <time>2017-03-18T11:33:39Z</time>
      </trkpt>
      <trkpt lat="45.11319" lon="-0.68837">
        <ele>-15.82</ele>
        <time>2017-03-18T11:33:51Z</time>
      </trkpt>
      <trkpt lat="45.11321" lon="-0.68855">
        <ele>-16.12</ele>
        <time>2017-03-18T11:33:56Z</time>
      </trkpt>
      <trkpt lat="45.11321" lon="-0.68861">
        <ele>-15.98</ele>
        <time>2017-03-18T11:33:58Z</time>
      </trkpt>
      <trkpt lat="45.11323" lon="-0.68882">
        <ele>-15.6</ele>
        <time>2017-03-18T11:34:03Z</time>
      </trkpt>
      <trkpt lat="45.11328" lon="-0.68909">
        <ele>-15.77</ele>
        <time>2017-03-18T11:34:09Z</time>
      </trkpt>
      <trkpt lat="45.11334" lon="-0.68997">
        <ele>-15.69</ele>
        <time>2017-03-18T11:34:29Z</time>
      </trkpt>
      <trkpt lat="45.11341" lon="-0.69041">
        <ele>-16.22</ele>
        <time>2017-03-18T11:34:38Z</time>
      </trkpt>
      <trkpt lat="45.11347" lon="-0.69111">
        <ele>-16.1</ele>
        <time>2017-03-18T11:34:54Z</time>
      </trkpt>
      <trkpt lat="45.1135" lon="-0.69199">
        <ele>-16.04</ele>
        <time>2017-03-18T11:35:14Z</time>
      </trkpt>
      <trkpt lat="45.11355" lon="-0.69271">
        <ele>-15.84</ele>
        <time>2017-03-18T11:35:30Z</time>
      </trkpt>
      <trkpt lat="45.11362" lon="-0.69345">
        <ele>-16.12</ele>
        <time>2017-03-18T11:35:46Z</time>
      </trkpt>
      <trkpt lat="45.11369" lon="-0.69433">
        <ele>-16.3</ele>
        <time>2017-03-18T11:36:05Z</time>
      </trkpt>
      <trkpt lat="45.11364" lon="-0.69456">
        <ele>-16.1</ele>
        <time>2017-03-18T11:36:11Z</time>
      </trkpt>
      <trkpt lat="45.11363" lon="-0.69471">
        <ele>-16.27</ele>
        <time>2017-03-18T11:36:15Z</time>
      </trkpt>
      <trkpt lat="45.11366" lon="-0.69556">
        <ele>-16.25</ele>
        <time>2017-03-18T11:36:38Z</time>
      </trkpt>
      <trkpt lat="45.11369" lon="-0.69599">
        <ele>-16.29</ele>
        <time>2017-03-18T11:36:51Z</time>
      </trkpt>
      <trkpt lat="45.11361" lon="-0.69633">
        <ele>-16.48</ele>
        <time>2017-03-18T11:37:02Z</time>
      </trkpt>
      <trkpt lat="45.11362" lon="-0.69652">
        <ele>-16.51</ele>
        <time>2017-03-18T11:37:07Z</time>
      </trkpt>
      <trkpt lat="45.11362" lon="-0.69666">
        <ele>-16.28</ele>
        <time>2017-03-18T11:37:11Z</time>
      </trkpt>
      <trkpt lat="45.11362" lon="-0.69674">
        <ele>-16.21</ele>
        <time>2017-03-18T11:37:13Z</time>
      </trkpt>
      <trkpt lat="45.11362" lon="-0.69707">
        <ele>-16.31</ele>
        <time>2017-03-18T11:37:22Z</time>
      </trkpt>
      <trkpt lat="45.1138" lon="-0.69732">
        <ele>-16.43</ele>
        <time>2017-03-18T11:37:33Z</time>
      </trkpt>
      <trkpt lat="45.11396" lon="-0.69719">
        <ele>-16.84</ele>
        <time>2017-03-18T11:37:42Z</time>
      </trkpt>
      <trkpt lat="45.1142" lon="-0.69712">
        <ele>-16.47</ele>
        <time>2017-03-18T11:37:53Z</time>
      </trkpt>
      <trkpt lat="45.11448" lon="-0.69711">
        <ele>-15.9</ele>
        <time>2017-03-18T11:38:03Z</time>
      </trkpt>
      <trkpt lat="45.11473" lon="-0.69722">
        <ele>-15.5</ele>
        <time>2017-03-18T11:38:11Z</time>
      </trkpt>
      <trkpt lat="45.11531" lon="-0.69768">
        <ele>-16.14</ele>
        <time>2017-03-18T11:38:30Z</time>
      </trkpt>
      <trkpt lat="45.11577" lon="-0.6979">
        <ele>-16.03</ele>
        <time>2017-03-18T11:38:44Z</time>
      </trkpt>
      <trkpt lat="45.11642" lon="-0.69826">
        <ele>-15.68</ele>
        <time>2017-03-18T11:39:04Z</time>
      </trkpt>
      <trkpt lat="45.11688" lon="-0.69855">
        <ele>-15.8</ele>
        <time>2017-03-18T11:39:18Z</time>
      </trkpt>
      <trkpt lat="45.11704" lon="-0.69865">
        <ele>-15.4</ele>
        <time>2017-03-18T11:39:22Z</time>
      </trkpt>
      <trkpt lat="45.11767" lon="-0.69899">
        <ele>-15.47</ele>
        <time>2017-03-18T11:39:40Z</time>
      </trkpt>
      <trkpt lat="45.11817" lon="-0.69925">
        <ele>-15.62</ele>
        <time>2017-03-18T11:39:55Z</time>
      </trkpt>
      <trkpt lat="45.11884" lon="-0.69956">
        <ele>-15.9</ele>
        <time>2017-03-18T11:40:14Z</time>
      </trkpt>
      <trkpt lat="45.11952" lon="-0.69992">
        <ele>-16.01</ele>
        <time>2017-03-18T11:40:33Z</time>
      </trkpt>
      <trkpt lat="45.12012" lon="-0.70021">
        <ele>-15.2</ele>
        <time>2017-03-18T11:40:50Z</time>
      </trkpt>
      <trkpt lat="45.12024" lon="-0.70026">
        <ele>-14.77</ele>
        <time>2017-03-18T11:40:54Z</time>
      </trkpt>
      <trkpt lat="45.12092" lon="-0.70071">
        <ele>-15.77</ele>
        <time>2017-03-18T11:41:15Z</time>
      </trkpt>
      <trkpt lat="45.12148" lon="-0.70104">
        <ele>-16.41</ele>
        <time>2017-03-18T11:41:32Z</time>
      </trkpt>
      <trkpt lat="45.12209" lon="-0.70138">
        <ele>-16.66</ele>
        <time>2017-03-18T11:41:51Z</time>
      </trkpt>
      <trkpt lat="45.12216" lon="-0.70138">
        <ele>-16.56</ele>
        <time>2017-03-18T11:41:53Z</time>
      </trkpt>
      <trkpt lat="45.12276" lon="-0.70172">
        <ele>-15.47</ele>
        <time>2017-03-18T11:42:12Z</time>
      </trkpt>
      <trkpt lat="45.12336" lon="-0.70218">
        <ele>-15.89</ele>
        <time>2017-03-18T11:42:30Z</time>
      </trkpt>
      <trkpt lat="45.1239" lon="-0.70257">
        <ele>-15.9</ele>
        <time>2017-03-18T11:42:47Z</time>
      </trkpt>
      <trkpt lat="45.12396" lon="-0.70259">
        <ele>-15.95</ele>
        <time>2017-03-18T11:42:49Z</time>
      </trkpt>
      <trkpt lat="45.12435" lon="-0.70273">
        <ele>-16.22</ele>
        <time>2017-03-18T11:43:00Z</time>
      </trkpt>
      <trkpt lat="45.12438" lon="-0.70274">
        <ele>-16.2</ele>
        <time>2017-03-18T11:43:01Z</time>
      </trkpt>
      <trkpt lat="45.12445" lon="-0.70278">
        <ele>-16.18</ele>
        <time>2017-03-18T11:43:03Z</time>
      </trkpt>
      <trkpt lat="45.12458" lon="-0.70284">
        <ele>-16.16</ele>
        <time>2017-03-18T11:43:07Z</time>
      </trkpt>
      <trkpt lat="45.12482" lon="-0.70295">
        <ele>-16.46</ele>
        <time>2017-03-18T11:43:14Z</time>
      </trkpt>
      <trkpt lat="45.12509" lon="-0.70303">
        <ele>-16.38</ele>
        <time>2017-03-18T11:43:22Z</time>
      </trkpt>
      <trkpt lat="45.12566" lon="-0.70319">
        <ele>-16.42</ele>
        <time>2017-03-18T11:43:41Z</time>
      </trkpt>
      <trkpt lat="45.12582" lon="-0.70325">
        <ele>-16.34</ele>
        <time>2017-03-18T11:43:47Z</time>
      </trkpt>
      <trkpt lat="45.12621" lon="-0.70338">
        <ele>-16.27</ele>
        <time>2017-03-18T11:44:02Z</time>
      </trkpt>
      <trkpt lat="45.12658" lon="-0.7035">
        <ele>-16.39</ele>
        <time>2017-03-18T11:44:16Z</time>
      </trkpt>
      <trkpt lat="45.12666" lon="-0.70353">
        <ele>-16.61</ele>
        <time>2017-03-18T11:44:19Z</time>
      </trkpt>
      <trkpt lat="45.12677" lon="-0.70356">
        <ele>-16.31</ele>
        <time>2017-03-18T11:44:23Z</time>
      </trkpt>
      <trkpt lat="45.12702" lon="-0.70364">
        <ele>-16.24</ele>
        <time>2017-03-18T11:44:32Z</time>
      </trkpt>
      <trkpt lat="45.12713" lon="-0.70368">
        <ele>-16.1</ele>
        <time>2017-03-18T11:44:36Z</time>
      </trkpt>
      <trkpt lat="45.12719" lon="-0.70369">
        <ele>-16.12</ele>
        <time>2017-03-18T11:44:38Z</time>
      </trkpt>
      <trkpt lat="45.12766" lon="-0.70382">
        <ele>-15.87</ele>
        <time>2017-03-18T11:44:52Z</time>
      </trkpt>
      <trkpt lat="45.1277" lon="-0.70382">
        <ele>-15.82</ele>
        <time>2017-03-18T11:44:53Z</time>
      </trkpt>
      <trkpt lat="45.12811" lon="-0.70392">
        <ele>-15.55</ele>
        <time>2017-03-18T11:45:04Z</time>
      </trkpt>
      <trkpt lat="45.12874" lon="-0.70414">
        <ele>-15.96</ele>
        <time>2017-03-18T11:45:23Z</time>
      </trkpt>
      <trkpt lat="45.12884" lon="-0.70418">
        <ele>-15.94</ele>
        <time>2017-03-18T11:45:26Z</time>
      </trkpt>
      <trkpt lat="45.129" lon="-0.70422">
        <ele>-15.86</ele>
        <time>2017-03-18T11:45:30Z</time>
      </trkpt>
      <trkpt lat="45.12914" lon="-0.70426">
        <ele>-15.85</ele>
        <time>2017-03-18T11:45:34Z</time>
      </trkpt>
      <trkpt lat="45.12921" lon="-0.70429">
        <ele>-15.69</ele>
        <time>2017-03-18T11:45:36Z</time>
      </trkpt>
      <trkpt lat="45.12936" lon="-0.70431">
        <ele>-15.56</ele>
        <time>2017-03-18T11:45:40Z</time>
      </trkpt>
      <trkpt lat="45.12999" lon="-0.70456">
        <ele>-15.79</ele>
        <time>2017-03-18T11:45:57Z</time>
      </trkpt>
      <trkpt lat="45.13035" lon="-0.70465">
        <ele>-15.88</ele>
        <time>2017-03-18T11:46:06Z</time>
      </trkpt>
      <trkpt lat="45.13046" lon="-0.70464">
        <ele>-15.8</ele>
        <time>2017-03-18T11:46:11Z</time>
      </trkpt>
      <trkpt lat="45.13112" lon="-0.70493">
        <ele>-15.58</ele>
        <time>2017-03-18T11:46:31Z</time>
      </trkpt>
      <trkpt lat="45.13169" lon="-0.70513">
        <ele>-15.52</ele>
        <time>2017-03-18T11:46:46Z</time>
      </trkpt>
      <trkpt lat="45.13184" lon="-0.70521">
        <ele>-15.47</ele>
        <time>2017-03-18T11:46:50Z</time>
      </trkpt>
      <trkpt lat="45.13265" lon="-0.70538">
        <ele>-15.25</ele>
        <time>2017-03-18T11:47:11Z</time>
      </trkpt>
      <trkpt lat="45.13291" lon="-0.70544">
        <ele>-15.15</ele>
        <time>2017-03-18T11:47:18Z</time>
      </trkpt>
      <trkpt lat="45.13338" lon="-0.7056">
        <ele>-15.46</ele>
        <time>2017-03-18T11:47:30Z</time>
      </trkpt>
      <trkpt lat="45.13375" lon="-0.70576">
        <ele>-15.26</ele>
        <time>2017-03-18T11:47:40Z</time>
      </trkpt>
      <trkpt lat="45.13409" lon="-0.70589">
        <ele>-14.99</ele>
        <time>2017-03-18T11:47:49Z</time>
      </trkpt>
      <trkpt lat="45.13453" lon="-0.70604">
        <ele>-15</ele>
        <time>2017-03-18T11:48:01Z</time>
      </trkpt>
      <trkpt lat="45.13511" lon="-0.70623">
        <ele>-15.68</ele>
        <time>2017-03-18T11:48:18Z</time>
      </trkpt>
      <trkpt lat="45.13541" lon="-0.70632">
        <ele>-15.52</ele>
        <time>2017-03-18T11:48:27Z</time>
      </trkpt>
      <trkpt lat="45.13562" lon="-0.70639">
        <ele>-15.25</ele>
        <time>2017-03-18T11:48:34Z</time>
      </trkpt>
      <trkpt lat="45.13571" lon="-0.70641">
        <ele>-15.25</ele>
        <time>2017-03-18T11:48:37Z</time>
      </trkpt>
      <trkpt lat="45.13602" lon="-0.70653">
        <ele>-14.59</ele>
        <time>2017-03-18T11:48:48Z</time>
      </trkpt>
      <trkpt lat="45.13658" lon="-0.70666">
        <ele>-15.93</ele>
        <time>2017-03-18T11:49:05Z</time>
      </trkpt>
      <trkpt lat="45.13677" lon="-0.70672">
        <ele>-14.99</ele>
        <time>2017-03-18T11:49:11Z</time>
      </trkpt>
      <trkpt lat="45.13717" lon="-0.70684">
        <ele>-15.46</ele>
        <time>2017-03-18T11:49:23Z</time>
      </trkpt>
      <trkpt lat="45.13774" lon="-0.70702">
        <ele>-15.32</ele>
        <time>2017-03-18T11:49:40Z</time>
      </trkpt>
      <trkpt lat="45.13836" lon="-0.70719">
        <ele>-15.63</ele>
        <time>2017-03-18T11:49:58Z</time>
      </trkpt>
      <trkpt lat="45.139" lon="-0.70737">
        <ele>-15.51</ele>
        <time>2017-03-18T11:50:17Z</time>
      </trkpt>
      <trkpt lat="45.13919" lon="-0.70745">
        <ele>-15.57</ele>
        <time>2017-03-18T11:50:23Z</time>
      </trkpt>
      <trkpt lat="45.13937" lon="-0.70751">
        <ele>-15.46</ele>
        <time>2017-03-18T11:50:29Z</time>
      </trkpt>
      <trkpt lat="45.13993" lon="-0.70771">
        <ele>-15.26</ele>
        <time>2017-03-18T11:50:48Z</time>
      </trkpt>
      <trkpt lat="45.14007" lon="-0.70773">
        <ele>-15.27</ele>
        <time>2017-03-18T11:50:52Z</time>
      </trkpt>
      <trkpt lat="45.14062" lon="-0.70791">
        <ele>-14.71</ele>
        <time>2017-03-18T11:51:11Z</time>
      </trkpt>
      <trkpt lat="45.14133" lon="-0.70818">
        <ele>-14.9</ele>
        <time>2017-03-18T11:51:30Z</time>
      </trkpt>
      <trkpt lat="45.14146" lon="-0.70823">
        <ele>-15.06</ele>
        <time>2017-03-18T11:51:33Z</time>
      </trkpt>
      <trkpt lat="45.14165" lon="-0.7083">
        <ele>-15.27</ele>
        <time>2017-03-18T11:51:38Z</time>
      </trkpt>
      <trkpt lat="45.14226" lon="-0.70852">
        <ele>-15.33</ele>
        <time>2017-03-18T11:51:54Z</time>
      </trkpt>
      <trkpt lat="45.14238" lon="-0.70857">
        <ele>-15.22</ele>
        <time>2017-03-18T11:51:57Z</time>
      </trkpt>
      <trkpt lat="45.14286" lon="-0.70874">
        <ele>-15.09</ele>
        <time>2017-03-18T11:52:09Z</time>
      </trkpt>
      <trkpt lat="45.14305" lon="-0.70882">
        <ele>-14.97</ele>
        <time>2017-03-18T11:52:14Z</time>
      </trkpt>
      <trkpt lat="45.14325" lon="-0.7089">
        <ele>-15.2</ele>
        <time>2017-03-18T11:52:19Z</time>
      </trkpt>
      <trkpt lat="45.14359" lon="-0.70906">
        <ele>-15.15</ele>
        <time>2017-03-18T11:52:28Z</time>
      </trkpt>
      <trkpt lat="45.14371" lon="-0.7091">
        <ele>-14.85</ele>
        <time>2017-03-18T11:52:31Z</time>
      </trkpt>
      <trkpt lat="45.14441" lon="-0.70937">
        <ele>-15.19</ele>
        <time>2017-03-18T11:52:49Z</time>
      </trkpt>
      <trkpt lat="45.14514" lon="-0.70958">
        <ele>-15.26</ele>
        <time>2017-03-18T11:53:06Z</time>
      </trkpt>
      <trkpt lat="45.14579" lon="-0.70986">
        <ele>-14.48</ele>
        <time>2017-03-18T11:53:22Z</time>
      </trkpt>
      <trkpt lat="45.14647" lon="-0.7101">
        <ele>-14.99</ele>
        <time>2017-03-18T11:53:38Z</time>
      </trkpt>
      <trkpt lat="45.14715" lon="-0.71035">
        <ele>-15.61</ele>
        <time>2017-03-18T11:53:54Z</time>
      </trkpt>
      <trkpt lat="45.14776" lon="-0.71061">
        <ele>-15.27</ele>
        <time>2017-03-18T11:54:09Z</time>
      </trkpt>
      <trkpt lat="45.14844" lon="-0.71087">
        <ele>-15.42</ele>
        <time>2017-03-18T11:54:25Z</time>
      </trkpt>
      <trkpt lat="45.14869" lon="-0.71096">
        <ele>-15.4</ele>
        <time>2017-03-18T11:54:31Z</time>
      </trkpt>
      <trkpt lat="45.14891" lon="-0.71103">
        <ele>-15.44</ele>
        <time>2017-03-18T11:54:36Z</time>
      </trkpt>
      <trkpt lat="45.14925" lon="-0.71114">
        <ele>-15.5</ele>
        <time>2017-03-18T11:54:44Z</time>
      </trkpt>
      <trkpt lat="45.14946" lon="-0.71121">
        <ele>-15.42</ele>
        <time>2017-03-18T11:54:49Z</time>
      </trkpt>
      <trkpt lat="45.14991" lon="-0.71136">
        <ele>-16.02</ele>
        <time>2017-03-18T11:55:00Z</time>
      </trkpt>
      <trkpt lat="45.15007" lon="-0.71139">
        <ele>-15.7</ele>
        <time>2017-03-18T11:55:04Z</time>
      </trkpt>
      <trkpt lat="45.15026" lon="-0.71146">
        <ele>-15.73</ele>
        <time>2017-03-18T11:55:09Z</time>
      </trkpt>
      <trkpt lat="45.15073" lon="-0.71159">
        <ele>-15.62</ele>
        <time>2017-03-18T11:55:22Z</time>
      </trkpt>
      <trkpt lat="45.15103" lon="-0.71168">
        <ele>-15.61</ele>
        <time>2017-03-18T11:55:31Z</time>
      </trkpt>
      <trkpt lat="45.15111" lon="-0.7117">
        <ele>-15.76</ele>
        <time>2017-03-18T11:55:33Z</time>
      </trkpt>
      <trkpt lat="45.15169" lon="-0.71192">
        <ele>-15.41</ele>
        <time>2017-03-18T11:55:49Z</time>
      </trkpt>
      <trkpt lat="45.15205" lon="-0.71204">
        <ele>-15.46</ele>
        <time>2017-03-18T11:55:58Z</time>
      </trkpt>
      <trkpt lat="45.15226" lon="-0.71211">
        <ele>-15.76</ele>
        <time>2017-03-18T11:56:03Z</time>
      </trkpt>
      <trkpt lat="45.15268" lon="-0.71224">
        <ele>-15.29</ele>
        <time>2017-03-18T11:56:15Z</time>
      </trkpt>
      <trkpt lat="45.15281" lon="-0.71229">
        <ele>-15.54</ele>
        <time>2017-03-18T11:56:19Z</time>
      </trkpt>
      <trkpt lat="45.15347" lon="-0.7125">
        <ele>-15.5</ele>
        <time>2017-03-18T11:56:38Z</time>
      </trkpt>
      <trkpt lat="45.15357" lon="-0.71253">
        <ele>-15.43</ele>
        <time>2017-03-18T11:56:41Z</time>
      </trkpt>
      <trkpt lat="45.15402" lon="-0.71269">
        <ele>-15.3</ele>
        <time>2017-03-18T11:56:54Z</time>
      </trkpt>
      <trkpt lat="45.15479" lon="-0.71297">
        <ele>-15.22</ele>
        <time>2017-03-18T11:57:15Z</time>
      </trkpt>
      <trkpt lat="45.15546" lon="-0.71316">
        <ele>-14.85</ele>
        <time>2017-03-18T11:57:34Z</time>
      </trkpt>
      <trkpt lat="45.1561" lon="-0.71336">
        <ele>-14.97</ele>
        <time>2017-03-18T11:57:52Z</time>
      </trkpt>
      <trkpt lat="45.1563" lon="-0.71341">
        <ele>-14.81</ele>
        <time>2017-03-18T11:57:58Z</time>
      </trkpt>
      <trkpt lat="45.15642" lon="-0.71342">
        <ele>-14.79</ele>
        <time>2017-03-18T11:58:02Z</time>
      </trkpt>
      <trkpt lat="45.15666" lon="-0.7135">
        <ele>-15.05</ele>
        <time>2017-03-18T11:58:11Z</time>
      </trkpt>
      <trkpt lat="45.15732" lon="-0.71362">
        <ele>-14.84</ele>
        <time>2017-03-18T11:58:34Z</time>
      </trkpt>
      <trkpt lat="45.15749" lon="-0.71366">
        <ele>-14.74</ele>
        <time>2017-03-18T11:58:39Z</time>
      </trkpt>
      <trkpt lat="45.15811" lon="-0.71391">
        <ele>-14.64</ele>
        <time>2017-03-18T11:58:57Z</time>
      </trkpt>
      <trkpt lat="45.15822" lon="-0.71389">
        <ele>-14.87</ele>
        <time>2017-03-18T11:59:00Z</time>
      </trkpt>
      <trkpt lat="45.15899" lon="-0.71411">
        <ele>-14.82</ele>
        <time>2017-03-18T11:59:20Z</time>
      </trkpt>
      <trkpt lat="45.15938" lon="-0.71425">
        <ele>-15.6</ele>
        <time>2017-03-18T11:59:32Z</time>
      </trkpt>
      <trkpt lat="45.15942" lon="-0.71426">
        <ele>-15.41</ele>
        <time>2017-03-18T11:59:33Z</time>
      </trkpt>
      <trkpt lat="45.15957" lon="-0.71432">
        <ele>-15.03</ele>
        <time>2017-03-18T11:59:37Z</time>
      </trkpt>
      <trkpt lat="45.15976" lon="-0.71441">
        <ele>-15.08</ele>
        <time>2017-03-18T11:59:42Z</time>
      </trkpt>
      <trkpt lat="45.16028" lon="-0.71465">
        <ele>-14.73</ele>
        <time>2017-03-18T11:59:57Z</time>
      </trkpt>
      <trkpt lat="45.16055" lon="-0.71472">
        <ele>-14.76</ele>
        <time>2017-03-18T12:00:02Z</time>
      </trkpt>
      <trkpt lat="45.16092" lon="-0.71485">
        <ele>-14.23</ele>
        <time>2017-03-18T12:00:11Z</time>
      </trkpt>
      <trkpt lat="45.16128" lon="-0.71495">
        <ele>-14.73</ele>
        <time>2017-03-18T12:00:20Z</time>
      </trkpt>
      <trkpt lat="45.16158" lon="-0.71505">
        <ele>-14.33</ele>
        <time>2017-03-18T12:00:27Z</time>
      </trkpt>
      <trkpt lat="45.16194" lon="-0.7152">
        <ele>-13.73</ele>
        <time>2017-03-18T12:00:35Z</time>
      </trkpt>
      <trkpt lat="45.16223" lon="-0.71529">
        <ele>-14.06</ele>
        <time>2017-03-18T12:00:42Z</time>
      </trkpt>
      <trkpt lat="45.16248" lon="-0.71538">
        <ele>-13.98</ele>
        <time>2017-03-18T12:00:48Z</time>
      </trkpt>
      <trkpt lat="45.16303" lon="-0.7156">
        <ele>-13.73</ele>
        <time>2017-03-18T12:01:01Z</time>
      </trkpt>
      <trkpt lat="45.16323" lon="-0.71566">
        <ele>-14.23</ele>
        <time>2017-03-18T12:01:06Z</time>
      </trkpt>
      <trkpt lat="45.16336" lon="-0.71571">
        <ele>-14.26</ele>
        <time>2017-03-18T12:01:09Z</time>
      </trkpt>
      <trkpt lat="45.16344" lon="-0.71574">
        <ele>-14.11</ele>
        <time>2017-03-18T12:01:11Z</time>
      </trkpt>
      <trkpt lat="45.16364" lon="-0.7158">
        <ele>-13.32</ele>
        <time>2017-03-18T12:01:16Z</time>
      </trkpt>
      <trkpt lat="45.16425" lon="-0.71612">
        <ele>-13.61</ele>
        <time>2017-03-18T12:01:32Z</time>
      </trkpt>
      <trkpt lat="45.16459" lon="-0.71629">
        <ele>-13.77</ele>
        <time>2017-03-18T12:01:41Z</time>
      </trkpt>
      <trkpt lat="45.16544" lon="-0.71659">
        <ele>-13.87</ele>
        <time>2017-03-18T12:02:00Z</time>
      </trkpt>
      <trkpt lat="45.16624" lon="-0.71688">
        <ele>-14.12</ele>
        <time>2017-03-18T12:02:18Z</time>
      </trkpt>
      <trkpt lat="45.16637" lon="-0.71692">
        <ele>-14.03</ele>
        <time>2017-03-18T12:02:21Z</time>
      </trkpt>
      <trkpt lat="45.16667" lon="-0.71702">
        <ele>-14.27</ele>
        <time>2017-03-18T12:02:28Z</time>
      </trkpt>
      <trkpt lat="45.16692" lon="-0.71712">
        <ele>-14.37</ele>
        <time>2017-03-18T12:02:34Z</time>
      </trkpt>
      <trkpt lat="45.16724" lon="-0.71722">
        <ele>-14.48</ele>
        <time>2017-03-18T12:02:42Z</time>
      </trkpt>
      <trkpt lat="45.16747" lon="-0.71731">
        <ele>-14.26</ele>
        <time>2017-03-18T12:02:48Z</time>
      </trkpt>
      <trkpt lat="45.16781" lon="-0.71744">
        <ele>-14.68</ele>
        <time>2017-03-18T12:02:56Z</time>
      </trkpt>
      <trkpt lat="45.16818" lon="-0.71758">
        <ele>-14.51</ele>
        <time>2017-03-18T12:03:05Z</time>
      </trkpt>
      <trkpt lat="45.16853" lon="-0.71766">
        <ele>-14.04</ele>
        <time>2017-03-18T12:03:13Z</time>
      </trkpt>
      <trkpt lat="45.16921" lon="-0.71785">
        <ele>-13.97</ele>
        <time>2017-03-18T12:03:29Z</time>
      </trkpt>
      <trkpt lat="45.17017" lon="-0.71816">
        <ele>-14.2</ele>
        <time>2017-03-18T12:03:50Z</time>
      </trkpt>
      <trkpt lat="45.17049" lon="-0.71823">
        <ele>-14.4</ele>
        <time>2017-03-18T12:03:57Z</time>
      </trkpt>
      <trkpt lat="45.17084" lon="-0.71834">
        <ele>-14.51</ele>
        <time>2017-03-18T12:04:05Z</time>
      </trkpt>
      <trkpt lat="45.171" lon="-0.71839">
        <ele>-14.28</ele>
        <time>2017-03-18T12:04:09Z</time>
      </trkpt>
      <trkpt lat="45.17145" lon="-0.71859">
        <ele>-14.11</ele>
        <time>2017-03-18T12:04:20Z</time>
      </trkpt>
      <trkpt lat="45.17166" lon="-0.71868">
        <ele>-13.78</ele>
        <time>2017-03-18T12:04:25Z</time>
      </trkpt>
      <trkpt lat="45.17192" lon="-0.71878">
        <ele>-14.09</ele>
        <time>2017-03-18T12:04:31Z</time>
      </trkpt>
      <trkpt lat="45.172" lon="-0.71881">
        <ele>-14.12</ele>
        <time>2017-03-18T12:04:33Z</time>
      </trkpt>
      <trkpt lat="45.17217" lon="-0.71888">
        <ele>-14.35</ele>
        <time>2017-03-18T12:04:37Z</time>
      </trkpt>
      <trkpt lat="45.17314" lon="-0.71923">
        <ele>-14.71</ele>
        <time>2017-03-18T12:05:02Z</time>
      </trkpt>
      <trkpt lat="45.17341" lon="-0.71934">
        <ele>-14.84</ele>
        <time>2017-03-18T12:05:10Z</time>
      </trkpt>
      <trkpt lat="45.17411" lon="-0.71953">
        <ele>-14.72</ele>
        <time>2017-03-18T12:05:27Z</time>
      </trkpt>
      <trkpt lat="45.17443" lon="-0.71968">
        <ele>-14.72</ele>
        <time>2017-03-18T12:05:35Z</time>
      </trkpt>
      <trkpt lat="45.17455" lon="-0.71973">
        <ele>-15.13</ele>
        <time>2017-03-18T12:05:38Z</time>
      </trkpt>
      <trkpt lat="45.17463" lon="-0.71976">
        <ele>-15.39</ele>
        <time>2017-03-18T12:05:40Z</time>
      </trkpt>
      <trkpt lat="45.17484" lon="-0.71985">
        <ele>-14.79</ele>
        <time>2017-03-18T12:05:45Z</time>
      </trkpt>
      <trkpt lat="45.17548" lon="-0.72014">
        <ele>-14.16</ele>
        <time>2017-03-18T12:06:01Z</time>
      </trkpt>
      <trkpt lat="45.17635" lon="-0.72054">
        <ele>-13.86</ele>
        <time>2017-03-18T12:06:23Z</time>
      </trkpt>
      <trkpt lat="45.17642" lon="-0.72059">
        <ele>-14.05</ele>
        <time>2017-03-18T12:06:25Z</time>
      </trkpt>
      <trkpt lat="45.17659" lon="-0.72052">
        <ele>-14.71</ele>
        <time>2017-03-18T12:06:29Z</time>
      </trkpt>
      <trkpt lat="45.17667" lon="-0.72054">
        <ele>-15.02</ele>
        <time>2017-03-18T12:06:31Z</time>
      </trkpt>
      <trkpt lat="45.17746" lon="-0.7208">
        <ele>-14.24</ele>
        <time>2017-03-18T12:06:49Z</time>
      </trkpt>
      <trkpt lat="45.17828" lon="-0.72112">
        <ele>-14.09</ele>
        <time>2017-03-18T12:07:09Z</time>
      </trkpt>
      <trkpt lat="45.17871" lon="-0.7213">
        <ele>-14.33</ele>
        <time>2017-03-18T12:07:19Z</time>
      </trkpt>
      <trkpt lat="45.17892" lon="-0.72135">
        <ele>-14.29</ele>
        <time>2017-03-18T12:07:23Z</time>
      </trkpt>
      <trkpt lat="45.17916" lon="-0.72149">
        <ele>-14.77</ele>
        <time>2017-03-18T12:07:29Z</time>
      </trkpt>
      <trkpt lat="45.17933" lon="-0.72155">
        <ele>-14.71</ele>
        <time>2017-03-18T12:07:33Z</time>
      </trkpt>
      <trkpt lat="45.18001" lon="-0.72178">
        <ele>-14.69</ele>
        <time>2017-03-18T12:07:49Z</time>
      </trkpt>
      <trkpt lat="45.18071" lon="-0.72203">
        <ele>-15.02</ele>
        <time>2017-03-18T12:08:06Z</time>
      </trkpt>
      <trkpt lat="45.18113" lon="-0.72213">
        <ele>-14.5</ele>
        <time>2017-03-18T12:08:16Z</time>
      </trkpt>
      <trkpt lat="45.1813" lon="-0.72219">
        <ele>-14.4</ele>
        <time>2017-03-18T12:08:20Z</time>
      </trkpt>
      <trkpt lat="45.18138" lon="-0.72222">
        <ele>-14.74</ele>
        <time>2017-03-18T12:08:22Z</time>
      </trkpt>
      <trkpt lat="45.18165" lon="-0.7223">
        <ele>-14.75</ele>
        <time>2017-03-18T12:08:28Z</time>
      </trkpt>
      <trkpt lat="45.18216" lon="-0.72248">
        <ele>-14.83</ele>
        <time>2017-03-18T12:08:40Z</time>
      </trkpt>
      <trkpt lat="45.18239" lon="-0.72255">
        <ele>-14.45</ele>
        <time>2017-03-18T12:08:45Z</time>
      </trkpt>
      <trkpt lat="45.18278" lon="-0.7227">
        <ele>-15.19</ele>
        <time>2017-03-18T12:08:54Z</time>
      </trkpt>
      <trkpt lat="45.18282" lon="-0.72271">
        <ele>-15.09</ele>
        <time>2017-03-18T12:08:55Z</time>
      </trkpt>
      <trkpt lat="45.18352" lon="-0.72293">
        <ele>-14.77</ele>
        <time>2017-03-18T12:09:11Z</time>
      </trkpt>
      <trkpt lat="45.18422" lon="-0.72308">
        <ele>-14.67</ele>
        <time>2017-03-18T12:09:27Z</time>
      </trkpt>
      <trkpt lat="45.18458" lon="-0.72319">
        <ele>-15.1</ele>
        <time>2017-03-18T12:09:35Z</time>
      </trkpt>
      <trkpt lat="45.18522" lon="-0.72327">
        <ele>-14.99</ele>
        <time>2017-03-18T12:09:51Z</time>
      </trkpt>
      <trkpt lat="45.1858" lon="-0.72346">
        <ele>-14.71</ele>
        <time>2017-03-18T12:10:06Z</time>
      </trkpt>
      <trkpt lat="45.18596" lon="-0.72352">
        <ele>-14.65</ele>
        <time>2017-03-18T12:10:10Z</time>
      </trkpt>
      <trkpt lat="45.18621" lon="-0.72362">
        <ele>-14.29</ele>
        <time>2017-03-18T12:10:16Z</time>
      </trkpt>
      <trkpt lat="45.18643" lon="-0.72368">
        <ele>-14.15</ele>
        <time>2017-03-18T12:10:21Z</time>
      </trkpt>
      <trkpt lat="45.18656" lon="-0.72372">
        <ele>-14.04</ele>
        <time>2017-03-18T12:10:24Z</time>
      </trkpt>
      <trkpt lat="45.18705" lon="-0.72391">
        <ele>-14.58</ele>
        <time>2017-03-18T12:10:36Z</time>
      </trkpt>
      <trkpt lat="45.18721" lon="-0.72396">
        <ele>-14.83</ele>
        <time>2017-03-18T12:10:40Z</time>
      </trkpt>
      <trkpt lat="45.18736" lon="-0.72401">
        <ele>-14.98</ele>
        <time>2017-03-18T12:10:44Z</time>
      </trkpt>
      <trkpt lat="45.18779" lon="-0.72417">
        <ele>-15.26</ele>
        <time>2017-03-18T12:10:56Z</time>
      </trkpt>
      <trkpt lat="45.1885" lon="-0.72441">
        <ele>-14.46</ele>
        <time>2017-03-18T12:11:15Z</time>
      </trkpt>
      <trkpt lat="45.18896" lon="-0.72457">
        <ele>-14.65</ele>
        <time>2017-03-18T12:11:27Z</time>
      </trkpt>
      <trkpt lat="45.18956" lon="-0.72471">
        <ele>-15.3</ele>
        <time>2017-03-18T12:11:42Z</time>
      </trkpt>
      <trkpt lat="45.18978" lon="-0.72478">
        <ele>-15.4</ele>
        <time>2017-03-18T12:11:48Z</time>
      </trkpt>
      <trkpt lat="45.19003" lon="-0.72484">
        <ele>-15.43</ele>
        <time>2017-03-18T12:11:54Z</time>
      </trkpt>
      <trkpt lat="45.19042" lon="-0.725">
        <ele>-15.7</ele>
        <time>2017-03-18T12:12:05Z</time>
      </trkpt>
      <trkpt lat="45.19046" lon="-0.72501">
        <ele>-15.7</ele>
        <time>2017-03-18T12:12:06Z</time>
      </trkpt>
      <trkpt lat="45.19081" lon="-0.72518">
        <ele>-15.82</ele>
        <time>2017-03-18T12:12:16Z</time>
      </trkpt>
      <trkpt lat="45.19088" lon="-0.72521">
        <ele>-15.85</ele>
        <time>2017-03-18T12:12:18Z</time>
      </trkpt>
      <trkpt lat="45.19135" lon="-0.72539">
        <ele>-15.7</ele>
        <time>2017-03-18T12:12:31Z</time>
      </trkpt>
      <trkpt lat="45.19164" lon="-0.7255">
        <ele>-15.7</ele>
        <time>2017-03-18T12:12:39Z</time>
      </trkpt>
      <trkpt lat="45.19213" lon="-0.72567">
        <ele>-15.82</ele>
        <time>2017-03-18T12:12:52Z</time>
      </trkpt>
      <trkpt lat="45.19282" lon="-0.72587">
        <ele>-15.79</ele>
        <time>2017-03-18T12:13:11Z</time>
      </trkpt>
      <trkpt lat="45.19355" lon="-0.72612">
        <ele>-15.69</ele>
        <time>2017-03-18T12:13:33Z</time>
      </trkpt>
      <trkpt lat="45.1937" lon="-0.72616">
        <ele>-15.56</ele>
        <time>2017-03-18T12:13:38Z</time>
      </trkpt>
      <trkpt lat="45.19433" lon="-0.72626">
        <ele>-15.38</ele>
        <time>2017-03-18T12:13:57Z</time>
      </trkpt>
      <trkpt lat="45.19497" lon="-0.72643">
        <ele>-14.88</ele>
        <time>2017-03-18T12:14:13Z</time>
      </trkpt>
      <trkpt lat="45.19549" lon="-0.72663">
        <ele>-14.57</ele>
        <time>2017-03-18T12:14:26Z</time>
      </trkpt>
      <trkpt lat="45.19558" lon="-0.72666">
        <ele>-14.53</ele>
        <time>2017-03-18T12:14:28Z</time>
      </trkpt>
      <trkpt lat="45.19625" lon="-0.72683">
        <ele>-14.42</ele>
        <time>2017-03-18T12:14:44Z</time>
      </trkpt>
      <trkpt lat="45.19647" lon="-0.72688">
        <ele>-14.65</ele>
        <time>2017-03-18T12:14:49Z</time>
      </trkpt>
      <trkpt lat="45.19671" lon="-0.7269">
        <ele>-14.86</ele>
        <time>2017-03-18T12:14:54Z</time>
      </trkpt>
      <trkpt lat="45.19702" lon="-0.72695">
        <ele>-14.79</ele>
        <time>2017-03-18T12:15:01Z</time>
      </trkpt>
      <trkpt lat="45.19719" lon="-0.72699">
        <ele>-14.96</ele>
        <time>2017-03-18T12:15:05Z</time>
      </trkpt>
      <trkpt lat="45.19802" lon="-0.72722">
        <ele>-14.8</ele>
        <time>2017-03-18T12:15:25Z</time>
      </trkpt>
      <trkpt lat="45.19853" lon="-0.72738">
        <ele>-15.4</ele>
        <time>2017-03-18T12:15:37Z</time>
      </trkpt>
      <trkpt lat="45.1987" lon="-0.72741">
        <ele>-15.59</ele>
        <time>2017-03-18T12:15:41Z</time>
      </trkpt>
      <trkpt lat="45.19877" lon="-0.72743">
        <ele>-15.54</ele>
        <time>2017-03-18T12:15:43Z</time>
      </trkpt>
      <trkpt lat="45.19893" lon="-0.7275">
        <ele>-15.4</ele>
        <time>2017-03-18T12:15:47Z</time>
      </trkpt>
      <trkpt lat="45.1992" lon="-0.72759">
        <ele>-15.31</ele>
        <time>2017-03-18T12:15:54Z</time>
      </trkpt>
      <trkpt lat="45.19932" lon="-0.72767">
        <ele>-15.5</ele>
        <time>2017-03-18T12:15:58Z</time>
      </trkpt>
      <trkpt lat="45.19952" lon="-0.72777">
        <ele>-15.57</ele>
        <time>2017-03-18T12:16:03Z</time>
      </trkpt>
      <trkpt lat="45.19991" lon="-0.72799">
        <ele>-15.06</ele>
        <time>2017-03-18T12:16:13Z</time>
      </trkpt>
      <trkpt lat="45.20007" lon="-0.72807">
        <ele>-15.2</ele>
        <time>2017-03-18T12:16:17Z</time>
      </trkpt>
      <trkpt lat="45.20031" lon="-0.7282">
        <ele>-15.42</ele>
        <time>2017-03-18T12:16:23Z</time>
      </trkpt>
      <trkpt lat="45.20104" lon="-0.7286">
        <ele>-15.42</ele>
        <time>2017-03-18T12:16:43Z</time>
      </trkpt>
      <trkpt lat="45.20129" lon="-0.72872">
        <ele>-15.59</ele>
        <time>2017-03-18T12:16:50Z</time>
      </trkpt>
      <trkpt lat="45.20197" lon="-0.72911">
        <ele>-14.8</ele>
        <time>2017-03-18T12:17:08Z</time>
      </trkpt>
      <trkpt lat="45.20257" lon="-0.72951">
        <ele>-15.09</ele>
        <time>2017-03-18T12:17:25Z</time>
      </trkpt>
      <trkpt lat="45.2032" lon="-0.72989">
        <ele>-15.12</ele>
        <time>2017-03-18T12:17:43Z</time>
      </trkpt>
      <trkpt lat="45.20367" lon="-0.73019">
        <ele>-15.09</ele>
        <time>2017-03-18T12:17:58Z</time>
      </trkpt>
      <trkpt lat="45.20403" lon="-0.73037">
        <ele>-15.13</ele>
        <time>2017-03-18T12:18:09Z</time>
      </trkpt>
      <trkpt lat="45.20413" lon="-0.73043">
        <ele>-15.23</ele>
        <time>2017-03-18T12:18:12Z</time>
      </trkpt>
      <trkpt lat="45.20474" lon="-0.73075">
        <ele>-15.1</ele>
        <time>2017-03-18T12:18:33Z</time>
      </trkpt>
      <trkpt lat="45.2048" lon="-0.73078">
        <ele>-15.11</ele>
        <time>2017-03-18T12:18:35Z</time>
      </trkpt>
      <trkpt lat="45.20493" lon="-0.73082">
        <ele>-15.31</ele>
        <time>2017-03-18T12:18:39Z</time>
      </trkpt>
      <trkpt lat="45.20542" lon="-0.731">
        <ele>-15.16</ele>
        <time>2017-03-18T12:18:57Z</time>
      </trkpt>
      <trkpt lat="45.20587" lon="-0.73114">
        <ele>-15.19</ele>
        <time>2017-03-18T12:19:13Z</time>
      </trkpt>
      <trkpt lat="45.20597" lon="-0.73118">
        <ele>-15.11</ele>
        <time>2017-03-18T12:19:16Z</time>
      </trkpt>
      <trkpt lat="45.20608" lon="-0.73118">
        <ele>-15.02</ele>
        <time>2017-03-18T12:19:20Z</time>
      </trkpt>
      <trkpt lat="45.2063" lon="-0.73126">
        <ele>-15</ele>
        <time>2017-03-18T12:19:27Z</time>
      </trkpt>
      <trkpt lat="45.20683" lon="-0.73142">
        <ele>-15.21</ele>
        <time>2017-03-18T12:19:46Z</time>
      </trkpt>
      <trkpt lat="45.20704" lon="-0.73147">
        <ele>-15.12</ele>
        <time>2017-03-18T12:19:53Z</time>
      </trkpt>
      <trkpt lat="45.2073" lon="-0.73154">
        <ele>-15.39</ele>
        <time>2017-03-18T12:20:01Z</time>
      </trkpt>
      <trkpt lat="45.20759" lon="-0.73164">
        <ele>-14.96</ele>
        <time>2017-03-18T12:20:11Z</time>
      </trkpt>
      <trkpt lat="45.2079" lon="-0.73179">
        <ele>-15.01</ele>
        <time>2017-03-18T12:20:22Z</time>
      </trkpt>
      <trkpt lat="45.20801" lon="-0.73183">
        <ele>-15.15</ele>
        <time>2017-03-18T12:20:26Z</time>
      </trkpt>
      <trkpt lat="45.20822" lon="-0.73193">
        <ele>-15.16</ele>
        <time>2017-03-18T12:20:34Z</time>
      </trkpt>
      <trkpt lat="45.20848" lon="-0.73206">
        <ele>-15.13</ele>
        <time>2017-03-18T12:20:44Z</time>
      </trkpt>
      <trkpt lat="45.20867" lon="-0.73215">
        <ele>-15.3</ele>
        <time>2017-03-18T12:20:51Z</time>
      </trkpt>
      <trkpt lat="45.20882" lon="-0.73221">
        <ele>-14.95</ele>
        <time>2017-03-18T12:20:57Z</time>
      </trkpt>
      <trkpt lat="45.20945" lon="-0.7324">
        <ele>-15.08</ele>
        <time>2017-03-18T12:21:20Z</time>
      </trkpt>
      <trkpt lat="45.21013" lon="-0.73271">
        <ele>-15.08</ele>
        <time>2017-03-18T12:21:42Z</time>
      </trkpt>
      <trkpt lat="45.21064" lon="-0.73295">
        <ele>-15.13</ele>
        <time>2017-03-18T12:21:59Z</time>
      </trkpt>
      <trkpt lat="45.21108" lon="-0.73323">
        <ele>-15.19</ele>
        <time>2017-03-18T12:22:16Z</time>
      </trkpt>
      <trkpt lat="45.21168" lon="-0.73357">
        <ele>-15.32</ele>
        <time>2017-03-18T12:22:34Z</time>
      </trkpt>
      <trkpt lat="45.21245" lon="-0.73399">
        <ele>-15.19</ele>
        <time>2017-03-18T12:22:57Z</time>
      </trkpt>
      <trkpt lat="45.21304" lon="-0.73434">
        <ele>-14.67</ele>
        <time>2017-03-18T12:23:16Z</time>
      </trkpt>
      <trkpt lat="45.21368" lon="-0.73468">
        <ele>-14.61</ele>
        <time>2017-03-18T12:23:37Z</time>
      </trkpt>
      <trkpt lat="45.21419" lon="-0.73497">
        <ele>-14.16</ele>
        <time>2017-03-18T12:23:54Z</time>
      </trkpt>
      <trkpt lat="45.21455" lon="-0.73535">
        <ele>-13.68</ele>
        <time>2017-03-18T12:24:06Z</time>
      </trkpt>
      <trkpt lat="45.21486" lon="-0.73552">
        <ele>-13.18</ele>
        <time>2017-03-18T12:24:14Z</time>
      </trkpt>
      <trkpt lat="45.21509" lon="-0.73556">
        <ele>-13.03</ele>
        <time>2017-03-18T12:24:19Z</time>
      </trkpt>
      <trkpt lat="45.21535" lon="-0.73567">
        <ele>-12.9</ele>
        <time>2017-03-18T12:24:25Z</time>
      </trkpt>
      <trkpt lat="45.21566" lon="-0.73579">
        <ele>-12.68</ele>
        <time>2017-03-18T12:24:32Z</time>
      </trkpt>
      <trkpt lat="45.21614" lon="-0.73597">
        <ele>-12.43</ele>
        <time>2017-03-18T12:24:43Z</time>
      </trkpt>
      <trkpt lat="45.21693" lon="-0.73628">
        <ele>-13.06</ele>
        <time>2017-03-18T12:25:01Z</time>
      </trkpt>
      <trkpt lat="45.21702" lon="-0.73631">
        <ele>-13.04</ele>
        <time>2017-03-18T12:25:03Z</time>
      </trkpt>
      <trkpt lat="45.21724" lon="-0.73638">
        <ele>-13.09</ele>
        <time>2017-03-18T12:25:08Z</time>
      </trkpt>
      <trkpt lat="45.21742" lon="-0.73642">
        <ele>-12.66</ele>
        <time>2017-03-18T12:25:12Z</time>
      </trkpt>
      <trkpt lat="45.2175" lon="-0.73646">
        <ele>-12.63</ele>
        <time>2017-03-18T12:25:14Z</time>
      </trkpt>
      <trkpt lat="45.21758" lon="-0.73651">
        <ele>-13.07</ele>
        <time>2017-03-18T12:25:16Z</time>
      </trkpt>
      <trkpt lat="45.21767" lon="-0.73654">
        <ele>-13.94</ele>
        <time>2017-03-18T12:25:18Z</time>
      </trkpt>
      <trkpt lat="45.21789" lon="-0.73663">
        <ele>-13.59</ele>
        <time>2017-03-18T12:25:23Z</time>
      </trkpt>
      <trkpt lat="45.21865" lon="-0.73689">
        <ele>-13.05</ele>
        <time>2017-03-18T12:25:42Z</time>
      </trkpt>
      <trkpt lat="45.21943" lon="-0.73716">
        <ele>-13.56</ele>
        <time>2017-03-18T12:26:02Z</time>
      </trkpt>
      <trkpt lat="45.22022" lon="-0.73742">
        <ele>-13.54</ele>
        <time>2017-03-18T12:26:22Z</time>
      </trkpt>
      <trkpt lat="45.22102" lon="-0.73772">
        <ele>-13.22</ele>
        <time>2017-03-18T12:26:42Z</time>
      </trkpt>
      <trkpt lat="45.2218" lon="-0.73802">
        <ele>-13.44</ele>
        <time>2017-03-18T12:27:01Z</time>
      </trkpt>
      <trkpt lat="45.22225" lon="-0.73815">
        <ele>-13.73</ele>
        <time>2017-03-18T12:27:11Z</time>
      </trkpt>
      <trkpt lat="45.22244" lon="-0.7382">
        <ele>-13.71</ele>
        <time>2017-03-18T12:27:15Z</time>
      </trkpt>
      <trkpt lat="45.22271" lon="-0.73832">
        <ele>-13.89</ele>
        <time>2017-03-18T12:27:22Z</time>
      </trkpt>
      <trkpt lat="45.22279" lon="-0.73836">
        <ele>-13.99</ele>
        <time>2017-03-18T12:27:24Z</time>
      </trkpt>
      <trkpt lat="45.22311" lon="-0.7385">
        <ele>-14.02</ele>
        <time>2017-03-18T12:27:32Z</time>
      </trkpt>
      <trkpt lat="45.22391" lon="-0.73878">
        <ele>-14.31</ele>
        <time>2017-03-18T12:27:53Z</time>
      </trkpt>
      <trkpt lat="45.2245" lon="-0.73899">
        <ele>-14.2</ele>
        <time>2017-03-18T12:28:10Z</time>
      </trkpt>
      <trkpt lat="45.22512" lon="-0.73908">
        <ele>-14.02</ele>
        <time>2017-03-18T12:28:28Z</time>
      </trkpt>
      <trkpt lat="45.22582" lon="-0.73914">
        <ele>-13.85</ele>
        <time>2017-03-18T12:28:47Z</time>
      </trkpt>
      <trkpt lat="45.22607" lon="-0.73916">
        <ele>-14.09</ele>
        <time>2017-03-18T12:28:54Z</time>
      </trkpt>
      <trkpt lat="45.22623" lon="-0.73919">
        <ele>-14.77</ele>
        <time>2017-03-18T12:29:00Z</time>
      </trkpt>
      <trkpt lat="45.22653" lon="-0.73925">
        <ele>-13.93</ele>
        <time>2017-03-18T12:29:09Z</time>
      </trkpt>
      <trkpt lat="45.22731" lon="-0.73934">
        <ele>-14.08</ele>
        <time>2017-03-18T12:29:31Z</time>
      </trkpt>
      <trkpt lat="45.22742" lon="-0.73937">
        <ele>-14.05</ele>
        <time>2017-03-18T12:29:34Z</time>
      </trkpt>
      <trkpt lat="45.22758" lon="-0.7394">
        <ele>-14.17</ele>
        <time>2017-03-18T12:29:38Z</time>
      </trkpt>
      <trkpt lat="45.22766" lon="-0.73941">
        <ele>-14.14</ele>
        <time>2017-03-18T12:29:40Z</time>
      </trkpt>
      <trkpt lat="45.22783" lon="-0.73944">
        <ele>-14.08</ele>
        <time>2017-03-18T12:29:44Z</time>
      </trkpt>
      <trkpt lat="45.22854" lon="-0.73955">
        <ele>-14.04</ele>
        <time>2017-03-18T12:30:02Z</time>
      </trkpt>
      <trkpt lat="45.22865" lon="-0.73958">
        <ele>-13.88</ele>
        <time>2017-03-18T12:30:05Z</time>
      </trkpt>
      <trkpt lat="45.22882" lon="-0.73962">
        <ele>-13.81</ele>
        <time>2017-03-18T12:30:09Z</time>
      </trkpt>
      <trkpt lat="45.22915" lon="-0.73969">
        <ele>-14.08</ele>
        <time>2017-03-18T12:30:18Z</time>
      </trkpt>
      <trkpt lat="45.2294" lon="-0.73973">
        <ele>-14.02</ele>
        <time>2017-03-18T12:30:25Z</time>
      </trkpt>
      <trkpt lat="45.22961" lon="-0.73977">
        <ele>-14.54</ele>
        <time>2017-03-18T12:30:31Z</time>
      </trkpt>
      <trkpt lat="45.22979" lon="-0.73981">
        <ele>-14.33</ele>
        <time>2017-03-18T12:30:37Z</time>
      </trkpt>
      <trkpt lat="45.23027" lon="-0.73985">
        <ele>-14.35</ele>
        <time>2017-03-18T12:30:52Z</time>
      </trkpt>
      <trkpt lat="45.23033" lon="-0.73986">
        <ele>-14.33</ele>
        <time>2017-03-18T12:30:54Z</time>
      </trkpt>
      <trkpt lat="45.2304" lon="-0.73987">
        <ele>-14.25</ele>
        <time>2017-03-18T12:30:56Z</time>
      </trkpt>
      <trkpt lat="45.23069" lon="-0.73991">
        <ele>-13.89</ele>
        <time>2017-03-18T12:31:04Z</time>
      </trkpt>
      <trkpt lat="45.23091" lon="-0.73995">
        <ele>-14.13</ele>
        <time>2017-03-18T12:31:10Z</time>
      </trkpt>
      <trkpt lat="45.23108" lon="-0.73997">
        <ele>-14.24</ele>
        <time>2017-03-18T12:31:15Z</time>
      </trkpt>
      <trkpt lat="45.23165" lon="-0.74006">
        <ele>-14.01</ele>
        <time>2017-03-18T12:31:34Z</time>
      </trkpt>
      <trkpt lat="45.23209" lon="-0.74005">
        <ele>-13.76</ele>
        <time>2017-03-18T12:31:48Z</time>
      </trkpt>
      <trkpt lat="45.23229" lon="-0.74003">
        <ele>-13.38</ele>
        <time>2017-03-18T12:31:54Z</time>
      </trkpt>
      <trkpt lat="45.23245" lon="-0.74001">
        <ele>-12.93</ele>
        <time>2017-03-18T12:31:58Z</time>
      </trkpt>
      <trkpt lat="45.23258" lon="-0.73999">
        <ele>-12.67</ele>
        <time>2017-03-18T12:32:01Z</time>
      </trkpt>
      <trkpt lat="45.23275" lon="-0.73998">
        <ele>-12.05</ele>
        <time>2017-03-18T12:32:05Z</time>
      </trkpt>
      <trkpt lat="45.23297" lon="-0.73997">
        <ele>-12.14</ele>
        <time>2017-03-18T12:32:10Z</time>
      </trkpt>
      <trkpt lat="45.23315" lon="-0.73996">
        <ele>-12.4</ele>
        <time>2017-03-18T12:32:14Z</time>
      </trkpt>
      <trkpt lat="45.23329" lon="-0.73995">
        <ele>-12.54</ele>
        <time>2017-03-18T12:32:17Z</time>
      </trkpt>
      <trkpt lat="45.23339" lon="-0.73995">
        <ele>-12.68</ele>
        <time>2017-03-18T12:32:19Z</time>
      </trkpt>
      <trkpt lat="45.23363" lon="-0.73993">
        <ele>-12.64</ele>
        <time>2017-03-18T12:32:24Z</time>
      </trkpt>
      <trkpt lat="45.23377" lon="-0.73992">
        <ele>-12.63</ele>
        <time>2017-03-18T12:32:27Z</time>
      </trkpt>
      <trkpt lat="45.23395" lon="-0.73989">
        <ele>-12.63</ele>
        <time>2017-03-18T12:32:31Z</time>
      </trkpt>
      <trkpt lat="45.23424" lon="-0.73987">
        <ele>-12.85</ele>
        <time>2017-03-18T12:32:37Z</time>
      </trkpt>
      <trkpt lat="45.23438" lon="-0.73986">
        <ele>-13.1</ele>
        <time>2017-03-18T12:32:40Z</time>
      </trkpt>
      <trkpt lat="45.23452" lon="-0.73984">
        <ele>-13.26</ele>
        <time>2017-03-18T12:32:43Z</time>
      </trkpt>
      <trkpt lat="45.23474" lon="-0.73981">
        <ele>-13.72</ele>
        <time>2017-03-18T12:32:48Z</time>
      </trkpt>
      <trkpt lat="45.235" lon="-0.73979">
        <ele>-13.59</ele>
        <time>2017-03-18T12:32:54Z</time>
      </trkpt>
      <trkpt lat="45.2352" lon="-0.73977">
        <ele>-13.67</ele>
        <time>2017-03-18T12:32:59Z</time>
      </trkpt>
      <trkpt lat="45.23533" lon="-0.73976">
        <ele>-13.7</ele>
        <time>2017-03-18T12:33:02Z</time>
      </trkpt>
      <trkpt lat="45.23565" lon="-0.73973">
        <ele>-13.61</ele>
        <time>2017-03-18T12:33:10Z</time>
      </trkpt>
      <trkpt lat="45.23581" lon="-0.73974">
        <ele>-13.82</ele>
        <time>2017-03-18T12:33:14Z</time>
      </trkpt>
      <trkpt lat="45.2361" lon="-0.73975">
        <ele>-13.78</ele>
        <time>2017-03-18T12:33:21Z</time>
      </trkpt>
      <trkpt lat="45.23637" lon="-0.73973">
        <ele>-13.66</ele>
        <time>2017-03-18T12:33:28Z</time>
      </trkpt>
      <trkpt lat="45.23696" lon="-0.73975">
        <ele>-13.28</ele>
        <time>2017-03-18T12:33:43Z</time>
      </trkpt>
      <trkpt lat="45.23713" lon="-0.73976">
        <ele>-13.24</ele>
        <time>2017-03-18T12:33:47Z</time>
      </trkpt>
      <trkpt lat="45.23722" lon="-0.73976">
        <ele>-13.15</ele>
        <time>2017-03-18T12:33:49Z</time>
      </trkpt>
      <trkpt lat="45.23738" lon="-0.73977">
        <ele>-13.04</ele>
        <time>2017-03-18T12:33:53Z</time>
      </trkpt>
      <trkpt lat="45.23805" lon="-0.7398">
        <ele>-12.79</ele>
        <time>2017-03-18T12:34:08Z</time>
      </trkpt>
      <trkpt lat="45.23821" lon="-0.73982">
        <ele>-12.9</ele>
        <time>2017-03-18T12:34:12Z</time>
      </trkpt>
      <trkpt lat="45.23848" lon="-0.73982">
        <ele>-12.54</ele>
        <time>2017-03-18T12:34:18Z</time>
      </trkpt>
      <trkpt lat="45.23876" lon="-0.73983">
        <ele>-12.61</ele>
        <time>2017-03-18T12:34:24Z</time>
      </trkpt>
      <trkpt lat="45.23886" lon="-0.73983">
        <ele>-12.58</ele>
        <time>2017-03-18T12:34:26Z</time>
      </trkpt>
      <trkpt lat="45.23909" lon="-0.73982">
        <ele>-12.99</ele>
        <time>2017-03-18T12:34:31Z</time>
      </trkpt>
      <trkpt lat="45.23932" lon="-0.73982">
        <ele>-13.12</ele>
        <time>2017-03-18T12:34:36Z</time>
      </trkpt>
      <trkpt lat="45.23954" lon="-0.73982">
        <ele>-13.05</ele>
        <time>2017-03-18T12:34:41Z</time>
      </trkpt>
      <trkpt lat="45.23972" lon="-0.73982">
        <ele>-13.02</ele>
        <time>2017-03-18T12:34:45Z</time>
      </trkpt>
      <trkpt lat="45.23997" lon="-0.73982">
        <ele>-13.3</ele>
        <time>2017-03-18T12:34:51Z</time>
      </trkpt>
      <trkpt lat="45.24054" lon="-0.73984">
        <ele>-12.9</ele>
        <time>2017-03-18T12:35:06Z</time>
      </trkpt>
      <trkpt lat="45.24079" lon="-0.73984">
        <ele>-12.87</ele>
        <time>2017-03-18T12:35:12Z</time>
      </trkpt>
      <trkpt lat="45.24114" lon="-0.73987">
        <ele>-13.06</ele>
        <time>2017-03-18T12:35:20Z</time>
      </trkpt>
      <trkpt lat="45.24141" lon="-0.7399">
        <ele>-12.79</ele>
        <time>2017-03-18T12:35:26Z</time>
      </trkpt>
      <trkpt lat="45.24176" lon="-0.73991">
        <ele>-12.91</ele>
        <time>2017-03-18T12:35:34Z</time>
      </trkpt>
      <trkpt lat="45.24184" lon="-0.73991">
        <ele>-13.12</ele>
        <time>2017-03-18T12:35:36Z</time>
      </trkpt>
      <trkpt lat="45.24205" lon="-0.73992">
        <ele>-13.16</ele>
        <time>2017-03-18T12:35:41Z</time>
      </trkpt>
      <trkpt lat="45.24228" lon="-0.73992">
        <ele>-12.96</ele>
        <time>2017-03-18T12:35:47Z</time>
      </trkpt>
      <trkpt lat="45.24258" lon="-0.73994">
        <ele>-12.65</ele>
        <time>2017-03-18T12:35:54Z</time>
      </trkpt>
      <trkpt lat="45.24285" lon="-0.73996">
        <ele>-12.76</ele>
        <time>2017-03-18T12:36:00Z</time>
      </trkpt>
      <trkpt lat="45.24306" lon="-0.73997">
        <ele>-12.94</ele>
        <time>2017-03-18T12:36:05Z</time>
      </trkpt>
      <trkpt lat="45.24336" lon="-0.73999">
        <ele>-12.73</ele>
        <time>2017-03-18T12:36:12Z</time>
      </trkpt>
      <trkpt lat="45.24363" lon="-0.74">
        <ele>-12.62</ele>
        <time>2017-03-18T12:36:18Z</time>
      </trkpt>
      <trkpt lat="45.24372" lon="-0.74">
        <ele>-12.81</ele>
        <time>2017-03-18T12:36:20Z</time>
      </trkpt>
      <trkpt lat="45.2439" lon="-0.73999">
        <ele>-12.34</ele>
        <time>2017-03-18T12:36:24Z</time>
      </trkpt>
      <trkpt lat="45.24399" lon="-0.74">
        <ele>-12.2</ele>
        <time>2017-03-18T12:36:26Z</time>
      </trkpt>
      <trkpt lat="45.2443" lon="-0.74003">
        <ele>-12.35</ele>
        <time>2017-03-18T12:36:33Z</time>
      </trkpt>
      <trkpt lat="45.24458" lon="-0.74004">
        <ele>-12.4</ele>
        <time>2017-03-18T12:36:39Z</time>
      </trkpt>
      <trkpt lat="45.2448" lon="-0.74006">
        <ele>-12.36</ele>
        <time>2017-03-18T12:36:44Z</time>
      </trkpt>
      <trkpt lat="45.24516" lon="-0.74007">
        <ele>-12.01</ele>
        <time>2017-03-18T12:36:52Z</time>
      </trkpt>
      <trkpt lat="45.24544" lon="-0.74009">
        <ele>-12.41</ele>
        <time>2017-03-18T12:36:58Z</time>
      </trkpt>
      <trkpt lat="45.24581" lon="-0.74012">
        <ele>-12.07</ele>
        <time>2017-03-18T12:37:06Z</time>
      </trkpt>
      <trkpt lat="45.24604" lon="-0.74014">
        <ele>-12.15</ele>
        <time>2017-03-18T12:37:11Z</time>
      </trkpt>
      <trkpt lat="45.24622" lon="-0.74016">
        <ele>-12.42</ele>
        <time>2017-03-18T12:37:15Z</time>
      </trkpt>
      <trkpt lat="45.2466" lon="-0.74018">
        <ele>-12.34</ele>
        <time>2017-03-18T12:37:23Z</time>
      </trkpt>
      <trkpt lat="45.24684" lon="-0.7402">
        <ele>-12.52</ele>
        <time>2017-03-18T12:37:28Z</time>
      </trkpt>
      <trkpt lat="45.24703" lon="-0.7402">
        <ele>-12.66</ele>
        <time>2017-03-18T12:37:32Z</time>
      </trkpt>
      <trkpt lat="45.24725" lon="-0.74022">
        <ele>-12.91</ele>
        <time>2017-03-18T12:37:37Z</time>
      </trkpt>
      <trkpt lat="45.24748" lon="-0.74023">
        <ele>-12.82</ele>
        <time>2017-03-18T12:37:42Z</time>
      </trkpt>
      <trkpt lat="45.24757" lon="-0.74023">
        <ele>-12.87</ele>
        <time>2017-03-18T12:37:44Z</time>
      </trkpt>
      <trkpt lat="45.24784" lon="-0.74025">
        <ele>-12.83</ele>
        <time>2017-03-18T12:37:50Z</time>
      </trkpt>
      <trkpt lat="45.24817" lon="-0.74029">
        <ele>-12.3</ele>
        <time>2017-03-18T12:37:57Z</time>
      </trkpt>
      <trkpt lat="45.24847" lon="-0.74034">
        <ele>-12.48</ele>
        <time>2017-03-18T12:38:03Z</time>
      </trkpt>
      <trkpt lat="45.24882" lon="-0.7404">
        <ele>-12.79</ele>
        <time>2017-03-18T12:38:10Z</time>
      </trkpt>
      <trkpt lat="45.24936" lon="-0.74041">
        <ele>-13.14</ele>
        <time>2017-03-18T12:38:21Z</time>
      </trkpt>
      <trkpt lat="45.24958" lon="-0.74041">
        <ele>-12.98</ele>
        <time>2017-03-18T12:38:26Z</time>
      </trkpt>
      <trkpt lat="45.24976" lon="-0.74042">
        <ele>-12.71</ele>
        <time>2017-03-18T12:38:30Z</time>
      </trkpt>
      <trkpt lat="45.25026" lon="-0.74047">
        <ele>-12.19</ele>
        <time>2017-03-18T12:38:41Z</time>
      </trkpt>
      <trkpt lat="45.25107" lon="-0.74056">
        <ele>-12.57</ele>
        <time>2017-03-18T12:38:58Z</time>
      </trkpt>
      <trkpt lat="45.25116" lon="-0.74057">
        <ele>-12.58</ele>
        <time>2017-03-18T12:39:00Z</time>
      </trkpt>
      <trkpt lat="45.25136" lon="-0.74059">
        <ele>-12.34</ele>
        <time>2017-03-18T12:39:04Z</time>
      </trkpt>
      <trkpt lat="45.25179" lon="-0.74063">
        <ele>-12.59</ele>
        <time>2017-03-18T12:39:13Z</time>
      </trkpt>
      <trkpt lat="45.25213" lon="-0.74064">
        <ele>-13.13</ele>
        <time>2017-03-18T12:39:20Z</time>
      </trkpt>
      <trkpt lat="45.25245" lon="-0.74062">
        <ele>-12.98</ele>
        <time>2017-03-18T12:39:27Z</time>
      </trkpt>
      <trkpt lat="45.25295" lon="-0.74064">
        <ele>-12.84</ele>
        <time>2017-03-18T12:39:38Z</time>
      </trkpt>
      <trkpt lat="45.25342" lon="-0.7407">
        <ele>-12.23</ele>
        <time>2017-03-18T12:39:48Z</time>
      </trkpt>
      <trkpt lat="45.25356" lon="-0.74072">
        <ele>-12.35</ele>
        <time>2017-03-18T12:39:51Z</time>
      </trkpt>
      <trkpt lat="45.25366" lon="-0.74073">
        <ele>-12.6</ele>
        <time>2017-03-18T12:39:53Z</time>
      </trkpt>
      <trkpt lat="45.25393" lon="-0.74075">
        <ele>-12.45</ele>
        <time>2017-03-18T12:39:59Z</time>
      </trkpt>
      <trkpt lat="45.25449" lon="-0.74085">
        <ele>-11.84</ele>
        <time>2017-03-18T12:40:12Z</time>
      </trkpt>
      <trkpt lat="45.25462" lon="-0.74088">
        <ele>-12.08</ele>
        <time>2017-03-18T12:40:15Z</time>
      </trkpt>
      <trkpt lat="45.25479" lon="-0.74092">
        <ele>-12.02</ele>
        <time>2017-03-18T12:40:19Z</time>
      </trkpt>
      <trkpt lat="45.25504" lon="-0.741">
        <ele>-11.67</ele>
        <time>2017-03-18T12:40:25Z</time>
      </trkpt>
      <trkpt lat="45.2553" lon="-0.74107">
        <ele>-12.15</ele>
        <time>2017-03-18T12:40:31Z</time>
      </trkpt>
      <trkpt lat="45.25555" lon="-0.74112">
        <ele>-12.79</ele>
        <time>2017-03-18T12:40:37Z</time>
      </trkpt>
      <trkpt lat="45.25604" lon="-0.74125">
        <ele>-12.51</ele>
        <time>2017-03-18T12:40:49Z</time>
      </trkpt>
      <trkpt lat="45.25616" lon="-0.74128">
        <ele>-12.09</ele>
        <time>2017-03-18T12:40:52Z</time>
      </trkpt>
      <trkpt lat="45.25685" lon="-0.74153">
        <ele>-12.48</ele>
        <time>2017-03-18T12:41:10Z</time>
      </trkpt>
      <trkpt lat="45.25741" lon="-0.74164">
        <ele>-12.51</ele>
        <time>2017-03-18T12:41:24Z</time>
      </trkpt>
      <trkpt lat="45.25784" lon="-0.74172">
        <ele>-12.93</ele>
        <time>2017-03-18T12:41:34Z</time>
      </trkpt>
      <trkpt lat="45.25809" lon="-0.74176">
        <ele>-12.71</ele>
        <time>2017-03-18T12:41:40Z</time>
      </trkpt>
      <trkpt lat="45.25816" lon="-0.74177">
        <ele>-12.91</ele>
        <time>2017-03-18T12:41:42Z</time>
      </trkpt>
      <trkpt lat="45.25832" lon="-0.7418">
        <ele>-12.78</ele>
        <time>2017-03-18T12:41:46Z</time>
      </trkpt>
      <trkpt lat="45.25855" lon="-0.74184">
        <ele>-13.02</ele>
        <time>2017-03-18T12:41:52Z</time>
      </trkpt>
      <trkpt lat="45.25924" lon="-0.74196">
        <ele>-13.14</ele>
        <time>2017-03-18T12:42:10Z</time>
      </trkpt>
      <trkpt lat="45.2599" lon="-0.74211">
        <ele>-13.47</ele>
        <time>2017-03-18T12:42:29Z</time>
      </trkpt>
      <trkpt lat="45.26049" lon="-0.74228">
        <ele>-13.3</ele>
        <time>2017-03-18T12:42:48Z</time>
      </trkpt>
      <trkpt lat="45.26113" lon="-0.74248">
        <ele>-12.97</ele>
        <time>2017-03-18T12:43:09Z</time>
      </trkpt>
      <trkpt lat="45.2617" lon="-0.74269">
        <ele>-13.17</ele>
        <time>2017-03-18T12:43:27Z</time>
      </trkpt>
      <trkpt lat="45.26189" lon="-0.74277">
        <ele>-13.04</ele>
        <time>2017-03-18T12:43:34Z</time>
      </trkpt>
      <trkpt lat="45.262" lon="-0.7428">
        <ele>-13.31</ele>
        <time>2017-03-18T12:43:38Z</time>
      </trkpt>
      <trkpt lat="45.26223" lon="-0.74288">
        <ele>-13.23</ele>
        <time>2017-03-18T12:43:46Z</time>
      </trkpt>
      <trkpt lat="45.26244" lon="-0.74297">
        <ele>-13.65</ele>
        <time>2017-03-18T12:43:54Z</time>
      </trkpt>
      <trkpt lat="45.26253" lon="-0.74301">
        <ele>-13.74</ele>
        <time>2017-03-18T12:43:57Z</time>
      </trkpt>
      <trkpt lat="45.26269" lon="-0.74306">
        <ele>-13.6</ele>
        <time>2017-03-18T12:44:02Z</time>
      </trkpt>
      <trkpt lat="45.26278" lon="-0.74308">
        <ele>-13.64</ele>
        <time>2017-03-18T12:44:05Z</time>
      </trkpt>
      <trkpt lat="45.2629" lon="-0.74313">
        <ele>-13.43</ele>
        <time>2017-03-18T12:44:09Z</time>
      </trkpt>
      <trkpt lat="45.2632" lon="-0.74322">
        <ele>-13.6</ele>
        <time>2017-03-18T12:44:18Z</time>
      </trkpt>
      <trkpt lat="45.26343" lon="-0.74332">
        <ele>-13.47</ele>
        <time>2017-03-18T12:44:24Z</time>
      </trkpt>
      <trkpt lat="45.26409" lon="-0.74357">
        <ele>-12.85</ele>
        <time>2017-03-18T12:44:42Z</time>
      </trkpt>
      <trkpt lat="45.2644" lon="-0.74366">
        <ele>-13.09</ele>
        <time>2017-03-18T12:44:50Z</time>
      </trkpt>
      <trkpt lat="45.26467" lon="-0.74374">
        <ele>-12.52</ele>
        <time>2017-03-18T12:44:57Z</time>
      </trkpt>
      <trkpt lat="45.26475" lon="-0.74378">
        <ele>-11.86</ele>
        <time>2017-03-18T12:44:59Z</time>
      </trkpt>
      <trkpt lat="45.26537" lon="-0.74408">
        <ele>-12.69</ele>
        <time>2017-03-18T12:45:16Z</time>
      </trkpt>
      <trkpt lat="45.2656" lon="-0.74418">
        <ele>-12.76</ele>
        <time>2017-03-18T12:45:22Z</time>
      </trkpt>
      <trkpt lat="45.26588" lon="-0.74429">
        <ele>-12.76</ele>
        <time>2017-03-18T12:45:29Z</time>
      </trkpt>
      <trkpt lat="45.26647" lon="-0.74449">
        <ele>-12.69</ele>
        <time>2017-03-18T12:45:43Z</time>
      </trkpt>
      <trkpt lat="45.2666" lon="-0.74453">
        <ele>-12.74</ele>
        <time>2017-03-18T12:45:46Z</time>
      </trkpt>
      <trkpt lat="45.2669" lon="-0.74463">
        <ele>-12.59</ele>
        <time>2017-03-18T12:45:53Z</time>
      </trkpt>
      <trkpt lat="45.26727" lon="-0.74477">
        <ele>-12.65</ele>
        <time>2017-03-18T12:46:02Z</time>
      </trkpt>
      <trkpt lat="45.26798" lon="-0.74512">
        <ele>-12.63</ele>
        <time>2017-03-18T12:46:20Z</time>
      </trkpt>
      <trkpt lat="45.26817" lon="-0.74522">
        <ele>-12.91</ele>
        <time>2017-03-18T12:46:25Z</time>
      </trkpt>
      <trkpt lat="45.26854" lon="-0.74533">
        <ele>-13.09</ele>
        <time>2017-03-18T12:46:34Z</time>
      </trkpt>
      <trkpt lat="45.26871" lon="-0.74536">
        <ele>-13.05</ele>
        <time>2017-03-18T12:46:38Z</time>
      </trkpt>
      <trkpt lat="45.26896" lon="-0.74539">
        <ele>-12.96</ele>
        <time>2017-03-18T12:46:44Z</time>
      </trkpt>
      <trkpt lat="45.26905" lon="-0.7454">
        <ele>-13.02</ele>
        <time>2017-03-18T12:46:46Z</time>
      </trkpt>
      <trkpt lat="45.26917" lon="-0.74541">
        <ele>-13.1</ele>
        <time>2017-03-18T12:46:49Z</time>
      </trkpt>
      <trkpt lat="45.26934" lon="-0.7454">
        <ele>-12.98</ele>
        <time>2017-03-18T12:46:53Z</time>
      </trkpt>
      <trkpt lat="45.26961" lon="-0.74535">
        <ele>-12.96</ele>
        <time>2017-03-18T12:47:00Z</time>
      </trkpt>
      <trkpt lat="45.26979" lon="-0.74531">
        <ele>-13.45</ele>
        <time>2017-03-18T12:47:05Z</time>
      </trkpt>
      <trkpt lat="45.26992" lon="-0.7453">
        <ele>-13.41</ele>
        <time>2017-03-18T12:47:09Z</time>
      </trkpt>
      <trkpt lat="45.27019" lon="-0.74541">
        <ele>-13.46</ele>
        <time>2017-03-18T12:47:21Z</time>
      </trkpt>
      <trkpt lat="45.27021" lon="-0.74545">
        <ele>-12.68</ele>
        <time>2017-03-18T12:47:24Z</time>
      </trkpt>
      <trkpt lat="45.27022" lon="-0.74554">
        <ele>-13.58</ele>
        <time>2017-03-18T12:47:30Z</time>
      </trkpt>
      <trkpt lat="45.27021" lon="-0.74569">
        <ele>-13.55</ele>
        <time>2017-03-18T12:47:37Z</time>
      </trkpt>
      <trkpt lat="45.27021" lon="-0.74586">
        <ele>-13.51</ele>
        <time>2017-03-18T12:47:43Z</time>
      </trkpt>
      <trkpt lat="45.27024" lon="-0.74604">
        <ele>-13.45</ele>
        <time>2017-03-18T12:47:49Z</time>
      </trkpt>
      <trkpt lat="45.27026" lon="-0.74616">
        <ele>-13.75</ele>
        <time>2017-03-18T12:47:53Z</time>
      </trkpt>
      <trkpt lat="45.2703" lon="-0.74629">
        <ele>-13.41</ele>
        <time>2017-03-18T12:47:57Z</time>
      </trkpt>
      <trkpt lat="45.2704" lon="-0.74662">
        <ele>-12.92</ele>
        <time>2017-03-18T12:48:06Z</time>
      </trkpt>
      <trkpt lat="45.27058" lon="-0.74721">
        <ele>-12.76</ele>
        <time>2017-03-18T12:48:22Z</time>
      </trkpt>
      <trkpt lat="45.27073" lon="-0.74771">
        <ele>-13.03</ele>
        <time>2017-03-18T12:48:35Z</time>
      </trkpt>
      <trkpt lat="45.27094" lon="-0.74837">
        <ele>-12.89</ele>
        <time>2017-03-18T12:48:52Z</time>
      </trkpt>
      <trkpt lat="45.27115" lon="-0.74895">
        <ele>-12.77</ele>
        <time>2017-03-18T12:49:06Z</time>
      </trkpt>
      <trkpt lat="45.27141" lon="-0.74961">
        <ele>-12.65</ele>
        <time>2017-03-18T12:49:22Z</time>
      </trkpt>
      <trkpt lat="45.27165" lon="-0.75021">
        <ele>-12.94</ele>
        <time>2017-03-18T12:49:37Z</time>
      </trkpt>
      <trkpt lat="45.27191" lon="-0.7509">
        <ele>-12.88</ele>
        <time>2017-03-18T12:49:54Z</time>
      </trkpt>
      <trkpt lat="45.27211" lon="-0.75159">
        <ele>-12.98</ele>
        <time>2017-03-18T12:50:11Z</time>
      </trkpt>
      <trkpt lat="45.27219" lon="-0.75183">
        <ele>-13.05</ele>
        <time>2017-03-18T12:50:18Z</time>
      </trkpt>
      <trkpt lat="45.27238" lon="-0.75248">
        <ele>-12.93</ele>
        <time>2017-03-18T12:50:37Z</time>
      </trkpt>
      <trkpt lat="45.27263" lon="-0.75323">
        <ele>-12.77</ele>
        <time>2017-03-18T12:50:56Z</time>
      </trkpt>
      <trkpt lat="45.27275" lon="-0.75358">
        <ele>-12.44</ele>
        <time>2017-03-18T12:51:04Z</time>
      </trkpt>
      <trkpt lat="45.27277" lon="-0.7537">
        <ele>-11.81</ele>
        <time>2017-03-18T12:51:07Z</time>
      </trkpt>
      <trkpt lat="45.27288" lon="-0.75387">
        <ele>-12.32</ele>
        <time>2017-03-18T12:51:11Z</time>
      </trkpt>
      <trkpt lat="45.2732" lon="-0.75435">
        <ele>-12.95</ele>
        <time>2017-03-18T12:51:25Z</time>
      </trkpt>
      <trkpt lat="45.27331" lon="-0.75453">
        <ele>-12.45</ele>
        <time>2017-03-18T12:51:30Z</time>
      </trkpt>
      <trkpt lat="45.27338" lon="-0.75464">
        <ele>-12.71</ele>
        <time>2017-03-18T12:51:33Z</time>
      </trkpt>
      <trkpt lat="45.2738" lon="-0.75543">
        <ele>-12.83</ele>
        <time>2017-03-18T12:51:52Z</time>
      </trkpt>
      <trkpt lat="45.27385" lon="-0.75551">
        <ele>-12.76</ele>
        <time>2017-03-18T12:51:54Z</time>
      </trkpt>
      <trkpt lat="45.27398" lon="-0.75578">
        <ele>-12.98</ele>
        <time>2017-03-18T12:52:00Z</time>
      </trkpt>
      <trkpt lat="45.27419" lon="-0.75627">
        <ele>-12.82</ele>
        <time>2017-03-18T12:52:11Z</time>
      </trkpt>
      <trkpt lat="45.27437" lon="-0.75667">
        <ele>-13.44</ele>
        <time>2017-03-18T12:52:20Z</time>
      </trkpt>
      <trkpt lat="45.27443" lon="-0.7568">
        <ele>-13.23</ele>
        <time>2017-03-18T12:52:23Z</time>
      </trkpt>
      <trkpt lat="45.27451" lon="-0.75698">
        <ele>-13.17</ele>
        <time>2017-03-18T12:52:27Z</time>
      </trkpt>
      <trkpt lat="45.27464" lon="-0.75709">
        <ele>-12.91</ele>
        <time>2017-03-18T12:52:32Z</time>
      </trkpt>
      <trkpt lat="45.27473" lon="-0.75707">
        <ele>-12.93</ele>
        <time>2017-03-18T12:52:35Z</time>
      </trkpt>
      <trkpt lat="45.27529" lon="-0.75695">
        <ele>-12.7</ele>
        <time>2017-03-18T12:52:49Z</time>
      </trkpt>
      <trkpt lat="45.27547" lon="-0.75694">
        <ele>-12.08</ele>
        <time>2017-03-18T12:52:53Z</time>
      </trkpt>
      <trkpt lat="45.27625" lon="-0.75709">
        <ele>-12.79</ele>
        <time>2017-03-18T12:53:11Z</time>
      </trkpt>
      <trkpt lat="45.27696" lon="-0.75722">
        <ele>-12.73</ele>
        <time>2017-03-18T12:53:28Z</time>
      </trkpt>
      <trkpt lat="45.27717" lon="-0.75726">
        <ele>-12.81</ele>
        <time>2017-03-18T12:53:33Z</time>
      </trkpt>
      <trkpt lat="45.27783" lon="-0.75737">
        <ele>-12.44</ele>
        <time>2017-03-18T12:53:49Z</time>
      </trkpt>
      <trkpt lat="45.27832" lon="-0.75744">
        <ele>-12.28</ele>
        <time>2017-03-18T12:54:01Z</time>
      </trkpt>
      <trkpt lat="45.27854" lon="-0.75745">
        <ele>-12.46</ele>
        <time>2017-03-18T12:54:06Z</time>
      </trkpt>
      <trkpt lat="45.27938" lon="-0.7575">
        <ele>-12.11</ele>
        <time>2017-03-18T12:54:25Z</time>
      </trkpt>
      <trkpt lat="45.27983" lon="-0.75759">
        <ele>-12.31</ele>
        <time>2017-03-18T12:54:35Z</time>
      </trkpt>
      <trkpt lat="45.28055" lon="-0.75774">
        <ele>-12.02</ele>
        <time>2017-03-18T12:54:51Z</time>
      </trkpt>
      <trkpt lat="45.28138" lon="-0.75795">
        <ele>-12.28</ele>
        <time>2017-03-18T12:55:09Z</time>
      </trkpt>
      <trkpt lat="45.28217" lon="-0.75822">
        <ele>-12.93</ele>
        <time>2017-03-18T12:55:27Z</time>
      </trkpt>
      <trkpt lat="45.28291" lon="-0.75836">
        <ele>-12.62</ele>
        <time>2017-03-18T12:55:45Z</time>
      </trkpt>
      <trkpt lat="45.28367" lon="-0.75855">
        <ele>-12.13</ele>
        <time>2017-03-18T12:56:03Z</time>
      </trkpt>
      <trkpt lat="45.28445" lon="-0.7588">
        <ele>-12.2</ele>
        <time>2017-03-18T12:56:22Z</time>
      </trkpt>
      <trkpt lat="45.2851" lon="-0.75903">
        <ele>-12.21</ele>
        <time>2017-03-18T12:56:38Z</time>
      </trkpt>
      <trkpt lat="45.28531" lon="-0.75909">
        <ele>-12.3</ele>
        <time>2017-03-18T12:56:43Z</time>
      </trkpt>
      <trkpt lat="45.28604" lon="-0.75926">
        <ele>-12.35</ele>
        <time>2017-03-18T12:57:00Z</time>
      </trkpt>
      <trkpt lat="45.28682" lon="-0.75938">
        <ele>-11.7</ele>
        <time>2017-03-18T12:57:19Z</time>
      </trkpt>
      <trkpt lat="45.2875" lon="-0.75951">
        <ele>-11.51</ele>
        <time>2017-03-18T12:57:35Z</time>
      </trkpt>
      <trkpt lat="45.28822" lon="-0.75963">
        <ele>-11.93</ele>
        <time>2017-03-18T12:57:51Z</time>
      </trkpt>
      <trkpt lat="45.28891" lon="-0.75974">
        <ele>-11.36</ele>
        <time>2017-03-18T12:58:06Z</time>
      </trkpt>
      <trkpt lat="45.28962" lon="-0.75996">
        <ele>-11.52</ele>
        <time>2017-03-18T12:58:23Z</time>
      </trkpt>
      <trkpt lat="45.29032" lon="-0.76008">
        <ele>-11.24</ele>
        <time>2017-03-18T12:58:39Z</time>
      </trkpt>
      <trkpt lat="45.29109" lon="-0.76015">
        <ele>-10.96</ele>
        <time>2017-03-18T12:58:56Z</time>
      </trkpt>
      <trkpt lat="45.29186" lon="-0.76024">
        <ele>-11.32</ele>
        <time>2017-03-18T12:59:13Z</time>
      </trkpt>
      <trkpt lat="45.29264" lon="-0.76038">
        <ele>-11.73</ele>
        <time>2017-03-18T12:59:30Z</time>
      </trkpt>
      <trkpt lat="45.29328" lon="-0.76047">
        <ele>-11.42</ele>
        <time>2017-03-18T12:59:44Z</time>
      </trkpt>
      <trkpt lat="45.29403" lon="-0.76062">
        <ele>-11.5</ele>
        <time>2017-03-18T13:00:01Z</time>
      </trkpt>
      <trkpt lat="45.2948" lon="-0.76074">
        <ele>-11.71</ele>
        <time>2017-03-18T13:00:17Z</time>
      </trkpt>
      <trkpt lat="45.29557" lon="-0.76084">
        <ele>-11.22</ele>
        <time>2017-03-18T13:00:33Z</time>
      </trkpt>
      <trkpt lat="45.29626" lon="-0.76099">
        <ele>-11.36</ele>
        <time>2017-03-18T13:00:47Z</time>
      </trkpt>
      <trkpt lat="45.29705" lon="-0.76115">
        <ele>-11.76</ele>
        <time>2017-03-18T13:01:04Z</time>
      </trkpt>
      <trkpt lat="45.29771" lon="-0.76133">
        <ele>-11.44</ele>
        <time>2017-03-18T13:01:19Z</time>
      </trkpt>
      <trkpt lat="45.29802" lon="-0.76142">
        <ele>-11.73</ele>
        <time>2017-03-18T13:01:26Z</time>
      </trkpt>
      <trkpt lat="45.29851" lon="-0.76154">
        <ele>-11.44</ele>
        <time>2017-03-18T13:01:37Z</time>
      </trkpt>
      <trkpt lat="45.2987" lon="-0.76157">
        <ele>-11.71</ele>
        <time>2017-03-18T13:01:41Z</time>
      </trkpt>
      <trkpt lat="45.29901" lon="-0.7617">
        <ele>-11.7</ele>
        <time>2017-03-18T13:01:48Z</time>
      </trkpt>
      <trkpt lat="45.29968" lon="-0.76204">
        <ele>-11.71</ele>
        <time>2017-03-18T13:02:04Z</time>
      </trkpt>
      <trkpt lat="45.3007" lon="-0.76251">
        <ele>-11.61</ele>
        <time>2017-03-18T13:02:28Z</time>
      </trkpt>
      <trkpt lat="45.30152" lon="-0.76285">
        <ele>-12.08</ele>
        <time>2017-03-18T13:02:48Z</time>
      </trkpt>
      <trkpt lat="45.30227" lon="-0.76323">
        <ele>-11.53</ele>
        <time>2017-03-18T13:03:06Z</time>
      </trkpt>
      <trkpt lat="45.30252" lon="-0.76336">
        <ele>-11.67</ele>
        <time>2017-03-18T13:03:12Z</time>
      </trkpt>
      <trkpt lat="45.30318" lon="-0.76365">
        <ele>-11.08</ele>
        <time>2017-03-18T13:03:29Z</time>
      </trkpt>
      <trkpt lat="45.30382" lon="-0.76392">
        <ele>-11.29</ele>
        <time>2017-03-18T13:03:46Z</time>
      </trkpt>
      <trkpt lat="45.30443" lon="-0.76417">
        <ele>-11.37</ele>
        <time>2017-03-18T13:04:02Z</time>
      </trkpt>
      <trkpt lat="45.30515" lon="-0.76447">
        <ele>-11.88</ele>
        <time>2017-03-18T13:04:20Z</time>
      </trkpt>
      <trkpt lat="45.30532" lon="-0.76454">
        <ele>-11.62</ele>
        <time>2017-03-18T13:04:24Z</time>
      </trkpt>
      <trkpt lat="45.30605" lon="-0.76485">
        <ele>-11.34</ele>
        <time>2017-03-18T13:04:42Z</time>
      </trkpt>
      <trkpt lat="45.30676" lon="-0.76519">
        <ele>-11.83</ele>
        <time>2017-03-18T13:05:00Z</time>
      </trkpt>
      <trkpt lat="45.3075" lon="-0.76542">
        <ele>-11.29</ele>
        <time>2017-03-18T13:05:18Z</time>
      </trkpt>
      <trkpt lat="45.30762" lon="-0.76547">
        <ele>-11.31</ele>
        <time>2017-03-18T13:05:21Z</time>
      </trkpt>
      <trkpt lat="45.30778" lon="-0.76552">
        <ele>-11.18</ele>
        <time>2017-03-18T13:05:25Z</time>
      </trkpt>
      <trkpt lat="45.30816" lon="-0.76566">
        <ele>-11.26</ele>
        <time>2017-03-18T13:05:35Z</time>
      </trkpt>
      <trkpt lat="45.30828" lon="-0.76569">
        <ele>-11.15</ele>
        <time>2017-03-18T13:05:38Z</time>
      </trkpt>
      <trkpt lat="45.30852" lon="-0.76576">
        <ele>-11.18</ele>
        <time>2017-03-18T13:05:44Z</time>
      </trkpt>
      <trkpt lat="45.3088" lon="-0.76607">
        <ele>-11.64</ele>
        <time>2017-03-18T13:05:56Z</time>
      </trkpt>
      <trkpt lat="45.30883" lon="-0.76614">
        <ele>-11.77</ele>
        <time>2017-03-18T13:05:58Z</time>
      </trkpt>
      <trkpt lat="45.30895" lon="-0.76654">
        <ele>-11.57</ele>
        <time>2017-03-18T13:06:08Z</time>
      </trkpt>
      <trkpt lat="45.30907" lon="-0.76689">
        <ele>-11.44</ele>
        <time>2017-03-18T13:06:16Z</time>
      </trkpt>
      <trkpt lat="45.30913" lon="-0.76702">
        <ele>-11.27</ele>
        <time>2017-03-18T13:06:19Z</time>
      </trkpt>
      <trkpt lat="45.30939" lon="-0.76768">
        <ele>-11.03</ele>
        <time>2017-03-18T13:06:34Z</time>
      </trkpt>
      <trkpt lat="45.30964" lon="-0.76846">
        <ele>-11.48</ele>
        <time>2017-03-18T13:06:51Z</time>
      </trkpt>
      <trkpt lat="45.30973" lon="-0.76874">
        <ele>-11.19</ele>
        <time>2017-03-18T13:06:57Z</time>
      </trkpt>
      <trkpt lat="45.30979" lon="-0.76893">
        <ele>-12.54</ele>
        <time>2017-03-18T13:07:01Z</time>
      </trkpt>
      <trkpt lat="45.30998" lon="-0.76945">
        <ele>-10.94</ele>
        <time>2017-03-18T13:07:12Z</time>
      </trkpt>
      <trkpt lat="45.31007" lon="-0.76968">
        <ele>-11.02</ele>
        <time>2017-03-18T13:07:17Z</time>
      </trkpt>
      <trkpt lat="45.31033" lon="-0.77038">
        <ele>-10.94</ele>
        <time>2017-03-18T13:07:32Z</time>
      </trkpt>
      <trkpt lat="45.31048" lon="-0.77075">
        <ele>-10.92</ele>
        <time>2017-03-18T13:07:40Z</time>
      </trkpt>
      <trkpt lat="45.31071" lon="-0.77126">
        <ele>-10.53</ele>
        <time>2017-03-18T13:07:51Z</time>
      </trkpt>
      <trkpt lat="45.31078" lon="-0.77145">
        <ele>-10.63</ele>
        <time>2017-03-18T13:07:55Z</time>
      </trkpt>
      <trkpt lat="45.31085" lon="-0.77178">
        <ele>-10.55</ele>
        <time>2017-03-18T13:08:02Z</time>
      </trkpt>
      <trkpt lat="45.3109" lon="-0.77196">
        <ele>-10.84</ele>
        <time>2017-03-18T13:08:06Z</time>
      </trkpt>
      <trkpt lat="45.31105" lon="-0.77267">
        <ele>-10.85</ele>
        <time>2017-03-18T13:08:22Z</time>
      </trkpt>
      <trkpt lat="45.3112" lon="-0.77334">
        <ele>-11.04</ele>
        <time>2017-03-18T13:08:37Z</time>
      </trkpt>
      <trkpt lat="45.31135" lon="-0.77405">
        <ele>-11.17</ele>
        <time>2017-03-18T13:08:53Z</time>
      </trkpt>
      <trkpt lat="45.31141" lon="-0.77431">
        <ele>-11.36</ele>
        <time>2017-03-18T13:08:59Z</time>
      </trkpt>
      <trkpt lat="45.31159" lon="-0.77508">
        <ele>-11.04</ele>
        <time>2017-03-18T13:09:16Z</time>
      </trkpt>
      <trkpt lat="45.31177" lon="-0.77566">
        <ele>-10.94</ele>
        <time>2017-03-18T13:09:29Z</time>
      </trkpt>
      <trkpt lat="45.312" lon="-0.77637">
        <ele>-10.94</ele>
        <time>2017-03-18T13:09:45Z</time>
      </trkpt>
      <trkpt lat="45.31221" lon="-0.77705">
        <ele>-11</ele>
        <time>2017-03-18T13:10:01Z</time>
      </trkpt>
      <trkpt lat="45.31238" lon="-0.77771">
        <ele>-11.22</ele>
        <time>2017-03-18T13:10:17Z</time>
      </trkpt>
      <trkpt lat="45.31244" lon="-0.77789">
        <ele>-11.36</ele>
        <time>2017-03-18T13:10:22Z</time>
      </trkpt>
      <trkpt lat="45.31272" lon="-0.77799">
        <ele>-10.86</ele>
        <time>2017-03-18T13:10:32Z</time>
      </trkpt>
      <trkpt lat="45.31287" lon="-0.77802">
        <ele>-10.94</ele>
        <time>2017-03-18T13:10:36Z</time>
      </trkpt>
      <trkpt lat="45.31331" lon="-0.77811">
        <ele>-11.22</ele>
        <time>2017-03-18T13:10:47Z</time>
      </trkpt>
      <trkpt lat="45.3139" lon="-0.77815">
        <ele>-11.05</ele>
        <time>2017-03-18T13:11:02Z</time>
      </trkpt>
      <trkpt lat="45.31449" lon="-0.77827">
        <ele>-10.87</ele>
        <time>2017-03-18T13:11:16Z</time>
      </trkpt>
      <trkpt lat="45.31503" lon="-0.77843">
        <ele>-10.79</ele>
        <time>2017-03-18T13:11:30Z</time>
      </trkpt>
      <trkpt lat="45.31566" lon="-0.77861">
        <ele>-10.74</ele>
        <time>2017-03-18T13:11:46Z</time>
      </trkpt>
      <trkpt lat="45.31627" lon="-0.77881">
        <ele>-10.81</ele>
        <time>2017-03-18T13:12:02Z</time>
      </trkpt>
      <trkpt lat="45.31683" lon="-0.779">
        <ele>-10.98</ele>
        <time>2017-03-18T13:12:17Z</time>
      </trkpt>
      <trkpt lat="45.31699" lon="-0.77904">
        <ele>-10.83</ele>
        <time>2017-03-18T13:12:21Z</time>
      </trkpt>
      <trkpt lat="45.31734" lon="-0.77911">
        <ele>-10.91</ele>
        <time>2017-03-18T13:12:30Z</time>
      </trkpt>
      <trkpt lat="45.31769" lon="-0.77925">
        <ele>-11.08</ele>
        <time>2017-03-18T13:12:40Z</time>
      </trkpt>
      <trkpt lat="45.31776" lon="-0.77928">
        <ele>-10.89</ele>
        <time>2017-03-18T13:12:42Z</time>
      </trkpt>
      <trkpt lat="45.31801" lon="-0.77935">
        <ele>-11.64</ele>
        <time>2017-03-18T13:12:49Z</time>
      </trkpt>
      <trkpt lat="45.31849" lon="-0.77955">
        <ele>-11.1</ele>
        <time>2017-03-18T13:13:02Z</time>
      </trkpt>
      <trkpt lat="45.31879" lon="-0.77965">
        <ele>-11.63</ele>
        <time>2017-03-18T13:13:10Z</time>
      </trkpt>
      <trkpt lat="45.31894" lon="-0.7797">
        <ele>-11.71</ele>
        <time>2017-03-18T13:13:14Z</time>
      </trkpt>
      <trkpt lat="45.31947" lon="-0.77992">
        <ele>-10.94</ele>
        <time>2017-03-18T13:13:28Z</time>
      </trkpt>
      <trkpt lat="45.31951" lon="-0.77994">
        <ele>-10.87</ele>
        <time>2017-03-18T13:13:29Z</time>
      </trkpt>
      <trkpt lat="45.31958" lon="-0.77997">
        <ele>-10.69</ele>
        <time>2017-03-18T13:13:31Z</time>
      </trkpt>
      <trkpt lat="45.32003" lon="-0.7802">
        <ele>-10.57</ele>
        <time>2017-03-18T13:13:43Z</time>
      </trkpt>
      <trkpt lat="45.32019" lon="-0.78029">
        <ele>-10.05</ele>
        <time>2017-03-18T13:13:47Z</time>
      </trkpt>
      <trkpt lat="45.32043" lon="-0.78039">
        <ele>-10.51</ele>
        <time>2017-03-18T13:13:53Z</time>
      </trkpt>
      <trkpt lat="45.32054" lon="-0.78043">
        <ele>-10.47</ele>
        <time>2017-03-18T13:13:56Z</time>
      </trkpt>
      <trkpt lat="45.32103" lon="-0.78065">
        <ele>-10.05</ele>
        <time>2017-03-18T13:14:08Z</time>
      </trkpt>
      <trkpt lat="45.3215" lon="-0.78089">
        <ele>-10.68</ele>
        <time>2017-03-18T13:14:20Z</time>
      </trkpt>
      <trkpt lat="45.32206" lon="-0.78116">
        <ele>-10.53</ele>
        <time>2017-03-18T13:14:34Z</time>
      </trkpt>
      <trkpt lat="45.32222" lon="-0.78122">
        <ele>-10.39</ele>
        <time>2017-03-18T13:14:38Z</time>
      </trkpt>
      <trkpt lat="45.3223" lon="-0.78125">
        <ele>-10.53</ele>
        <time>2017-03-18T13:14:40Z</time>
      </trkpt>
      <trkpt lat="45.32246" lon="-0.7813">
        <ele>-9.77</ele>
        <time>2017-03-18T13:14:44Z</time>
      </trkpt>
      <trkpt lat="45.32302" lon="-0.78155">
        <ele>-9.88</ele>
        <time>2017-03-18T13:14:58Z</time>
      </trkpt>
      <trkpt lat="45.32346" lon="-0.78176">
        <ele>-10.13</ele>
        <time>2017-03-18T13:15:09Z</time>
      </trkpt>
      <trkpt lat="45.32394" lon="-0.78197">
        <ele>-10.17</ele>
        <time>2017-03-18T13:15:21Z</time>
      </trkpt>
      <trkpt lat="45.32417" lon="-0.78211">
        <ele>-9.89</ele>
        <time>2017-03-18T13:15:27Z</time>
      </trkpt>
      <trkpt lat="45.32467" lon="-0.78243">
        <ele>-10.22</ele>
        <time>2017-03-18T13:15:41Z</time>
      </trkpt>
      <trkpt lat="45.32481" lon="-0.7825">
        <ele>-9.86</ele>
        <time>2017-03-18T13:15:45Z</time>
      </trkpt>
      <trkpt lat="45.32509" lon="-0.78267">
        <ele>-10.2</ele>
        <time>2017-03-18T13:15:52Z</time>
      </trkpt>
      <trkpt lat="45.32517" lon="-0.78272">
        <ele>-10.04</ele>
        <time>2017-03-18T13:15:54Z</time>
      </trkpt>
      <trkpt lat="45.32525" lon="-0.78277">
        <ele>-10</ele>
        <time>2017-03-18T13:15:56Z</time>
      </trkpt>
      <trkpt lat="45.32578" lon="-0.78312">
        <ele>-9.86</ele>
        <time>2017-03-18T13:16:10Z</time>
      </trkpt>
      <trkpt lat="45.32614" lon="-0.78332">
        <ele>-10.26</ele>
        <time>2017-03-18T13:16:19Z</time>
      </trkpt>
      <trkpt lat="45.32645" lon="-0.78353">
        <ele>-12.1</ele>
        <time>2017-03-18T13:16:27Z</time>
      </trkpt>
      <trkpt lat="45.32684" lon="-0.78377">
        <ele>-11.74</ele>
        <time>2017-03-18T13:16:37Z</time>
      </trkpt>
      <trkpt lat="45.32755" lon="-0.78417">
        <ele>-12.12</ele>
        <time>2017-03-18T13:16:55Z</time>
      </trkpt>
      <trkpt lat="45.32815" lon="-0.78454">
        <ele>-12.11</ele>
        <time>2017-03-18T13:17:10Z</time>
      </trkpt>
      <trkpt lat="45.32876" lon="-0.78489">
        <ele>-12.62</ele>
        <time>2017-03-18T13:17:25Z</time>
      </trkpt>
      <trkpt lat="45.3294" lon="-0.78522">
        <ele>-12.52</ele>
        <time>2017-03-18T13:17:41Z</time>
      </trkpt>
      <trkpt lat="45.32997" lon="-0.78548">
        <ele>-12.51</ele>
        <time>2017-03-18T13:17:56Z</time>
      </trkpt>
      <trkpt lat="45.33059" lon="-0.78574">
        <ele>-12.18</ele>
        <time>2017-03-18T13:18:12Z</time>
      </trkpt>
      <trkpt lat="45.33127" lon="-0.78607">
        <ele>-12.55</ele>
        <time>2017-03-18T13:18:30Z</time>
      </trkpt>
      <trkpt lat="45.33188" lon="-0.78632">
        <ele>-12.34</ele>
        <time>2017-03-18T13:18:45Z</time>
      </trkpt>
      <trkpt lat="45.3321" lon="-0.78643">
        <ele>-12.2</ele>
        <time>2017-03-18T13:18:50Z</time>
      </trkpt>
      <trkpt lat="45.33275" lon="-0.78676">
        <ele>-12.71</ele>
        <time>2017-03-18T13:19:07Z</time>
      </trkpt>
      <trkpt lat="45.33336" lon="-0.787">
        <ele>-11.7</ele>
        <time>2017-03-18T13:19:22Z</time>
      </trkpt>
      <trkpt lat="45.33358" lon="-0.78711">
        <ele>-10.92</ele>
        <time>2017-03-18T13:19:27Z</time>
      </trkpt>
      <trkpt lat="45.33437" lon="-0.78754">
        <ele>-10.18</ele>
        <time>2017-03-18T13:19:45Z</time>
      </trkpt>
      <trkpt lat="45.33517" lon="-0.78803">
        <ele>-10.72</ele>
        <time>2017-03-18T13:20:04Z</time>
      </trkpt>
      <trkpt lat="45.33585" lon="-0.78838">
        <ele>-12.4</ele>
        <time>2017-03-18T13:20:20Z</time>
      </trkpt>
      <trkpt lat="45.33639" lon="-0.78865">
        <ele>-12.18</ele>
        <time>2017-03-18T13:20:33Z</time>
      </trkpt>
      <trkpt lat="45.33691" lon="-0.7889">
        <ele>-12.21</ele>
        <time>2017-03-18T13:20:46Z</time>
      </trkpt>
      <trkpt lat="45.33746" lon="-0.78915">
        <ele>-12.1</ele>
        <time>2017-03-18T13:20:59Z</time>
      </trkpt>
      <trkpt lat="45.33803" lon="-0.78942">
        <ele>-12.21</ele>
        <time>2017-03-18T13:21:13Z</time>
      </trkpt>
      <trkpt lat="45.33855" lon="-0.78968">
        <ele>-11.69</ele>
        <time>2017-03-18T13:21:26Z</time>
      </trkpt>
      <trkpt lat="45.33908" lon="-0.78995">
        <ele>-11.98</ele>
        <time>2017-03-18T13:21:39Z</time>
      </trkpt>
      <trkpt lat="45.33973" lon="-0.79028">
        <ele>-11.42</ele>
        <time>2017-03-18T13:21:56Z</time>
      </trkpt>
      <trkpt lat="45.34029" lon="-0.79055">
        <ele>-12.35</ele>
        <time>2017-03-18T13:22:10Z</time>
      </trkpt>
      <trkpt lat="45.34072" lon="-0.79079">
        <ele>-12.19</ele>
        <time>2017-03-18T13:22:21Z</time>
      </trkpt>
      <trkpt lat="45.34084" lon="-0.79085">
        <ele>-11.86</ele>
        <time>2017-03-18T13:22:24Z</time>
      </trkpt>
      <trkpt lat="45.34163" lon="-0.79126">
        <ele>-10.72</ele>
        <time>2017-03-18T13:22:43Z</time>
      </trkpt>
      <trkpt lat="45.34234" lon="-0.79162">
        <ele>-11.59</ele>
        <time>2017-03-18T13:23:00Z</time>
      </trkpt>
      <trkpt lat="45.34265" lon="-0.79179">
        <ele>-11.57</ele>
        <time>2017-03-18T13:23:07Z</time>
      </trkpt>
      <trkpt lat="45.34277" lon="-0.79188">
        <ele>-11.11</ele>
        <time>2017-03-18T13:23:10Z</time>
      </trkpt>
      <trkpt lat="45.34312" lon="-0.7921">
        <ele>-11.96</ele>
        <time>2017-03-18T13:23:19Z</time>
      </trkpt>
      <trkpt lat="45.34327" lon="-0.79219">
        <ele>-11.65</ele>
        <time>2017-03-18T13:23:23Z</time>
      </trkpt>
      <trkpt lat="45.34371" lon="-0.7924">
        <ele>-11.69</ele>
        <time>2017-03-18T13:23:35Z</time>
      </trkpt>
      <trkpt lat="45.34432" lon="-0.79266">
        <ele>-11.45</ele>
        <time>2017-03-18T13:23:50Z</time>
      </trkpt>
      <trkpt lat="45.34485" lon="-0.79287">
        <ele>-12.15</ele>
        <time>2017-03-18T13:24:03Z</time>
      </trkpt>
      <trkpt lat="45.34543" lon="-0.79311">
        <ele>-11.47</ele>
        <time>2017-03-18T13:24:17Z</time>
      </trkpt>
      <trkpt lat="45.34616" lon="-0.79348">
        <ele>-12.04</ele>
        <time>2017-03-18T13:24:34Z</time>
      </trkpt>
      <trkpt lat="45.34679" lon="-0.7938">
        <ele>-11.44</ele>
        <time>2017-03-18T13:24:50Z</time>
      </trkpt>
      <trkpt lat="45.34744" lon="-0.79407">
        <ele>-11.25</ele>
        <time>2017-03-18T13:25:07Z</time>
      </trkpt>
      <trkpt lat="45.34808" lon="-0.79436">
        <ele>-11.02</ele>
        <time>2017-03-18T13:25:22Z</time>
      </trkpt>
      <trkpt lat="45.34874" lon="-0.79476">
        <ele>-11.2</ele>
        <time>2017-03-18T13:25:38Z</time>
      </trkpt>
      <trkpt lat="45.34931" lon="-0.79511">
        <ele>-10.51</ele>
        <time>2017-03-18T13:25:52Z</time>
      </trkpt>
      <trkpt lat="45.34983" lon="-0.79552">
        <ele>-10.46</ele>
        <time>2017-03-18T13:26:05Z</time>
      </trkpt>
      <trkpt lat="45.35044" lon="-0.79599">
        <ele>-12.09</ele>
        <time>2017-03-18T13:26:21Z</time>
      </trkpt>
      <trkpt lat="45.35103" lon="-0.79626">
        <ele>-11.23</ele>
        <time>2017-03-18T13:26:37Z</time>
      </trkpt>
      <trkpt lat="45.35184" lon="-0.79657">
        <ele>-11.27</ele>
        <time>2017-03-18T13:26:58Z</time>
      </trkpt>
      <trkpt lat="45.3525" lon="-0.7968">
        <ele>-11.08</ele>
        <time>2017-03-18T13:27:15Z</time>
      </trkpt>
      <trkpt lat="45.35314" lon="-0.79703">
        <ele>-11.26</ele>
        <time>2017-03-18T13:27:32Z</time>
      </trkpt>
      <trkpt lat="45.35383" lon="-0.79722">
        <ele>-10.98</ele>
        <time>2017-03-18T13:27:49Z</time>
      </trkpt>
      <trkpt lat="45.35458" lon="-0.79735">
        <ele>-11.2</ele>
        <time>2017-03-18T13:28:07Z</time>
      </trkpt>
      <trkpt lat="45.3554" lon="-0.7975">
        <ele>-11.02</ele>
        <time>2017-03-18T13:28:27Z</time>
      </trkpt>
      <trkpt lat="45.35564" lon="-0.79753">
        <ele>-11.03</ele>
        <time>2017-03-18T13:28:33Z</time>
      </trkpt>
      <trkpt lat="45.35625" lon="-0.79762">
        <ele>-11.31</ele>
        <time>2017-03-18T13:28:48Z</time>
      </trkpt>
      <trkpt lat="45.35641" lon="-0.79764">
        <ele>-11.31</ele>
        <time>2017-03-18T13:28:52Z</time>
      </trkpt>
      <trkpt lat="45.35651" lon="-0.79771">
        <ele>-11.03</ele>
        <time>2017-03-18T13:28:56Z</time>
      </trkpt>
      <trkpt lat="45.35669" lon="-0.79801">
        <ele>-10.34</ele>
        <time>2017-03-18T13:29:08Z</time>
      </trkpt>
      <trkpt lat="45.35671" lon="-0.79806">
        <ele>-9.97</ele>
        <time>2017-03-18T13:29:10Z</time>
      </trkpt>
      <trkpt lat="45.35675" lon="-0.79816">
        <ele>-10.28</ele>
        <time>2017-03-18T13:29:13Z</time>
      </trkpt>
      <trkpt lat="45.35695" lon="-0.79861">
        <ele>-10.15</ele>
        <time>2017-03-18T13:29:25Z</time>
      </trkpt>
      <trkpt lat="45.35706" lon="-0.79886">
        <ele>-10.48</ele>
        <time>2017-03-18T13:29:31Z</time>
      </trkpt>
      <trkpt lat="45.3571" lon="-0.79894">
        <ele>-11.55</ele>
        <time>2017-03-18T13:29:33Z</time>
      </trkpt>
      <trkpt lat="45.35718" lon="-0.79914">
        <ele>-10.34</ele>
        <time>2017-03-18T13:29:38Z</time>
      </trkpt>
      <trkpt lat="45.35723" lon="-0.79925">
        <ele>-9.83</ele>
        <time>2017-03-18T13:29:41Z</time>
      </trkpt>
      <trkpt lat="45.35729" lon="-0.79941">
        <ele>-9.71</ele>
        <time>2017-03-18T13:29:45Z</time>
      </trkpt>
      <trkpt lat="45.35745" lon="-0.79979">
        <ele>-9.75</ele>
        <time>2017-03-18T13:29:56Z</time>
      </trkpt>
      <trkpt lat="45.35752" lon="-0.79994">
        <ele>-10.04</ele>
        <time>2017-03-18T13:30:01Z</time>
      </trkpt>
      <trkpt lat="45.35758" lon="-0.80006">
        <ele>-10.19</ele>
        <time>2017-03-18T13:30:05Z</time>
      </trkpt>
      <trkpt lat="45.3577" lon="-0.80038">
        <ele>-9.9</ele>
        <time>2017-03-18T13:30:15Z</time>
      </trkpt>
      <trkpt lat="45.35789" lon="-0.80093">
        <ele>-10.15</ele>
        <time>2017-03-18T13:30:30Z</time>
      </trkpt>
      <trkpt lat="45.35794" lon="-0.80107">
        <ele>-9.68</ele>
        <time>2017-03-18T13:30:34Z</time>
      </trkpt>
      <trkpt lat="45.35819" lon="-0.80173">
        <ele>-9.73</ele>
        <time>2017-03-18T13:30:51Z</time>
      </trkpt>
      <trkpt lat="45.35839" lon="-0.80241">
        <ele>-9.72</ele>
        <time>2017-03-18T13:31:07Z</time>
      </trkpt>
      <trkpt lat="45.35858" lon="-0.80307">
        <ele>-10.04</ele>
        <time>2017-03-18T13:31:22Z</time>
      </trkpt>
      <trkpt lat="45.35873" lon="-0.80366">
        <ele>-10.15</ele>
        <time>2017-03-18T13:31:36Z</time>
      </trkpt>
      <trkpt lat="45.35879" lon="-0.80387">
        <ele>-9.93</ele>
        <time>2017-03-18T13:31:41Z</time>
      </trkpt>
      <trkpt lat="45.35887" lon="-0.80424">
        <ele>-9.72</ele>
        <time>2017-03-18T13:31:49Z</time>
      </trkpt>
      <trkpt lat="45.35892" lon="-0.80444">
        <ele>-10.29</ele>
        <time>2017-03-18T13:31:53Z</time>
      </trkpt>
      <trkpt lat="45.35907" lon="-0.80521">
        <ele>-11.97</ele>
        <time>2017-03-18T13:32:09Z</time>
      </trkpt>
      <trkpt lat="45.35908" lon="-0.80526">
        <ele>-12.16</ele>
        <time>2017-03-18T13:32:10Z</time>
      </trkpt>
      <trkpt lat="45.35914" lon="-0.80556">
        <ele>-10.8</ele>
        <time>2017-03-18T13:32:16Z</time>
      </trkpt>
      <trkpt lat="45.35919" lon="-0.80577">
        <ele>-13.48</ele>
        <time>2017-03-18T13:32:20Z</time>
      </trkpt>
      <trkpt lat="45.35937" lon="-0.80661">
        <ele>-11.99</ele>
        <time>2017-03-18T13:32:37Z</time>
      </trkpt>
      <trkpt lat="45.35938" lon="-0.80666">
        <ele>-11.86</ele>
        <time>2017-03-18T13:32:38Z</time>
      </trkpt>
      <trkpt lat="45.35948" lon="-0.80704">
        <ele>-12.05</ele>
        <time>2017-03-18T13:32:47Z</time>
      </trkpt>
      <trkpt lat="45.35953" lon="-0.80731">
        <ele>-11.85</ele>
        <time>2017-03-18T13:32:53Z</time>
      </trkpt>
      <trkpt lat="45.35963" lon="-0.8081">
        <ele>-11.3</ele>
        <time>2017-03-18T13:33:10Z</time>
      </trkpt>
      <trkpt lat="45.35964" lon="-0.80819">
        <ele>-11.19</ele>
        <time>2017-03-18T13:33:12Z</time>
      </trkpt>
      <trkpt lat="45.35964" lon="-0.8086">
        <ele>-11.29</ele>
        <time>2017-03-18T13:33:21Z</time>
      </trkpt>
      <trkpt lat="45.35984" lon="-0.80892">
        <ele>-11.24</ele>
        <time>2017-03-18T13:33:31Z</time>
      </trkpt>
      <trkpt lat="45.36001" lon="-0.80891">
        <ele>-11.07</ele>
        <time>2017-03-18T13:33:36Z</time>
      </trkpt>
      <trkpt lat="45.36043" lon="-0.80887">
        <ele>-11.01</ele>
        <time>2017-03-18T13:33:49Z</time>
      </trkpt>
      <trkpt lat="45.36049" lon="-0.80888">
        <ele>-10.78</ele>
        <time>2017-03-18T13:33:51Z</time>
      </trkpt>
      <trkpt lat="45.36063" lon="-0.80892">
        <ele>-10.91</ele>
        <time>2017-03-18T13:33:55Z</time>
      </trkpt>
      <trkpt lat="45.36127" lon="-0.80928">
        <ele>-10.37</ele>
        <time>2017-03-18T13:34:12Z</time>
      </trkpt>
      <trkpt lat="45.36184" lon="-0.80973">
        <ele>-10</ele>
        <time>2017-03-18T13:34:27Z</time>
      </trkpt>
      <trkpt lat="45.36213" lon="-0.81">
        <ele>-9.86</ele>
        <time>2017-03-18T13:34:35Z</time>
      </trkpt>
      <trkpt lat="45.36229" lon="-0.81015">
        <ele>-9.97</ele>
        <time>2017-03-18T13:34:40Z</time>
      </trkpt>
      <trkpt lat="45.36248" lon="-0.8103">
        <ele>-9.58</ele>
        <time>2017-03-18T13:34:45Z</time>
      </trkpt>
      <trkpt lat="45.3627" lon="-0.8105">
        <ele>-9.31</ele>
        <time>2017-03-18T13:34:51Z</time>
      </trkpt>
      <trkpt lat="45.3631" lon="-0.8108">
        <ele>-9.69</ele>
        <time>2017-03-18T13:35:01Z</time>
      </trkpt>
      <trkpt lat="45.36322" lon="-0.81088">
        <ele>-10.54</ele>
        <time>2017-03-18T13:35:04Z</time>
      </trkpt>
      <trkpt lat="45.36337" lon="-0.81099">
        <ele>-11.55</ele>
        <time>2017-03-18T13:35:08Z</time>
      </trkpt>
      <trkpt lat="45.36402" lon="-0.81151">
        <ele>-10.85</ele>
        <time>2017-03-18T13:35:25Z</time>
      </trkpt>
      <trkpt lat="45.36414" lon="-0.81158">
        <ele>-10.93</ele>
        <time>2017-03-18T13:35:28Z</time>
      </trkpt>
      <trkpt lat="45.36445" lon="-0.8118">
        <ele>-10.49</ele>
        <time>2017-03-18T13:35:36Z</time>
      </trkpt>
      <trkpt lat="45.36464" lon="-0.81195">
        <ele>-10.39</ele>
        <time>2017-03-18T13:35:41Z</time>
      </trkpt>
      <trkpt lat="45.36508" lon="-0.8123">
        <ele>-10.47</ele>
        <time>2017-03-18T13:35:52Z</time>
      </trkpt>
      <trkpt lat="45.36556" lon="-0.81265">
        <ele>-9.79</ele>
        <time>2017-03-18T13:36:04Z</time>
      </trkpt>
      <trkpt lat="45.36602" lon="-0.81298">
        <ele>-10.19</ele>
        <time>2017-03-18T13:36:15Z</time>
      </trkpt>
      <trkpt lat="45.36668" lon="-0.81343">
        <ele>-9.33</ele>
        <time>2017-03-18T13:36:31Z</time>
      </trkpt>
      <trkpt lat="45.36688" lon="-0.81358">
        <ele>-9.55</ele>
        <time>2017-03-18T13:36:36Z</time>
      </trkpt>
      <trkpt lat="45.36712" lon="-0.81376">
        <ele>-9.61</ele>
        <time>2017-03-18T13:36:42Z</time>
      </trkpt>
      <trkpt lat="45.36724" lon="-0.81384">
        <ele>-9.41</ele>
        <time>2017-03-18T13:36:45Z</time>
      </trkpt>
      <trkpt lat="45.36745" lon="-0.81397">
        <ele>-8.99</ele>
        <time>2017-03-18T13:36:50Z</time>
      </trkpt>
      <trkpt lat="45.36809" lon="-0.81445">
        <ele>-9.57</ele>
        <time>2017-03-18T13:37:05Z</time>
      </trkpt>
      <trkpt lat="45.36822" lon="-0.81455">
        <ele>-9.59</ele>
        <time>2017-03-18T13:37:08Z</time>
      </trkpt>
      <trkpt lat="45.36882" lon="-0.81497">
        <ele>-9.21</ele>
        <time>2017-03-18T13:37:23Z</time>
      </trkpt>
      <trkpt lat="45.36941" lon="-0.81542">
        <ele>-9.2</ele>
        <time>2017-03-18T13:37:38Z</time>
      </trkpt>
      <trkpt lat="45.36986" lon="-0.81575">
        <ele>-9.39</ele>
        <time>2017-03-18T13:37:49Z</time>
      </trkpt>
      <trkpt lat="45.37027" lon="-0.81602">
        <ele>-9.97</ele>
        <time>2017-03-18T13:37:59Z</time>
      </trkpt>
      <trkpt lat="45.37046" lon="-0.81614">
        <ele>-9.72</ele>
        <time>2017-03-18T13:38:04Z</time>
      </trkpt>
      <trkpt lat="45.37064" lon="-0.81627">
        <ele>-9.83</ele>
        <time>2017-03-18T13:38:09Z</time>
      </trkpt>
      <trkpt lat="45.37121" lon="-0.81662">
        <ele>-9.4</ele>
        <time>2017-03-18T13:38:23Z</time>
      </trkpt>
      <trkpt lat="45.37161" lon="-0.81692">
        <ele>-9.55</ele>
        <time>2017-03-18T13:38:33Z</time>
      </trkpt>
      <trkpt lat="45.37228" lon="-0.81737">
        <ele>-9.49</ele>
        <time>2017-03-18T13:38:49Z</time>
      </trkpt>
      <trkpt lat="45.37245" lon="-0.8175">
        <ele>-9.63</ele>
        <time>2017-03-18T13:38:53Z</time>
      </trkpt>
      <trkpt lat="45.37265" lon="-0.81764">
        <ele>-9.3</ele>
        <time>2017-03-18T13:38:58Z</time>
      </trkpt>
      <trkpt lat="45.37293" lon="-0.81786">
        <ele>-9.32</ele>
        <time>2017-03-18T13:39:05Z</time>
      </trkpt>
      <trkpt lat="45.37347" lon="-0.81828">
        <ele>-9.35</ele>
        <time>2017-03-18T13:39:19Z</time>
      </trkpt>
      <trkpt lat="45.37355" lon="-0.81834">
        <ele>-9.17</ele>
        <time>2017-03-18T13:39:21Z</time>
      </trkpt>
      <trkpt lat="45.37404" lon="-0.81867">
        <ele>-9.19</ele>
        <time>2017-03-18T13:39:34Z</time>
      </trkpt>
      <trkpt lat="45.37408" lon="-0.8187">
        <ele>-9.19</ele>
        <time>2017-03-18T13:39:35Z</time>
      </trkpt>
      <trkpt lat="45.37479" lon="-0.81921">
        <ele>-9.38</ele>
        <time>2017-03-18T13:39:52Z</time>
      </trkpt>
      <trkpt lat="45.37483" lon="-0.81924">
        <ele>-9.43</ele>
        <time>2017-03-18T13:39:53Z</time>
      </trkpt>
      <trkpt lat="45.37538" lon="-0.81961">
        <ele>-9.54</ele>
        <time>2017-03-18T13:40:07Z</time>
      </trkpt>
      <trkpt lat="45.37574" lon="-0.81982">
        <ele>-9.47</ele>
        <time>2017-03-18T13:40:16Z</time>
      </trkpt>
      <trkpt lat="45.37588" lon="-0.8199">
        <ele>-9.31</ele>
        <time>2017-03-18T13:40:19Z</time>
      </trkpt>
      <trkpt lat="45.37667" lon="-0.82046">
        <ele>-9.24</ele>
        <time>2017-03-18T13:40:37Z</time>
      </trkpt>
      <trkpt lat="45.37725" lon="-0.8209">
        <ele>-9.21</ele>
        <time>2017-03-18T13:40:51Z</time>
      </trkpt>
      <trkpt lat="45.37789" lon="-0.82142">
        <ele>-9.38</ele>
        <time>2017-03-18T13:41:08Z</time>
      </trkpt>
      <trkpt lat="45.37818" lon="-0.82171">
        <ele>-9.69</ele>
        <time>2017-03-18T13:41:16Z</time>
      </trkpt>
      <trkpt lat="45.37826" lon="-0.82177">
        <ele>-9.38</ele>
        <time>2017-03-18T13:41:18Z</time>
      </trkpt>
      <trkpt lat="45.37895" lon="-0.82231">
        <ele>-9.22</ele>
        <time>2017-03-18T13:41:37Z</time>
      </trkpt>
      <trkpt lat="45.37908" lon="-0.82243">
        <ele>-9.35</ele>
        <time>2017-03-18T13:41:41Z</time>
      </trkpt>
      <trkpt lat="45.37953" lon="-0.82288">
        <ele>-9.6</ele>
        <time>2017-03-18T13:41:53Z</time>
      </trkpt>
      <trkpt lat="45.37986" lon="-0.82318">
        <ele>-9.32</ele>
        <time>2017-03-18T13:42:03Z</time>
      </trkpt>
      <trkpt lat="45.38014" lon="-0.82346">
        <ele>-9.45</ele>
        <time>2017-03-18T13:42:11Z</time>
      </trkpt>
      <trkpt lat="45.38027" lon="-0.82358">
        <ele>-9.74</ele>
        <time>2017-03-18T13:42:15Z</time>
      </trkpt>
      <trkpt lat="45.38092" lon="-0.82407">
        <ele>-9.69</ele>
        <time>2017-03-18T13:42:33Z</time>
      </trkpt>
      <trkpt lat="45.38115" lon="-0.82423">
        <ele>-9.7</ele>
        <time>2017-03-18T13:42:39Z</time>
      </trkpt>
      <trkpt lat="45.38173" lon="-0.82464">
        <ele>-9.26</ele>
        <time>2017-03-18T13:42:55Z</time>
      </trkpt>
      <trkpt lat="45.38235" lon="-0.82515">
        <ele>-9.28</ele>
        <time>2017-03-18T13:43:12Z</time>
      </trkpt>
      <trkpt lat="45.38294" lon="-0.82562">
        <ele>-9.09</ele>
        <time>2017-03-18T13:43:28Z</time>
      </trkpt>
      <trkpt lat="45.38334" lon="-0.82597">
        <ele>-8.97</ele>
        <time>2017-03-18T13:43:39Z</time>
      </trkpt>
      <trkpt lat="45.38353" lon="-0.82613">
        <ele>-8.95</ele>
        <time>2017-03-18T13:43:44Z</time>
      </trkpt>
      <trkpt lat="45.3836" lon="-0.82619">
        <ele>-8.99</ele>
        <time>2017-03-18T13:43:46Z</time>
      </trkpt>
      <trkpt lat="45.38368" lon="-0.82626">
        <ele>-9.04</ele>
        <time>2017-03-18T13:43:48Z</time>
      </trkpt>
      <trkpt lat="45.38433" lon="-0.82685">
        <ele>-9.31</ele>
        <time>2017-03-18T13:44:07Z</time>
      </trkpt>
      <trkpt lat="45.38454" lon="-0.82704">
        <ele>-9.07</ele>
        <time>2017-03-18T13:44:13Z</time>
      </trkpt>
      <trkpt lat="45.38472" lon="-0.82721">
        <ele>-9.06</ele>
        <time>2017-03-18T13:44:18Z</time>
      </trkpt>
      <trkpt lat="45.38498" lon="-0.82748">
        <ele>-8.97</ele>
        <time>2017-03-18T13:44:26Z</time>
      </trkpt>
      <trkpt lat="45.38515" lon="-0.82765">
        <ele>-9.09</ele>
        <time>2017-03-18T13:44:31Z</time>
      </trkpt>
      <trkpt lat="45.38535" lon="-0.82787">
        <ele>-8.9</ele>
        <time>2017-03-18T13:44:37Z</time>
      </trkpt>
      <trkpt lat="45.38545" lon="-0.82798">
        <ele>-9.19</ele>
        <time>2017-03-18T13:44:40Z</time>
      </trkpt>
      <trkpt lat="45.38564" lon="-0.82819">
        <ele>-9.1</ele>
        <time>2017-03-18T13:44:46Z</time>
      </trkpt>
      <trkpt lat="45.38574" lon="-0.82829">
        <ele>-8.9</ele>
        <time>2017-03-18T13:44:49Z</time>
      </trkpt>
      <trkpt lat="45.38644" lon="-0.82899">
        <ele>-9.24</ele>
        <time>2017-03-18T13:45:09Z</time>
      </trkpt>
      <trkpt lat="45.38706" lon="-0.82955">
        <ele>-9.4</ele>
        <time>2017-03-18T13:45:27Z</time>
      </trkpt>
      <trkpt lat="45.38739" lon="-0.82983">
        <ele>-9.23</ele>
        <time>2017-03-18T13:45:37Z</time>
      </trkpt>
      <trkpt lat="45.38799" lon="-0.83041">
        <ele>-9.18</ele>
        <time>2017-03-18T13:45:54Z</time>
      </trkpt>
      <trkpt lat="45.38829" lon="-0.83068">
        <ele>-9.09</ele>
        <time>2017-03-18T13:46:02Z</time>
      </trkpt>
      <trkpt lat="45.38858" lon="-0.83096">
        <ele>-9.26</ele>
        <time>2017-03-18T13:46:10Z</time>
      </trkpt>
      <trkpt lat="45.38873" lon="-0.8311">
        <ele>-9.15</ele>
        <time>2017-03-18T13:46:14Z</time>
      </trkpt>
      <trkpt lat="45.38884" lon="-0.83121">
        <ele>-9.26</ele>
        <time>2017-03-18T13:46:17Z</time>
      </trkpt>
      <trkpt lat="45.38904" lon="-0.83141">
        <ele>-9.23</ele>
        <time>2017-03-18T13:46:23Z</time>
      </trkpt>
      <trkpt lat="45.38915" lon="-0.83151">
        <ele>-9.23</ele>
        <time>2017-03-18T13:46:26Z</time>
      </trkpt>
      <trkpt lat="45.38937" lon="-0.83172">
        <ele>-9.28</ele>
        <time>2017-03-18T13:46:32Z</time>
      </trkpt>
      <trkpt lat="45.38959" lon="-0.83192">
        <ele>-9.45</ele>
        <time>2017-03-18T13:46:38Z</time>
      </trkpt>
      <trkpt lat="45.38981" lon="-0.83212">
        <ele>-9.51</ele>
        <time>2017-03-18T13:46:44Z</time>
      </trkpt>
      <trkpt lat="45.39" lon="-0.83229">
        <ele>-9.82</ele>
        <time>2017-03-18T13:46:49Z</time>
      </trkpt>
      <trkpt lat="45.39014" lon="-0.8324">
        <ele>-9.64</ele>
        <time>2017-03-18T13:46:53Z</time>
      </trkpt>
      <trkpt lat="45.39032" lon="-0.83256">
        <ele>-9.42</ele>
        <time>2017-03-18T13:46:58Z</time>
      </trkpt>
      <trkpt lat="45.39046" lon="-0.83268">
        <ele>-9.67</ele>
        <time>2017-03-18T13:47:02Z</time>
      </trkpt>
      <trkpt lat="45.39057" lon="-0.83275">
        <ele>-9.32</ele>
        <time>2017-03-18T13:47:05Z</time>
      </trkpt>
      <trkpt lat="45.39068" lon="-0.83283">
        <ele>-9.45</ele>
        <time>2017-03-18T13:47:08Z</time>
      </trkpt>
      <trkpt lat="45.39083" lon="-0.83295">
        <ele>-9.4</ele>
        <time>2017-03-18T13:47:12Z</time>
      </trkpt>
      <trkpt lat="45.3909" lon="-0.83301">
        <ele>-9.29</ele>
        <time>2017-03-18T13:47:14Z</time>
      </trkpt>
      <trkpt lat="45.39101" lon="-0.83312">
        <ele>-9.35</ele>
        <time>2017-03-18T13:47:17Z</time>
      </trkpt>
      <trkpt lat="45.39118" lon="-0.83328">
        <ele>-9.53</ele>
        <time>2017-03-18T13:47:22Z</time>
      </trkpt>
      <trkpt lat="45.39132" lon="-0.83342">
        <ele>-9.37</ele>
        <time>2017-03-18T13:47:26Z</time>
      </trkpt>
      <trkpt lat="45.39161" lon="-0.8337">
        <ele>-9.17</ele>
        <time>2017-03-18T13:47:34Z</time>
      </trkpt>
      <trkpt lat="45.3918" lon="-0.83387">
        <ele>-9.29</ele>
        <time>2017-03-18T13:47:39Z</time>
      </trkpt>
      <trkpt lat="45.39188" lon="-0.83394">
        <ele>-9.37</ele>
        <time>2017-03-18T13:47:41Z</time>
      </trkpt>
      <trkpt lat="45.39247" lon="-0.83445">
        <ele>-9.39</ele>
        <time>2017-03-18T13:47:57Z</time>
      </trkpt>
      <trkpt lat="45.39261" lon="-0.83457">
        <ele>-9.54</ele>
        <time>2017-03-18T13:48:01Z</time>
      </trkpt>
      <trkpt lat="45.39314" lon="-0.83499">
        <ele>-9.55</ele>
        <time>2017-03-18T13:48:17Z</time>
      </trkpt>
      <trkpt lat="45.39325" lon="-0.83508">
        <ele>-9.5</ele>
        <time>2017-03-18T13:48:20Z</time>
      </trkpt>
      <trkpt lat="45.39333" lon="-0.83514">
        <ele>-9.55</ele>
        <time>2017-03-18T13:48:22Z</time>
      </trkpt>
      <trkpt lat="45.39397" lon="-0.8356">
        <ele>-9.5</ele>
        <time>2017-03-18T13:48:39Z</time>
      </trkpt>
      <trkpt lat="45.39405" lon="-0.83565">
        <ele>-9.47</ele>
        <time>2017-03-18T13:48:41Z</time>
      </trkpt>
      <trkpt lat="45.39427" lon="-0.83584">
        <ele>-9.33</ele>
        <time>2017-03-18T13:48:47Z</time>
      </trkpt>
      <trkpt lat="45.39451" lon="-0.83605">
        <ele>-9.29</ele>
        <time>2017-03-18T13:48:54Z</time>
      </trkpt>
      <trkpt lat="45.3947" lon="-0.83623">
        <ele>-9.08</ele>
        <time>2017-03-18T13:48:59Z</time>
      </trkpt>
      <trkpt lat="45.39478" lon="-0.8363">
        <ele>-9.13</ele>
        <time>2017-03-18T13:49:01Z</time>
      </trkpt>
      <trkpt lat="45.39504" lon="-0.83651">
        <ele>-8.92</ele>
        <time>2017-03-18T13:49:08Z</time>
      </trkpt>
      <trkpt lat="45.39518" lon="-0.83664">
        <ele>-9.11</ele>
        <time>2017-03-18T13:49:12Z</time>
      </trkpt>
      <trkpt lat="45.39536" lon="-0.8368">
        <ele>-9.02</ele>
        <time>2017-03-18T13:49:17Z</time>
      </trkpt>
      <trkpt lat="45.39555" lon="-0.837">
        <ele>-9</ele>
        <time>2017-03-18T13:49:23Z</time>
      </trkpt>
      <trkpt lat="45.39566" lon="-0.83709">
        <ele>-9.11</ele>
        <time>2017-03-18T13:49:26Z</time>
      </trkpt>
      <trkpt lat="45.39576" lon="-0.8372">
        <ele>-9.3</ele>
        <time>2017-03-18T13:49:29Z</time>
      </trkpt>
      <trkpt lat="45.39598" lon="-0.8374">
        <ele>-9.26</ele>
        <time>2017-03-18T13:49:35Z</time>
      </trkpt>
      <trkpt lat="45.39662" lon="-0.83794">
        <ele>-8.91</ele>
        <time>2017-03-18T13:49:53Z</time>
      </trkpt>
      <trkpt lat="45.39722" lon="-0.83849">
        <ele>-8.92</ele>
        <time>2017-03-18T13:50:11Z</time>
      </trkpt>
      <trkpt lat="45.39725" lon="-0.83853">
        <ele>-8.92</ele>
        <time>2017-03-18T13:50:12Z</time>
      </trkpt>
      <trkpt lat="45.3975" lon="-0.83873">
        <ele>-9.13</ele>
        <time>2017-03-18T13:50:19Z</time>
      </trkpt>
      <trkpt lat="45.3981" lon="-0.83923">
        <ele>-8.96</ele>
        <time>2017-03-18T13:50:36Z</time>
      </trkpt>
      <trkpt lat="45.39823" lon="-0.83934">
        <ele>-8.71</ele>
        <time>2017-03-18T13:50:40Z</time>
      </trkpt>
      <trkpt lat="45.39879" lon="-0.83977">
        <ele>-8.25</ele>
        <time>2017-03-18T13:50:56Z</time>
      </trkpt>
      <trkpt lat="45.3989" lon="-0.83986">
        <ele>-8.42</ele>
        <time>2017-03-18T13:50:59Z</time>
      </trkpt>
      <trkpt lat="45.39905" lon="-0.83997">
        <ele>-8.19</ele>
        <time>2017-03-18T13:51:03Z</time>
      </trkpt>
      <trkpt lat="45.39956" lon="-0.84035">
        <ele>-7.93</ele>
        <time>2017-03-18T13:51:18Z</time>
      </trkpt>
      <trkpt lat="45.40008" lon="-0.84078">
        <ele>-8.1</ele>
        <time>2017-03-18T13:51:33Z</time>
      </trkpt>
      <trkpt lat="45.40055" lon="-0.84123">
        <ele>-7.94</ele>
        <time>2017-03-18T13:51:48Z</time>
      </trkpt>
      <trkpt lat="45.40078" lon="-0.84147">
        <ele>-8.12</ele>
        <time>2017-03-18T13:51:55Z</time>
      </trkpt>
      <trkpt lat="45.40089" lon="-0.84156">
        <ele>-8.12</ele>
        <time>2017-03-18T13:51:58Z</time>
      </trkpt>
      <trkpt lat="45.40144" lon="-0.84201">
        <ele>-8.57</ele>
        <time>2017-03-18T13:52:15Z</time>
      </trkpt>
      <trkpt lat="45.40189" lon="-0.84241">
        <ele>-8.16</ele>
        <time>2017-03-18T13:52:31Z</time>
      </trkpt>
      <trkpt lat="45.40248" lon="-0.84285">
        <ele>-7.83</ele>
        <time>2017-03-18T13:52:49Z</time>
      </trkpt>
      <trkpt lat="45.40285" lon="-0.8432">
        <ele>-7.48</ele>
        <time>2017-03-18T13:53:02Z</time>
      </trkpt>
      <trkpt lat="45.40327" lon="-0.84368">
        <ele>-7.84</ele>
        <time>2017-03-18T13:53:17Z</time>
      </trkpt>
      <trkpt lat="45.40374" lon="-0.84419">
        <ele>-8.11</ele>
        <time>2017-03-18T13:53:33Z</time>
      </trkpt>
      <trkpt lat="45.40425" lon="-0.84471">
        <ele>-7.88</ele>
        <time>2017-03-18T13:53:50Z</time>
      </trkpt>
      <trkpt lat="45.40477" lon="-0.84519">
        <ele>-8.33</ele>
        <time>2017-03-18T13:54:08Z</time>
      </trkpt>
      <trkpt lat="45.40516" lon="-0.84554">
        <ele>-7.93</ele>
        <time>2017-03-18T13:54:21Z</time>
      </trkpt>
      <trkpt lat="45.40565" lon="-0.84598">
        <ele>-8.33</ele>
        <time>2017-03-18T13:54:37Z</time>
      </trkpt>
      <trkpt lat="45.40611" lon="-0.84642">
        <ele>-7.3</ele>
        <time>2017-03-18T13:54:52Z</time>
      </trkpt>
      <trkpt lat="45.40658" lon="-0.84694">
        <ele>-8.29</ele>
        <time>2017-03-18T13:55:08Z</time>
      </trkpt>
      <trkpt lat="45.40694" lon="-0.84734">
        <ele>-8.43</ele>
        <time>2017-03-18T13:55:21Z</time>
      </trkpt>
      <trkpt lat="45.40743" lon="-0.84783">
        <ele>-8.49</ele>
        <time>2017-03-18T13:55:38Z</time>
      </trkpt>
      <trkpt lat="45.40793" lon="-0.84837">
        <ele>-8.83</ele>
        <time>2017-03-18T13:55:55Z</time>
      </trkpt>
      <trkpt lat="45.40837" lon="-0.84876">
        <ele>-8.04</ele>
        <time>2017-03-18T13:56:09Z</time>
      </trkpt>
      <trkpt lat="45.40883" lon="-0.84919">
        <ele>-8.22</ele>
        <time>2017-03-18T13:56:24Z</time>
      </trkpt>
      <trkpt lat="45.40929" lon="-0.84955">
        <ele>-8.29</ele>
        <time>2017-03-18T13:56:39Z</time>
      </trkpt>
      <trkpt lat="45.40976" lon="-0.84991">
        <ele>-8.84</ele>
        <time>2017-03-18T13:56:54Z</time>
      </trkpt>
      <trkpt lat="45.41023" lon="-0.85032">
        <ele>-8.92</ele>
        <time>2017-03-18T13:57:12Z</time>
      </trkpt>
      <trkpt lat="45.41061" lon="-0.85062">
        <ele>-8.29</ele>
        <time>2017-03-18T13:57:26Z</time>
      </trkpt>
      <trkpt lat="45.41104" lon="-0.85099">
        <ele>-8.71</ele>
        <time>2017-03-18T13:57:41Z</time>
      </trkpt>
      <trkpt lat="45.41128" lon="-0.8512">
        <ele>-9.01</ele>
        <time>2017-03-18T13:57:49Z</time>
      </trkpt>
      <trkpt lat="45.41175" lon="-0.85157">
        <ele>-9.1</ele>
        <time>2017-03-18T13:58:05Z</time>
      </trkpt>
      <trkpt lat="45.41224" lon="-0.85196">
        <ele>-8.91</ele>
        <time>2017-03-18T13:58:22Z</time>
      </trkpt>
      <trkpt lat="45.41261" lon="-0.85226">
        <ele>-9.09</ele>
        <time>2017-03-18T13:58:35Z</time>
      </trkpt>
      <trkpt lat="45.41313" lon="-0.85268">
        <ele>-8.61</ele>
        <time>2017-03-18T13:58:53Z</time>
      </trkpt>
      <trkpt lat="45.41365" lon="-0.85312">
        <ele>-8.67</ele>
        <time>2017-03-18T13:59:10Z</time>
      </trkpt>
      <trkpt lat="45.41414" lon="-0.85352">
        <ele>-8.66</ele>
        <time>2017-03-18T13:59:28Z</time>
      </trkpt>
      <trkpt lat="45.41453" lon="-0.85388">
        <ele>-8.57</ele>
        <time>2017-03-18T13:59:43Z</time>
      </trkpt>
      <trkpt lat="45.41496" lon="-0.85424">
        <ele>-8.58</ele>
        <time>2017-03-18T13:59:57Z</time>
      </trkpt>
      <trkpt lat="45.41554" lon="-0.85465">
        <ele>-8.53</ele>
        <time>2017-03-18T14:00:16Z</time>
      </trkpt>
      <trkpt lat="45.41595" lon="-0.85492">
        <ele>-8.68</ele>
        <time>2017-03-18T14:00:31Z</time>
      </trkpt>
      <trkpt lat="45.41646" lon="-0.85533">
        <ele>-8.47</ele>
        <time>2017-03-18T14:00:48Z</time>
      </trkpt>
      <trkpt lat="45.4169" lon="-0.85571">
        <ele>-8.77</ele>
        <time>2017-03-18T14:01:05Z</time>
      </trkpt>
      <trkpt lat="45.4173" lon="-0.856">
        <ele>-8.74</ele>
        <time>2017-03-18T14:01:22Z</time>
      </trkpt>
      <trkpt lat="45.41736" lon="-0.85604">
        <ele>-8.76</ele>
        <time>2017-03-18T14:01:23Z</time>
      </trkpt>
      <trkpt lat="45.41747" lon="-0.8561">
        <ele>-8.8</ele>
        <time>2017-03-18T14:01:26Z</time>
      </trkpt>
      <trkpt lat="45.4176" lon="-0.85619">
        <ele>-8.61</ele>
        <time>2017-03-18T14:01:31Z</time>
      </trkpt>
      <trkpt lat="45.41797" lon="-0.85651">
        <ele>-8.57</ele>
        <time>2017-03-18T14:01:46Z</time>
      </trkpt>
      <trkpt lat="45.41802" lon="-0.85654">
        <ele>-8.5</ele>
        <time>2017-03-18T14:01:48Z</time>
      </trkpt>
      <trkpt lat="45.41832" lon="-0.85679">
        <ele>-8.19</ele>
        <time>2017-03-18T14:02:00Z</time>
      </trkpt>
      <trkpt lat="45.41844" lon="-0.85689">
        <ele>-8.12</ele>
        <time>2017-03-18T14:02:05Z</time>
      </trkpt>
      <trkpt lat="45.41849" lon="-0.85693">
        <ele>-8.24</ele>
        <time>2017-03-18T14:02:07Z</time>
      </trkpt>
      <trkpt lat="45.4186" lon="-0.85702">
        <ele>-8.03</ele>
        <time>2017-03-18T14:02:11Z</time>
      </trkpt>
      <trkpt lat="45.41897" lon="-0.85734">
        <ele>-8.12</ele>
        <time>2017-03-18T14:02:25Z</time>
      </trkpt>
      <trkpt lat="45.419" lon="-0.85736">
        <ele>-8.23</ele>
        <time>2017-03-18T14:02:26Z</time>
      </trkpt>
      <trkpt lat="45.41925" lon="-0.85751">
        <ele>-7.93</ele>
        <time>2017-03-18T14:02:34Z</time>
      </trkpt>
      <trkpt lat="45.41954" lon="-0.85769">
        <ele>-8.07</ele>
        <time>2017-03-18T14:02:45Z</time>
      </trkpt>
      <trkpt lat="45.41966" lon="-0.85778">
        <ele>-8.04</ele>
        <time>2017-03-18T14:02:50Z</time>
      </trkpt>
      <trkpt lat="45.41983" lon="-0.85791">
        <ele>-7.79</ele>
        <time>2017-03-18T14:02:57Z</time>
      </trkpt>
      <trkpt lat="45.41995" lon="-0.85803">
        <ele>-7.8</ele>
        <time>2017-03-18T14:03:02Z</time>
      </trkpt>
      <trkpt lat="45.42027" lon="-0.85825">
        <ele>-7.96</ele>
        <time>2017-03-18T14:03:14Z</time>
      </trkpt>
      <trkpt lat="45.42063" lon="-0.85852">
        <ele>-8.02</ele>
        <time>2017-03-18T14:03:28Z</time>
      </trkpt>
      <trkpt lat="45.421" lon="-0.85876">
        <ele>-8.12</ele>
        <time>2017-03-18T14:03:42Z</time>
      </trkpt>
      <trkpt lat="45.42129" lon="-0.85898">
        <ele>-8.02</ele>
        <time>2017-03-18T14:03:53Z</time>
      </trkpt>
      <trkpt lat="45.42148" lon="-0.85914">
        <ele>-7.89</ele>
        <time>2017-03-18T14:04:00Z</time>
      </trkpt>
      <trkpt lat="45.42161" lon="-0.85925">
        <ele>-7.79</ele>
        <time>2017-03-18T14:04:05Z</time>
      </trkpt>
      <trkpt lat="45.42167" lon="-0.8593">
        <ele>-7.68</ele>
        <time>2017-03-18T14:04:07Z</time>
      </trkpt>
      <trkpt lat="45.42189" lon="-0.85948">
        <ele>-8</ele>
        <time>2017-03-18T14:04:15Z</time>
      </trkpt>
      <trkpt lat="45.42238" lon="-0.85986">
        <ele>-8.57</ele>
        <time>2017-03-18T14:04:33Z</time>
      </trkpt>
      <trkpt lat="45.42246" lon="-0.85993">
        <ele>-7.86</ele>
        <time>2017-03-18T14:04:36Z</time>
      </trkpt>
      <trkpt lat="45.42262" lon="-0.86004">
        <ele>-9.05</ele>
        <time>2017-03-18T14:04:41Z</time>
      </trkpt>
      <trkpt lat="45.42276" lon="-0.86017">
        <ele>-7.93</ele>
        <time>2017-03-18T14:04:46Z</time>
      </trkpt>
      <trkpt lat="45.42309" lon="-0.86039">
        <ele>-8.27</ele>
        <time>2017-03-18T14:04:57Z</time>
      </trkpt>
      <trkpt lat="45.42338" lon="-0.86065">
        <ele>-7.53</ele>
        <time>2017-03-18T14:05:07Z</time>
      </trkpt>
      <trkpt lat="45.42347" lon="-0.86072">
        <ele>-7.86</ele>
        <time>2017-03-18T14:05:10Z</time>
      </trkpt>
      <trkpt lat="45.4237" lon="-0.86092">
        <ele>-7.57</ele>
        <time>2017-03-18T14:05:18Z</time>
      </trkpt>
      <trkpt lat="45.42402" lon="-0.86119">
        <ele>-7.58</ele>
        <time>2017-03-18T14:05:29Z</time>
      </trkpt>
      <trkpt lat="45.42422" lon="-0.86136">
        <ele>-7.69</ele>
        <time>2017-03-18T14:05:36Z</time>
      </trkpt>
      <trkpt lat="45.42467" lon="-0.86176">
        <ele>-8</ele>
        <time>2017-03-18T14:05:52Z</time>
      </trkpt>
      <trkpt lat="45.42482" lon="-0.86189">
        <ele>-7.7</ele>
        <time>2017-03-18T14:05:58Z</time>
      </trkpt>
      <trkpt lat="45.42525" lon="-0.86229">
        <ele>-7.73</ele>
        <time>2017-03-18T14:06:14Z</time>
      </trkpt>
      <trkpt lat="45.42536" lon="-0.86238">
        <ele>-7.76</ele>
        <time>2017-03-18T14:06:18Z</time>
      </trkpt>
      <trkpt lat="45.42546" lon="-0.86247">
        <ele>-7.78</ele>
        <time>2017-03-18T14:06:22Z</time>
      </trkpt>
      <trkpt lat="45.42552" lon="-0.86253">
        <ele>-7.95</ele>
        <time>2017-03-18T14:06:24Z</time>
      </trkpt>
      <trkpt lat="45.42602" lon="-0.86303">
        <ele>-8.15</ele>
        <time>2017-03-18T14:06:43Z</time>
      </trkpt>
      <trkpt lat="45.42648" lon="-0.86338">
        <ele>-7.58</ele>
        <time>2017-03-18T14:06:58Z</time>
      </trkpt>
      <trkpt lat="45.42696" lon="-0.86356">
        <ele>-7.89</ele>
        <time>2017-03-18T14:07:13Z</time>
      </trkpt>
      <trkpt lat="45.42738" lon="-0.86401">
        <ele>-7.92</ele>
        <time>2017-03-18T14:07:29Z</time>
      </trkpt>
      <trkpt lat="45.42782" lon="-0.8644">
        <ele>-7.82</ele>
        <time>2017-03-18T14:07:45Z</time>
      </trkpt>
      <trkpt lat="45.4282" lon="-0.86474">
        <ele>-7.81</ele>
        <time>2017-03-18T14:08:00Z</time>
      </trkpt>
      <trkpt lat="45.42857" lon="-0.86505">
        <ele>-7.31</ele>
        <time>2017-03-18T14:08:15Z</time>
      </trkpt>
      <trkpt lat="45.42896" lon="-0.86538">
        <ele>-7.18</ele>
        <time>2017-03-18T14:08:31Z</time>
      </trkpt>
      <trkpt lat="45.42937" lon="-0.86572">
        <ele>-7.59</ele>
        <time>2017-03-18T14:08:46Z</time>
      </trkpt>
      <trkpt lat="45.42985" lon="-0.8661">
        <ele>-7.25</ele>
        <time>2017-03-18T14:09:03Z</time>
      </trkpt>
      <trkpt lat="45.43024" lon="-0.86645">
        <ele>-6.7</ele>
        <time>2017-03-18T14:09:17Z</time>
      </trkpt>
      <trkpt lat="45.43062" lon="-0.86675">
        <ele>-7.05</ele>
        <time>2017-03-18T14:09:33Z</time>
      </trkpt>
      <trkpt lat="45.43104" lon="-0.86712">
        <ele>-6.82</ele>
        <time>2017-03-18T14:09:49Z</time>
      </trkpt>
      <trkpt lat="45.43148" lon="-0.86739">
        <ele>-6.65</ele>
        <time>2017-03-18T14:10:05Z</time>
      </trkpt>
      <trkpt lat="45.43201" lon="-0.86784">
        <ele>-6.63</ele>
        <time>2017-03-18T14:10:25Z</time>
      </trkpt>
      <trkpt lat="45.43245" lon="-0.86817">
        <ele>-6.76</ele>
        <time>2017-03-18T14:10:40Z</time>
      </trkpt>
      <trkpt lat="45.43258" lon="-0.8682">
        <ele>-6.27</ele>
        <time>2017-03-18T14:10:44Z</time>
      </trkpt>
      <trkpt lat="45.43302" lon="-0.86855">
        <ele>-6.75</ele>
        <time>2017-03-18T14:11:00Z</time>
      </trkpt>
      <trkpt lat="45.43342" lon="-0.86886">
        <ele>-6.2</ele>
        <time>2017-03-18T14:11:14Z</time>
      </trkpt>
      <trkpt lat="45.43357" lon="-0.8689">
        <ele>-6.56</ele>
        <time>2017-03-18T14:11:18Z</time>
      </trkpt>
      <trkpt lat="45.43376" lon="-0.86903">
        <ele>-7</ele>
        <time>2017-03-18T14:11:25Z</time>
      </trkpt>
      <trkpt lat="45.43403" lon="-0.86925">
        <ele>-6.71</ele>
        <time>2017-03-18T14:11:34Z</time>
      </trkpt>
      <trkpt lat="45.43426" lon="-0.86945">
        <ele>-7.12</ele>
        <time>2017-03-18T14:11:41Z</time>
      </trkpt>
      <trkpt lat="45.43473" lon="-0.8699">
        <ele>-6.56</ele>
        <time>2017-03-18T14:11:59Z</time>
      </trkpt>
      <trkpt lat="45.43521" lon="-0.87033">
        <ele>-7.16</ele>
        <time>2017-03-18T14:12:16Z</time>
      </trkpt>
      <trkpt lat="45.43572" lon="-0.87076">
        <ele>-6.7</ele>
        <time>2017-03-18T14:12:32Z</time>
      </trkpt>
      <trkpt lat="45.43615" lon="-0.87109">
        <ele>-6.85</ele>
        <time>2017-03-18T14:12:47Z</time>
      </trkpt>
      <trkpt lat="45.43664" lon="-0.87161">
        <ele>-6.71</ele>
        <time>2017-03-18T14:13:05Z</time>
      </trkpt>
      <trkpt lat="45.43709" lon="-0.87206">
        <ele>-6.59</ele>
        <time>2017-03-18T14:13:21Z</time>
      </trkpt>
      <trkpt lat="45.43751" lon="-0.87246">
        <ele>-7.01</ele>
        <time>2017-03-18T14:13:36Z</time>
      </trkpt>
      <trkpt lat="45.43793" lon="-0.87286">
        <ele>-6.74</ele>
        <time>2017-03-18T14:13:52Z</time>
      </trkpt>
      <trkpt lat="45.43842" lon="-0.87336">
        <ele>-6.33</ele>
        <time>2017-03-18T14:14:10Z</time>
      </trkpt>
      <trkpt lat="45.4389" lon="-0.87381">
        <ele>-6.71</ele>
        <time>2017-03-18T14:14:27Z</time>
      </trkpt>
      <trkpt lat="45.43942" lon="-0.87437">
        <ele>-6.58</ele>
        <time>2017-03-18T14:14:47Z</time>
      </trkpt>
      <trkpt lat="45.43987" lon="-0.87485">
        <ele>-6.68</ele>
        <time>2017-03-18T14:15:05Z</time>
      </trkpt>
      <trkpt lat="45.44028" lon="-0.87533">
        <ele>-6.42</ele>
        <time>2017-03-18T14:15:21Z</time>
      </trkpt>
      <trkpt lat="45.44074" lon="-0.87582">
        <ele>-6.42</ele>
        <time>2017-03-18T14:15:38Z</time>
      </trkpt>
      <trkpt lat="45.44119" lon="-0.8763">
        <ele>-6.01</ele>
        <time>2017-03-18T14:15:55Z</time>
      </trkpt>
      <trkpt lat="45.44162" lon="-0.8768">
        <ele>-5.98</ele>
        <time>2017-03-18T14:16:12Z</time>
      </trkpt>
      <trkpt lat="45.44207" lon="-0.87723">
        <ele>-5.89</ele>
        <time>2017-03-18T14:16:28Z</time>
      </trkpt>
      <trkpt lat="45.44246" lon="-0.87769">
        <ele>-5.85</ele>
        <time>2017-03-18T14:16:43Z</time>
      </trkpt>
      <trkpt lat="45.44294" lon="-0.87824">
        <ele>-5.79</ele>
        <time>2017-03-18T14:17:00Z</time>
      </trkpt>
      <trkpt lat="45.44318" lon="-0.87855">
        <ele>-5.59</ele>
        <time>2017-03-18T14:17:09Z</time>
      </trkpt>
      <trkpt lat="45.44335" lon="-0.87871">
        <ele>-5.97</ele>
        <time>2017-03-18T14:17:15Z</time>
      </trkpt>
      <trkpt lat="45.44367" lon="-0.879">
        <ele>-5.92</ele>
        <time>2017-03-18T14:17:28Z</time>
      </trkpt>
      <trkpt lat="45.44407" lon="-0.87945">
        <ele>-5.46</ele>
        <time>2017-03-18T14:17:45Z</time>
      </trkpt>
      <trkpt lat="45.4442" lon="-0.87958">
        <ele>-4.96</ele>
        <time>2017-03-18T14:17:50Z</time>
      </trkpt>
      <trkpt lat="45.44465" lon="-0.88001">
        <ele>-5.52</ele>
        <time>2017-03-18T14:18:07Z</time>
      </trkpt>
      <trkpt lat="45.44487" lon="-0.88026">
        <ele>-5.44</ele>
        <time>2017-03-18T14:18:15Z</time>
      </trkpt>
      <trkpt lat="45.44498" lon="-0.88039">
        <ele>-5.51</ele>
        <time>2017-03-18T14:18:20Z</time>
      </trkpt>
      <trkpt lat="45.44549" lon="-0.881">
        <ele>-5.53</ele>
        <time>2017-03-18T14:18:40Z</time>
      </trkpt>
      <trkpt lat="45.44584" lon="-0.88146">
        <ele>-5.65</ele>
        <time>2017-03-18T14:18:55Z</time>
      </trkpt>
      <trkpt lat="45.4463" lon="-0.8819">
        <ele>-5.67</ele>
        <time>2017-03-18T14:19:14Z</time>
      </trkpt>
      <trkpt lat="45.44673" lon="-0.88242">
        <ele>-5.65</ele>
        <time>2017-03-18T14:19:34Z</time>
      </trkpt>
      <trkpt lat="45.44726" lon="-0.88297">
        <ele>-5.94</ele>
        <time>2017-03-18T14:19:55Z</time>
      </trkpt>
      <trkpt lat="45.44771" lon="-0.88335">
        <ele>-5.87</ele>
        <time>2017-03-18T14:20:12Z</time>
      </trkpt>
      <trkpt lat="45.44818" lon="-0.88372">
        <ele>-5.75</ele>
        <time>2017-03-18T14:20:28Z</time>
      </trkpt>
      <trkpt lat="45.44858" lon="-0.8841">
        <ele>-5.89</ele>
        <time>2017-03-18T14:20:43Z</time>
      </trkpt>
      <trkpt lat="45.44899" lon="-0.88441">
        <ele>-5.81</ele>
        <time>2017-03-18T14:20:59Z</time>
      </trkpt>
      <trkpt lat="45.44914" lon="-0.88454">
        <ele>-5.71</ele>
        <time>2017-03-18T14:21:04Z</time>
      </trkpt>
      <trkpt lat="45.44925" lon="-0.88463">
        <ele>-6.39</ele>
        <time>2017-03-18T14:21:09Z</time>
      </trkpt>
      <trkpt lat="45.44977" lon="-0.88501">
        <ele>-5.64</ele>
        <time>2017-03-18T14:21:29Z</time>
      </trkpt>
      <trkpt lat="45.45024" lon="-0.88532">
        <ele>-5.24</ele>
        <time>2017-03-18T14:21:46Z</time>
      </trkpt>
      <trkpt lat="45.45062" lon="-0.88557">
        <ele>-5.09</ele>
        <time>2017-03-18T14:21:59Z</time>
      </trkpt>
      <trkpt lat="45.45074" lon="-0.88565">
        <ele>-4.85</ele>
        <time>2017-03-18T14:22:03Z</time>
      </trkpt>
      <trkpt lat="45.45094" lon="-0.8858">
        <ele>-5.26</ele>
        <time>2017-03-18T14:22:09Z</time>
      </trkpt>
      <trkpt lat="45.45144" lon="-0.88626">
        <ele>-4.92</ele>
        <time>2017-03-18T14:22:27Z</time>
      </trkpt>
      <trkpt lat="45.45161" lon="-0.88643">
        <ele>-5.25</ele>
        <time>2017-03-18T14:22:34Z</time>
      </trkpt>
      <trkpt lat="45.4518" lon="-0.88658">
        <ele>-5.35</ele>
        <time>2017-03-18T14:22:40Z</time>
      </trkpt>
      <trkpt lat="45.45232" lon="-0.88707">
        <ele>-5.31</ele>
        <time>2017-03-18T14:22:57Z</time>
      </trkpt>
      <trkpt lat="45.45277" lon="-0.88746">
        <ele>-5.76</ele>
        <time>2017-03-18T14:23:12Z</time>
      </trkpt>
      <trkpt lat="45.4528" lon="-0.88749">
        <ele>-5.65</ele>
        <time>2017-03-18T14:23:13Z</time>
      </trkpt>
      <trkpt lat="45.45296" lon="-0.88763">
        <ele>-5.85</ele>
        <time>2017-03-18T14:23:19Z</time>
      </trkpt>
      <trkpt lat="45.45346" lon="-0.88807">
        <ele>-4.98</ele>
        <time>2017-03-18T14:23:36Z</time>
      </trkpt>
      <trkpt lat="45.45359" lon="-0.8882">
        <ele>-4.8</ele>
        <time>2017-03-18T14:23:41Z</time>
      </trkpt>
      <trkpt lat="45.45408" lon="-0.88862">
        <ele>-5.73</ele>
        <time>2017-03-18T14:24:00Z</time>
      </trkpt>
      <trkpt lat="45.45453" lon="-0.88899">
        <ele>-5.23</ele>
        <time>2017-03-18T14:24:18Z</time>
      </trkpt>
      <trkpt lat="45.45497" lon="-0.88936">
        <ele>-5.54</ele>
        <time>2017-03-18T14:24:36Z</time>
      </trkpt>
      <trkpt lat="45.45542" lon="-0.88977">
        <ele>-5.32</ele>
        <time>2017-03-18T14:24:52Z</time>
      </trkpt>
      <trkpt lat="45.45584" lon="-0.89016">
        <ele>-5.65</ele>
        <time>2017-03-18T14:25:08Z</time>
      </trkpt>
      <trkpt lat="45.45621" lon="-0.89032">
        <ele>-5.32</ele>
        <time>2017-03-18T14:25:23Z</time>
      </trkpt>
      <trkpt lat="45.45676" lon="-0.89071">
        <ele>-5.67</ele>
        <time>2017-03-18T14:25:45Z</time>
      </trkpt>
      <trkpt lat="45.45717" lon="-0.89109">
        <ele>-5.63</ele>
        <time>2017-03-18T14:26:04Z</time>
      </trkpt>
      <trkpt lat="45.45769" lon="-0.89146">
        <ele>-5.69</ele>
        <time>2017-03-18T14:26:23Z</time>
      </trkpt>
      <trkpt lat="45.45815" lon="-0.89184">
        <ele>-5.49</ele>
        <time>2017-03-18T14:26:41Z</time>
      </trkpt>
      <trkpt lat="45.45854" lon="-0.89215">
        <ele>-5.27</ele>
        <time>2017-03-18T14:26:56Z</time>
      </trkpt>
      <trkpt lat="45.459" lon="-0.89252">
        <ele>-5.04</ele>
        <time>2017-03-18T14:27:12Z</time>
      </trkpt>
      <trkpt lat="45.45945" lon="-0.89294">
        <ele>-5.32</ele>
        <time>2017-03-18T14:27:29Z</time>
      </trkpt>
      <trkpt lat="45.45984" lon="-0.89336">
        <ele>-5.37</ele>
        <time>2017-03-18T14:27:47Z</time>
      </trkpt>
      <trkpt lat="45.46019" lon="-0.89377">
        <ele>-5.43</ele>
        <time>2017-03-18T14:28:04Z</time>
      </trkpt>
      <trkpt lat="45.46063" lon="-0.89426">
        <ele>-5.22</ele>
        <time>2017-03-18T14:28:24Z</time>
      </trkpt>
      <trkpt lat="45.46102" lon="-0.89467">
        <ele>-5.41</ele>
        <time>2017-03-18T14:28:40Z</time>
      </trkpt>
      <trkpt lat="45.4614" lon="-0.89514">
        <ele>-5.28</ele>
        <time>2017-03-18T14:28:58Z</time>
      </trkpt>
      <trkpt lat="45.46171" lon="-0.89544">
        <ele>-5.1</ele>
        <time>2017-03-18T14:29:14Z</time>
      </trkpt>
      <trkpt lat="45.46211" lon="-0.89581">
        <ele>-4.94</ele>
        <time>2017-03-18T14:29:32Z</time>
      </trkpt>
      <trkpt lat="45.46244" lon="-0.89621">
        <ele>-4.61</ele>
        <time>2017-03-18T14:29:47Z</time>
      </trkpt>
      <trkpt lat="45.46267" lon="-0.89646">
        <ele>-4.77</ele>
        <time>2017-03-18T14:29:55Z</time>
      </trkpt>
      <trkpt lat="45.46283" lon="-0.89661">
        <ele>-5.01</ele>
        <time>2017-03-18T14:30:00Z</time>
      </trkpt>
      <trkpt lat="45.46321" lon="-0.89705">
        <ele>-4.92</ele>
        <time>2017-03-18T14:30:17Z</time>
      </trkpt>
      <trkpt lat="45.4635" lon="-0.89741">
        <ele>-4.7</ele>
        <time>2017-03-18T14:30:30Z</time>
      </trkpt>
      <trkpt lat="45.46393" lon="-0.89784">
        <ele>-4.46</ele>
        <time>2017-03-18T14:30:47Z</time>
      </trkpt>
      <trkpt lat="45.46433" lon="-0.89821">
        <ele>-4.69</ele>
        <time>2017-03-18T14:31:02Z</time>
      </trkpt>
      <trkpt lat="45.46469" lon="-0.89856">
        <ele>-4.07</ele>
        <time>2017-03-18T14:31:19Z</time>
      </trkpt>
      <trkpt lat="45.46507" lon="-0.89898">
        <ele>-4.39</ele>
        <time>2017-03-18T14:31:37Z</time>
      </trkpt>
      <trkpt lat="45.46545" lon="-0.89936">
        <ele>-4.52</ele>
        <time>2017-03-18T14:31:52Z</time>
      </trkpt>
      <trkpt lat="45.46549" lon="-0.8994">
        <ele>-4.58</ele>
        <time>2017-03-18T14:31:54Z</time>
      </trkpt>
      <trkpt lat="45.46559" lon="-0.8995">
        <ele>-4.4</ele>
        <time>2017-03-18T14:31:59Z</time>
      </trkpt>
      <trkpt lat="45.46577" lon="-0.89969">
        <ele>-4.46</ele>
        <time>2017-03-18T14:32:06Z</time>
      </trkpt>
      <trkpt lat="45.4662" lon="-0.90014">
        <ele>-4.62</ele>
        <time>2017-03-18T14:32:24Z</time>
      </trkpt>
      <trkpt lat="45.46658" lon="-0.9005">
        <ele>-4.5</ele>
        <time>2017-03-18T14:32:39Z</time>
      </trkpt>
      <trkpt lat="45.46675" lon="-0.90067">
        <ele>-4.6</ele>
        <time>2017-03-18T14:32:46Z</time>
      </trkpt>
      <trkpt lat="45.46703" lon="-0.90098">
        <ele>-4.6</ele>
        <time>2017-03-18T14:32:57Z</time>
      </trkpt>
      <trkpt lat="45.46749" lon="-0.90141">
        <ele>-4.6</ele>
        <time>2017-03-18T14:33:15Z</time>
      </trkpt>
      <trkpt lat="45.46787" lon="-0.90185">
        <ele>-4.75</ele>
        <time>2017-03-18T14:33:30Z</time>
      </trkpt>
      <trkpt lat="45.46821" lon="-0.9022">
        <ele>-4.42</ele>
        <time>2017-03-18T14:33:44Z</time>
      </trkpt>
      <trkpt lat="45.46865" lon="-0.90262">
        <ele>-4.62</ele>
        <time>2017-03-18T14:34:01Z</time>
      </trkpt>
      <trkpt lat="45.46903" lon="-0.90295">
        <ele>-4.37</ele>
        <time>2017-03-18T14:34:16Z</time>
      </trkpt>
      <trkpt lat="45.4694" lon="-0.9033">
        <ele>-4.52</ele>
        <time>2017-03-18T14:34:32Z</time>
      </trkpt>
      <trkpt lat="45.4698" lon="-0.90367">
        <ele>-4.8</ele>
        <time>2017-03-18T14:34:48Z</time>
      </trkpt>
      <trkpt lat="45.47029" lon="-0.9041">
        <ele>-5.23</ele>
        <time>2017-03-18T14:35:08Z</time>
      </trkpt>
      <trkpt lat="45.4707" lon="-0.90448">
        <ele>-5.11</ele>
        <time>2017-03-18T14:35:25Z</time>
      </trkpt>
      <trkpt lat="45.47116" lon="-0.90487">
        <ele>-5.05</ele>
        <time>2017-03-18T14:35:45Z</time>
      </trkpt>
      <trkpt lat="45.47118" lon="-0.90488">
        <ele>-4.92</ele>
        <time>2017-03-18T14:35:46Z</time>
      </trkpt>
      <trkpt lat="45.47156" lon="-0.90519">
        <ele>-5.06</ele>
        <time>2017-03-18T14:35:59Z</time>
      </trkpt>
      <trkpt lat="45.47165" lon="-0.90527">
        <ele>-5.04</ele>
        <time>2017-03-18T14:36:03Z</time>
      </trkpt>
      <trkpt lat="45.4718" lon="-0.90543">
        <ele>-5.04</ele>
        <time>2017-03-18T14:36:09Z</time>
      </trkpt>
      <trkpt lat="45.47195" lon="-0.90557">
        <ele>-5.12</ele>
        <time>2017-03-18T14:36:15Z</time>
      </trkpt>
      <trkpt lat="45.47219" lon="-0.90585">
        <ele>-4.56</ele>
        <time>2017-03-18T14:36:25Z</time>
      </trkpt>
      <trkpt lat="45.47251" lon="-0.90621">
        <ele>-5.93</ele>
        <time>2017-03-18T14:36:38Z</time>
      </trkpt>
      <trkpt lat="45.47254" lon="-0.90624">
        <ele>-5.88</ele>
        <time>2017-03-18T14:36:39Z</time>
      </trkpt>
      <trkpt lat="45.47266" lon="-0.90638">
        <ele>-4.42</ele>
        <time>2017-03-18T14:36:44Z</time>
      </trkpt>
      <trkpt lat="45.47305" lon="-0.90677">
        <ele>-5.03</ele>
        <time>2017-03-18T14:36:59Z</time>
      </trkpt>
      <trkpt lat="45.47315" lon="-0.90688">
        <ele>-4.72</ele>
        <time>2017-03-18T14:37:03Z</time>
      </trkpt>
      <trkpt lat="45.47321" lon="-0.90694">
        <ele>-4.38</ele>
        <time>2017-03-18T14:37:05Z</time>
      </trkpt>
      <trkpt lat="45.47326" lon="-0.90699">
        <ele>-4.36</ele>
        <time>2017-03-18T14:37:07Z</time>
      </trkpt>
      <trkpt lat="45.47337" lon="-0.9071">
        <ele>-4.83</ele>
        <time>2017-03-18T14:37:11Z</time>
      </trkpt>
      <trkpt lat="45.4736" lon="-0.90737">
        <ele>-4.45</ele>
        <time>2017-03-18T14:37:20Z</time>
      </trkpt>
      <trkpt lat="45.47392" lon="-0.90777">
        <ele>-4.45</ele>
        <time>2017-03-18T14:37:33Z</time>
      </trkpt>
      <trkpt lat="45.47417" lon="-0.908">
        <ele>-4.53</ele>
        <time>2017-03-18T14:37:42Z</time>
      </trkpt>
      <trkpt lat="45.47449" lon="-0.90842">
        <ele>-4.41</ele>
        <time>2017-03-18T14:37:56Z</time>
      </trkpt>
      <trkpt lat="45.47492" lon="-0.90892">
        <ele>-4.88</ele>
        <time>2017-03-18T14:38:13Z</time>
      </trkpt>
      <trkpt lat="45.47535" lon="-0.90947">
        <ele>-5.35</ele>
        <time>2017-03-18T14:38:31Z</time>
      </trkpt>
      <trkpt lat="45.47564" lon="-0.9098">
        <ele>-5.43</ele>
        <time>2017-03-18T14:38:43Z</time>
      </trkpt>
      <trkpt lat="45.47575" lon="-0.90989">
        <ele>-5.62</ele>
        <time>2017-03-18T14:38:47Z</time>
      </trkpt>
      <trkpt lat="45.47594" lon="-0.91005">
        <ele>-5.46</ele>
        <time>2017-03-18T14:38:54Z</time>
      </trkpt>
      <trkpt lat="45.47639" lon="-0.91052">
        <ele>-5.91</ele>
        <time>2017-03-18T14:39:11Z</time>
      </trkpt>
      <trkpt lat="45.47664" lon="-0.9108">
        <ele>-5.79</ele>
        <time>2017-03-18T14:39:22Z</time>
      </trkpt>
      <trkpt lat="45.47677" lon="-0.91096">
        <ele>-6.09</ele>
        <time>2017-03-18T14:39:27Z</time>
      </trkpt>
      <trkpt lat="45.47715" lon="-0.91141">
        <ele>-6.2</ele>
        <time>2017-03-18T14:39:44Z</time>
      </trkpt>
      <trkpt lat="45.47721" lon="-0.91147">
        <ele>-6.06</ele>
        <time>2017-03-18T14:39:47Z</time>
      </trkpt>
      <trkpt lat="45.47751" lon="-0.91176">
        <ele>-6.06</ele>
        <time>2017-03-18T14:40:01Z</time>
      </trkpt>
      <trkpt lat="45.47782" lon="-0.91207">
        <ele>-6.21</ele>
        <time>2017-03-18T14:40:15Z</time>
      </trkpt>
      <trkpt lat="45.47815" lon="-0.91242">
        <ele>-5.81</ele>
        <time>2017-03-18T14:40:29Z</time>
      </trkpt>
      <trkpt lat="45.47852" lon="-0.91278">
        <ele>-6.22</ele>
        <time>2017-03-18T14:40:44Z</time>
      </trkpt>
      <trkpt lat="45.47887" lon="-0.91312">
        <ele>-5.36</ele>
        <time>2017-03-18T14:41:00Z</time>
      </trkpt>
      <trkpt lat="45.47906" lon="-0.91334">
        <ele>-5.01</ele>
        <time>2017-03-18T14:41:08Z</time>
      </trkpt>
      <trkpt lat="45.47941" lon="-0.91377">
        <ele>-5.42</ele>
        <time>2017-03-18T14:41:24Z</time>
      </trkpt>
      <trkpt lat="45.47978" lon="-0.91419">
        <ele>-6.23</ele>
        <time>2017-03-18T14:41:40Z</time>
      </trkpt>
      <trkpt lat="45.48013" lon="-0.91455">
        <ele>-5.98</ele>
        <time>2017-03-18T14:41:59Z</time>
      </trkpt>
      <trkpt lat="45.48049" lon="-0.91489">
        <ele>-5.81</ele>
        <time>2017-03-18T14:42:17Z</time>
      </trkpt>
      <trkpt lat="45.48057" lon="-0.91499">
        <ele>-5.35</ele>
        <time>2017-03-18T14:42:22Z</time>
      </trkpt>
      <trkpt lat="45.48092" lon="-0.91541">
        <ele>-5.33</ele>
        <time>2017-03-18T14:42:38Z</time>
      </trkpt>
      <trkpt lat="45.48122" lon="-0.91572">
        <ele>-5.54</ele>
        <time>2017-03-18T14:42:53Z</time>
      </trkpt>
      <trkpt lat="45.48157" lon="-0.91609">
        <ele>-5.92</ele>
        <time>2017-03-18T14:43:10Z</time>
      </trkpt>
      <trkpt lat="45.48192" lon="-0.91643">
        <ele>-5.73</ele>
        <time>2017-03-18T14:43:26Z</time>
      </trkpt>
      <trkpt lat="45.48227" lon="-0.91675">
        <ele>-5.3</ele>
        <time>2017-03-18T14:43:43Z</time>
      </trkpt>
      <trkpt lat="45.48261" lon="-0.91708">
        <ele>-5.38</ele>
        <time>2017-03-18T14:43:57Z</time>
      </trkpt>
      <trkpt lat="45.48302" lon="-0.91745">
        <ele>-5.84</ele>
        <time>2017-03-18T14:44:13Z</time>
      </trkpt>
      <trkpt lat="45.48336" lon="-0.91775">
        <ele>-5.45</ele>
        <time>2017-03-18T14:44:29Z</time>
      </trkpt>
      <trkpt lat="45.48375" lon="-0.91813">
        <ele>-5.34</ele>
        <time>2017-03-18T14:44:45Z</time>
      </trkpt>
      <trkpt lat="45.48385" lon="-0.9182">
        <ele>-5.11</ele>
        <time>2017-03-18T14:44:49Z</time>
      </trkpt>
      <trkpt lat="45.48394" lon="-0.91824">
        <ele>-5.38</ele>
        <time>2017-03-18T14:44:53Z</time>
      </trkpt>
      <trkpt lat="45.48408" lon="-0.91838">
        <ele>-4.58</ele>
        <time>2017-03-18T14:44:59Z</time>
      </trkpt>
      <trkpt lat="45.48443" lon="-0.91875">
        <ele>-5.1</ele>
        <time>2017-03-18T14:45:15Z</time>
      </trkpt>
      <trkpt lat="45.48476" lon="-0.91912">
        <ele>-4.84</ele>
        <time>2017-03-18T14:45:29Z</time>
      </trkpt>
      <trkpt lat="45.48486" lon="-0.91925">
        <ele>-5.65</ele>
        <time>2017-03-18T14:45:33Z</time>
      </trkpt>
      <trkpt lat="45.48514" lon="-0.91957">
        <ele>-5.04</ele>
        <time>2017-03-18T14:45:45Z</time>
      </trkpt>
      <trkpt lat="45.48547" lon="-0.91995">
        <ele>-5.45</ele>
        <time>2017-03-18T14:45:59Z</time>
      </trkpt>
      <trkpt lat="45.48559" lon="-0.92007">
        <ele>-5.37</ele>
        <time>2017-03-18T14:46:04Z</time>
      </trkpt>
      <trkpt lat="45.48599" lon="-0.92057">
        <ele>-5.61</ele>
        <time>2017-03-18T14:46:22Z</time>
      </trkpt>
      <trkpt lat="45.48641" lon="-0.921">
        <ele>-5.87</ele>
        <time>2017-03-18T14:46:38Z</time>
      </trkpt>
      <trkpt lat="45.48682" lon="-0.92139">
        <ele>-5.62</ele>
        <time>2017-03-18T14:46:55Z</time>
      </trkpt>
      <trkpt lat="45.48717" lon="-0.92176">
        <ele>-5.46</ele>
        <time>2017-03-18T14:47:09Z</time>
      </trkpt>
      <trkpt lat="45.48759" lon="-0.92225">
        <ele>-5.69</ele>
        <time>2017-03-18T14:47:26Z</time>
      </trkpt>
      <trkpt lat="45.48799" lon="-0.92261">
        <ele>-5.4</ele>
        <time>2017-03-18T14:47:42Z</time>
      </trkpt>
      <trkpt lat="45.48834" lon="-0.92295">
        <ele>-5.79</ele>
        <time>2017-03-18T14:47:59Z</time>
      </trkpt>
      <trkpt lat="45.48868" lon="-0.92332">
        <ele>-5.7</ele>
        <time>2017-03-18T14:48:14Z</time>
      </trkpt>
      <trkpt lat="45.48874" lon="-0.92339">
        <ele>-5.46</ele>
        <time>2017-03-18T14:48:17Z</time>
      </trkpt>
      <trkpt lat="45.48891" lon="-0.92354">
        <ele>-5.45</ele>
        <time>2017-03-18T14:48:24Z</time>
      </trkpt>
      <trkpt lat="45.48903" lon="-0.92365">
        <ele>-5.44</ele>
        <time>2017-03-18T14:48:29Z</time>
      </trkpt>
      <trkpt lat="45.48908" lon="-0.92371">
        <ele>-5.56</ele>
        <time>2017-03-18T14:48:32Z</time>
      </trkpt>
      <trkpt lat="45.48938" lon="-0.92396">
        <ele>-5.79</ele>
        <time>2017-03-18T14:48:46Z</time>
      </trkpt>
      <trkpt lat="45.48965" lon="-0.92409">
        <ele>-5.72</ele>
        <time>2017-03-18T14:48:56Z</time>
      </trkpt>
      <trkpt lat="45.49019" lon="-0.92452">
        <ele>-5.7</ele>
        <time>2017-03-18T14:49:17Z</time>
      </trkpt>
      <trkpt lat="45.49056" lon="-0.92488">
        <ele>-5.31</ele>
        <time>2017-03-18T14:49:35Z</time>
      </trkpt>
      <trkpt lat="45.49095" lon="-0.92523">
        <ele>-5.55</ele>
        <time>2017-03-18T14:49:52Z</time>
      </trkpt>
      <trkpt lat="45.4913" lon="-0.92552">
        <ele>-5.58</ele>
        <time>2017-03-18T14:50:09Z</time>
      </trkpt>
      <trkpt lat="45.49164" lon="-0.92582">
        <ele>-5.41</ele>
        <time>2017-03-18T14:50:28Z</time>
      </trkpt>
      <trkpt lat="45.49196" lon="-0.92612">
        <ele>-5.19</ele>
        <time>2017-03-18T14:50:43Z</time>
      </trkpt>
      <trkpt lat="45.49231" lon="-0.92637">
        <ele>-4.68</ele>
        <time>2017-03-18T14:50:57Z</time>
      </trkpt>
      <trkpt lat="45.49252" lon="-0.92662">
        <ele>-4.53</ele>
        <time>2017-03-18T14:51:07Z</time>
      </trkpt>
      <trkpt lat="45.49265" lon="-0.92676">
        <ele>-4.72</ele>
        <time>2017-03-18T14:51:13Z</time>
      </trkpt>
      <trkpt lat="45.49285" lon="-0.92698">
        <ele>-5.06</ele>
        <time>2017-03-18T14:51:21Z</time>
      </trkpt>
      <trkpt lat="45.49295" lon="-0.92708">
        <ele>-4.95</ele>
        <time>2017-03-18T14:51:25Z</time>
      </trkpt>
      <trkpt lat="45.49332" lon="-0.92746">
        <ele>-4.71</ele>
        <time>2017-03-18T14:51:40Z</time>
      </trkpt>
      <trkpt lat="45.49342" lon="-0.92756">
        <ele>-5.51</ele>
        <time>2017-03-18T14:51:44Z</time>
      </trkpt>
      <trkpt lat="45.49375" lon="-0.92796">
        <ele>-5.29</ele>
        <time>2017-03-18T14:51:59Z</time>
      </trkpt>
      <trkpt lat="45.4938" lon="-0.92802">
        <ele>-5.24</ele>
        <time>2017-03-18T14:52:01Z</time>
      </trkpt>
      <trkpt lat="45.49392" lon="-0.92819">
        <ele>-4.95</ele>
        <time>2017-03-18T14:52:07Z</time>
      </trkpt>
      <trkpt lat="45.49397" lon="-0.92824">
        <ele>-5.04</ele>
        <time>2017-03-18T14:52:09Z</time>
      </trkpt>
      <trkpt lat="45.49424" lon="-0.92864">
        <ele>-4.84</ele>
        <time>2017-03-18T14:52:23Z</time>
      </trkpt>
      <trkpt lat="45.49457" lon="-0.929">
        <ele>-4.79</ele>
        <time>2017-03-18T14:52:37Z</time>
      </trkpt>
      <trkpt lat="45.4947" lon="-0.92915">
        <ele>-4.76</ele>
        <time>2017-03-18T14:52:43Z</time>
      </trkpt>
      <trkpt lat="45.49511" lon="-0.92964">
        <ele>-4.74</ele>
        <time>2017-03-18T14:53:02Z</time>
      </trkpt>
      <trkpt lat="45.49552" lon="-0.93">
        <ele>-5.04</ele>
        <time>2017-03-18T14:53:19Z</time>
      </trkpt>
      <trkpt lat="45.49593" lon="-0.93047">
        <ele>-4.93</ele>
        <time>2017-03-18T14:53:36Z</time>
      </trkpt>
      <trkpt lat="45.49628" lon="-0.93097">
        <ele>-5.04</ele>
        <time>2017-03-18T14:53:54Z</time>
      </trkpt>
      <trkpt lat="45.49668" lon="-0.93137">
        <ele>-5.51</ele>
        <time>2017-03-18T14:54:11Z</time>
      </trkpt>
      <trkpt lat="45.49704" lon="-0.93179">
        <ele>-5.06</ele>
        <time>2017-03-18T14:54:27Z</time>
      </trkpt>
      <trkpt lat="45.49733" lon="-0.93213">
        <ele>-4.95</ele>
        <time>2017-03-18T14:54:41Z</time>
      </trkpt>
      <trkpt lat="45.49745" lon="-0.93225">
        <ele>-4.94</ele>
        <time>2017-03-18T14:54:46Z</time>
      </trkpt>
      <trkpt lat="45.49757" lon="-0.93235">
        <ele>-5.75</ele>
        <time>2017-03-18T14:54:52Z</time>
      </trkpt>
      <trkpt lat="45.49793" lon="-0.93276">
        <ele>-5.22</ele>
        <time>2017-03-18T14:55:09Z</time>
      </trkpt>
      <trkpt lat="45.49823" lon="-0.93304">
        <ele>-5.19</ele>
        <time>2017-03-18T14:55:22Z</time>
      </trkpt>
      <trkpt lat="45.49859" lon="-0.93338">
        <ele>-5.34</ele>
        <time>2017-03-18T14:55:38Z</time>
      </trkpt>
      <trkpt lat="45.49896" lon="-0.93373">
        <ele>-5.49</ele>
        <time>2017-03-18T14:55:54Z</time>
      </trkpt>
      <trkpt lat="45.49941" lon="-0.93417">
        <ele>-5.45</ele>
        <time>2017-03-18T14:56:13Z</time>
      </trkpt>
      <trkpt lat="45.49979" lon="-0.93451">
        <ele>-5.62</ele>
        <time>2017-03-18T14:56:29Z</time>
      </trkpt>
      <trkpt lat="45.50012" lon="-0.93482">
        <ele>-5.52</ele>
        <time>2017-03-18T14:56:44Z</time>
      </trkpt>
      <trkpt lat="45.50049" lon="-0.93517">
        <ele>-4.67</ele>
        <time>2017-03-18T14:57:01Z</time>
      </trkpt>
      <trkpt lat="45.5009" lon="-0.93556">
        <ele>-4.91</ele>
        <time>2017-03-18T14:57:20Z</time>
      </trkpt>
      <trkpt lat="45.50132" lon="-0.936">
        <ele>-4.82</ele>
        <time>2017-03-18T14:57:38Z</time>
      </trkpt>
      <trkpt lat="45.50162" lon="-0.93633">
        <ele>-4.95</ele>
        <time>2017-03-18T14:57:53Z</time>
      </trkpt>
      <trkpt lat="45.50196" lon="-0.93665">
        <ele>-5.35</ele>
        <time>2017-03-18T14:58:09Z</time>
      </trkpt>
      <trkpt lat="45.50226" lon="-0.93687">
        <ele>-5.24</ele>
        <time>2017-03-18T14:58:21Z</time>
      </trkpt>
      <trkpt lat="45.5026" lon="-0.93718">
        <ele>-4.85</ele>
        <time>2017-03-18T14:58:36Z</time>
      </trkpt>
      <trkpt lat="45.50291" lon="-0.9375">
        <ele>-4.62</ele>
        <time>2017-03-18T14:58:51Z</time>
      </trkpt>
      <trkpt lat="45.50328" lon="-0.93789">
        <ele>-4.58</ele>
        <time>2017-03-18T14:59:08Z</time>
      </trkpt>
      <trkpt lat="45.50364" lon="-0.93827">
        <ele>-4.39</ele>
        <time>2017-03-18T14:59:25Z</time>
      </trkpt>
      <trkpt lat="45.504" lon="-0.93869">
        <ele>-4.78</ele>
        <time>2017-03-18T14:59:42Z</time>
      </trkpt>
      <trkpt lat="45.50439" lon="-0.93907">
        <ele>-4.52</ele>
        <time>2017-03-18T14:59:58Z</time>
      </trkpt>
      <trkpt lat="45.50475" lon="-0.93936">
        <ele>-4.29</ele>
        <time>2017-03-18T15:00:12Z</time>
      </trkpt>
      <trkpt lat="45.50487" lon="-0.9395">
        <ele>-4.54</ele>
        <time>2017-03-18T15:00:17Z</time>
      </trkpt>
      <trkpt lat="45.50499" lon="-0.93963">
        <ele>-4.51</ele>
        <time>2017-03-18T15:00:22Z</time>
      </trkpt>
      <trkpt lat="45.50537" lon="-0.94006">
        <ele>-4.38</ele>
        <time>2017-03-18T15:00:40Z</time>
      </trkpt>
      <trkpt lat="45.50568" lon="-0.94053">
        <ele>-4.55</ele>
        <time>2017-03-18T15:00:57Z</time>
      </trkpt>
      <trkpt lat="45.50601" lon="-0.94098">
        <ele>-4.25</ele>
        <time>2017-03-18T15:01:12Z</time>
      </trkpt>
      <trkpt lat="45.50633" lon="-0.94145">
        <ele>-3.98</ele>
        <time>2017-03-18T15:01:29Z</time>
      </trkpt>
      <trkpt lat="45.50667" lon="-0.94189">
        <ele>-4.29</ele>
        <time>2017-03-18T15:01:45Z</time>
      </trkpt>
      <trkpt lat="45.50705" lon="-0.94228">
        <ele>-4.83</ele>
        <time>2017-03-18T15:02:02Z</time>
      </trkpt>
      <trkpt lat="45.50742" lon="-0.94265">
        <ele>-4.66</ele>
        <time>2017-03-18T15:02:21Z</time>
      </trkpt>
      <trkpt lat="45.50768" lon="-0.94302">
        <ele>-4.23</ele>
        <time>2017-03-18T15:02:37Z</time>
      </trkpt>
      <trkpt lat="45.50805" lon="-0.94353">
        <ele>-4.39</ele>
        <time>2017-03-18T15:02:55Z</time>
      </trkpt>
      <trkpt lat="45.50843" lon="-0.94392">
        <ele>-4.11</ele>
        <time>2017-03-18T15:03:12Z</time>
      </trkpt>
      <trkpt lat="45.50875" lon="-0.94436">
        <ele>-4.34</ele>
        <time>2017-03-18T15:03:29Z</time>
      </trkpt>
      <trkpt lat="45.50908" lon="-0.94473">
        <ele>-4.88</ele>
        <time>2017-03-18T15:03:46Z</time>
      </trkpt>
      <trkpt lat="45.50917" lon="-0.94482">
        <ele>-4.89</ele>
        <time>2017-03-18T15:03:51Z</time>
      </trkpt>
      <trkpt lat="45.50955" lon="-0.94528">
        <ele>-4.81</ele>
        <time>2017-03-18T15:04:09Z</time>
      </trkpt>
      <trkpt lat="45.50993" lon="-0.9457">
        <ele>-4.91</ele>
        <time>2017-03-18T15:04:29Z</time>
      </trkpt>
      <trkpt lat="45.51035" lon="-0.94615">
        <ele>-4.74</ele>
        <time>2017-03-18T15:04:50Z</time>
      </trkpt>
      <trkpt lat="45.51066" lon="-0.94656">
        <ele>-4.82</ele>
        <time>2017-03-18T15:05:09Z</time>
      </trkpt>
      <trkpt lat="45.51097" lon="-0.94692">
        <ele>-4.58</ele>
        <time>2017-03-18T15:05:27Z</time>
      </trkpt>
      <trkpt lat="45.51128" lon="-0.94738">
        <ele>-4.35</ele>
        <time>2017-03-18T15:05:44Z</time>
      </trkpt>
      <trkpt lat="45.51137" lon="-0.94748">
        <ele>-4.25</ele>
        <time>2017-03-18T15:05:49Z</time>
      </trkpt>
      <trkpt lat="45.51171" lon="-0.94791">
        <ele>-4.31</ele>
        <time>2017-03-18T15:06:07Z</time>
      </trkpt>
      <trkpt lat="45.51211" lon="-0.94828">
        <ele>-4.47</ele>
        <time>2017-03-18T15:06:25Z</time>
      </trkpt>
      <trkpt lat="45.5122" lon="-0.94838">
        <ele>-4.41</ele>
        <time>2017-03-18T15:06:29Z</time>
      </trkpt>
      <trkpt lat="45.51228" lon="-0.94846">
        <ele>-4.5</ele>
        <time>2017-03-18T15:06:33Z</time>
      </trkpt>
      <trkpt lat="45.51238" lon="-0.94855">
        <ele>-4.69</ele>
        <time>2017-03-18T15:06:37Z</time>
      </trkpt>
      <trkpt lat="45.5128" lon="-0.94899">
        <ele>-4.13</ele>
        <time>2017-03-18T15:06:57Z</time>
      </trkpt>
      <trkpt lat="45.51316" lon="-0.94938">
        <ele>-4.33</ele>
        <time>2017-03-18T15:07:18Z</time>
      </trkpt>
      <trkpt lat="45.51324" lon="-0.94945">
        <ele>-4.67</ele>
        <time>2017-03-18T15:07:23Z</time>
      </trkpt>
      <trkpt lat="45.51327" lon="-0.94948">
        <ele>-4.53</ele>
        <time>2017-03-18T15:07:26Z</time>
      </trkpt>
      <trkpt lat="45.51336" lon="-0.94952">
        <ele>-4.9</ele>
        <time>2017-03-18T15:07:32Z</time>
      </trkpt>
      <trkpt lat="45.51339" lon="-0.94956">
        <ele>-5.06</ele>
        <time>2017-03-18T15:07:35Z</time>
      </trkpt>
      <trkpt lat="45.51347" lon="-0.94962">
        <ele>-4.83</ele>
        <time>2017-03-18T15:07:40Z</time>
      </trkpt>
      <trkpt lat="45.5135" lon="-0.94965">
        <ele>-4.73</ele>
        <time>2017-03-18T15:07:42Z</time>
      </trkpt>
      <trkpt lat="45.51374" lon="-0.94987">
        <ele>-4.57</ele>
        <time>2017-03-18T15:07:57Z</time>
      </trkpt>
      <trkpt lat="45.51404" lon="-0.95013">
        <ele>-5.3</ele>
        <time>2017-03-18T15:08:13Z</time>
      </trkpt>
      <trkpt lat="45.51411" lon="-0.95021">
        <ele>-5.11</ele>
        <time>2017-03-18T15:08:17Z</time>
      </trkpt>
      <trkpt lat="45.51417" lon="-0.95029">
        <ele>-4.88</ele>
        <time>2017-03-18T15:08:21Z</time>
      </trkpt>
      <trkpt lat="45.51422" lon="-0.95035">
        <ele>-5.08</ele>
        <time>2017-03-18T15:08:24Z</time>
      </trkpt>
      <trkpt lat="45.51441" lon="-0.9505">
        <ele>-4.53</ele>
        <time>2017-03-18T15:08:33Z</time>
      </trkpt>
      <trkpt lat="45.51455" lon="-0.95059">
        <ele>-4.57</ele>
        <time>2017-03-18T15:08:39Z</time>
      </trkpt>
      <trkpt lat="45.5146" lon="-0.95062">
        <ele>-4.57</ele>
        <time>2017-03-18T15:08:41Z</time>
      </trkpt>
      <trkpt lat="45.51471" lon="-0.95073">
        <ele>-4.39</ele>
        <time>2017-03-18T15:08:47Z</time>
      </trkpt>
      <trkpt lat="45.51478" lon="-0.95081">
        <ele>-4.26</ele>
        <time>2017-03-18T15:08:51Z</time>
      </trkpt>
      <trkpt lat="45.51491" lon="-0.95096">
        <ele>-4.39</ele>
        <time>2017-03-18T15:08:58Z</time>
      </trkpt>
      <trkpt lat="45.51513" lon="-0.95127">
        <ele>-4.48</ele>
        <time>2017-03-18T15:09:12Z</time>
      </trkpt>
      <trkpt lat="45.51542" lon="-0.95159">
        <ele>-4.38</ele>
        <time>2017-03-18T15:09:29Z</time>
      </trkpt>
      <trkpt lat="45.51574" lon="-0.95195">
        <ele>-4.23</ele>
        <time>2017-03-18T15:09:45Z</time>
      </trkpt>
      <trkpt lat="45.51609" lon="-0.95234">
        <ele>-4.14</ele>
        <time>2017-03-18T15:10:03Z</time>
      </trkpt>
      <trkpt lat="45.51645" lon="-0.95277">
        <ele>-4.19</ele>
        <time>2017-03-18T15:10:22Z</time>
      </trkpt>
      <trkpt lat="45.51673" lon="-0.95312">
        <ele>-3.83</ele>
        <time>2017-03-18T15:10:38Z</time>
      </trkpt>
      <trkpt lat="45.51702" lon="-0.95351">
        <ele>-4.01</ele>
        <time>2017-03-18T15:10:54Z</time>
      </trkpt>
      <trkpt lat="45.5173" lon="-0.95377">
        <ele>-4.36</ele>
        <time>2017-03-18T15:11:09Z</time>
      </trkpt>
      <trkpt lat="45.51762" lon="-0.95404">
        <ele>-5.05</ele>
        <time>2017-03-18T15:11:27Z</time>
      </trkpt>
      <trkpt lat="45.51773" lon="-0.95416">
        <ele>-4.48</ele>
        <time>2017-03-18T15:11:34Z</time>
      </trkpt>
      <trkpt lat="45.51787" lon="-0.95428">
        <ele>-4.65</ele>
        <time>2017-03-18T15:11:41Z</time>
      </trkpt>
      <trkpt lat="45.51831" lon="-0.95461">
        <ele>-4.56</ele>
        <time>2017-03-18T15:12:02Z</time>
      </trkpt>
      <trkpt lat="45.5186" lon="-0.95485">
        <ele>-4.79</ele>
        <time>2017-03-18T15:12:17Z</time>
      </trkpt>
      <trkpt lat="45.51894" lon="-0.9551">
        <ele>-5.01</ele>
        <time>2017-03-18T15:12:34Z</time>
      </trkpt>
      <trkpt lat="45.51926" lon="-0.95535">
        <ele>-4.44</ele>
        <time>2017-03-18T15:12:49Z</time>
      </trkpt>
      <trkpt lat="45.51953" lon="-0.95565">
        <ele>-4.43</ele>
        <time>2017-03-18T15:13:03Z</time>
      </trkpt>
      <trkpt lat="45.51983" lon="-0.956">
        <ele>-4.72</ele>
        <time>2017-03-18T15:13:18Z</time>
      </trkpt>
      <trkpt lat="45.52019" lon="-0.95638">
        <ele>-4.22</ele>
        <time>2017-03-18T15:13:37Z</time>
      </trkpt>
      <trkpt lat="45.52054" lon="-0.95675">
        <ele>-4.42</ele>
        <time>2017-03-18T15:13:54Z</time>
      </trkpt>
      <trkpt lat="45.52092" lon="-0.95705">
        <ele>-4.43</ele>
        <time>2017-03-18T15:14:12Z</time>
      </trkpt>
      <trkpt lat="45.5213" lon="-0.95746">
        <ele>-4.79</ele>
        <time>2017-03-18T15:14:32Z</time>
      </trkpt>
      <trkpt lat="45.52165" lon="-0.95783">
        <ele>-4.57</ele>
        <time>2017-03-18T15:14:50Z</time>
      </trkpt>
      <trkpt lat="45.522" lon="-0.9582">
        <ele>-4.47</ele>
        <time>2017-03-18T15:15:09Z</time>
      </trkpt>
      <trkpt lat="45.52231" lon="-0.95859">
        <ele>-4.39</ele>
        <time>2017-03-18T15:15:28Z</time>
      </trkpt>
      <trkpt lat="45.52263" lon="-0.95902">
        <ele>-4.7</ele>
        <time>2017-03-18T15:15:47Z</time>
      </trkpt>
      <trkpt lat="45.52295" lon="-0.95941">
        <ele>-4.64</ele>
        <time>2017-03-18T15:16:05Z</time>
      </trkpt>
      <trkpt lat="45.52309" lon="-0.95963">
        <ele>-4.93</ele>
        <time>2017-03-18T15:16:14Z</time>
      </trkpt>
      <trkpt lat="45.52322" lon="-0.95978">
        <ele>-4.29</ele>
        <time>2017-03-18T15:16:22Z</time>
      </trkpt>
      <trkpt lat="45.52335" lon="-0.95996">
        <ele>-4.39</ele>
        <time>2017-03-18T15:16:30Z</time>
      </trkpt>
      <trkpt lat="45.52353" lon="-0.96019">
        <ele>-4.87</ele>
        <time>2017-03-18T15:16:40Z</time>
      </trkpt>
      <trkpt lat="45.52385" lon="-0.96058">
        <ele>-4.53</ele>
        <time>2017-03-18T15:16:58Z</time>
      </trkpt>
      <trkpt lat="45.52413" lon="-0.96099">
        <ele>-4.37</ele>
        <time>2017-03-18T15:17:16Z</time>
      </trkpt>
      <trkpt lat="45.5242" lon="-0.96112">
        <ele>-4.8</ele>
        <time>2017-03-18T15:17:21Z</time>
      </trkpt>
      <trkpt lat="45.52426" lon="-0.96122">
        <ele>-4.67</ele>
        <time>2017-03-18T15:17:25Z</time>
      </trkpt>
      <trkpt lat="45.52432" lon="-0.96133">
        <ele>-4.66</ele>
        <time>2017-03-18T15:17:29Z</time>
      </trkpt>
      <trkpt lat="45.52438" lon="-0.96143">
        <ele>-4.62</ele>
        <time>2017-03-18T15:17:33Z</time>
      </trkpt>
      <trkpt lat="45.52464" lon="-0.96186">
        <ele>-4.83</ele>
        <time>2017-03-18T15:17:50Z</time>
      </trkpt>
      <trkpt lat="45.5247" lon="-0.96195">
        <ele>-4.87</ele>
        <time>2017-03-18T15:17:54Z</time>
      </trkpt>
      <trkpt lat="45.52478" lon="-0.96206">
        <ele>-4.79</ele>
        <time>2017-03-18T15:17:59Z</time>
      </trkpt>
      <trkpt lat="45.52483" lon="-0.96212">
        <ele>-4.4</ele>
        <time>2017-03-18T15:18:02Z</time>
      </trkpt>
      <trkpt lat="45.52489" lon="-0.96222">
        <ele>-3.71</ele>
        <time>2017-03-18T15:18:06Z</time>
      </trkpt>
      <trkpt lat="45.52499" lon="-0.96236">
        <ele>-4.4</ele>
        <time>2017-03-18T15:18:12Z</time>
      </trkpt>
      <trkpt lat="45.5253" lon="-0.96286">
        <ele>-4.66</ele>
        <time>2017-03-18T15:18:33Z</time>
      </trkpt>
      <trkpt lat="45.52557" lon="-0.96324">
        <ele>-4.24</ele>
        <time>2017-03-18T15:18:49Z</time>
      </trkpt>
      <trkpt lat="45.52564" lon="-0.96334">
        <ele>-4.67</ele>
        <time>2017-03-18T15:18:53Z</time>
      </trkpt>
      <trkpt lat="45.52577" lon="-0.96349">
        <ele>-4.49</ele>
        <time>2017-03-18T15:19:00Z</time>
      </trkpt>
      <trkpt lat="45.52605" lon="-0.96384">
        <ele>-4.46</ele>
        <time>2017-03-18T15:19:17Z</time>
      </trkpt>
      <trkpt lat="45.5261" lon="-0.96391">
        <ele>-5.01</ele>
        <time>2017-03-18T15:19:20Z</time>
      </trkpt>
      <trkpt lat="45.5264" lon="-0.96432">
        <ele>-4.77</ele>
        <time>2017-03-18T15:19:38Z</time>
      </trkpt>
      <trkpt lat="45.52672" lon="-0.96468">
        <ele>-4.46</ele>
        <time>2017-03-18T15:19:55Z</time>
      </trkpt>
      <trkpt lat="45.52681" lon="-0.96476">
        <ele>-4.52</ele>
        <time>2017-03-18T15:19:59Z</time>
      </trkpt>
      <trkpt lat="45.52688" lon="-0.9648">
        <ele>-4.16</ele>
        <time>2017-03-18T15:20:02Z</time>
      </trkpt>
      <trkpt lat="45.52698" lon="-0.96489">
        <ele>-4.7</ele>
        <time>2017-03-18T15:20:07Z</time>
      </trkpt>
      <trkpt lat="45.52704" lon="-0.96495">
        <ele>-4.51</ele>
        <time>2017-03-18T15:20:10Z</time>
      </trkpt>
      <trkpt lat="45.5272" lon="-0.96514">
        <ele>-4.73</ele>
        <time>2017-03-18T15:20:21Z</time>
      </trkpt>
      <trkpt lat="45.52722" lon="-0.96516">
        <ele>-4.64</ele>
        <time>2017-03-18T15:20:22Z</time>
      </trkpt>
      <trkpt lat="45.52726" lon="-0.96521">
        <ele>-4.76</ele>
        <time>2017-03-18T15:20:25Z</time>
      </trkpt>
      <trkpt lat="45.52745" lon="-0.96537">
        <ele>-4.51</ele>
        <time>2017-03-18T15:20:35Z</time>
      </trkpt>
      <trkpt lat="45.52747" lon="-0.96539">
        <ele>-4.43</ele>
        <time>2017-03-18T15:20:36Z</time>
      </trkpt>
      <trkpt lat="45.52779" lon="-0.96572">
        <ele>-3.8</ele>
        <time>2017-03-18T15:20:51Z</time>
      </trkpt>
      <trkpt lat="45.52801" lon="-0.96583">
        <ele>-4.25</ele>
        <time>2017-03-18T15:21:01Z</time>
      </trkpt>
      <trkpt lat="45.52828" lon="-0.96603">
        <ele>-4.46</ele>
        <time>2017-03-18T15:21:13Z</time>
      </trkpt>
      <trkpt lat="45.52841" lon="-0.96613">
        <ele>-4.81</ele>
        <time>2017-03-18T15:21:19Z</time>
      </trkpt>
      <trkpt lat="45.5286" lon="-0.9663">
        <ele>-4.81</ele>
        <time>2017-03-18T15:21:29Z</time>
      </trkpt>
      <trkpt lat="45.52868" lon="-0.96637">
        <ele>-4.97</ele>
        <time>2017-03-18T15:21:33Z</time>
      </trkpt>
      <trkpt lat="45.52907" lon="-0.96672">
        <ele>-4.55</ele>
        <time>2017-03-18T15:21:52Z</time>
      </trkpt>
      <trkpt lat="45.5294" lon="-0.96696">
        <ele>-4.67</ele>
        <time>2017-03-18T15:22:08Z</time>
      </trkpt>
      <trkpt lat="45.52972" lon="-0.96728">
        <ele>-4.44</ele>
        <time>2017-03-18T15:22:25Z</time>
      </trkpt>
      <trkpt lat="45.53009" lon="-0.96765">
        <ele>-4.16</ele>
        <time>2017-03-18T15:22:44Z</time>
      </trkpt>
      <trkpt lat="45.53028" lon="-0.96784">
        <ele>-4.33</ele>
        <time>2017-03-18T15:22:54Z</time>
      </trkpt>
      <trkpt lat="45.53035" lon="-0.96792">
        <ele>-4.7</ele>
        <time>2017-03-18T15:22:58Z</time>
      </trkpt>
      <trkpt lat="45.53058" lon="-0.9682">
        <ele>-4.9</ele>
        <time>2017-03-18T15:23:12Z</time>
      </trkpt>
      <trkpt lat="45.53091" lon="-0.96848">
        <ele>-4.45</ele>
        <time>2017-03-18T15:23:29Z</time>
      </trkpt>
      <trkpt lat="45.53131" lon="-0.96878">
        <ele>-4.49</ele>
        <time>2017-03-18T15:23:48Z</time>
      </trkpt>
      <trkpt lat="45.53162" lon="-0.96908">
        <ele>-4.65</ele>
        <time>2017-03-18T15:24:06Z</time>
      </trkpt>
      <trkpt lat="45.5317" lon="-0.96916">
        <ele>-4.79</ele>
        <time>2017-03-18T15:24:11Z</time>
      </trkpt>
      <trkpt lat="45.53188" lon="-0.96934">
        <ele>-4.72</ele>
        <time>2017-03-18T15:24:21Z</time>
      </trkpt>
      <trkpt lat="45.53221" lon="-0.96965">
        <ele>-4.29</ele>
        <time>2017-03-18T15:24:39Z</time>
      </trkpt>
      <trkpt lat="45.53256" lon="-0.97">
        <ele>-4.32</ele>
        <time>2017-03-18T15:24:57Z</time>
      </trkpt>
      <trkpt lat="45.5328" lon="-0.97034">
        <ele>-4.16</ele>
        <time>2017-03-18T15:25:13Z</time>
      </trkpt>
      <trkpt lat="45.53292" lon="-0.97047">
        <ele>-3.89</ele>
        <time>2017-03-18T15:25:20Z</time>
      </trkpt>
      <trkpt lat="45.53299" lon="-0.97054">
        <ele>-4.14</ele>
        <time>2017-03-18T15:25:26Z</time>
      </trkpt>
      <trkpt lat="45.5332" lon="-0.9707">
        <ele>-4.29</ele>
        <time>2017-03-18T15:25:37Z</time>
      </trkpt>
      <trkpt lat="45.53329" lon="-0.97079">
        <ele>-4.18</ele>
        <time>2017-03-18T15:25:44Z</time>
      </trkpt>
      <trkpt lat="45.53338" lon="-0.9709">
        <ele>-3.57</ele>
        <time>2017-03-18T15:25:49Z</time>
      </trkpt>
      <trkpt lat="45.53352" lon="-0.97107">
        <ele>-3.95</ele>
        <time>2017-03-18T15:25:57Z</time>
      </trkpt>
      <trkpt lat="45.5336" lon="-0.97117">
        <ele>-4.69</ele>
        <time>2017-03-18T15:26:02Z</time>
      </trkpt>
      <trkpt lat="45.5338" lon="-0.97139">
        <ele>-4.16</ele>
        <time>2017-03-18T15:26:14Z</time>
      </trkpt>
      <trkpt lat="45.53399" lon="-0.97161">
        <ele>-3.76</ele>
        <time>2017-03-18T15:26:26Z</time>
      </trkpt>
      <trkpt lat="45.53405" lon="-0.97169">
        <ele>-3.91</ele>
        <time>2017-03-18T15:26:30Z</time>
      </trkpt>
      <trkpt lat="45.53439" lon="-0.97204">
        <ele>-3.95</ele>
        <time>2017-03-18T15:26:50Z</time>
      </trkpt>
      <trkpt lat="45.5346" lon="-0.97224">
        <ele>-4.25</ele>
        <time>2017-03-18T15:27:01Z</time>
      </trkpt>
      <trkpt lat="45.53467" lon="-0.97237">
        <ele>-3.9</ele>
        <time>2017-03-18T15:27:07Z</time>
      </trkpt>
      <trkpt lat="45.53494" lon="-0.9727">
        <ele>-4.09</ele>
        <time>2017-03-18T15:27:24Z</time>
      </trkpt>
      <trkpt lat="45.53497" lon="-0.97274">
        <ele>-4.25</ele>
        <time>2017-03-18T15:27:26Z</time>
      </trkpt>
      <trkpt lat="45.53507" lon="-0.97283">
        <ele>-4.11</ele>
        <time>2017-03-18T15:27:32Z</time>
      </trkpt>
      <trkpt lat="45.53526" lon="-0.97309">
        <ele>-4.18</ele>
        <time>2017-03-18T15:27:45Z</time>
      </trkpt>
      <trkpt lat="45.53529" lon="-0.97313">
        <ele>-4.05</ele>
        <time>2017-03-18T15:27:47Z</time>
      </trkpt>
      <trkpt lat="45.53557" lon="-0.9735">
        <ele>-4.03</ele>
        <time>2017-03-18T15:28:04Z</time>
      </trkpt>
      <trkpt lat="45.53576" lon="-0.97378">
        <ele>-4.01</ele>
        <time>2017-03-18T15:28:17Z</time>
      </trkpt>
      <trkpt lat="45.53601" lon="-0.97409">
        <ele>-4.34</ele>
        <time>2017-03-18T15:28:32Z</time>
      </trkpt>
      <trkpt lat="45.53627" lon="-0.97437">
        <ele>-3.8</ele>
        <time>2017-03-18T15:28:47Z</time>
      </trkpt>
      <trkpt lat="45.53656" lon="-0.97476">
        <ele>-3.79</ele>
        <time>2017-03-18T15:29:05Z</time>
      </trkpt>
      <trkpt lat="45.53674" lon="-0.97493">
        <ele>-4.09</ele>
        <time>2017-03-18T15:29:15Z</time>
      </trkpt>
      <trkpt lat="45.53696" lon="-0.97528">
        <ele>-3.77</ele>
        <time>2017-03-18T15:29:31Z</time>
      </trkpt>
      <trkpt lat="45.53719" lon="-0.97565">
        <ele>-3.9</ele>
        <time>2017-03-18T15:29:47Z</time>
      </trkpt>
      <trkpt lat="45.53753" lon="-0.97592">
        <ele>-4.26</ele>
        <time>2017-03-18T15:30:03Z</time>
      </trkpt>
      <trkpt lat="45.5378" lon="-0.97607">
        <ele>-4.4</ele>
        <time>2017-03-18T15:30:17Z</time>
      </trkpt>
      <trkpt lat="45.53812" lon="-0.97639">
        <ele>-4.32</ele>
        <time>2017-03-18T15:30:35Z</time>
      </trkpt>
      <trkpt lat="45.53841" lon="-0.97666">
        <ele>-3.95</ele>
        <time>2017-03-18T15:30:50Z</time>
      </trkpt>
      <trkpt lat="45.53865" lon="-0.97691">
        <ele>-4.19</ele>
        <time>2017-03-18T15:31:03Z</time>
      </trkpt>
      <trkpt lat="45.5389" lon="-0.97715">
        <ele>-4.01</ele>
        <time>2017-03-18T15:31:17Z</time>
      </trkpt>
      <trkpt lat="45.53922" lon="-0.97744">
        <ele>-3.86</ele>
        <time>2017-03-18T15:31:33Z</time>
      </trkpt>
      <trkpt lat="45.53953" lon="-0.97767">
        <ele>-3.7</ele>
        <time>2017-03-18T15:31:47Z</time>
      </trkpt>
      <trkpt lat="45.53984" lon="-0.97795">
        <ele>-3.93</ele>
        <time>2017-03-18T15:32:02Z</time>
      </trkpt>
      <trkpt lat="45.54015" lon="-0.97822">
        <ele>-3.6</ele>
        <time>2017-03-18T15:32:17Z</time>
      </trkpt>
      <trkpt lat="45.5405" lon="-0.97856">
        <ele>-3.14</ele>
        <time>2017-03-18T15:32:34Z</time>
      </trkpt>
      <trkpt lat="45.5406" lon="-0.97864">
        <ele>-3.81</ele>
        <time>2017-03-18T15:32:39Z</time>
      </trkpt>
      <trkpt lat="45.54077" lon="-0.97882">
        <ele>-3.58</ele>
        <time>2017-03-18T15:32:49Z</time>
      </trkpt>
      <trkpt lat="45.54085" lon="-0.97888">
        <ele>-3.73</ele>
        <time>2017-03-18T15:32:53Z</time>
      </trkpt>
      <trkpt lat="45.54119" lon="-0.97917">
        <ele>-3.02</ele>
        <time>2017-03-18T15:33:10Z</time>
      </trkpt>
      <trkpt lat="45.5414" lon="-0.97941">
        <ele>-3.06</ele>
        <time>2017-03-18T15:33:21Z</time>
      </trkpt>
      <trkpt lat="45.54179" lon="-0.97968">
        <ele>-3.42</ele>
        <time>2017-03-18T15:33:38Z</time>
      </trkpt>
      <trkpt lat="45.54213" lon="-0.97991">
        <ele>-3.56</ele>
        <time>2017-03-18T15:33:53Z</time>
      </trkpt>
      <trkpt lat="45.54253" lon="-0.98017">
        <ele>-3.49</ele>
        <time>2017-03-18T15:34:10Z</time>
      </trkpt>
      <trkpt lat="45.54287" lon="-0.98039">
        <ele>-3.56</ele>
        <time>2017-03-18T15:34:25Z</time>
      </trkpt>
      <trkpt lat="45.54315" lon="-0.98057">
        <ele>-3.74</ele>
        <time>2017-03-18T15:34:38Z</time>
      </trkpt>
      <trkpt lat="45.54328" lon="-0.98072">
        <ele>-3.52</ele>
        <time>2017-03-18T15:34:46Z</time>
      </trkpt>
      <trkpt lat="45.54338" lon="-0.98083">
        <ele>-3.11</ele>
        <time>2017-03-18T15:34:52Z</time>
      </trkpt>
      <trkpt lat="45.5436" lon="-0.9812">
        <ele>-3.55</ele>
        <time>2017-03-18T15:35:07Z</time>
      </trkpt>
      <trkpt lat="45.54389" lon="-0.98159">
        <ele>-3.11</ele>
        <time>2017-03-18T15:35:23Z</time>
      </trkpt>
      <trkpt lat="45.54416" lon="-0.98196">
        <ele>-3.1</ele>
        <time>2017-03-18T15:35:39Z</time>
      </trkpt>
      <trkpt lat="45.54439" lon="-0.98226">
        <ele>-2.98</ele>
        <time>2017-03-18T15:35:53Z</time>
      </trkpt>
      <trkpt lat="45.54469" lon="-0.9825">
        <ele>-3.35</ele>
        <time>2017-03-18T15:36:07Z</time>
      </trkpt>
      <trkpt lat="45.54496" lon="-0.98277">
        <ele>-3.68</ele>
        <time>2017-03-18T15:36:22Z</time>
      </trkpt>
      <trkpt lat="45.54526" lon="-0.9831">
        <ele>-3.83</ele>
        <time>2017-03-18T15:36:39Z</time>
      </trkpt>
      <trkpt lat="45.54556" lon="-0.98336">
        <ele>-3.34</ele>
        <time>2017-03-18T15:36:55Z</time>
      </trkpt>
      <trkpt lat="45.54583" lon="-0.98365">
        <ele>-3.46</ele>
        <time>2017-03-18T15:37:10Z</time>
      </trkpt>
      <trkpt lat="45.54615" lon="-0.98393">
        <ele>-3.84</ele>
        <time>2017-03-18T15:37:27Z</time>
      </trkpt>
      <trkpt lat="45.54631" lon="-0.98407">
        <ele>-4.11</ele>
        <time>2017-03-18T15:37:35Z</time>
      </trkpt>
      <trkpt lat="45.54641" lon="-0.98418">
        <ele>-3.98</ele>
        <time>2017-03-18T15:37:40Z</time>
      </trkpt>
      <trkpt lat="45.54669" lon="-0.98461">
        <ele>-3.95</ele>
        <time>2017-03-18T15:37:59Z</time>
      </trkpt>
      <trkpt lat="45.54697" lon="-0.9849">
        <ele>-4.13</ele>
        <time>2017-03-18T15:38:13Z</time>
      </trkpt>
      <trkpt lat="45.54732" lon="-0.98513">
        <ele>-4.26</ele>
        <time>2017-03-18T15:38:29Z</time>
      </trkpt>
      <trkpt lat="45.54775" lon="-0.98535">
        <ele>-4.35</ele>
        <time>2017-03-18T15:38:48Z</time>
      </trkpt>
      <trkpt lat="45.54808" lon="-0.98548">
        <ele>-4.26</ele>
        <time>2017-03-18T15:39:04Z</time>
      </trkpt>
      <trkpt lat="45.54813" lon="-0.98552">
        <ele>-4.56</ele>
        <time>2017-03-18T15:39:07Z</time>
      </trkpt>
      <trkpt lat="45.5482" lon="-0.98556">
        <ele>-4.39</ele>
        <time>2017-03-18T15:39:11Z</time>
      </trkpt>
      <trkpt lat="45.54823" lon="-0.98559">
        <ele>-4.39</ele>
        <time>2017-03-18T15:39:13Z</time>
      </trkpt>
      <trkpt lat="45.54838" lon="-0.98567">
        <ele>-5.18</ele>
        <time>2017-03-18T15:39:21Z</time>
      </trkpt>
      <trkpt lat="45.5485" lon="-0.9858">
        <ele>-4.94</ele>
        <time>2017-03-18T15:39:28Z</time>
      </trkpt>
      <trkpt lat="45.54859" lon="-0.98589">
        <ele>-5.61</ele>
        <time>2017-03-18T15:39:33Z</time>
      </trkpt>
      <trkpt lat="45.54865" lon="-0.98595">
        <ele>-4.25</ele>
        <time>2017-03-18T15:39:36Z</time>
      </trkpt>
      <trkpt lat="45.54879" lon="-0.98606">
        <ele>-3.86</ele>
        <time>2017-03-18T15:39:43Z</time>
      </trkpt>
      <trkpt lat="45.54885" lon="-0.98612">
        <ele>-3.74</ele>
        <time>2017-03-18T15:39:46Z</time>
      </trkpt>
      <trkpt lat="45.54893" lon="-0.9862">
        <ele>-3.55</ele>
        <time>2017-03-18T15:39:51Z</time>
      </trkpt>
      <trkpt lat="45.54915" lon="-0.98636">
        <ele>-4.35</ele>
        <time>2017-03-18T15:40:03Z</time>
      </trkpt>
      <trkpt lat="45.54928" lon="-0.98646">
        <ele>-3.42</ele>
        <time>2017-03-18T15:40:10Z</time>
      </trkpt>
      <trkpt lat="45.54966" lon="-0.98674">
        <ele>-3.81</ele>
        <time>2017-03-18T15:40:27Z</time>
      </trkpt>
      <trkpt lat="45.54971" lon="-0.9868">
        <ele>-3.44</ele>
        <time>2017-03-18T15:40:30Z</time>
      </trkpt>
      <trkpt lat="45.54979" lon="-0.98692">
        <ele>-3.44</ele>
        <time>2017-03-18T15:40:34Z</time>
      </trkpt>
      <trkpt lat="45.55012" lon="-0.9874">
        <ele>-3.88</ele>
        <time>2017-03-18T15:40:54Z</time>
      </trkpt>
      <trkpt lat="45.55051" lon="-0.98781">
        <ele>-3.83</ele>
        <time>2017-03-18T15:41:12Z</time>
      </trkpt>
      <trkpt lat="45.55076" lon="-0.98801">
        <ele>-4</ele>
        <time>2017-03-18T15:41:25Z</time>
      </trkpt>
      <trkpt lat="45.55101" lon="-0.98835">
        <ele>-3.84</ele>
        <time>2017-03-18T15:41:40Z</time>
      </trkpt>
      <trkpt lat="45.55103" lon="-0.98837">
        <ele>-3.9</ele>
        <time>2017-03-18T15:41:41Z</time>
      </trkpt>
      <trkpt lat="45.55125" lon="-0.98868">
        <ele>-4.23</ele>
        <time>2017-03-18T15:41:55Z</time>
      </trkpt>
      <trkpt lat="45.55142" lon="-0.98887">
        <ele>-4.37</ele>
        <time>2017-03-18T15:42:05Z</time>
      </trkpt>
      <trkpt lat="45.55145" lon="-0.98892">
        <ele>-4.49</ele>
        <time>2017-03-18T15:42:07Z</time>
      </trkpt>
      <trkpt lat="45.55179" lon="-0.98926">
        <ele>-4.43</ele>
        <time>2017-03-18T15:42:25Z</time>
      </trkpt>
      <trkpt lat="45.55216" lon="-0.9896">
        <ele>-4.67</ele>
        <time>2017-03-18T15:42:43Z</time>
      </trkpt>
      <trkpt lat="45.55249" lon="-0.98989">
        <ele>-4.37</ele>
        <time>2017-03-18T15:42:59Z</time>
      </trkpt>
      <trkpt lat="45.55278" lon="-0.99024">
        <ele>-4.12</ele>
        <time>2017-03-18T15:43:14Z</time>
      </trkpt>
      <trkpt lat="45.55308" lon="-0.99054">
        <ele>-4.38</ele>
        <time>2017-03-18T15:43:30Z</time>
      </trkpt>
      <trkpt lat="45.55339" lon="-0.99096">
        <ele>-4.37</ele>
        <time>2017-03-18T15:43:48Z</time>
      </trkpt>
      <trkpt lat="45.55378" lon="-0.99135">
        <ele>-4.49</ele>
        <time>2017-03-18T15:44:05Z</time>
      </trkpt>
      <trkpt lat="45.55414" lon="-0.99172">
        <ele>-4.38</ele>
        <time>2017-03-18T15:44:24Z</time>
      </trkpt>
      <trkpt lat="45.55416" lon="-0.99173">
        <ele>-4.45</ele>
        <time>2017-03-18T15:44:25Z</time>
      </trkpt>
      <trkpt lat="45.55427" lon="-0.99183">
        <ele>-4.11</ele>
        <time>2017-03-18T15:44:31Z</time>
      </trkpt>
      <trkpt lat="45.55455" lon="-0.99221">
        <ele>-3.83</ele>
        <time>2017-03-18T15:44:46Z</time>
      </trkpt>
      <trkpt lat="45.55488" lon="-0.9925">
        <ele>-4.36</ele>
        <time>2017-03-18T15:45:03Z</time>
      </trkpt>
      <trkpt lat="45.55517" lon="-0.99276">
        <ele>-4.26</ele>
        <time>2017-03-18T15:45:18Z</time>
      </trkpt>
      <trkpt lat="45.5555" lon="-0.99305">
        <ele>-4.02</ele>
        <time>2017-03-18T15:45:34Z</time>
      </trkpt>
      <trkpt lat="45.5558" lon="-0.99327">
        <ele>-3.75</ele>
        <time>2017-03-18T15:45:48Z</time>
      </trkpt>
      <trkpt lat="45.55618" lon="-0.99353">
        <ele>-3.77</ele>
        <time>2017-03-18T15:46:03Z</time>
      </trkpt>
      <trkpt lat="45.55653" lon="-0.99379">
        <ele>-3.85</ele>
        <time>2017-03-18T15:46:20Z</time>
      </trkpt>
      <trkpt lat="45.55688" lon="-0.99407">
        <ele>-3.62</ele>
        <time>2017-03-18T15:46:36Z</time>
      </trkpt>
      <trkpt lat="45.55704" lon="-0.99418">
        <ele>-3.77</ele>
        <time>2017-03-18T15:46:43Z</time>
      </trkpt>
      <trkpt lat="45.55711" lon="-0.99427">
        <ele>-3.49</ele>
        <time>2017-03-18T15:46:47Z</time>
      </trkpt>
      <trkpt lat="45.5576" lon="-0.99466">
        <ele>-3.98</ele>
        <time>2017-03-18T15:47:06Z</time>
      </trkpt>
      <trkpt lat="45.55795" lon="-0.9949">
        <ele>-3.9</ele>
        <time>2017-03-18T15:47:22Z</time>
      </trkpt>
      <trkpt lat="45.55827" lon="-0.9952">
        <ele>-3.84</ele>
        <time>2017-03-18T15:47:37Z</time>
      </trkpt>
      <trkpt lat="45.55834" lon="-0.99526">
        <ele>-3.64</ele>
        <time>2017-03-18T15:47:41Z</time>
      </trkpt>
      <trkpt lat="45.55849" lon="-0.99541">
        <ele>-3.05</ele>
        <time>2017-03-18T15:47:49Z</time>
      </trkpt>
      <trkpt lat="45.55887" lon="-0.99583">
        <ele>-3.53</ele>
        <time>2017-03-18T15:48:06Z</time>
      </trkpt>
      <trkpt lat="45.55921" lon="-0.99614">
        <ele>-3.93</ele>
        <time>2017-03-18T15:48:22Z</time>
      </trkpt>
      <trkpt lat="45.55949" lon="-0.99644">
        <ele>-3.86</ele>
        <time>2017-03-18T15:48:36Z</time>
      </trkpt>
      <trkpt lat="45.55982" lon="-0.99673">
        <ele>-3.3</ele>
        <time>2017-03-18T15:48:52Z</time>
      </trkpt>
      <trkpt lat="45.56015" lon="-0.99705">
        <ele>-3.81</ele>
        <time>2017-03-18T15:49:08Z</time>
      </trkpt>
      <trkpt lat="45.56048" lon="-0.99736">
        <ele>-3.79</ele>
        <time>2017-03-18T15:49:26Z</time>
      </trkpt>
      <trkpt lat="45.56075" lon="-0.99759">
        <ele>-4.13</ele>
        <time>2017-03-18T15:49:39Z</time>
      </trkpt>
      <trkpt lat="45.56108" lon="-0.99784">
        <ele>-4.67</ele>
        <time>2017-03-18T15:49:54Z</time>
      </trkpt>
      <trkpt lat="45.5613" lon="-0.99808">
        <ele>-3.72</ele>
        <time>2017-03-18T15:50:06Z</time>
      </trkpt>
      <trkpt lat="45.56159" lon="-0.99841">
        <ele>-3.66</ele>
        <time>2017-03-18T15:50:22Z</time>
      </trkpt>
      <trkpt lat="45.56186" lon="-0.99866">
        <ele>-3.99</ele>
        <time>2017-03-18T15:50:35Z</time>
      </trkpt>
      <trkpt lat="45.5622" lon="-0.99894">
        <ele>-3.51</ele>
        <time>2017-03-18T15:50:51Z</time>
      </trkpt>
      <trkpt lat="45.56252" lon="-0.99919">
        <ele>-3.28</ele>
        <time>2017-03-18T15:51:06Z</time>
      </trkpt>
      <trkpt lat="45.56287" lon="-0.99939">
        <ele>-3.66</ele>
        <time>2017-03-18T15:51:21Z</time>
      </trkpt>
      <trkpt lat="45.56325" lon="-0.99973">
        <ele>-3.46</ele>
        <time>2017-03-18T15:51:39Z</time>
      </trkpt>
      <trkpt lat="45.56358" lon="-1.00001">
        <ele>-3.45</ele>
        <time>2017-03-18T15:51:54Z</time>
      </trkpt>
      <trkpt lat="45.56394" lon="-1.00024">
        <ele>-4.25</ele>
        <time>2017-03-18T15:52:09Z</time>
      </trkpt>
      <trkpt lat="45.5643" lon="-1.00044">
        <ele>-3.68</ele>
        <time>2017-03-18T15:52:25Z</time>
      </trkpt>
      <trkpt lat="45.56463" lon="-1.00069">
        <ele>-3.98</ele>
        <time>2017-03-18T15:52:42Z</time>
      </trkpt>
      <trkpt lat="45.56479" lon="-1.00081">
        <ele>-3.95</ele>
        <time>2017-03-18T15:52:51Z</time>
      </trkpt>
      <trkpt lat="45.5649" lon="-1.00085">
        <ele>-3.76</ele>
        <time>2017-03-18T15:52:56Z</time>
      </trkpt>
      <trkpt lat="45.56535" lon="-1.00097">
        <ele>-4.28</ele>
        <time>2017-03-18T15:53:14Z</time>
      </trkpt>
      <trkpt lat="45.56538" lon="-1.00097">
        <ele>-4.19</ele>
        <time>2017-03-18T15:53:15Z</time>
      </trkpt>
      <trkpt lat="45.56548" lon="-1.001">
        <ele>-3.71</ele>
        <time>2017-03-18T15:53:19Z</time>
      </trkpt>
      <trkpt lat="45.56582" lon="-1.00128">
        <ele>-3.79</ele>
        <time>2017-03-18T15:53:35Z</time>
      </trkpt>
      <trkpt lat="45.56609" lon="-1.00149">
        <ele>-4.58</ele>
        <time>2017-03-18T15:53:47Z</time>
      </trkpt>
      <trkpt lat="45.56615" lon="-1.00154">
        <ele>-4.42</ele>
        <time>2017-03-18T15:53:51Z</time>
      </trkpt>
      <trkpt lat="45.56647" lon="-1.00172">
        <ele>-4.25</ele>
        <time>2017-03-18T15:54:06Z</time>
      </trkpt>
      <trkpt lat="45.56656" lon="-1.00175">
        <ele>-4.17</ele>
        <time>2017-03-18T15:54:10Z</time>
      </trkpt>
      <trkpt lat="45.56694" lon="-1.00196">
        <ele>-4.64</ele>
        <time>2017-03-18T15:54:27Z</time>
      </trkpt>
      <trkpt lat="45.56698" lon="-1.00199">
        <ele>-4.79</ele>
        <time>2017-03-18T15:54:29Z</time>
      </trkpt>
      <trkpt lat="45.56731" lon="-1.00225">
        <ele>-4.36</ele>
        <time>2017-03-18T15:54:44Z</time>
      </trkpt>
      <trkpt lat="45.56743" lon="-1.00229">
        <ele>-4.51</ele>
        <time>2017-03-18T15:54:49Z</time>
      </trkpt>
      <trkpt lat="45.56772" lon="-1.00245">
        <ele>-4.77</ele>
        <time>2017-03-18T15:55:03Z</time>
      </trkpt>
      <trkpt lat="45.56804" lon="-1.00264">
        <ele>-4.74</ele>
        <time>2017-03-18T15:55:19Z</time>
      </trkpt>
      <trkpt lat="45.56841" lon="-1.00293">
        <ele>-4.39</ele>
        <time>2017-03-18T15:55:38Z</time>
      </trkpt>
      <trkpt lat="45.56878" lon="-1.00322">
        <ele>-4.79</ele>
        <time>2017-03-18T15:55:56Z</time>
      </trkpt>
      <trkpt lat="45.56909" lon="-1.00341">
        <ele>-4.9</ele>
        <time>2017-03-18T15:56:11Z</time>
      </trkpt>
      <trkpt lat="45.56932" lon="-1.00356">
        <ele>-5.25</ele>
        <time>2017-03-18T15:56:21Z</time>
      </trkpt>
      <trkpt lat="45.56971" lon="-1.00385">
        <ele>-4.53</ele>
        <time>2017-03-18T15:56:39Z</time>
      </trkpt>
      <trkpt lat="45.57003" lon="-1.0042">
        <ele>-4.25</ele>
        <time>2017-03-18T15:56:55Z</time>
      </trkpt>
      <trkpt lat="45.57028" lon="-1.0045">
        <ele>-4.15</ele>
        <time>2017-03-18T15:57:09Z</time>
      </trkpt>
      <trkpt lat="45.57053" lon="-1.00483">
        <ele>-4.14</ele>
        <time>2017-03-18T15:57:25Z</time>
      </trkpt>
      <trkpt lat="45.57074" lon="-1.00512">
        <ele>-4.11</ele>
        <time>2017-03-18T15:57:39Z</time>
      </trkpt>
      <trkpt lat="45.57101" lon="-1.00551">
        <ele>-4.02</ele>
        <time>2017-03-18T15:57:56Z</time>
      </trkpt>
      <trkpt lat="45.57124" lon="-1.00585">
        <ele>-4.25</ele>
        <time>2017-03-18T15:58:11Z</time>
      </trkpt>
      <trkpt lat="45.5715" lon="-1.00624">
        <ele>-4.42</ele>
        <time>2017-03-18T15:58:28Z</time>
      </trkpt>
      <trkpt lat="45.57172" lon="-1.0066">
        <ele>-4.4</ele>
        <time>2017-03-18T15:58:44Z</time>
      </trkpt>
      <trkpt lat="45.57198" lon="-1.007">
        <ele>-4.07</ele>
        <time>2017-03-18T15:59:01Z</time>
      </trkpt>
      <trkpt lat="45.57199" lon="-1.00704">
        <ele>-3.69</ele>
        <time>2017-03-18T15:59:03Z</time>
      </trkpt>
      <trkpt lat="45.57205" lon="-1.00714">
        <ele>-3.84</ele>
        <time>2017-03-18T15:59:07Z</time>
      </trkpt>
      <trkpt lat="45.57237" lon="-1.00756">
        <ele>-4.38</ele>
        <time>2017-03-18T15:59:25Z</time>
      </trkpt>
      <trkpt lat="45.57261" lon="-1.00783">
        <ele>-4.57</ele>
        <time>2017-03-18T15:59:40Z</time>
      </trkpt>
      <trkpt lat="45.57283" lon="-1.00814">
        <ele>-4.65</ele>
        <time>2017-03-18T15:59:55Z</time>
      </trkpt>
      <trkpt lat="45.57307" lon="-1.00845">
        <ele>-4.51</ele>
        <time>2017-03-18T16:00:10Z</time>
      </trkpt>
      <trkpt lat="45.57332" lon="-1.00885">
        <ele>-4.3</ele>
        <time>2017-03-18T16:00:27Z</time>
      </trkpt>
      <trkpt lat="45.57365" lon="-1.00924">
        <ele>-4.11</ele>
        <time>2017-03-18T16:00:44Z</time>
      </trkpt>
      <trkpt lat="45.57392" lon="-1.00954">
        <ele>-4.13</ele>
        <time>2017-03-18T16:00:58Z</time>
      </trkpt>
      <trkpt lat="45.57403" lon="-1.00965">
        <ele>-4.32</ele>
        <time>2017-03-18T16:01:04Z</time>
      </trkpt>
      <trkpt lat="45.57412" lon="-1.00975">
        <ele>-4.71</ele>
        <time>2017-03-18T16:01:09Z</time>
      </trkpt>
      <trkpt lat="45.57445" lon="-1.00996">
        <ele>-4.57</ele>
        <time>2017-03-18T16:01:25Z</time>
      </trkpt>
      <trkpt lat="45.57474" lon="-1.01021">
        <ele>-4.81</ele>
        <time>2017-03-18T16:01:41Z</time>
      </trkpt>
      <trkpt lat="45.57502" lon="-1.0105">
        <ele>-4.39</ele>
        <time>2017-03-18T16:01:58Z</time>
      </trkpt>
      <trkpt lat="45.57508" lon="-1.01057">
        <ele>-4.6</ele>
        <time>2017-03-18T16:02:02Z</time>
      </trkpt>
      <trkpt lat="45.57514" lon="-1.01065">
        <ele>-5.04</ele>
        <time>2017-03-18T16:02:06Z</time>
      </trkpt>
      <trkpt lat="45.57542" lon="-1.01097">
        <ele>-4.58</ele>
        <time>2017-03-18T16:02:24Z</time>
      </trkpt>
      <trkpt lat="45.57566" lon="-1.01122">
        <ele>-4.34</ele>
        <time>2017-03-18T16:02:39Z</time>
      </trkpt>
      <trkpt lat="45.5759" lon="-1.01154">
        <ele>-4.55</ele>
        <time>2017-03-18T16:02:55Z</time>
      </trkpt>
      <trkpt lat="45.57622" lon="-1.01176">
        <ele>-5.06</ele>
        <time>2017-03-18T16:03:12Z</time>
      </trkpt>
      <trkpt lat="45.57644" lon="-1.01198">
        <ele>-5.05</ele>
        <time>2017-03-18T16:03:27Z</time>
      </trkpt>
      <trkpt lat="45.57669" lon="-1.01221">
        <ele>-4.73</ele>
        <time>2017-03-18T16:03:43Z</time>
      </trkpt>
      <trkpt lat="45.57701" lon="-1.01251">
        <ele>-3.97</ele>
        <time>2017-03-18T16:04:01Z</time>
      </trkpt>
      <trkpt lat="45.57733" lon="-1.01276">
        <ele>-3.72</ele>
        <time>2017-03-18T16:04:16Z</time>
      </trkpt>
      <trkpt lat="45.57763" lon="-1.01298">
        <ele>-4.39</ele>
        <time>2017-03-18T16:04:31Z</time>
      </trkpt>
      <trkpt lat="45.57798" lon="-1.01317">
        <ele>-4.22</ele>
        <time>2017-03-18T16:04:46Z</time>
      </trkpt>
      <trkpt lat="45.5783" lon="-1.01332">
        <ele>-4.78</ele>
        <time>2017-03-18T16:05:00Z</time>
      </trkpt>
      <trkpt lat="45.57864" lon="-1.01348">
        <ele>-3.99</ele>
        <time>2017-03-18T16:05:15Z</time>
      </trkpt>
      <trkpt lat="45.57889" lon="-1.01367">
        <ele>-4.38</ele>
        <time>2017-03-18T16:05:27Z</time>
      </trkpt>
      <trkpt lat="45.57926" lon="-1.01389">
        <ele>-4.41</ele>
        <time>2017-03-18T16:05:43Z</time>
      </trkpt>
      <trkpt lat="45.57957" lon="-1.014">
        <ele>-4.43</ele>
        <time>2017-03-18T16:05:56Z</time>
      </trkpt>
      <trkpt lat="45.57965" lon="-1.01405">
        <ele>-4.48</ele>
        <time>2017-03-18T16:06:00Z</time>
      </trkpt>
      <trkpt lat="45.57969" lon="-1.01408">
        <ele>-4.53</ele>
        <time>2017-03-18T16:06:02Z</time>
      </trkpt>
      <trkpt lat="45.57978" lon="-1.01418">
        <ele>-4.61</ele>
        <time>2017-03-18T16:06:07Z</time>
      </trkpt>
      <trkpt lat="45.58007" lon="-1.01434">
        <ele>-5.12</ele>
        <time>2017-03-18T16:06:21Z</time>
      </trkpt>
      <trkpt lat="45.58034" lon="-1.01461">
        <ele>-4.89</ele>
        <time>2017-03-18T16:06:36Z</time>
      </trkpt>
      <trkpt lat="45.58046" lon="-1.01473">
        <ele>-4.77</ele>
        <time>2017-03-18T16:06:42Z</time>
      </trkpt>
      <trkpt lat="45.58062" lon="-1.01485">
        <ele>-5.26</ele>
        <time>2017-03-18T16:06:50Z</time>
      </trkpt>
      <trkpt lat="45.58097" lon="-1.01506">
        <ele>-4.8</ele>
        <time>2017-03-18T16:07:05Z</time>
      </trkpt>
      <trkpt lat="45.58135" lon="-1.01529">
        <ele>-4.32</ele>
        <time>2017-03-18T16:07:22Z</time>
      </trkpt>
      <trkpt lat="45.58156" lon="-1.01542">
        <ele>-4.57</ele>
        <time>2017-03-18T16:07:32Z</time>
      </trkpt>
      <trkpt lat="45.58168" lon="-1.01545">
        <ele>-4.94</ele>
        <time>2017-03-18T16:07:37Z</time>
      </trkpt>
      <trkpt lat="45.58201" lon="-1.01559">
        <ele>-4.79</ele>
        <time>2017-03-18T16:07:52Z</time>
      </trkpt>
      <trkpt lat="45.58235" lon="-1.01582">
        <ele>-4.17</ele>
        <time>2017-03-18T16:08:08Z</time>
      </trkpt>
      <trkpt lat="45.58264" lon="-1.01604">
        <ele>-4.35</ele>
        <time>2017-03-18T16:08:23Z</time>
      </trkpt>
      <trkpt lat="45.58272" lon="-1.0161">
        <ele>-4.81</ele>
        <time>2017-03-18T16:08:27Z</time>
      </trkpt>
      <trkpt lat="45.58308" lon="-1.01628">
        <ele>-5.48</ele>
        <time>2017-03-18T16:08:43Z</time>
      </trkpt>
      <trkpt lat="45.5834" lon="-1.01637">
        <ele>-5.27</ele>
        <time>2017-03-18T16:08:56Z</time>
      </trkpt>
      <trkpt lat="45.5838" lon="-1.01643">
        <ele>-5.31</ele>
        <time>2017-03-18T16:09:12Z</time>
      </trkpt>
      <trkpt lat="45.58416" lon="-1.01647">
        <ele>-5.65</ele>
        <time>2017-03-18T16:09:27Z</time>
      </trkpt>
      <trkpt lat="45.58451" lon="-1.01645">
        <ele>-5.65</ele>
        <time>2017-03-18T16:09:41Z</time>
      </trkpt>
      <trkpt lat="45.58483" lon="-1.01644">
        <ele>-5.32</ele>
        <time>2017-03-18T16:09:54Z</time>
      </trkpt>
      <trkpt lat="45.58518" lon="-1.01646">
        <ele>-5.15</ele>
        <time>2017-03-18T16:10:08Z</time>
      </trkpt>
      <trkpt lat="45.58551" lon="-1.01651">
        <ele>-5.03</ele>
        <time>2017-03-18T16:10:21Z</time>
      </trkpt>
      <trkpt lat="45.58576" lon="-1.01662">
        <ele>-4.97</ele>
        <time>2017-03-18T16:10:35Z</time>
      </trkpt>
      <trkpt lat="45.58574" lon="-1.01662">
        <ele>-5.83</ele>
        <time>2017-03-18T16:10:50Z</time>
      </trkpt>
      <trkpt lat="45.58567" lon="-1.01656">
        <ele>-5.75</ele>
        <time>2017-03-18T16:10:55Z</time>
      </trkpt>
      <trkpt lat="45.58549" lon="-1.01647">
        <ele>-4.24</ele>
        <time>2017-03-18T16:11:02Z</time>
      </trkpt>
      <trkpt lat="45.58541" lon="-1.01645">
        <ele>-4.41</ele>
        <time>2017-03-18T16:11:05Z</time>
      </trkpt>
      <trkpt lat="45.5852" lon="-1.01644">
        <ele>-6.22</ele>
        <time>2017-03-18T16:11:12Z</time>
      </trkpt>
      <trkpt lat="45.58514" lon="-1.01644">
        <ele>-5.85</ele>
        <time>2017-03-18T16:11:14Z</time>
      </trkpt>
      <trkpt lat="45.58503" lon="-1.01647">
        <ele>-5.23</ele>
        <time>2017-03-18T16:11:18Z</time>
      </trkpt>
      <trkpt lat="45.58484" lon="-1.01653">
        <ele>-4.85</ele>
        <time>2017-03-18T16:11:25Z</time>
      </trkpt>
      <trkpt lat="45.58469" lon="-1.01658">
        <ele>-4.83</ele>
        <time>2017-03-18T16:11:31Z</time>
      </trkpt>
      <trkpt lat="45.58434" lon="-1.01672">
        <ele>-5.54</ele>
        <time>2017-03-18T16:11:46Z</time>
      </trkpt>
      <trkpt lat="45.58427" lon="-1.01676">
        <ele>-4.73</ele>
        <time>2017-03-18T16:11:49Z</time>
      </trkpt>
      <trkpt lat="45.58418" lon="-1.01681">
        <ele>-6.02</ele>
        <time>2017-03-18T16:11:53Z</time>
      </trkpt>
      <trkpt lat="45.58414" lon="-1.01683">
        <ele>-6.06</ele>
        <time>2017-03-18T16:11:55Z</time>
      </trkpt>
      <trkpt lat="45.5838" lon="-1.01701">
        <ele>-6.19</ele>
        <time>2017-03-18T16:12:10Z</time>
      </trkpt>
      <trkpt lat="45.58344" lon="-1.01718">
        <ele>-6.38</ele>
        <time>2017-03-18T16:12:26Z</time>
      </trkpt>
      <trkpt lat="45.58327" lon="-1.01729">
        <ele>-5.16</ele>
        <time>2017-03-18T16:12:35Z</time>
      </trkpt>
      <trkpt lat="45.58323" lon="-1.01732">
        <ele>-5.23</ele>
        <time>2017-03-18T16:12:37Z</time>
      </trkpt>
      <trkpt lat="45.58319" lon="-1.01735">
        <ele>-5.36</ele>
        <time>2017-03-18T16:12:41Z</time>
      </trkpt>
      <trkpt lat="45.58321" lon="-1.01738">
        <ele>-5.07</ele>
        <time>2017-03-18T16:12:51Z</time>
      </trkpt>
      <trkpt lat="45.58327" lon="-1.01742">
        <ele>-4.95</ele>
        <time>2017-03-18T16:12:56Z</time>
      </trkpt>
      <trkpt lat="45.58342" lon="-1.01758">
        <ele>-4.48</ele>
        <time>2017-03-18T16:13:06Z</time>
      </trkpt>
      <trkpt lat="45.58348" lon="-1.01766">
        <ele>-4.83</ele>
        <time>2017-03-18T16:13:10Z</time>
      </trkpt>
      <trkpt lat="45.58366" lon="-1.01787">
        <ele>-4.55</ele>
        <time>2017-03-18T16:13:22Z</time>
      </trkpt>
      <trkpt lat="45.58392" lon="-1.01808">
        <ele>-3.99</ele>
        <time>2017-03-18T16:13:37Z</time>
      </trkpt>
      <trkpt lat="45.58395" lon="-1.0181">
        <ele>-4.01</ele>
        <time>2017-03-18T16:13:39Z</time>
      </trkpt>
      <trkpt lat="45.58398" lon="-1.01817">
        <ele>-4.6</ele>
        <time>2017-03-18T16:13:43Z</time>
      </trkpt>
      <trkpt lat="45.58404" lon="-1.01823">
        <ele>-4.09</ele>
        <time>2017-03-18T16:13:48Z</time>
      </trkpt>
      <trkpt lat="45.58417" lon="-1.01834">
        <ele>-3.68</ele>
        <time>2017-03-18T16:13:55Z</time>
      </trkpt>
      <trkpt lat="45.58423" lon="-1.01839">
        <ele>-3.2</ele>
        <time>2017-03-18T16:13:58Z</time>
      </trkpt>
      <trkpt lat="45.58451" lon="-1.01861">
        <ele>-4.02</ele>
        <time>2017-03-18T16:14:13Z</time>
      </trkpt>
      <trkpt lat="45.58472" lon="-1.01887">
        <ele>-4.07</ele>
        <time>2017-03-18T16:14:27Z</time>
      </trkpt>
      <trkpt lat="45.58497" lon="-1.0192">
        <ele>-3.97</ele>
        <time>2017-03-18T16:14:43Z</time>
      </trkpt>
      <trkpt lat="45.58527" lon="-1.01948">
        <ele>-4.19</ele>
        <time>2017-03-18T16:14:59Z</time>
      </trkpt>
      <trkpt lat="45.58536" lon="-1.01955">
        <ele>-3.89</ele>
        <time>2017-03-18T16:15:03Z</time>
      </trkpt>
      <trkpt lat="45.58543" lon="-1.01959">
        <ele>-4.09</ele>
        <time>2017-03-18T16:15:06Z</time>
      </trkpt>
      <trkpt lat="45.58549" lon="-1.01966">
        <ele>-4.2</ele>
        <time>2017-03-18T16:15:10Z</time>
      </trkpt>
      <trkpt lat="45.58571" lon="-1.01995">
        <ele>-4.22</ele>
        <time>2017-03-18T16:15:24Z</time>
      </trkpt>
      <trkpt lat="45.58575" lon="-1.02">
        <ele>-4.57</ele>
        <time>2017-03-18T16:15:26Z</time>
      </trkpt>
      <trkpt lat="45.58579" lon="-1.02009">
        <ele>-4.68</ele>
        <time>2017-03-18T16:15:30Z</time>
      </trkpt>
      <trkpt lat="45.58599" lon="-1.0204">
        <ele>-4.11</ele>
        <time>2017-03-18T16:15:45Z</time>
      </trkpt>
      <trkpt lat="45.58618" lon="-1.02066">
        <ele>-4.46</ele>
        <time>2017-03-18T16:16:00Z</time>
      </trkpt>
      <trkpt lat="45.58643" lon="-1.02104">
        <ele>-4.26</ele>
        <time>2017-03-18T16:16:21Z</time>
      </trkpt>
      <trkpt lat="45.58658" lon="-1.02126">
        <ele>-4.36</ele>
        <time>2017-03-18T16:16:37Z</time>
      </trkpt>
      <trkpt lat="45.58666" lon="-1.02128">
        <ele>-4.39</ele>
        <time>2017-03-18T16:16:43Z</time>
      </trkpt>
      <trkpt lat="45.58678" lon="-1.02136">
        <ele>-4.25</ele>
        <time>2017-03-18T16:16:48Z</time>
      </trkpt>
      <trkpt lat="45.58683" lon="-1.02141">
        <ele>-4.4</ele>
        <time>2017-03-18T16:16:51Z</time>
      </trkpt>
      <trkpt lat="45.58697" lon="-1.02153">
        <ele>-4.23</ele>
        <time>2017-03-18T16:16:59Z</time>
      </trkpt>
      <trkpt lat="45.58706" lon="-1.02161">
        <ele>-4.01</ele>
        <time>2017-03-18T16:17:04Z</time>
      </trkpt>
      <trkpt lat="45.5872" lon="-1.02177">
        <ele>-4.67</ele>
        <time>2017-03-18T16:17:16Z</time>
      </trkpt>
      <trkpt lat="45.58685" lon="-1.02178">
        <ele>-3.93</ele>
        <time>2017-03-18T16:17:30Z</time>
      </trkpt>
      <trkpt lat="45.58677" lon="-1.02181">
        <ele>-4.02</ele>
        <time>2017-03-18T16:17:33Z</time>
      </trkpt>
      <trkpt lat="45.58669" lon="-1.02184">
        <ele>-4.25</ele>
        <time>2017-03-18T16:17:36Z</time>
      </trkpt>
      <trkpt lat="45.58661" lon="-1.02189">
        <ele>-4.67</ele>
        <time>2017-03-18T16:17:39Z</time>
      </trkpt>
      <trkpt lat="45.58641" lon="-1.022">
        <ele>-4.11</ele>
        <time>2017-03-18T16:17:49Z</time>
      </trkpt>
      <trkpt lat="45.58637" lon="-1.02203">
        <ele>-4.31</ele>
        <time>2017-03-18T16:17:51Z</time>
      </trkpt>
      <trkpt lat="45.58627" lon="-1.02208">
        <ele>-4.27</ele>
        <time>2017-03-18T16:17:56Z</time>
      </trkpt>
      <trkpt lat="45.58612" lon="-1.02215">
        <ele>-5.49</ele>
        <time>2017-03-18T16:18:04Z</time>
      </trkpt>
      <trkpt lat="45.58588" lon="-1.02229">
        <ele>-6</ele>
        <time>2017-03-18T16:18:18Z</time>
      </trkpt>
      <trkpt lat="45.58566" lon="-1.02239">
        <ele>-5.59</ele>
        <time>2017-03-18T16:18:33Z</time>
      </trkpt>
      <trkpt lat="45.58564" lon="-1.02239">
        <ele>-5.52</ele>
        <time>2017-03-18T16:18:34Z</time>
      </trkpt>
      <trkpt lat="45.58532" lon="-1.02247">
        <ele>-5.88</ele>
        <time>2017-03-18T16:18:50Z</time>
      </trkpt>
      <trkpt lat="45.58503" lon="-1.02259">
        <ele>-6.89</ele>
        <time>2017-03-18T16:19:06Z</time>
      </trkpt>
      <trkpt lat="45.58494" lon="-1.02264">
        <ele>-5.9</ele>
        <time>2017-03-18T16:19:11Z</time>
      </trkpt>
      <trkpt lat="45.5849" lon="-1.02266">
        <ele>-4.36</ele>
        <time>2017-03-18T16:19:13Z</time>
      </trkpt>
      <trkpt lat="45.58482" lon="-1.02271">
        <ele>-5.74</ele>
        <time>2017-03-18T16:19:18Z</time>
      </trkpt>
      <trkpt lat="45.58474" lon="-1.02273">
        <ele>-5.76</ele>
        <time>2017-03-18T16:19:22Z</time>
      </trkpt>
      <trkpt lat="45.58471" lon="-1.02275">
        <ele>-5.51</ele>
        <time>2017-03-18T16:19:24Z</time>
      </trkpt>
      <trkpt lat="45.5845" lon="-1.02286">
        <ele>-5.05</ele>
        <time>2017-03-18T16:19:36Z</time>
      </trkpt>
      <trkpt lat="45.58443" lon="-1.02289">
        <ele>-5</ele>
        <time>2017-03-18T16:19:41Z</time>
      </trkpt>
      <trkpt lat="45.58424" lon="-1.02289">
        <ele>-4.54</ele>
        <time>2017-03-18T16:19:50Z</time>
      </trkpt>
      <trkpt lat="45.58418" lon="-1.02298">
        <ele>-4.7</ele>
        <time>2017-03-18T16:20:00Z</time>
      </trkpt>
      <trkpt lat="45.58426" lon="-1.02304">
        <ele>-4.51</ele>
        <time>2017-03-18T16:20:05Z</time>
      </trkpt>
      <trkpt lat="45.58437" lon="-1.02312">
        <ele>-4.68</ele>
        <time>2017-03-18T16:20:11Z</time>
      </trkpt>
      <trkpt lat="45.58441" lon="-1.02314">
        <ele>-4.66</ele>
        <time>2017-03-18T16:20:13Z</time>
      </trkpt>
      <trkpt lat="45.58448" lon="-1.0232">
        <ele>-4.13</ele>
        <time>2017-03-18T16:20:17Z</time>
      </trkpt>
      <trkpt lat="45.58477" lon="-1.02349">
        <ele>-4.11</ele>
        <time>2017-03-18T16:20:35Z</time>
      </trkpt>
      <trkpt lat="45.58486" lon="-1.02356">
        <ele>-3.95</ele>
        <time>2017-03-18T16:20:40Z</time>
      </trkpt>
      <trkpt lat="45.58492" lon="-1.02364">
        <ele>-3.97</ele>
        <time>2017-03-18T16:20:44Z</time>
      </trkpt>
      <trkpt lat="45.58496" lon="-1.02371">
        <ele>-3.97</ele>
        <time>2017-03-18T16:20:47Z</time>
      </trkpt>
      <trkpt lat="45.5851" lon="-1.02386">
        <ele>-4.11</ele>
        <time>2017-03-18T16:20:56Z</time>
      </trkpt>
      <trkpt lat="45.5853" lon="-1.02419">
        <ele>-4.36</ele>
        <time>2017-03-18T16:21:13Z</time>
      </trkpt>
      <trkpt lat="45.58544" lon="-1.02444">
        <ele>-3.88</ele>
        <time>2017-03-18T16:21:26Z</time>
      </trkpt>
      <trkpt lat="45.58548" lon="-1.02455">
        <ele>-3.86</ele>
        <time>2017-03-18T16:21:31Z</time>
      </trkpt>
      <trkpt lat="45.5855" lon="-1.0246">
        <ele>-3.97</ele>
        <time>2017-03-18T16:21:33Z</time>
      </trkpt>
      <trkpt lat="45.58561" lon="-1.02495">
        <ele>-4.02</ele>
        <time>2017-03-18T16:21:51Z</time>
      </trkpt>
      <trkpt lat="45.58578" lon="-1.02524">
        <ele>-3.75</ele>
        <time>2017-03-18T16:22:06Z</time>
      </trkpt>
      <trkpt lat="45.58598" lon="-1.02559">
        <ele>-3.87</ele>
        <time>2017-03-18T16:22:22Z</time>
      </trkpt>
      <trkpt lat="45.58618" lon="-1.02599">
        <ele>-4.27</ele>
        <time>2017-03-18T16:22:41Z</time>
      </trkpt>
      <trkpt lat="45.58631" lon="-1.02625">
        <ele>-4.03</ele>
        <time>2017-03-18T16:22:56Z</time>
      </trkpt>
      <trkpt lat="45.58644" lon="-1.02663">
        <ele>-4.04</ele>
        <time>2017-03-18T16:23:12Z</time>
      </trkpt>
      <trkpt lat="45.58645" lon="-1.02665">
        <ele>-4.03</ele>
        <time>2017-03-18T16:23:13Z</time>
      </trkpt>
      <trkpt lat="45.58647" lon="-1.02674">
        <ele>-4.1</ele>
        <time>2017-03-18T16:23:17Z</time>
      </trkpt>
      <trkpt lat="45.58661" lon="-1.02701">
        <ele>-3.95</ele>
        <time>2017-03-18T16:23:32Z</time>
      </trkpt>
      <trkpt lat="45.58673" lon="-1.0273">
        <ele>-4.41</ele>
        <time>2017-03-18T16:23:47Z</time>
      </trkpt>
      <trkpt lat="45.58686" lon="-1.02768">
        <ele>-3.38</ele>
        <time>2017-03-18T16:24:05Z</time>
      </trkpt>
      <trkpt lat="45.5869" lon="-1.02782">
        <ele>-3.54</ele>
        <time>2017-03-18T16:24:12Z</time>
      </trkpt>
      <trkpt lat="45.5871" lon="-1.02807">
        <ele>-4.01</ele>
        <time>2017-03-18T16:24:26Z</time>
      </trkpt>
      <trkpt lat="45.58726" lon="-1.02818">
        <ele>-3.54</ele>
        <time>2017-03-18T16:24:36Z</time>
      </trkpt>
      <trkpt lat="45.58732" lon="-1.02823">
        <ele>-3.92</ele>
        <time>2017-03-18T16:24:40Z</time>
      </trkpt>
      <trkpt lat="45.5875" lon="-1.02864">
        <ele>-3.92</ele>
        <time>2017-03-18T16:25:00Z</time>
      </trkpt>
      <trkpt lat="45.58758" lon="-1.02895">
        <ele>-4.13</ele>
        <time>2017-03-18T16:25:16Z</time>
      </trkpt>
      <trkpt lat="45.58765" lon="-1.02937">
        <ele>-4.35</ele>
        <time>2017-03-18T16:25:36Z</time>
      </trkpt>
      <trkpt lat="45.5877" lon="-1.02974">
        <ele>-4.38</ele>
        <time>2017-03-18T16:25:59Z</time>
      </trkpt>
      <trkpt lat="45.58777" lon="-1.03007">
        <ele>-3.46</ele>
        <time>2017-03-18T16:26:18Z</time>
      </trkpt>
      <trkpt lat="45.58785" lon="-1.03044">
        <ele>-4.28</ele>
        <time>2017-03-18T16:26:35Z</time>
      </trkpt>
      <trkpt lat="45.58795" lon="-1.0307">
        <ele>-3.89</ele>
        <time>2017-03-18T16:26:50Z</time>
      </trkpt>
      <trkpt lat="45.58804" lon="-1.03107">
        <ele>-3.84</ele>
        <time>2017-03-18T16:27:08Z</time>
      </trkpt>
      <trkpt lat="45.58812" lon="-1.03137">
        <ele>-3.9</ele>
        <time>2017-03-18T16:27:24Z</time>
      </trkpt>
      <trkpt lat="45.5882" lon="-1.03162">
        <ele>-4.21</ele>
        <time>2017-03-18T16:27:40Z</time>
      </trkpt>
      <trkpt lat="45.58826" lon="-1.03189">
        <ele>-4.06</ele>
        <time>2017-03-18T16:27:57Z</time>
      </trkpt>
      <trkpt lat="45.58842" lon="-1.03217">
        <ele>-3.8</ele>
        <time>2017-03-18T16:28:14Z</time>
      </trkpt>
      <trkpt lat="45.58855" lon="-1.03245">
        <ele>-4.18</ele>
        <time>2017-03-18T16:28:31Z</time>
      </trkpt>
      <trkpt lat="45.58858" lon="-1.03247">
        <ele>-4.14</ele>
        <time>2017-03-18T16:28:32Z</time>
      </trkpt>
      <trkpt lat="45.58869" lon="-1.03263">
        <ele>-4.78</ele>
        <time>2017-03-18T16:28:41Z</time>
      </trkpt>
      <trkpt lat="45.58879" lon="-1.03292">
        <ele>-3.77</ele>
        <time>2017-03-18T16:29:00Z</time>
      </trkpt>
      <trkpt lat="45.5888" lon="-1.03295">
        <ele>-3.76</ele>
        <time>2017-03-18T16:29:01Z</time>
      </trkpt>
      <trkpt lat="45.58887" lon="-1.03303">
        <ele>-4.51</ele>
        <time>2017-03-18T16:29:05Z</time>
      </trkpt>
      <trkpt lat="45.58898" lon="-1.03342">
        <ele>-3.62</ele>
        <time>2017-03-18T16:29:23Z</time>
      </trkpt>
      <trkpt lat="45.58904" lon="-1.03368">
        <ele>-4.18</ele>
        <time>2017-03-18T16:29:36Z</time>
      </trkpt>
      <trkpt lat="45.58907" lon="-1.03377">
        <ele>-3.93</ele>
        <time>2017-03-18T16:29:41Z</time>
      </trkpt>
      <trkpt lat="45.58912" lon="-1.03383">
        <ele>-4.03</ele>
        <time>2017-03-18T16:29:45Z</time>
      </trkpt>
      <trkpt lat="45.58922" lon="-1.03406">
        <ele>-4.65</ele>
        <time>2017-03-18T16:29:57Z</time>
      </trkpt>
      <trkpt lat="45.58926" lon="-1.03411">
        <ele>-4.43</ele>
        <time>2017-03-18T16:30:00Z</time>
      </trkpt>
      <trkpt lat="45.58931" lon="-1.03423">
        <ele>-4.26</ele>
        <time>2017-03-18T16:30:06Z</time>
      </trkpt>
      <trkpt lat="45.58939" lon="-1.03436">
        <ele>-3.72</ele>
        <time>2017-03-18T16:30:13Z</time>
      </trkpt>
      <trkpt lat="45.58944" lon="-1.03446">
        <ele>-3.45</ele>
        <time>2017-03-18T16:30:19Z</time>
      </trkpt>
      <trkpt lat="45.58959" lon="-1.03462">
        <ele>-4.33</ele>
        <time>2017-03-18T16:30:30Z</time>
      </trkpt>
      <trkpt lat="45.58971" lon="-1.03482">
        <ele>-3.74</ele>
        <time>2017-03-18T16:30:40Z</time>
      </trkpt>
      <trkpt lat="45.58974" lon="-1.03488">
        <ele>-3.65</ele>
        <time>2017-03-18T16:30:43Z</time>
      </trkpt>
      <trkpt lat="45.58981" lon="-1.03496">
        <ele>-4.34</ele>
        <time>2017-03-18T16:30:48Z</time>
      </trkpt>
      <trkpt lat="45.58983" lon="-1.035">
        <ele>-4.36</ele>
        <time>2017-03-18T16:30:50Z</time>
      </trkpt>
      <trkpt lat="45.58985" lon="-1.03503">
        <ele>-4.4</ele>
        <time>2017-03-18T16:30:52Z</time>
      </trkpt>
      <trkpt lat="45.58998" lon="-1.03522">
        <ele>-4.14</ele>
        <time>2017-03-18T16:31:04Z</time>
      </trkpt>
      <trkpt lat="45.59003" lon="-1.03529">
        <ele>-4.01</ele>
        <time>2017-03-18T16:31:09Z</time>
      </trkpt>
      <trkpt lat="45.59007" lon="-1.03537">
        <ele>-4.07</ele>
        <time>2017-03-18T16:31:13Z</time>
      </trkpt>
      <trkpt lat="45.59008" lon="-1.0354">
        <ele>-4.1</ele>
        <time>2017-03-18T16:31:15Z</time>
      </trkpt>
      <trkpt lat="45.59009" lon="-1.03543">
        <ele>-4.16</ele>
        <time>2017-03-18T16:31:17Z</time>
      </trkpt>
      <trkpt lat="45.59016" lon="-1.03557">
        <ele>-4.84</ele>
        <time>2017-03-18T16:31:26Z</time>
      </trkpt>
      <trkpt lat="45.59023" lon="-1.0357">
        <ele>-4.8</ele>
        <time>2017-03-18T16:31:35Z</time>
      </trkpt>
      <trkpt lat="45.59027" lon="-1.03576">
        <ele>-4.67</ele>
        <time>2017-03-18T16:31:40Z</time>
      </trkpt>
      <trkpt lat="45.5904" lon="-1.03604">
        <ele>-4.63</ele>
        <time>2017-03-18T16:31:57Z</time>
      </trkpt>
      <trkpt lat="45.59052" lon="-1.03628">
        <ele>-4.95</ele>
        <time>2017-03-18T16:32:11Z</time>
      </trkpt>
      <trkpt lat="45.59059" lon="-1.03643">
        <ele>-4.68</ele>
        <time>2017-03-18T16:32:20Z</time>
      </trkpt>
      <trkpt lat="45.59068" lon="-1.03662">
        <ele>-5.09</ele>
        <time>2017-03-18T16:32:31Z</time>
      </trkpt>
      <trkpt lat="45.59072" lon="-1.03671">
        <ele>-4.85</ele>
        <time>2017-03-18T16:32:36Z</time>
      </trkpt>
      <trkpt lat="45.59076" lon="-1.03679">
        <ele>-6.02</ele>
        <time>2017-03-18T16:32:41Z</time>
      </trkpt>
      <trkpt lat="45.59085" lon="-1.03692">
        <ele>-4.71</ele>
        <time>2017-03-18T16:32:49Z</time>
      </trkpt>
      <trkpt lat="45.59094" lon="-1.03703">
        <ele>-5.37</ele>
        <time>2017-03-18T16:32:55Z</time>
      </trkpt>
      <trkpt lat="45.59107" lon="-1.03715">
        <ele>-5.17</ele>
        <time>2017-03-18T16:33:03Z</time>
      </trkpt>
      <trkpt lat="45.59121" lon="-1.03723">
        <ele>-5.58</ele>
        <time>2017-03-18T16:33:11Z</time>
      </trkpt>
      <trkpt lat="45.5914" lon="-1.03734">
        <ele>-5.43</ele>
        <time>2017-03-18T16:33:23Z</time>
      </trkpt>
      <trkpt lat="45.59146" lon="-1.03736">
        <ele>-4.83</ele>
        <time>2017-03-18T16:33:27Z</time>
      </trkpt>
      <trkpt lat="45.59152" lon="-1.03736">
        <ele>-4.82</ele>
        <time>2017-03-18T16:33:30Z</time>
      </trkpt>
      <trkpt lat="45.59167" lon="-1.03733">
        <ele>-4.64</ele>
        <time>2017-03-18T16:33:39Z</time>
      </trkpt>
      <trkpt lat="45.59185" lon="-1.03731">
        <ele>-4.65</ele>
        <time>2017-03-18T16:33:49Z</time>
      </trkpt>
      <trkpt lat="45.59194" lon="-1.03727">
        <ele>-4</ele>
        <time>2017-03-18T16:33:54Z</time>
      </trkpt>
      <trkpt lat="45.59213" lon="-1.0372">
        <ele>-4.2</ele>
        <time>2017-03-18T16:34:04Z</time>
      </trkpt>
      <trkpt lat="45.59228" lon="-1.03722">
        <ele>-4.33</ele>
        <time>2017-03-18T16:34:13Z</time>
      </trkpt>
      <trkpt lat="45.59232" lon="-1.03722">
        <ele>-4.98</ele>
        <time>2017-03-18T16:34:16Z</time>
      </trkpt>
      <trkpt lat="45.59247" lon="-1.03724">
        <ele>-4.41</ele>
        <time>2017-03-18T16:34:25Z</time>
      </trkpt>
      <trkpt lat="45.59251" lon="-1.03725">
        <ele>-4.44</ele>
        <time>2017-03-18T16:34:28Z</time>
      </trkpt>
      <trkpt lat="45.59267" lon="-1.03733">
        <ele>-5.09</ele>
        <time>2017-03-18T16:34:39Z</time>
      </trkpt>
      <trkpt lat="45.59273" lon="-1.03738">
        <ele>-4.66</ele>
        <time>2017-03-18T16:34:43Z</time>
      </trkpt>
      <trkpt lat="45.59283" lon="-1.03744">
        <ele>-5.19</ele>
        <time>2017-03-18T16:34:49Z</time>
      </trkpt>
      <trkpt lat="45.59304" lon="-1.03761">
        <ele>-5.36</ele>
        <time>2017-03-18T16:35:05Z</time>
      </trkpt>
      <trkpt lat="45.59305" lon="-1.03762">
        <ele>-5.35</ele>
        <time>2017-03-18T16:35:06Z</time>
      </trkpt>
      <trkpt lat="45.59311" lon="-1.03768">
        <ele>-4.91</ele>
        <time>2017-03-18T16:35:12Z</time>
      </trkpt>
      <trkpt lat="45.59318" lon="-1.03776">
        <ele>-4.51</ele>
        <time>2017-03-18T16:35:20Z</time>
      </trkpt>
      <trkpt lat="45.59332" lon="-1.03792">
        <ele>-4.56</ele>
        <time>2017-03-18T16:35:32Z</time>
      </trkpt>
      <trkpt lat="45.59342" lon="-1.038">
        <ele>-4.49</ele>
        <time>2017-03-18T16:35:41Z</time>
      </trkpt>
      <trkpt lat="45.59346" lon="-1.03805">
        <ele>-4.51</ele>
        <time>2017-03-18T16:35:45Z</time>
      </trkpt>
      <trkpt lat="45.59352" lon="-1.03811">
        <ele>-4.85</ele>
        <time>2017-03-18T16:35:50Z</time>
      </trkpt>
      <trkpt lat="45.59358" lon="-1.0382">
        <ele>-5.09</ele>
        <time>2017-03-18T16:35:56Z</time>
      </trkpt>
      <trkpt lat="45.5936" lon="-1.03822">
        <ele>-4.63</ele>
        <time>2017-03-18T16:35:58Z</time>
      </trkpt>
      <trkpt lat="45.59377" lon="-1.03843">
        <ele>-4.77</ele>
        <time>2017-03-18T16:36:12Z</time>
      </trkpt>
      <trkpt lat="45.59396" lon="-1.03859">
        <ele>-4.71</ele>
        <time>2017-03-18T16:36:24Z</time>
      </trkpt>
      <trkpt lat="45.59401" lon="-1.03864">
        <ele>-4.67</ele>
        <time>2017-03-18T16:36:27Z</time>
      </trkpt>
      <trkpt lat="45.5942" lon="-1.03879">
        <ele>-5.04</ele>
        <time>2017-03-18T16:36:40Z</time>
      </trkpt>
      <trkpt lat="45.59428" lon="-1.03884">
        <ele>-4.79</ele>
        <time>2017-03-18T16:36:45Z</time>
      </trkpt>
      <trkpt lat="45.59433" lon="-1.03887">
        <ele>-4.76</ele>
        <time>2017-03-18T16:36:48Z</time>
      </trkpt>
      <trkpt lat="45.59438" lon="-1.03889">
        <ele>-4.14</ele>
        <time>2017-03-18T16:36:51Z</time>
      </trkpt>
      <trkpt lat="45.59452" lon="-1.03897">
        <ele>-5.12</ele>
        <time>2017-03-18T16:37:00Z</time>
      </trkpt>
      <trkpt lat="45.59458" lon="-1.03901">
        <ele>-4.95</ele>
        <time>2017-03-18T16:37:04Z</time>
      </trkpt>
      <trkpt lat="45.59466" lon="-1.03908">
        <ele>-5.36</ele>
        <time>2017-03-18T16:37:10Z</time>
      </trkpt>
      <trkpt lat="45.59486" lon="-1.03926">
        <ele>-5.46</ele>
        <time>2017-03-18T16:37:26Z</time>
      </trkpt>
      <trkpt lat="45.59495" lon="-1.03938">
        <ele>-4.96</ele>
        <time>2017-03-18T16:37:34Z</time>
      </trkpt>
      <trkpt lat="45.59505" lon="-1.0395">
        <ele>-5.13</ele>
        <time>2017-03-18T16:37:43Z</time>
      </trkpt>
      <trkpt lat="45.59512" lon="-1.03958">
        <ele>-5.09</ele>
        <time>2017-03-18T16:37:49Z</time>
      </trkpt>
      <trkpt lat="45.59519" lon="-1.0397">
        <ele>-5.19</ele>
        <time>2017-03-18T16:37:56Z</time>
      </trkpt>
      <trkpt lat="45.59522" lon="-1.03978">
        <ele>-4.99</ele>
        <time>2017-03-18T16:38:00Z</time>
      </trkpt>
      <trkpt lat="45.59527" lon="-1.03989">
        <ele>-5.11</ele>
        <time>2017-03-18T16:38:06Z</time>
      </trkpt>
      <trkpt lat="45.59536" lon="-1.04005">
        <ele>-5.12</ele>
        <time>2017-03-18T16:38:16Z</time>
      </trkpt>
      <trkpt lat="45.59541" lon="-1.04007">
        <ele>-5.19</ele>
        <time>2017-03-18T16:38:20Z</time>
      </trkpt>
      <trkpt lat="45.59547" lon="-1.04009">
        <ele>-5.16</ele>
        <time>2017-03-18T16:38:24Z</time>
      </trkpt>
      <trkpt lat="45.59569" lon="-1.04013">
        <ele>-5.49</ele>
        <time>2017-03-18T16:38:37Z</time>
      </trkpt>
      <trkpt lat="45.59582" lon="-1.04015">
        <ele>-5.36</ele>
        <time>2017-03-18T16:38:45Z</time>
      </trkpt>
      <trkpt lat="45.59595" lon="-1.04016">
        <ele>-5.51</ele>
        <time>2017-03-18T16:38:53Z</time>
      </trkpt>
      <trkpt lat="45.59619" lon="-1.04017">
        <ele>-4.15</ele>
        <time>2017-03-18T16:39:08Z</time>
      </trkpt>
      <trkpt lat="45.59622" lon="-1.04018">
        <ele>-4.53</ele>
        <time>2017-03-18T16:39:10Z</time>
      </trkpt>
      <trkpt lat="45.59634" lon="-1.04022">
        <ele>-4.7</ele>
        <time>2017-03-18T16:39:18Z</time>
      </trkpt>
      <trkpt lat="45.59651" lon="-1.04029">
        <ele>-5.52</ele>
        <time>2017-03-18T16:39:27Z</time>
      </trkpt>
      <trkpt lat="45.59668" lon="-1.04031">
        <ele>-4.78</ele>
        <time>2017-03-18T16:39:36Z</time>
      </trkpt>
      <trkpt lat="45.59696" lon="-1.04038">
        <ele>-4.92</ele>
        <time>2017-03-18T16:39:52Z</time>
      </trkpt>
      <trkpt lat="45.59699" lon="-1.0404">
        <ele>-4.8</ele>
        <time>2017-03-18T16:39:54Z</time>
      </trkpt>
      <trkpt lat="45.59707" lon="-1.04043">
        <ele>-4.79</ele>
        <time>2017-03-18T16:39:59Z</time>
      </trkpt>
      <trkpt lat="45.59726" lon="-1.04045">
        <ele>-5.81</ele>
        <time>2017-03-18T16:40:11Z</time>
      </trkpt>
      <trkpt lat="45.59732" lon="-1.04043">
        <ele>-5.36</ele>
        <time>2017-03-18T16:40:14Z</time>
      </trkpt>
      <trkpt lat="45.59737" lon="-1.04041">
        <ele>-5.28</ele>
        <time>2017-03-18T16:40:17Z</time>
      </trkpt>
      <trkpt lat="45.59742" lon="-1.04039">
        <ele>-5.52</ele>
        <time>2017-03-18T16:40:20Z</time>
      </trkpt>
      <trkpt lat="45.59748" lon="-1.04036">
        <ele>-5.31</ele>
        <time>2017-03-18T16:40:24Z</time>
      </trkpt>
      <trkpt lat="45.59754" lon="-1.04032">
        <ele>-5.08</ele>
        <time>2017-03-18T16:40:28Z</time>
      </trkpt>
      <trkpt lat="45.59768" lon="-1.04021">
        <ele>-4.87</ele>
        <time>2017-03-18T16:40:38Z</time>
      </trkpt>
      <trkpt lat="45.59781" lon="-1.04015">
        <ele>-5.03</ele>
        <time>2017-03-18T16:40:46Z</time>
      </trkpt>
      <trkpt lat="45.59789" lon="-1.04012">
        <ele>-4.71</ele>
        <time>2017-03-18T16:40:50Z</time>
      </trkpt>
      <trkpt lat="45.59796" lon="-1.04008">
        <ele>-5.25</ele>
        <time>2017-03-18T16:40:54Z</time>
      </trkpt>
      <trkpt lat="45.59803" lon="-1.04001">
        <ele>-5.37</ele>
        <time>2017-03-18T16:40:59Z</time>
      </trkpt>
      <trkpt lat="45.59813" lon="-1.03993">
        <ele>-4.76</ele>
        <time>2017-03-18T16:41:05Z</time>
      </trkpt>
      <trkpt lat="45.59821" lon="-1.03988">
        <ele>-4.99</ele>
        <time>2017-03-18T16:41:11Z</time>
      </trkpt>
      <trkpt lat="45.59842" lon="-1.03979">
        <ele>-5</ele>
        <time>2017-03-18T16:41:24Z</time>
      </trkpt>
      <trkpt lat="45.59856" lon="-1.03976">
        <ele>-4.95</ele>
        <time>2017-03-18T16:41:32Z</time>
      </trkpt>
      <trkpt lat="45.59865" lon="-1.03974">
        <ele>-5.68</ele>
        <time>2017-03-18T16:41:37Z</time>
      </trkpt>
      <trkpt lat="45.59872" lon="-1.03972">
        <ele>-5.73</ele>
        <time>2017-03-18T16:41:41Z</time>
      </trkpt>
      <trkpt lat="45.59887" lon="-1.03969">
        <ele>-4.75</ele>
        <time>2017-03-18T16:41:49Z</time>
      </trkpt>
      <trkpt lat="45.59894" lon="-1.03968">
        <ele>-5.8</ele>
        <time>2017-03-18T16:41:53Z</time>
      </trkpt>
      <trkpt lat="45.59923" lon="-1.03961">
        <ele>-5.58</ele>
        <time>2017-03-18T16:42:08Z</time>
      </trkpt>
      <trkpt lat="45.59932" lon="-1.0396">
        <ele>-6.36</ele>
        <time>2017-03-18T16:42:13Z</time>
      </trkpt>
      <trkpt lat="45.59935" lon="-1.03959">
        <ele>-6.85</ele>
        <time>2017-03-18T16:42:15Z</time>
      </trkpt>
      <trkpt lat="45.5995" lon="-1.03951">
        <ele>-6.24</ele>
        <time>2017-03-18T16:42:23Z</time>
      </trkpt>
      <trkpt lat="45.59954" lon="-1.0395">
        <ele>-6.54</ele>
        <time>2017-03-18T16:42:25Z</time>
      </trkpt>
      <trkpt lat="45.59962" lon="-1.03946">
        <ele>-5.74</ele>
        <time>2017-03-18T16:42:30Z</time>
      </trkpt>
      <trkpt lat="45.59991" lon="-1.03932">
        <ele>-6.17</ele>
        <time>2017-03-18T16:42:46Z</time>
      </trkpt>
      <trkpt lat="45.59998" lon="-1.03927">
        <ele>-5.75</ele>
        <time>2017-03-18T16:42:50Z</time>
      </trkpt>
      <trkpt lat="45.60004" lon="-1.03921">
        <ele>-5.65</ele>
        <time>2017-03-18T16:42:54Z</time>
      </trkpt>
      <trkpt lat="45.60024" lon="-1.03905">
        <ele>-5.25</ele>
        <time>2017-03-18T16:43:07Z</time>
      </trkpt>
      <trkpt lat="45.60035" lon="-1.03899">
        <ele>-5.42</ele>
        <time>2017-03-18T16:43:14Z</time>
      </trkpt>
      <trkpt lat="45.60051" lon="-1.03891">
        <ele>-5.54</ele>
        <time>2017-03-18T16:43:23Z</time>
      </trkpt>
      <trkpt lat="45.60067" lon="-1.03883">
        <ele>-5.71</ele>
        <time>2017-03-18T16:43:30Z</time>
      </trkpt>
      <trkpt lat="45.6008" lon="-1.03878">
        <ele>-5.66</ele>
        <time>2017-03-18T16:43:36Z</time>
      </trkpt>
      <trkpt lat="45.60112" lon="-1.03865">
        <ele>-5.61</ele>
        <time>2017-03-18T16:43:51Z</time>
      </trkpt>
      <trkpt lat="45.60145" lon="-1.0385">
        <ele>-5.47</ele>
        <time>2017-03-18T16:44:06Z</time>
      </trkpt>
      <trkpt lat="45.60154" lon="-1.03847">
        <ele>-5.38</ele>
        <time>2017-03-18T16:44:10Z</time>
      </trkpt>
      <trkpt lat="45.60169" lon="-1.03838">
        <ele>-5.25</ele>
        <time>2017-03-18T16:44:17Z</time>
      </trkpt>
      <trkpt lat="45.60177" lon="-1.03834">
        <ele>-5.09</ele>
        <time>2017-03-18T16:44:21Z</time>
      </trkpt>
      <trkpt lat="45.60199" lon="-1.03829">
        <ele>-4.88</ele>
        <time>2017-03-18T16:44:31Z</time>
      </trkpt>
      <trkpt lat="45.60208" lon="-1.03828">
        <ele>-4.9</ele>
        <time>2017-03-18T16:44:35Z</time>
      </trkpt>
      <trkpt lat="45.60222" lon="-1.03828">
        <ele>-4.3</ele>
        <time>2017-03-18T16:44:41Z</time>
      </trkpt>
      <trkpt lat="45.60261" lon="-1.03811">
        <ele>-4.76</ele>
        <time>2017-03-18T16:44:58Z</time>
      </trkpt>
      <trkpt lat="45.60291" lon="-1.03797">
        <ele>-4.65</ele>
        <time>2017-03-18T16:45:11Z</time>
      </trkpt>
      <trkpt lat="45.60299" lon="-1.03791">
        <ele>-4.93</ele>
        <time>2017-03-18T16:45:15Z</time>
      </trkpt>
      <trkpt lat="45.60306" lon="-1.03786">
        <ele>-5.21</ele>
        <time>2017-03-18T16:45:18Z</time>
      </trkpt>
      <trkpt lat="45.60315" lon="-1.0378">
        <ele>-4.94</ele>
        <time>2017-03-18T16:45:22Z</time>
      </trkpt>
      <trkpt lat="45.60327" lon="-1.03771">
        <ele>-5.27</ele>
        <time>2017-03-18T16:45:28Z</time>
      </trkpt>
      <trkpt lat="45.60336" lon="-1.03766">
        <ele>-4.63</ele>
        <time>2017-03-18T16:45:32Z</time>
      </trkpt>
      <trkpt lat="45.60368" lon="-1.03743">
        <ele>-4.48</ele>
        <time>2017-03-18T16:45:48Z</time>
      </trkpt>
      <trkpt lat="45.6037" lon="-1.03741">
        <ele>-4.46</ele>
        <time>2017-03-18T16:45:49Z</time>
      </trkpt>
      <trkpt lat="45.6038" lon="-1.03734">
        <ele>-4.88</ele>
        <time>2017-03-18T16:45:55Z</time>
      </trkpt>
      <trkpt lat="45.6039" lon="-1.03731">
        <ele>-4.97</ele>
        <time>2017-03-18T16:46:00Z</time>
      </trkpt>
      <trkpt lat="45.6041" lon="-1.03728">
        <ele>-5</ele>
        <time>2017-03-18T16:46:09Z</time>
      </trkpt>
      <trkpt lat="45.60416" lon="-1.03728">
        <ele>-4.49</ele>
        <time>2017-03-18T16:46:12Z</time>
      </trkpt>
      <trkpt lat="45.60427" lon="-1.03728">
        <ele>-4.07</ele>
        <time>2017-03-18T16:46:18Z</time>
      </trkpt>
      <trkpt lat="45.60453" lon="-1.03718">
        <ele>-4.53</ele>
        <time>2017-03-18T16:46:31Z</time>
      </trkpt>
      <trkpt lat="45.60459" lon="-1.03715">
        <ele>-4.62</ele>
        <time>2017-03-18T16:46:34Z</time>
      </trkpt>
      <trkpt lat="45.60471" lon="-1.0371">
        <ele>-4.42</ele>
        <time>2017-03-18T16:46:40Z</time>
      </trkpt>
      <trkpt lat="45.60493" lon="-1.037">
        <ele>-4.72</ele>
        <time>2017-03-18T16:46:51Z</time>
      </trkpt>
      <trkpt lat="45.60502" lon="-1.03693">
        <ele>-4.8</ele>
        <time>2017-03-18T16:46:55Z</time>
      </trkpt>
      <trkpt lat="45.60532" lon="-1.03666">
        <ele>-4.53</ele>
        <time>2017-03-18T16:47:12Z</time>
      </trkpt>
      <trkpt lat="45.60557" lon="-1.0365">
        <ele>-4.62</ele>
        <time>2017-03-18T16:47:25Z</time>
      </trkpt>
      <trkpt lat="45.60562" lon="-1.03645">
        <ele>-4.97</ele>
        <time>2017-03-18T16:47:28Z</time>
      </trkpt>
      <trkpt lat="45.60583" lon="-1.03628">
        <ele>-4.12</ele>
        <time>2017-03-18T16:47:39Z</time>
      </trkpt>
      <trkpt lat="45.60605" lon="-1.03607">
        <ele>-4.6</ele>
        <time>2017-03-18T16:47:51Z</time>
      </trkpt>
      <trkpt lat="45.60623" lon="-1.03592">
        <ele>-4.89</ele>
        <time>2017-03-18T16:48:01Z</time>
      </trkpt>
      <trkpt lat="45.60647" lon="-1.03566">
        <ele>-4.42</ele>
        <time>2017-03-18T16:48:16Z</time>
      </trkpt>
      <trkpt lat="45.60668" lon="-1.03544">
        <ele>-4.48</ele>
        <time>2017-03-18T16:48:28Z</time>
      </trkpt>
      <trkpt lat="45.6069" lon="-1.03517">
        <ele>-4.54</ele>
        <time>2017-03-18T16:48:41Z</time>
      </trkpt>
      <trkpt lat="45.60699" lon="-1.03506">
        <ele>-4.26</ele>
        <time>2017-03-18T16:48:47Z</time>
      </trkpt>
      <trkpt lat="45.60707" lon="-1.03499">
        <ele>-4.59</ele>
        <time>2017-03-18T16:48:52Z</time>
      </trkpt>
      <trkpt lat="45.60718" lon="-1.03486">
        <ele>-4.18</ele>
        <time>2017-03-18T16:48:59Z</time>
      </trkpt>
      <trkpt lat="45.60722" lon="-1.03482">
        <ele>-4.06</ele>
        <time>2017-03-18T16:49:01Z</time>
      </trkpt>
      <trkpt lat="45.60741" lon="-1.03463">
        <ele>-4.25</ele>
        <time>2017-03-18T16:49:13Z</time>
      </trkpt>
      <trkpt lat="45.60743" lon="-1.03461">
        <ele>-4.27</ele>
        <time>2017-03-18T16:49:14Z</time>
      </trkpt>
      <trkpt lat="45.60752" lon="-1.03451">
        <ele>-4.5</ele>
        <time>2017-03-18T16:49:20Z</time>
      </trkpt>
      <trkpt lat="45.60758" lon="-1.03444">
        <ele>-4.54</ele>
        <time>2017-03-18T16:49:24Z</time>
      </trkpt>
      <trkpt lat="45.60766" lon="-1.03434">
        <ele>-4.14</ele>
        <time>2017-03-18T16:49:29Z</time>
      </trkpt>
      <trkpt lat="45.60782" lon="-1.03417">
        <ele>-4.51</ele>
        <time>2017-03-18T16:49:40Z</time>
      </trkpt>
      <trkpt lat="45.6079" lon="-1.03409">
        <ele>-3.94</ele>
        <time>2017-03-18T16:49:45Z</time>
      </trkpt>
      <trkpt lat="45.60802" lon="-1.03403">
        <ele>-4.1</ele>
        <time>2017-03-18T16:49:51Z</time>
      </trkpt>
      <trkpt lat="45.60812" lon="-1.034">
        <ele>-4.07</ele>
        <time>2017-03-18T16:49:56Z</time>
      </trkpt>
      <trkpt lat="45.60823" lon="-1.03396">
        <ele>-3.92</ele>
        <time>2017-03-18T16:50:02Z</time>
      </trkpt>
      <trkpt lat="45.60844" lon="-1.03387">
        <ele>-4.02</ele>
        <time>2017-03-18T16:50:12Z</time>
      </trkpt>
      <trkpt lat="45.60875" lon="-1.0337">
        <ele>-4.15</ele>
        <time>2017-03-18T16:50:27Z</time>
      </trkpt>
      <trkpt lat="45.60907" lon="-1.03354">
        <ele>-4.12</ele>
        <time>2017-03-18T16:50:43Z</time>
      </trkpt>
      <trkpt lat="45.60916" lon="-1.03349">
        <ele>-4.16</ele>
        <time>2017-03-18T16:50:48Z</time>
      </trkpt>
      <trkpt lat="45.60921" lon="-1.03347">
        <ele>-4.08</ele>
        <time>2017-03-18T16:50:51Z</time>
      </trkpt>
      <trkpt lat="45.60931" lon="-1.03343">
        <ele>-4.25</ele>
        <time>2017-03-18T16:50:57Z</time>
      </trkpt>
      <trkpt lat="45.60946" lon="-1.03337">
        <ele>-4.22</ele>
        <time>2017-03-18T16:51:05Z</time>
      </trkpt>
      <trkpt lat="45.6096" lon="-1.03331">
        <ele>-4.49</ele>
        <time>2017-03-18T16:51:12Z</time>
      </trkpt>
      <trkpt lat="45.60974" lon="-1.03322">
        <ele>-4.4</ele>
        <time>2017-03-18T16:51:19Z</time>
      </trkpt>
      <trkpt lat="45.61" lon="-1.03299">
        <ele>-4.31</ele>
        <time>2017-03-18T16:51:34Z</time>
      </trkpt>
      <trkpt lat="45.61012" lon="-1.03291">
        <ele>-3.96</ele>
        <time>2017-03-18T16:51:40Z</time>
      </trkpt>
      <trkpt lat="45.61027" lon="-1.03278">
        <ele>-4.21</ele>
        <time>2017-03-18T16:51:48Z</time>
      </trkpt>
      <trkpt lat="45.61034" lon="-1.03271">
        <ele>-4.44</ele>
        <time>2017-03-18T16:51:52Z</time>
      </trkpt>
      <trkpt lat="45.61064" lon="-1.03252">
        <ele>-4.54</ele>
        <time>2017-03-18T16:52:07Z</time>
      </trkpt>
      <trkpt lat="45.61089" lon="-1.03243">
        <ele>-4.49</ele>
        <time>2017-03-18T16:52:19Z</time>
      </trkpt>
      <trkpt lat="45.61119" lon="-1.03224">
        <ele>-4.25</ele>
        <time>2017-03-18T16:52:33Z</time>
      </trkpt>
      <trkpt lat="45.61143" lon="-1.0321">
        <ele>-4.32</ele>
        <time>2017-03-18T16:52:44Z</time>
      </trkpt>
      <trkpt lat="45.61151" lon="-1.03202">
        <ele>-4.37</ele>
        <time>2017-03-18T16:52:48Z</time>
      </trkpt>
      <trkpt lat="45.61156" lon="-1.03198">
        <ele>-4.46</ele>
        <time>2017-03-18T16:52:50Z</time>
      </trkpt>
      <trkpt lat="45.61164" lon="-1.03188">
        <ele>-4.82</ele>
        <time>2017-03-18T16:52:54Z</time>
      </trkpt>
      <trkpt lat="45.61194" lon="-1.03147">
        <ele>-5.21</ele>
        <time>2017-03-18T16:53:11Z</time>
      </trkpt>
      <trkpt lat="45.61202" lon="-1.03133">
        <ele>-5.42</ele>
        <time>2017-03-18T16:53:16Z</time>
      </trkpt>
      <trkpt lat="45.61207" lon="-1.03125">
        <ele>-5.02</ele>
        <time>2017-03-18T16:53:19Z</time>
      </trkpt>
      <trkpt lat="45.61219" lon="-1.03106">
        <ele>-4.39</ele>
        <time>2017-03-18T16:53:26Z</time>
      </trkpt>
      <trkpt lat="45.61223" lon="-1.03101">
        <ele>-4.64</ele>
        <time>2017-03-18T16:53:28Z</time>
      </trkpt>
      <trkpt lat="45.61241" lon="-1.03069">
        <ele>-4.41</ele>
        <time>2017-03-18T16:53:39Z</time>
      </trkpt>
      <trkpt lat="45.61269" lon="-1.03023">
        <ele>-4.45</ele>
        <time>2017-03-18T16:53:56Z</time>
      </trkpt>
      <trkpt lat="45.61276" lon="-1.03008">
        <ele>-4.28</ele>
        <time>2017-03-18T16:54:01Z</time>
      </trkpt>
      <trkpt lat="45.61282" lon="-1.02996">
        <ele>-4.22</ele>
        <time>2017-03-18T16:54:05Z</time>
      </trkpt>
      <trkpt lat="45.61291" lon="-1.0298">
        <ele>-4.72</ele>
        <time>2017-03-18T16:54:10Z</time>
      </trkpt>
      <trkpt lat="45.61319" lon="-1.02928">
        <ele>-4.71</ele>
        <time>2017-03-18T16:54:27Z</time>
      </trkpt>
      <trkpt lat="45.61339" lon="-1.02887">
        <ele>-4.7</ele>
        <time>2017-03-18T16:54:42Z</time>
      </trkpt>
      <trkpt lat="45.61364" lon="-1.02843">
        <ele>-4.69</ele>
        <time>2017-03-18T16:54:59Z</time>
      </trkpt>
      <trkpt lat="45.61389" lon="-1.02797">
        <ele>-4.29</ele>
        <time>2017-03-18T16:55:16Z</time>
      </trkpt>
      <trkpt lat="45.61393" lon="-1.02788">
        <ele>-4.38</ele>
        <time>2017-03-18T16:55:19Z</time>
      </trkpt>
      <trkpt lat="45.61399" lon="-1.02779">
        <ele>-4.29</ele>
        <time>2017-03-18T16:55:23Z</time>
      </trkpt>
      <trkpt lat="45.61407" lon="-1.02765">
        <ele>-4.39</ele>
        <time>2017-03-18T16:55:28Z</time>
      </trkpt>
      <trkpt lat="45.61417" lon="-1.02751">
        <ele>-4.34</ele>
        <time>2017-03-18T16:55:34Z</time>
      </trkpt>
      <trkpt lat="45.61447" lon="-1.02712">
        <ele>-4.44</ele>
        <time>2017-03-18T16:55:50Z</time>
      </trkpt>
      <trkpt lat="45.61467" lon="-1.02691">
        <ele>-4.15</ele>
        <time>2017-03-18T16:56:00Z</time>
      </trkpt>
      <trkpt lat="45.61476" lon="-1.02682">
        <ele>-4.71</ele>
        <time>2017-03-18T16:56:04Z</time>
      </trkpt>
      <trkpt lat="45.61482" lon="-1.02676">
        <ele>-4.77</ele>
        <time>2017-03-18T16:56:07Z</time>
      </trkpt>
      <trkpt lat="45.61489" lon="-1.0267">
        <ele>-4.9</ele>
        <time>2017-03-18T16:56:10Z</time>
      </trkpt>
      <trkpt lat="45.61523" lon="-1.02643">
        <ele>-4.67</ele>
        <time>2017-03-18T16:56:24Z</time>
      </trkpt>
      <trkpt lat="45.61533" lon="-1.02633">
        <ele>-4.54</ele>
        <time>2017-03-18T16:56:28Z</time>
      </trkpt>
      <trkpt lat="45.61551" lon="-1.02615">
        <ele>-4.77</ele>
        <time>2017-03-18T16:56:36Z</time>
      </trkpt>
      <trkpt lat="45.61558" lon="-1.02609">
        <ele>-4.86</ele>
        <time>2017-03-18T16:56:39Z</time>
      </trkpt>
      <trkpt lat="45.61587" lon="-1.02585">
        <ele>-4.6</ele>
        <time>2017-03-18T16:56:51Z</time>
      </trkpt>
      <trkpt lat="45.61598" lon="-1.02578">
        <ele>-4.72</ele>
        <time>2017-03-18T16:56:56Z</time>
      </trkpt>
      <trkpt lat="45.6164" lon="-1.02552">
        <ele>-4.58</ele>
        <time>2017-03-18T16:57:14Z</time>
      </trkpt>
      <trkpt lat="45.61669" lon="-1.02537">
        <ele>-4.79</ele>
        <time>2017-03-18T16:57:26Z</time>
      </trkpt>
      <trkpt lat="45.61684" lon="-1.02531">
        <ele>-4.65</ele>
        <time>2017-03-18T16:57:32Z</time>
      </trkpt>
      <trkpt lat="45.61718" lon="-1.02519">
        <ele>-4.39</ele>
        <time>2017-03-18T16:57:45Z</time>
      </trkpt>
      <trkpt lat="45.61756" lon="-1.02505">
        <ele>-4.48</ele>
        <time>2017-03-18T16:58:00Z</time>
      </trkpt>
      <trkpt lat="45.61779" lon="-1.02498">
        <ele>-4.59</ele>
        <time>2017-03-18T16:58:09Z</time>
      </trkpt>
      <trkpt lat="45.61803" lon="-1.02501">
        <ele>-5</ele>
        <time>2017-03-18T16:58:19Z</time>
      </trkpt>
      <trkpt lat="45.61811" lon="-1.02502">
        <ele>-4.48</ele>
        <time>2017-03-18T16:58:22Z</time>
      </trkpt>
      <trkpt lat="45.61835" lon="-1.02506">
        <ele>-4.27</ele>
        <time>2017-03-18T16:58:31Z</time>
      </trkpt>
      <trkpt lat="45.61862" lon="-1.02507">
        <ele>-3.99</ele>
        <time>2017-03-18T16:58:42Z</time>
      </trkpt>
      <trkpt lat="45.61871" lon="-1.0251">
        <ele>-4.38</ele>
        <time>2017-03-18T16:58:46Z</time>
      </trkpt>
      <trkpt lat="45.61874" lon="-1.02511">
        <ele>-4.57</ele>
        <time>2017-03-18T16:58:48Z</time>
      </trkpt>
      <trkpt lat="45.6188" lon="-1.02515">
        <ele>-4.77</ele>
        <time>2017-03-18T16:58:52Z</time>
      </trkpt>
      <trkpt lat="45.61885" lon="-1.0252">
        <ele>-4.69</ele>
        <time>2017-03-18T16:58:57Z</time>
      </trkpt>
      <trkpt lat="45.61899" lon="-1.02531">
        <ele>-4.45</ele>
        <time>2017-03-18T16:59:09Z</time>
      </trkpt>
      <trkpt lat="45.61902" lon="-1.02535">
        <ele>-4.65</ele>
        <time>2017-03-18T16:59:12Z</time>
      </trkpt>
      <trkpt lat="45.61912" lon="-1.02544">
        <ele>-4.57</ele>
        <time>2017-03-18T16:59:20Z</time>
      </trkpt>
      <trkpt lat="45.61922" lon="-1.02553">
        <ele>-4.69</ele>
        <time>2017-03-18T16:59:29Z</time>
      </trkpt>
      <trkpt lat="45.61931" lon="-1.02565">
        <ele>-4.6</ele>
        <time>2017-03-18T16:59:39Z</time>
      </trkpt>
      <trkpt lat="45.61931" lon="-1.02569">
        <ele>-4.5</ele>
        <time>2017-03-18T16:59:42Z</time>
      </trkpt>
      <trkpt lat="45.61926" lon="-1.02574">
        <ele>-4.54</ele>
        <time>2017-03-18T16:59:47Z</time>
      </trkpt>
      <trkpt lat="45.61922" lon="-1.02576">
        <ele>-4.51</ele>
        <time>2017-03-18T16:59:49Z</time>
      </trkpt>
      <trkpt lat="45.61916" lon="-1.02586">
        <ele>-4.52</ele>
        <time>2017-03-18T16:59:54Z</time>
      </trkpt>
      <trkpt lat="45.61913" lon="-1.02596">
        <ele>-4.41</ele>
        <time>2017-03-18T16:59:58Z</time>
      </trkpt>
      <trkpt lat="45.61907" lon="-1.02621">
        <ele>-4.53</ele>
        <time>2017-03-18T17:00:10Z</time>
      </trkpt>
      <trkpt lat="45.61896" lon="-1.02642">
        <ele>-4.74</ele>
        <time>2017-03-18T17:00:25Z</time>
      </trkpt>
      <trkpt lat="45.61893" lon="-1.02646">
        <ele>-4.58</ele>
        <time>2017-03-18T17:00:28Z</time>
      </trkpt>
      <trkpt lat="45.61895" lon="-1.02658">
        <ele>-4.93</ele>
        <time>2017-03-18T17:00:43Z</time>
      </trkpt>
      <trkpt lat="45.61901" lon="-1.02662">
        <ele>-4.62</ele>
        <time>2017-03-18T17:00:49Z</time>
      </trkpt>
      <trkpt lat="45.61912" lon="-1.02675">
        <ele>-4.47</ele>
        <time>2017-03-18T17:01:01Z</time>
      </trkpt>
      <trkpt lat="45.61922" lon="-1.02689">
        <ele>-4.91</ele>
        <time>2017-03-18T17:01:14Z</time>
      </trkpt>
      <trkpt lat="45.61929" lon="-1.02694">
        <ele>-4.66</ele>
        <time>2017-03-18T17:01:21Z</time>
      </trkpt>
      <trkpt lat="45.61934" lon="-1.02701">
        <ele>-4.67</ele>
        <time>2017-03-18T17:01:27Z</time>
      </trkpt>
      <trkpt lat="45.61934" lon="-1.02706">
        <ele>-4.49</ele>
        <time>2017-03-18T17:01:30Z</time>
      </trkpt>
      <trkpt lat="45.61931" lon="-1.0271">
        <ele>-4.58</ele>
        <time>2017-03-18T17:01:34Z</time>
      </trkpt>
      <trkpt lat="45.61919" lon="-1.02727">
        <ele>-4.69</ele>
        <time>2017-03-18T17:01:44Z</time>
      </trkpt>
      <trkpt lat="45.61911" lon="-1.02741">
        <ele>-4.63</ele>
        <time>2017-03-18T17:01:52Z</time>
      </trkpt>
      <trkpt lat="45.61911" lon="-1.02747">
        <ele>-5.09</ele>
        <time>2017-03-18T17:01:56Z</time>
      </trkpt>
      <trkpt lat="45.61911" lon="-1.0275">
        <ele>-4.76</ele>
        <time>2017-03-18T17:01:58Z</time>
      </trkpt>
      <trkpt lat="45.61916" lon="-1.02753">
        <ele>-4.65</ele>
        <time>2017-03-18T17:02:02Z</time>
      </trkpt>
      <trkpt lat="45.61924" lon="-1.02756">
        <ele>-4.5</ele>
        <time>2017-03-18T17:02:09Z</time>
      </trkpt>
      <trkpt lat="45.61929" lon="-1.0276">
        <ele>-4.43</ele>
        <time>2017-03-18T17:02:13Z</time>
      </trkpt>
      <trkpt lat="45.61945" lon="-1.02779">
        <ele>-4.37</ele>
        <time>2017-03-18T17:02:30Z</time>
      </trkpt>
      <trkpt lat="45.61949" lon="-1.0279">
        <ele>-4.37</ele>
        <time>2017-03-18T17:02:43Z</time>
      </trkpt>
      <trkpt lat="45.61949" lon="-1.028">
        <ele>-3.88</ele>
        <time>2017-03-18T17:02:59Z</time>
      </trkpt>
      <trkpt lat="45.61948" lon="-1.02804">
        <ele>-4.29</ele>
        <time>2017-03-18T17:03:12Z</time>
      </trkpt>
      <trkpt lat="45.61948" lon="-1.02805">
        <ele>-4.37</ele>
        <time>2017-03-18T17:03:32Z</time>
      </trkpt>
      <trkpt lat="45.61949" lon="-1.02805">
        <ele>-3.89</ele>
        <time>2017-03-18T17:03:53Z</time>
      </trkpt>
      <trkpt lat="45.61951" lon="-1.02807">
        <ele>-3.82</ele>
        <time>2017-03-18T17:04:12Z</time>
      </trkpt>
      <trkpt lat="45.6195" lon="-1.02813">
        <ele>-3.47</ele>
        <time>2017-03-18T17:04:28Z</time>
      </trkpt>
      <trkpt lat="45.61951" lon="-1.02818">
        <ele>-3.69</ele>
        <time>2017-03-18T17:04:45Z</time>
      </trkpt>
      <trkpt lat="45.61952" lon="-1.0282">
        <ele>-3.56</ele>
        <time>2017-03-18T17:04:59Z</time>
      </trkpt>
      <trkpt lat="45.61951" lon="-1.02825">
        <ele>-3.82</ele>
        <time>2017-03-18T17:05:16Z</time>
      </trkpt>
      <trkpt lat="45.61951" lon="-1.02826">
        <ele>-3.76</ele>
        <time>2017-03-18T17:05:27Z</time>
      </trkpt>
      <trkpt lat="45.61953" lon="-1.02827">
        <ele>-3.86</ele>
        <time>2017-03-18T17:05:41Z</time>
      </trkpt>
      <trkpt lat="45.61954" lon="-1.02827">
        <ele>-4</ele>
        <time>2017-03-18T17:06:03Z</time>
      </trkpt>
      <trkpt lat="45.61953" lon="-1.02824">
        <ele>-3.99</ele>
        <time>2017-03-18T17:06:06Z</time>
      </trkpt>
    </trkseg>
  </trk>
</gpx>